</
# Wetter Temperatur Luftdruck Luftfeuchtigkeit Sichtweite Windgeschwindigkeit Windrichtung Zeit
1 Clouds 20 1011 57 0 0.45 100 12:40 14.10.2019
2 Clouds 20 1015 11 0 3.92 177.165 12:19 14.10.2019
3 Clouds 18 1018 77 10000 1 0 11:46 14.10.2019
4 Clouds 18 1018 77 10000 1 0 11:26 14.10.2019
5 Clouds 18 1018 77 10000 1 0 11:26 14.10.2019
6 Clouds 17 1018 87 10000 3.92 177.165 10:58 14.10.2019
7 Clouds 17 1018 87 10000 3.92 177.165 10:58 14.10.2019
8 Clouds 17 1012 57 0 0.45 207 10:38 14.10.2019
9 Clouds 16 1016 12 0 0.89 155 10:20 14.10.2019
10 Clouds 14 1012 79 0 3.92 177.165 09:55 14.10.2019
11 Clouds 14 1017 29 0 3.92 177.165 09:36 14.10.2019
12 Clouds 12 1012 78 0 1.18 122.677 09:18 14.10.2019
13 Clouds 12 1012 81 0 1.18 122.677 08:43 14.10.2019
14 Clouds 12 1011 81 0 1.18 122.677 08:22 14.10.2019
15 Clouds 12 1017 39 0 1.34 158 07:42 14.10.2019
16 Clouds 13 1017 40 0 1.18 122.677 07:19 14.10.2019
17 Clouds 13 1017 38 0 1.18 122.677 06:38 14.10.2019
18 Clouds 13 1017 36 0 1.55 182.103 06:20 14.10.2019
19 Clouds 14 1017 35 0 1.55 182.103 05:46 14.10.2019
20 Clouds 14 1017 32 0 0.89 30 04:42 14.10.2019
21 Clouds 13 1017 34 0 1.55 182.103 03:27 14.10.2019
22 Clouds 13 1018 40 0 1.7 133.855 02:36 14.10.2019
23 Clouds 14 1018 41 0 1.71 143.665 01:22 14.10.2019
24 Clouds 14 1018 39 0 0.89 45 00:53 14.10.2019
25 Clouds 14 1018 39 0 0.89 45 00:53 14.10.2019
26 Clear 15 1014 71 0 0.89 142 00:19 14.10.2019
27 Clear 15 1018 35 0 1.98 147.93 23:44 13.10.2019
28 Clear 15 1018 32 0 1.34 77 23:20 13.10.2019
29 Clear 15 1018 33 0 1.98 147.93 22:58 13.10.2019
30 Clear 16 1018 34 0 1.98 147.93 22:40 13.10.2019
31 Clear 16 1018 31 0 1.98 147.93 22:21 13.10.2019
32 Clear 17 1018 29 0 1.98 147.93 21:58 13.10.2019
33 Clear 17 1018 27 0 1.98 147.93 21:37 13.10.2019
34 Clear 17 1015 74 0 1.71 160.833 21:18 13.10.2019
35 Clear 17 1015 74 0 1.71 160.833 20:57 13.10.2019
36 Clear 18 1015 73 0 1.61 165.981 20:38 13.10.2019
37 Clouds 18 1018 52 10000 2.6 230 20:19 13.10.2019
38 -273 0 0 0 0 0 19:57 13.10.2019
39 Clouds 19 1018 52 10000 2.6 230 19:57 13.10.2019
40 Clouds 20 1018 52 10000 2.6 230 19:39 13.10.2019
41 Clouds 21 1018 52 10000 2.6 230 19:20 13.10.2019
42 Clouds 21 1018 49 10000 3.1 220 18:55 13.10.2019
43 -273 0 0 0 0 0 18:54 13.10.2019
44 Clouds 22 1018 46 10000 4.6 210 18:36 13.10.2019
45 Clouds 21 1018 44 10000 4.6 210 18:18 13.10.2019
46 Clouds 22 1018 44 10000 4.6 220 17:42 13.10.2019
47 Clouds 22 1018 44 10000 4.6 220 17:42 13.10.2019
48 Clouds 22 1018 44 10000 4.6 220 17:42 13.10.2019
49 Clouds 22 1018 44 10000 4.6 220 17:24 13.10.2019
50 Clouds 22 1018 44 10000 4.6 220 17:24 13.10.2019
51 Clouds 23 1018 38 10000 5.1 210 16:45 13.10.2019
52 Clouds 24 1018 38 10000 5.7 200 16:20 13.10.2019
53 Clouds 24 1018 38 10000 5.7 200 15:59 13.10.2019
54 Clouds 24 1018 38 10000 5.7 200 15:59 13.10.2019
55 Clouds 24 1019 38 10000 4.1 200 15:39 13.10.2019
56 Clouds 24 1019 38 10000 4.1 200 15:21 13.10.2019
57 Clouds 23 1019 44 10000 3.1 200 14:59 13.10.2019
58 Clouds 23 1020 46 10000 1.5 0 14:40 13.10.2019
59 Clouds 23 1020 46 10000 1.5 0 14:22 13.10.2019
60 Clouds 22 1020 46 10000 1 0 13:58 13.10.2019
61 Clouds 22 1021 52 10000 1.5 0 13:38 13.10.2019
62 Clouds 22 1021 52 10000 1.5 0 13:20 13.10.2019
63 Clouds 21 1021 60 10000 1 0 12:56 13.10.2019
64 Clouds 21 1021 63 10000 1 0 12:38 13.10.2019
65 Clouds 20 1021 63 10000 1 0 12:18 13.10.2019
66 Clouds 20 1021 72 10000 2.1 180 11:55 13.10.2019
67 Clouds 20 1021 77 10000 1 0 11:37 13.10.2019
68 Clear 20 1019 8 0 2.39 178.896 11:18 13.10.2019
69 Clear 20 1019 8 0 2.39 178.896 11:18 13.10.2019
70 Clear 17 1016 73 0 2.39 178.896 10:41 13.10.2019
71 Clear 16 1016 78 0 2.39 178.896 10:41 13.10.2019
72 Clear 16 1020 12 0 2.39 178.896 10:23 13.10.2019
73 Clear 15 1019 27 0 0.89 163 09:41 13.10.2019
74 Clear 14 1019 43 0 1.64 118.664 09:21 13.10.2019
75 Clear 13 1016 84 0 1.61 114.609 08:58 13.10.2019
76 Clear 13 1019 39 0 1.61 114.609 08:38 13.10.2019
77 Clear 13 1016 87 0 1.61 114.609 08:19 13.10.2019
78 Clear 13 1016 92 0 1.61 114.609 07:46 13.10.2019
79 Clear 13 1015 91 0 1.61 114.609 07:21 13.10.2019
80 Clear 13 1019 46 0 1.61 114.609 06:41 13.10.2019
81 Clear 13 1019 46 0 1.61 114.609 06:41 13.10.2019
82 Clear 12 1015 84 0 1.49 109.802 05:46 13.10.2019
83 Clear 13 1015 84 0 1.49 109.802 04:46 13.10.2019
84 Clear 13 1015 83 0 1.49 109.802 03:51 13.10.2019
85 Clear 14 1016 83 0 1.3 119.996 02:41 13.10.2019
86 Clear 14 1016 81 0 1.3 119.996 01:53 13.10.2019
87 Clear 14 1020 37 0 1.37 123.376 01:26 13.10.2019
88 Clear 14 1017 81 0 1.37 123.376 01:26 13.10.2019
89 Clear 14 1020 36 0 1.37 123.376 00:46 13.10.2019
90 Clear 14 1016 69 0 1.29 120.054 00:21 13.10.2019
91 Clear 15 1016 72 0 1.34 80 23:55 12.10.2019
92 Clear 15 1020 33 0 1.29 120.054 23:36 12.10.2019
93 Clear 15 1016 68 0 0.89 160 23:18 12.10.2019
94 Clear 15 1020 36 0 1.29 120.054 22:55 12.10.2019
95 Clear 15 1020 36 0 1.29 120.054 22:37 12.10.2019
96 Clear 15 1020 35 0 1.29 120.054 22:18 12.10.2019
97 Clear 15 1020 39 0 1.29 120.054 21:41 12.10.2019
98 Rain 16 1020 39 0 1.51 178.182 21:23 12.10.2019
99 Rain 17 1020 40 0 1.34 79 20:56 12.10.2019
100 Rain 17 1016 74 0 1.52 177.773 20:38 12.10.2019
101 Clouds 17 1020 53 10000 2.6 230 20:20 12.10.2019
102 Clouds 20 1020 53 10000 2.6 230 19:37 12.10.2019
103 Clouds 20 1020 53 10000 2.6 230 19:19 12.10.2019
104 Clouds 21 1020 53 10000 3.1 220 18:46 12.10.2019
105 Clouds 21 1020 53 10000 3.1 220 18:27 12.10.2019
106 Clouds 21 1020 53 10000 4.1 210 17:58 12.10.2019
107 Clouds 22 1020 49 10000 3.6 220 17:40 12.10.2019
108 Clouds 22 1020 47 10000 5.7 210 17:18 12.10.2019
109 Clouds 23 1020 47 10000 5.7 220 16:41 12.10.2019
110 Clouds 23 1020 47 10000 5.7 220 16:21 12.10.2019
111 Clouds 22 1020 47 10000 3.1 230 15:58 12.10.2019
112 Clouds 23 1021 49 10000 3.1 220 15:38 12.10.2019
113 Clouds 23 1022 53 10000 3.1 210 15:19 12.10.2019
114 Clouds 23 1022 53 10000 2.1 0 14:41 12.10.2019
115 Clouds 22 1022 53 10000 2.1 0 14:21 12.10.2019
116 Clouds 22 1022 53 10000 2.1 0 14:21 12.10.2019
117 Clouds 22 1023 56 10000 2.1 0 13:52 12.10.2019
118 Clouds 22 1023 63 10000 1 0 13:33 12.10.2019
119 Clouds 20 1023 68 10000 1 0 12:57 12.10.2019
120 Clouds 20 1024 67 10000 0.5 0 12:38 12.10.2019
121 Clouds 19 1024 67 10000 0.5 0 12:20 12.10.2019
122 Clouds 18 1024 77 10000 1 0 11:47 12.10.2019
123 Clouds 18 1024 77 10000 1 0 11:25 12.10.2019
124 Clouds 17 1018 80 0 2 188.146 10:59 12.10.2019
125 Clouds 17 1018 83 0 2 188.146 10:40 12.10.2019
126 Clouds 16 1018 83 0 2 188.146 10:21 12.10.2019
127 Clouds 15 1021 36 0 2 188.146 09:57 12.10.2019
128 Clouds 15 1020 34 0 2 188.146 09:38 12.10.2019
129 Clouds 15 1017 85 0 0.8 202.174 09:20 12.10.2019
130 Clouds 15 1017 85 0 0.8 202.174 09:20 12.10.2019
131 Clouds 14 1017 85 0 0.71 210.268 08:45 12.10.2019
132 Clouds 15 1020 34 0 0.71 210.268 08:25 12.10.2019
133 Clouds 14 1017 81 0 0.71 210.268 07:59 12.10.2019
134 Clouds 15 1017 81 0 0.71 210.268 07:31 12.10.2019
135 Clouds 14 1017 80 0 0.71 210.268 06:37 12.10.2019
136 Clouds 14 1017 79 0 0.58 145.292 05:44 12.10.2019
137 Clouds 14 1017 74 0 0.58 145.292 04:43 12.10.2019
138 Clouds 14 1017 74 0 0.58 145.292 03:56 12.10.2019
139 Clouds 14 1021 44 0 0.34 158.95 02:50 12.10.2019
140 Clouds 14 1022 46 0 0.21 182.171 01:35 12.10.2019
141 Clouds 14 1022 45 0 0.21 182.171 00:56 12.10.2019
142 Clouds 15 1022 45 0 0.21 182.171 00:38 12.10.2019
143 Clear 15 1022 41 0 0.48 97.36 23:55 11.10.2019
144 Clear 15 1022 40 0 0.48 97.36 23:36 11.10.2019
145 Clear 15 1022 40 0 0.48 97.36 23:18 11.10.2019
146 Clear 14 1022 36 0 0.48 97.36 22:38 11.10.2019
147 Clear 14 1022 35 0 0.48 97.36 22:19 11.10.2019
148 Clear 14 1022 33 0 0.48 97.36 21:43 11.10.2019
149 Clear 15 1018 64 0 1 203.659 21:22 11.10.2019
150 Clear 16 1022 28 0 0.86 196.119 20:57 11.10.2019
151 Clear 16 1018 60 0 0.86 196.119 20:39 11.10.2019
152 Clear 16 1018 59 0 0.86 196.119 20:20 11.10.2019
153 Clear 16 1018 59 0 0.86 196.119 20:20 11.10.2019
154 Clear 19 1020 49 10000 4.1 240 19:55 11.10.2019
155 Clear 19 1020 49 10000 4.1 240 19:37 11.10.2019
156 Clear 20 1020 46 10000 4.1 220 19:18 11.10.2019
157 Clear 20 1020 46 10000 4.1 220 19:18 11.10.2019
158 Clear 20 1020 49 10000 4.1 240 19:18 11.10.2019
159 Clear 20 1020 46 10000 4.1 220 19:18 11.10.2019
160 Clear 21 1020 46 10000 4.1 220 18:54 11.10.2019
161 Clear 22 1020 44 10000 5.1 220 18:36 11.10.2019
162 Clear 22 1020 41 10000 4.6 210 18:18 11.10.2019
163 Clear 23 1020 41 10000 4.6 210 17:55 11.10.2019
164 Clear 23 1020 41 10000 5.1 210 17:36 11.10.2019
165 Clear 23 1020 36 10000 4.1 200 17:18 11.10.2019
166 Clear 23 1020 36 10000 4.1 200 17:18 11.10.2019
167 Clear 23 1021 36 10000 3.1 220 16:40 11.10.2019
168 Clear 23 1021 36 10000 1.5 0 16:19 11.10.2019
169 Clear 23 1021 36 10000 1.5 0 15:58 11.10.2019
170 Clear 23 1022 35 10000 1.5 220 15:38 11.10.2019
171 Clear 23 1022 35 10000 1 0 15:18 11.10.2019
172 Clear 22 1023 42 10000 1.5 120 14:44 11.10.2019
173 Clear 22 1023 42 10000 1.5 120 14:25 11.10.2019
174 Clear 21 1024 45 10000 1 0 13:47 11.10.2019
175 Clear 20 1024 51 10000 1 0 13:27 11.10.2019
176 Clear 19 1024 51 10000 1 0 12:58 11.10.2019
177 Clear 19 1024 51 10000 1 0 12:58 11.10.2019
178 Clear 18 1025 54 10000 1.5 130 12:40 11.10.2019
179 Clear 18 1025 54 10000 1.5 130 12:21 11.10.2019
180 Clear 17 1025 58 10000 1 0 11:59 11.10.2019
181 Clear 16 1025 66 10000 1 0 11:39 11.10.2019
182 Clear 15 1025 66 10000 1 0 11:21 11.10.2019
183 Clear 14 1021 64 0 2.09 203.739 10:56 11.10.2019
184 Clear 13 1024 17 0 2.09 203.739 10:37 11.10.2019
185 Clear 13 1024 19 0 2.09 203.739 10:18 11.10.2019
186 Clear 11 1024 48 0 2.23 208.9 09:43 11.10.2019
187 Clear 8 1024 62 0 0.5 66.937 09:21 11.10.2019
188 Clear 7 1021 78 0 0.5 66.937 08:59 11.10.2019
189 Clear 7 1021 78 0 0.5 66.937 08:39 11.10.2019
190 Clear 7 1021 78 0 0.5 66.937 08:39 11.10.2019
191 Clear 7 1021 79 0 0.5 66.937 08:20 11.10.2019
192 Clear 7 1024 52 0 0.5 66.937 07:57 11.10.2019
193 Clear 7 1020 77 0 0.5 66.937 07:38 11.10.2019
194 Clear 7 1020 79 0 0.5 66.937 07:19 11.10.2019
195 Clear 7 1020 78 0 0.5 66.937 06:43 11.10.2019
196 Clear 7 1020 78 0 0.58 47.779 06:19 11.10.2019
197 Clear 7 1020 77 0 0.58 47.779 05:32 11.10.2019
198 Clear 7 1020 75 0 0.58 47.779 04:58 11.10.2019
199 Clear 8 1021 73 0 0.58 47.779 03:45 11.10.2019
200 Clear 9 1021 69 0 0.75 14.611 01:28 11.10.2019
201 Clear 10 1026 41 0 0.75 14.611 00:41 11.10.2019
202 Clear 10 1026 42 0 0.25 344.646 00:20 11.10.2019
203 Clear 10 1026 41 0 0.25 344.646 00:20 11.10.2019
204 Clear 10 1026 38 0 0.25 344.646 23:41 10.10.2019
205 Clear 10 1026 38 0 0.25 344.646 23:20 10.10.2019
206 Clear 10 1026 37 0 0.25 344.646 22:56 10.10.2019
207 Clear 10 1026 38 0 0.25 344.646 22:36 10.10.2019
208 Clear 10 1026 38 0 0.25 344.646 22:18 10.10.2019
209 Clear 11 1026 36 0 0.25 344.646 21:42 10.10.2019
210 Clear 11 1026 36 0 0.25 344.646 21:42 10.10.2019
211 Clear 12 1026 36 0 0.8 188.293 21:22 10.10.2019
212 Clear 13 1019 59 0 0.74 190.215 20:59 10.10.2019
213 Clear 13 1019 59 0 0.74 190.215 20:59 10.10.2019
214 Clear 12 1019 59 0 0.74 190.215 20:40 10.10.2019
215 Clear 14 1018 57 0 0.74 190.215 20:20 10.10.2019
216 Clear 14 1021 42 10000 4.6 230 19:57 10.10.2019
217 Clear 15 1021 42 10000 4.6 230 19:39 10.10.2019
218 Clear 16 1021 42 10000 4.6 230 19:19 10.10.2019
219 Clear 18 1021 40 10000 4.1 230 18:42 10.10.2019
220 Clear 19 1021 40 10000 4.1 230 18:21 10.10.2019
221 Clear 19 1021 37 10000 4.6 230 17:59 10.10.2019
222 Clear 20 1021 37 10000 4.6 220 17:40 10.10.2019
223 Clear 20 1021 37 10000 4.6 220 17:19 10.10.2019
224 Clear 20 1021 37 10000 5.1 220 16:56 10.10.2019
225 Clear 21 1021 35 10000 5.1 210 16:37 10.10.2019
226 Clear 20 1021 35 10000 5.1 210 16:19 10.10.2019
227 Clear 20 1022 37 10000 4.6 200 15:40 10.10.2019
228 Clouds 19 1022 37 10000 5.1 210 15:22 10.10.2019
229 Clouds 20 1022 37 10000 5.1 210 14:58 10.10.2019
230 Clouds 20 1022 37 10000 4.6 210 14:37 10.10.2019
231 Clouds 20 1022 37 10000 4.6 210 14:19 10.10.2019
232 Clouds 19 1023 40 10000 3.6 230 13:57 10.10.2019
233 Clouds 19 1023 42 10000 4.6 220 13:39 10.10.2019
234 Clouds 19 1023 42 10000 4.6 220 13:18 10.10.2019
235 Clouds 17 1024 55 10000 2.1 200 12:42 10.10.2019
236 Clouds 16 1024 55 10000 2.1 200 12:21 10.10.2019
237 Clouds 16 1024 58 10000 2.6 220 11:58 10.10.2019
238 Clouds 15 1024 71 10000 1.5 190 11:40 10.10.2019
239 Clouds 14 1024 76 10000 1 0 11:19 10.10.2019
240 Clouds 14 1019 78 0 1.42 233.999 10:47 10.10.2019
241 Clouds 13 1019 81 0 1.42 233.999 10:28 10.10.2019
242 Clouds 12 1018 82 0 1.42 233.999 09:59 10.10.2019
243 Clouds 12 1027 44 0 1.42 233.999 09:41 10.10.2019
244 Clouds 11 1018 83 0 0.67 274.092 09:23 10.10.2019
245 Clouds 10 1018 84 0 0.74 267.521 08:59 10.10.2019
246 Clouds 10 1018 85 0 0.74 267.521 08:38 10.10.2019
247 Clouds 10 1018 85 0 0.74 267.521 08:38 10.10.2019
248 Clouds 10 1017 84 0 0.74 267.521 08:19 10.10.2019
249 Clouds 10 1017 83 0 0.74 267.521 07:46 10.10.2019
250 Clouds 10 1026 44 0 0.74 267.521 07:23 10.10.2019
251 Clouds 11 1017 83 0 0.74 267.521 06:49 10.10.2019
252 Clouds 11 1017 82 0 0.74 267.521 06:29 10.10.2019
253 Rain 12 1025 40 0 2.29 215.593 05:28 10.10.2019
254 Rain 12 1025 38 0 2.29 215.593 04:55 10.10.2019
255 Rain 13 1025 42 0 2.29 215.593 04:33 10.10.2019
256 Rain 13 1017 75 0 0.89 169 02:19 10.10.2019
257 Rain 13 1025 42 0 1.8 231.589 02:19 10.10.2019
258 Rain 13 1017 77 0 2.19 221.625 01:36 10.10.2019
259 Rain 13 1017 77 0 2.19 221.625 01:36 10.10.2019
260 Rain 13 1017 76 0 2.19 221.625 01:18 10.10.2019
261 Rain 13 1025 38 0 2.19 221.625 00:24 10.10.2019
262 Rain 13 1016 76 0 1.61 231.24 23:41 09.10.2019
263 Rain 13 1016 77 0 1.61 231.24 23:23 09.10.2019
264 Rain 13 1025 36 0 1.34 244 22:59 09.10.2019
265 Rain 13 1016 78 0 1.61 231.24 22:40 09.10.2019
266 Rain 13 1015 78 0 1.61 231.24 22:22 09.10.2019
267 Rain 13 1015 76 0 1.61 231.24 21:41 09.10.2019
268 Rain 14 1015 76 0 1 243.461 21:21 09.10.2019
269 Rain 14 1025 41 0 0.89 309 20:56 09.10.2019
270 Rain 14 1014 75 0 0.84 266.665 20:38 09.10.2019
271 Rain 14 1014 73 0 0.84 266.665 20:19 09.10.2019
272 Rain 14 1014 73 0 0.84 266.665 20:19 09.10.2019
273 Rain 14 1014 70 0 0.84 266.665 19:58 09.10.2019
274 Rain 14 1024 36 0 1.34 238 19:40 09.10.2019
275 Rain 14 1024 35 0 0.89 205 19:22 09.10.2019
276 Rain 15 1024 34 0 1.34 247 18:38 09.10.2019
277 Clouds 18 1013 56 0 0.89 195 18:20 09.10.2019
278 Clouds 18 1013 56 0 2.68 243 17:57 09.10.2019
279 Clouds 18 1013 54 0 2.68 256 17:37 09.10.2019
280 Clouds 17 1013 53 0 1.79 242 17:19 09.10.2019
281 Clouds 17 1023 28 0 2.68 219 16:56 09.10.2019
282 Clouds 19 1012 51 0 0.89 172 16:37 09.10.2019
283 Clouds 18 1012 51 0 0.89 190 16:18 09.10.2019
284 Clouds 19 1012 48 0 0.45 181 15:55 09.10.2019
285 Clouds 19 1012 48 0 0.45 181 15:55 09.10.2019
286 Clouds 19 1012 48 0 1.34 250 15:36 09.10.2019
287 Clear 19 1012 48 0 0.89 120 15:18 09.10.2019
288 Clear 19 1023 34 0 2.24 239 14:42 09.10.2019
289 Clear 19 1023 34 0 2.24 239 14:42 09.10.2019
290 Clear 19 1012 48 0 0.89 238 14:18 09.10.2019
291 Clear 19 1024 34 0 2.68 193 13:55 09.10.2019
292 Clear 19 1013 49 0 0.89 274 13:36 09.10.2019
293 Clear 19 1013 49 0 0.89 274 13:36 09.10.2019
294 Clear 19 1013 51 0 3.47 213.896 13:18 09.10.2019
295 Clear 19 1013 58 0 3.47 213.896 12:42 09.10.2019
296 Clear 18 1024 35 0 0.89 170 12:22 09.10.2019
297 Clear 17 1013 60 0 2.54 214.697 11:57 09.10.2019
298 Clear 17 1014 61 0 2.54 214.697 11:37 09.10.2019
299 Clear 16 1014 64 0 2.54 214.697 11:19 09.10.2019
300 Clear 15 1023 36 0 2.54 214.697 10:45 09.10.2019
301 Clear 14 1013 73 0 2.54 214.697 10:22 09.10.2019
302 Clear 14 1022 39 0 2.68 240 09:59 09.10.2019
303 Clear 14 1013 75 0 2.54 214.697 09:41 09.10.2019
304 Clouds 13 1014 76 0 0.75 169.832 09:19 09.10.2019
305 Clouds 12 1022 54 0 0.75 169.832 08:55 09.10.2019
306 Clouds 12 1014 77 0 0.79 177.184 08:37 09.10.2019
307 Clouds 12 1014 78 0 0.79 177.184 08:18 09.10.2019
308 Clouds 12 1022 49 0 0.79 177.184 07:39 09.10.2019
309 Clouds 12 1014 75 0 0.79 177.184 07:21 09.10.2019
310 Clouds 12 1014 76 0 0.79 177.184 06:52 09.10.2019
311 Clouds 12 1014 76 0 0.79 177.184 06:52 09.10.2019
312 Clouds 12 1013 75 0 1.08 147.781 06:19 09.10.2019
313 Clouds 12 1014 75 0 1.08 147.781 05:44 09.10.2019
314 Clouds 13 1021 42 0 1.08 147.781 04:26 09.10.2019
315 Clouds 13 1021 41 0 0.99 125.115 02:53 09.10.2019
316 Clouds 14 1021 40 0 0.99 125.115 01:43 09.10.2019
317 Clouds 13 1021 40 0 0.94 97.562 01:20 09.10.2019
318 Clouds 14 1022 39 0 0.94 97.562 00:57 09.10.2019
319 Clouds 14 1022 38 0 0.94 97.562 00:38 09.10.2019
320 Clouds 15 1015 64 0 1.43 52.705 00:20 09.10.2019
321 Clouds 15 1022 35 0 1.43 52.705 23:39 08.10.2019
322 Clouds 15 1022 35 0 1.43 52.705 23:19 08.10.2019
323 Clouds 15 1016 76 0 1.43 52.705 22:56 08.10.2019
324 Clouds 14 1021 71 0 0.45 67 22:38 08.10.2019
325 Clouds 15 1021 68 0 1.34 207 22:19 08.10.2019
326 Clouds 15 1019 75 0 1.43 52.705 21:57 08.10.2019
327 Clouds 15 1019 74 0 0.45 262 21:39 08.10.2019
328 Clouds 17 1014 57 0 1.04 352.533 21:19 08.10.2019
329 Clouds 17 1014 57 0 1.04 352.533 21:19 08.10.2019
330 Clouds 17 1021 23 0 1.04 352.533 20:56 08.10.2019
331 Clouds 18 1014 55 0 1 360 20:37 08.10.2019
332 Clouds 18 1014 54 0 1 360 20:19 08.10.2019
333 Clouds 18 1014 53 0 1 360 19:56 08.10.2019
334 Clouds 17 1019 69 0 2.68 190 19:37 08.10.2019
335 Clouds 18 1019 69 0 2.24 198 19:18 08.10.2019
336 Clouds 18 1020 56 0 1.34 90 18:46 08.10.2019
337 Clouds 22 1020 11 0 1 360 18:25 08.10.2019
338 Clouds 23 1013 41 0 2.31 223.388 17:58 08.10.2019
339 Clouds 24 1013 40 0 0.45 257 17:39 08.10.2019
340 Clouds 24 1013 40 0 0.45 257 17:39 08.10.2019
341 Clouds 25 1013 39 0 0.45 283 17:20 08.10.2019
342 Clouds 25 1019 7 0 1.34 226 16:56 08.10.2019
343 Clouds 25 1019 7 0 1.34 226 16:56 08.10.2019
344 Clouds 25 1019 7 0 2.68 190 16:37 08.10.2019
345 Clouds 25 1019 7 0 2.68 181 16:19 08.10.2019
346 Clouds 25 1019 6 0 2.68 175 15:39 08.10.2019
347 Clouds 25 1017 40 0 1.79 202 15:20 08.10.2019
348 Clouds 25 1017 40 0 1.79 202 15:20 08.10.2019
349 Clouds 24 1018 45 0 0.45 338 14:57 08.10.2019
350 Clouds 24 1014 44 0 2.58 219.791 14:38 08.10.2019
351 Clouds 24 1014 44 0 2.58 219.791 14:19 08.10.2019
352 Clouds 24 1014 44 0 2.58 219.791 14:19 08.10.2019
353 Clouds 23 1019 6 0 2.68 252 13:55 08.10.2019
354 Clouds 22 1015 49 0 2.58 219.791 13:37 08.10.2019
355 Clouds 22 1015 49 0 2.58 219.791 13:37 08.10.2019
356 Clouds 23 1015 52 0 2.58 219.791 13:18 08.10.2019
357 Clouds 21 1015 54 0 2.69 217.864 12:41 08.10.2019
358 Clouds 19 1016 57 0 0.94 225.689 12:20 08.10.2019
359 Clouds 19 1016 57 0 0.94 225.689 12:20 08.10.2019
360 Clouds 19 1016 59 0 0.94 225.689 11:58 08.10.2019
361 Clouds 18 1016 61 0 0.94 225.689 11:39 08.10.2019
362 Clouds 17 1016 63 0 0.94 225.689 11:21 08.10.2019
363 Clouds 17 1016 63 0 0.94 225.689 11:21 08.10.2019
364 Clouds 17 1016 69 0 0.94 225.689 10:42 08.10.2019
365 Clouds 15 1016 79 0 0.94 225.689 10:23 08.10.2019
366 Clouds 14 1017 78 0 0.94 225.689 09:59 08.10.2019
367 -273 0 0 0 0 0 09:40 08.10.2019
368 Clear 11 1016 78 0 2.46 26.284 09:22 08.10.2019
369 Clear 10 1016 79 0 2.63 24.771 08:45 08.10.2019
370 Clear 11 1016 79 0 2.63 24.771 08:25 08.10.2019
371 Clear 11 1018 43 0 2.63 24.771 07:57 08.10.2019
372 Clear 11 1018 43 0 2.63 24.771 07:38 08.10.2019
373 Clear 11 1018 43 0 2.63 24.771 07:19 08.10.2019
374 Clear 10 1018 42 0 2.63 24.771 06:45 08.10.2019
375 Clear 10 1018 40 0 2.84 15.643 06:21 08.10.2019
376 Clear 10 1018 40 0 2.84 15.643 05:43 08.10.2019
377 Clear 10 1018 40 0 2.84 15.643 05:19 08.10.2019
378 Clear 10 1018 37 0 2.84 15.643 03:31 08.10.2019
379 Clouds 11 1019 36 0 2.51 15.876 02:43 08.10.2019
380 Clouds 11 1019 36 0 2.51 15.876 02:25 08.10.2019
381 Clouds 11 1019 37 0 2.51 15.876 01:41 08.10.2019
382 Clouds 11 1019 35 0 2.78 18.975 00:56 08.10.2019
383 Clouds 12 1019 35 0 2.98 17.135 00:25 08.10.2019
384 Clouds 12 1020 35 0 2.98 17.135 23:56 07.10.2019
385 Clouds 12 1019 34 0 2.98 17.135 23:37 07.10.2019
386 Clouds 12 1020 32 0 2.98 17.135 23:19 07.10.2019
387 Clouds 11 1019 67 0 2.98 17.135 22:54 07.10.2019
388 Clouds 11 1019 67 0 2.98 17.135 22:54 07.10.2019
389 Clouds 11 1019 67 0 0.45 104 22:36 07.10.2019
390 Clouds 13 1019 66 0 2.98 17.135 22:18 07.10.2019
391 Clouds 12 1019 64 0 0.45 104 21:54 07.10.2019
392 Clouds 13 1019 62 0 2.98 17.135 21:36 07.10.2019
393 Clouds 15 1017 51 0 0.45 191 21:18 07.10.2019
394 Clouds 15 1017 51 0 0.45 191 21:18 07.10.2019
395 Clouds 15 1017 49 0 3.39 14.27 20:54 07.10.2019
396 Clouds 15 1017 47 0 3.39 14.27 20:36 07.10.2019
397 Clouds 15 1017 45 0 0.45 274 20:18 07.10.2019
398 Clear 16 1017 13 10000 2.1 0 19:41 07.10.2019
399 Clear 17 1017 13 10000 2.1 0 19:20 07.10.2019
400 Clear 23 1017 13 10000 2.1 0 18:59 07.10.2019
401 Clouds 24 1016 12 10000 2.6 50 18:40 07.10.2019
402 Clouds 20 1016 11 10000 4.1 290 18:19 07.10.2019
403 Clouds 20 1016 11 10000 4.1 290 18:19 07.10.2019
404 Clouds 20 1016 11 10000 4.1 290 17:55 07.10.2019
405 Clouds 21 1016 9 10000 2.1 0 17:37 07.10.2019
406 Clouds 21 1016 9 10000 3.1 260 17:18 07.10.2019
407 Clouds 21 1016 10 10000 2.1 190 16:43 07.10.2019
408 Clouds 20 1016 10 10000 2.1 190 16:25 07.10.2019
409 Clear 21 1016 17 10000 1 0 15:46 07.10.2019
410 Clear 21 1016 17 10000 1 0 15:26 07.10.2019
411 Clear 21 1017 19 10000 1.5 0 14:58 07.10.2019
412 Clear 21 1017 19 10000 1.5 0 14:58 07.10.2019
413 Clear 20 1017 20 10000 1.5 100 14:40 07.10.2019
414 Clear 20 1017 20 10000 1.5 100 14:22 07.10.2019
415 Clear 20 1018 27 10000 2.1 0 13:44 07.10.2019
416 Clear 19 1018 31 10000 0.5 0 13:21 07.10.2019
417 Clear 18 1018 31 10000 0.5 0 12:57 07.10.2019
418 Clear 18 1018 36 10000 1 0 12:39 07.10.2019
419 Clear 16 1018 36 10000 1 0 12:19 07.10.2019
420 Clear 16 1019 44 10000 0.5 0 11:58 07.10.2019
421 Clear 15 1019 50 10000 1 0 11:38 07.10.2019
422 Clear 15 1019 50 10000 1 0 11:20 07.10.2019
423 Clouds 14 1015 15 0 0.45 19 10:42 07.10.2019
424 Clouds 15 1015 19 0 0.45 140 10:21 07.10.2019
425 Clouds 13 1018 17 0 1.34 152 09:55 07.10.2019
426 -273 0 0 0 0 0 09:54 07.10.2019
427 Clouds 11 1015 32 0 3.38 4.188 09:36 07.10.2019
428 Clouds 10 1015 34 0 1.79 197 09:18 07.10.2019
429 Clouds 10 1018 34 0 4.79 11.674 08:41 07.10.2019
430 Clouds 9 1015 54 0 4.79 11.674 08:20 07.10.2019
431 Clouds 10 1014 55 0 4.79 11.674 07:44 07.10.2019
432 Clouds 10 1018 27 0 1.34 304 07:25 07.10.2019
433 Clouds 10 1014 47 0 4.79 11.674 06:55 07.10.2019
434 Clouds 10 1014 49 0 4.79 11.674 06:37 07.10.2019
435 Clouds 10 1013 46 0 3.71 5.439 05:50 07.10.2019
436 Clouds 10 1018 27 0 2.68 242 05:24 07.10.2019
437 Clouds 10 1014 56 0 3.71 5.439 04:44 07.10.2019
438 Clouds 11 1014 60 0 3.71 5.439 03:45 07.10.2019
439 Clouds 11 1018 26 0 3.97 11.494 03:23 07.10.2019
440 Clouds 12 1015 59 0 3.97 11.494 02:23 07.10.2019
441 Clouds 12 1015 56 0 0.45 271 01:57 07.10.2019
442 Clouds 13 1018 25 0 2.68 237 01:22 07.10.2019
443 Clouds 13 1018 22 0 0.89 295 00:44 07.10.2019
444 Clouds 13 1016 66 0 3.43 7.042 00:22 07.10.2019
445 Clouds 13 1016 59 0 3.43 7.042 23:56 06.10.2019
446 Clouds 14 1017 62 0 0.45 276 23:38 06.10.2019
447 Clouds 14 1016 63 0 3.43 7.042 23:18 06.10.2019
448 Clouds 14 1018 17 0 3.13 286 22:42 06.10.2019
449 Clouds 14 1018 25 0 2.24 266 22:22 06.10.2019
450 Clouds 15 1022 23 0 4.02 270 21:58 06.10.2019
451 Clouds 15 1022 23 0 4.02 270 21:58 06.10.2019
452 Clouds 15 1022 24 0 2.24 268 21:38 06.10.2019
453 Clouds 15 1015 67 0 3.29 3.484 21:19 06.10.2019
454 Clouds 15 1022 25 0 2.68 213 20:59 06.10.2019
455 Clouds 15 1015 63 0 3.17 359.856 20:40 06.10.2019
456 Clouds 16 1017 59 10000 5.1 240 20:21 06.10.2019
457 Clouds 16 1017 59 10000 5.1 240 19:58 06.10.2019
458 Clouds 16 1017 59 10000 5.1 240 19:38 06.10.2019
459 Clouds 17 1016 56 10000 4.6 240 19:20 06.10.2019
460 Clouds 17 1016 56 10000 4.6 240 18:57 06.10.2019
461 Clouds 17 1016 56 10000 3.6 230 18:39 06.10.2019
462 Clouds 18 1016 56 10000 3.6 230 18:20 06.10.2019
463 Clouds 19 1016 52 10000 4.6 230 17:58 06.10.2019
464 Clouds 19 1016 49 10000 5.1 240 17:39 06.10.2019
465 Clouds 19 1016 49 10000 5.1 240 17:19 06.10.2019
466 Clear 20 1016 49 10000 5.1 220 16:42 06.10.2019
467 Clear 20 1016 49 10000 5.1 220 16:24 06.10.2019
468 Clear 20 1017 49 10000 4.6 220 15:58 06.10.2019
469 Clear 20 1018 52 10000 4.1 230 15:39 06.10.2019
470 Clear 20 1018 52 10000 1.5 190 15:18 06.10.2019
471 Clear 19 1019 52 10000 2.1 0 14:43 06.10.2019
472 Clear 19 1019 52 10000 2.1 0 14:24 06.10.2019
473 Clear 18 1019 55 10000 1 0 13:58 06.10.2019
474 Clear 18 1019 48 10000 1 0 13:39 06.10.2019
475 Clear 18 1019 48 10000 1 0 13:20 06.10.2019
476 Clear 18 1020 59 10000 1.5 160 12:56 06.10.2019
477 Clear 17 1020 58 10000 1.5 130 12:38 06.10.2019
478 Clear 17 1020 58 10000 1.5 130 12:20 06.10.2019
479 Clear 16 1020 66 10000 1 0 11:56 06.10.2019
480 Clear 16 1020 67 10000 0.5 0 11:37 06.10.2019
481 Clear 16 1020 67 10000 0.5 0 11:37 06.10.2019
482 Clouds 15 1015 57 0 0.95 343.278 11:18 06.10.2019
483 Clouds 15 1015 61 0 0.95 343.278 10:42 06.10.2019
484 Clouds 15 1023 27 0 0.95 343.278 10:24 06.10.2019
485 Clouds 14 1023 37 0 0.89 50 09:42 06.10.2019
486 Clouds 13 1015 63 0 2.34 22.964 09:22 06.10.2019
487 Clouds 13 1015 63 0 2.34 22.964 09:22 06.10.2019
488 Clouds 13 1015 65 0 2.34 22.964 08:59 06.10.2019
489 Clouds 12 1014 66 0 2.29 30.518 08:40 06.10.2019
490 Clouds 12 1014 66 0 2.29 30.518 08:20 06.10.2019
491 Clouds 12 1014 67 0 2.29 30.518 07:44 06.10.2019
492 Clouds 12 1022 39 0 0.89 1 07:18 06.10.2019
493 Clear 11 1014 70 0 2.03 18.765 06:19 06.10.2019
494 Clear 12 1014 68 0 2.03 18.765 05:28 06.10.2019
495 Clear 14 1021 40 0 2.03 18.765 03:35 06.10.2019
496 Clear 12 1014 66 0 1.59 7.642 02:40 06.10.2019
497 Clear 12 1014 67 0 1.59 7.642 02:19 06.10.2019
498 Clear 12 1016 88 0 1.59 7.642 01:38 06.10.2019
499 Clear 12 1016 88 0 1.87 11.898 01:20 06.10.2019
500 Clear 12 1016 89 0 1.87 11.898 00:45 06.10.2019
501 -273 0 0 0 0 0 00:24 06.10.2019
502 Clear 12 1022 44 0 1.16 2.425 23:43 05.10.2019
503 Clear 13 1022 44 0 1.16 2.425 23:21 05.10.2019
504 Clear 13 1019 71 0 1.16 2.425 22:57 05.10.2019
505 Clear 13 1018 89 0 1.16 2.425 22:38 05.10.2019
506 Clear 13 1018 89 0 1.16 2.425 22:38 05.10.2019
507 Clear 13 1018 89 0 1.16 2.425 22:38 05.10.2019
508 Clear 13 1018 89 0 1.16 2.425 22:38 05.10.2019
509 Clear 13 1018 89 0 1.16 2.425 22:19 05.10.2019
510 Clear 14 1017 88 0 1.16 2.425 21:42 05.10.2019
511 Clear 14 1017 88 0 1.16 2.425 21:42 05.10.2019
512 Clear 16 1014 57 0 0.98 8.378 21:24 05.10.2019
513 Clear 16 1013 57 0 0.98 8.378 20:58 05.10.2019
514 Clear 15 1021 35 0 0.98 6.768 20:40 05.10.2019
515 Clear 16 1013 55 0 0.98 6.768 20:20 05.10.2019
516 Clear 19 1016 49 10000 4.6 240 19:56 05.10.2019
517 Clear 21 1016 49 10000 4.6 240 19:37 05.10.2019
518 Clouds 19 1016 46 10000 3.6 240 19:18 05.10.2019
519 Clouds 22 1016 46 10000 3.6 240 18:55 05.10.2019
520 Clouds 22 1015 43 10000 4.1 230 18:36 05.10.2019
521 Clouds 21 1015 46 10000 3.6 210 18:18 05.10.2019
522 Clouds 21 1015 44 10000 4.1 230 17:41 05.10.2019
523 Clouds 22 1015 44 10000 4.1 230 17:21 05.10.2019
524 Clear 22 1015 44 10000 4.1 220 16:55 05.10.2019
525 Clear 22 1015 44 10000 4.1 220 16:55 05.10.2019
526 Clear 22 1015 44 10000 4.6 220 16:36 05.10.2019
527 Clear 22 1015 44 10000 5.1 220 16:18 05.10.2019
528 Clear 21 1015 44 10000 5.1 220 15:55 05.10.2019
529 Clear 22 1015 46 10000 5.1 230 15:37 05.10.2019
530 Clear 21 1016 43 10000 4.1 220 15:18 05.10.2019
531 Clear 21 1016 43 10000 3.6 230 14:41 05.10.2019
532 Clear 21 1017 46 10000 2.1 230 14:22 05.10.2019
533 Clear 21 1017 42 10000 1.5 0 13:43 05.10.2019
534 Clear 20 1017 42 10000 1.5 0 13:25 05.10.2019
535 Clear 19 1018 52 10000 1 0 12:58 05.10.2019
536 Clear 19 1018 55 10000 1.5 200 12:40 05.10.2019
537 Clear 17 1018 62 10000 1 0 12:18 05.10.2019
538 Clear 16 1018 67 10000 1 0 11:39 05.10.2019
539 Clear 16 1018 67 10000 1 0 11:20 05.10.2019
540 Clear 16 1021 12 0 0.89 164 10:55 05.10.2019
541 Clear 16 1021 15 0 1 255.396 10:37 05.10.2019
542 Clear 14 1013 64 0 1 255.396 10:18 05.10.2019
543 Clear 14 1020 44 0 1 255.396 09:39 05.10.2019
544 Clouds 12 1020 45 0 2.73 20.669 09:21 05.10.2019
545 Clouds 12 1012 65 0 2.93 19.727 08:41 05.10.2019
546 Clouds 12 1020 54 0 2.93 19.727 08:21 05.10.2019
547 Clouds 12 1020 53 0 2.93 19.727 07:58 05.10.2019
548 Clouds 11 1020 53 0 2.93 19.727 07:37 05.10.2019
549 Clouds 11 1020 54 0 2.93 19.727 07:19 05.10.2019
550 Clouds 12 1020 48 0 2.93 19.727 06:28 05.10.2019
551 Clouds 12 1020 49 0 1.34 312 05:52 05.10.2019
552 Clouds 12 1020 64 0 2.27 6.674 04:33 05.10.2019
553 Clouds 12 1020 54 0 2.27 6.674 03:29 05.10.2019
554 Clouds 13 1013 74 0 1.99 12.329 01:52 05.10.2019
555 Clouds 13 1020 46 0 2.24 320 01:23 05.10.2019
556 Clouds 13 1013 73 0 2.37 11.106 00:44 05.10.2019
557 Clouds 13 1013 72 0 2.57 3.487 00:25 05.10.2019
558 Clouds 14 1020 39 0 2.24 190 23:45 04.10.2019
559 Clouds 14 1020 38 0 2.24 235 23:26 04.10.2019
560 Clouds 15 1020 40 0 2.68 209 22:59 04.10.2019
561 Clouds 14 1020 42 0 2.24 212 22:39 04.10.2019
562 Clouds 14 1020 44 0 0.89 292 22:20 04.10.2019
563 Clouds 14 1020 48 0 0.89 317 21:57 04.10.2019
564 Clouds 14 1020 46 0 1.34 254 21:38 04.10.2019
565 Clouds 15 1012 61 0 1.09 344.92 21:19 04.10.2019
566 Clouds 15 1012 58 0 1.36 346.876 20:55 04.10.2019
567 Clouds 15 1012 58 0 1.36 346.876 20:55 04.10.2019
568 Clear 16 1015 37 10000 4.1 240 20:36 04.10.2019
569 Clouds 16 1012 56 0 1.36 346.876 20:18 04.10.2019
570 Clear 18 1015 37 10000 4.1 240 19:45 04.10.2019
571 Clear 18 1015 37 10000 4.1 240 19:26 04.10.2019
572 Clear 18 1015 35 10000 4.1 230 18:57 04.10.2019
573 Clear 18 1015 33 10000 4.6 220 18:38 04.10.2019
574 Clear 21 1015 33 10000 4.6 220 18:19 04.10.2019
575 Clear 21 1015 31 10000 4.6 220 18:19 04.10.2019
576 Clear 21 1015 31 10000 5.1 210 17:42 04.10.2019
577 Clear 22 1015 31 10000 5.1 210 17:22 04.10.2019
578 Clear 22 1015 31 10000 5.7 200 16:59 04.10.2019
579 Clear 22 1015 31 10000 6.2 190 16:41 04.10.2019
580 Clear 22 1015 31 10000 6.2 190 16:41 04.10.2019
581 Clear 22 1015 31 10000 6.2 190 16:19 04.10.2019
582 Clear 22 1016 29 10000 5.7 200 15:58 04.10.2019
583 Clear 23 1016 31 10000 4.6 210 15:39 04.10.2019
584 Clear 23 1016 31 10000 4.6 210 15:20 04.10.2019
585 Clear 22 1017 33 10000 4.1 220 14:58 04.10.2019
586 Clear 22 1017 35 10000 3.1 220 14:39 04.10.2019
587 Clear 22 1017 35 10000 3.1 220 14:21 04.10.2019
588 Clear 21 1018 39 10000 2.1 200 13:45 04.10.2019
589 Clear 21 1018 39 10000 2.1 200 13:23 04.10.2019
590 Clear 20 1018 39 10000 1 0 12:56 04.10.2019
591 Clear 19 1019 47 10000 1 0 12:37 04.10.2019
592 Clear 18 1019 47 10000 1 0 12:18 04.10.2019
593 Clear 17 1020 54 10000 0.5 0 11:42 04.10.2019
594 Clear 17 1020 54 10000 0.5 0 11:42 04.10.2019
595 Clear 16 1020 54 10000 0.5 0 11:21 04.10.2019
596 Clear 16 1020 54 10000 0.5 0 11:21 04.10.2019
597 Clouds 16 1015 44 0 0.95 343.105 10:42 04.10.2019
598 Clouds 13 1015 46 0 0.95 343.105 10:21 04.10.2019
599 Clouds 13 1015 46 0 0.95 343.105 10:21 04.10.2019
600 Clouds 12 1015 47 0 0.95 343.105 09:58 04.10.2019
601 Clouds 13 1015 47 0 0.95 343.105 09:58 04.10.2019
602 Clouds 11 1015 45 0 0.95 343.105 09:40 04.10.2019
603 Clear 10 1015 43 0 3.71 20.254 09:22 04.10.2019
604 Clear 8 1021 50 0 3.71 20.254 08:43 04.10.2019
605 Clear 8 1021 50 0 3.71 20.254 08:43 04.10.2019
606 Clear 8 1015 33 0 3.71 20.254 08:25 04.10.2019
607 Clear 8 1015 33 0 3.71 20.254 07:47 04.10.2019
608 Clear 8 1021 56 0 3.71 20.254 07:24 04.10.2019
609 Clear 8 1014 26 0 3.71 20.254 06:56 04.10.2019
610 Clear 8 1014 26 0 3.71 20.254 06:56 04.10.2019
611 Clear 8 1014 26 0 3.71 20.254 06:37 04.10.2019
612 Clear 8 1021 55 0 3.13 21.265 06:18 04.10.2019
613 Clear 8 1021 48 0 3.13 21.265 05:19 04.10.2019
614 Clear 9 1021 48 0 3.13 21.265 04:35 04.10.2019
615 Clear 9 1021 48 0 2.41 17.208 02:56 04.10.2019
616 Clear 9 1021 48 0 2.41 17.208 02:56 04.10.2019
617 Clear 9 1016 40 0 2.41 17.208 02:37 04.10.2019
618 Clear 10 1022 48 0 2.41 17.208 01:43 04.10.2019
619 Clear 10 1021 49 0 2.91 21.001 01:24 04.10.2019
620 Clear 11 1022 48 0 2.22 24.207 00:24 04.10.2019
621 Clear 11 1021 46 0 2.22 24.207 23:38 03.10.2019
622 Clear 11 1021 46 0 2.22 24.207 23:19 03.10.2019
623 Clear 10 1021 44 0 2.22 24.207 22:57 03.10.2019
624 Clear 11 1021 42 0 2.22 24.207 22:39 03.10.2019
625 Clear 11 1019 70 0 0.45 90 22:21 03.10.2019
626 Clear 11 1018 75 0 2.22 24.207 21:56 03.10.2019
627 Clear 11 1018 56 0 2.22 24.207 21:37 03.10.2019
628 Clear 11 1018 56 0 2.22 24.207 21:37 03.10.2019
629 Clouds 14 1015 31 0 2.63 18.4 21:19 03.10.2019
630 Clouds 15 1021 32 0 2.63 18.4 20:56 03.10.2019
631 Clouds 15 1021 32 0 2.63 18.4 20:56 03.10.2019
632 Clouds 15 1015 31 0 2.89 19.582 20:37 03.10.2019
633 Clouds 15 1015 31 0 2.89 19.582 20:37 03.10.2019
634 Clouds 16 1015 31 0 2.89 19.582 20:19 03.10.2019
635 Clear 18 1015 37 10000 4.1 240 19:55 03.10.2019
636 Clear 21 1015 37 10000 4.1 240 19:36 03.10.2019
637 Clear 19 1015 37 10000 4.1 240 19:18 03.10.2019
638 Clear 20 1015 35 10000 4.6 230 18:40 03.10.2019
639 Clear 21 1015 35 10000 4.6 230 18:19 03.10.2019
640 Clear 21 1015 33 10000 4.1 230 17:59 03.10.2019
641 Clear 21 1015 35 10000 4.1 230 17:41 03.10.2019
642 Clear 21 1015 35 10000 4.1 230 17:20 03.10.2019
643 Clear 21 1016 28 10000 3.6 210 16:44 03.10.2019
644 Clear 21 1016 28 10000 3.6 210 16:26 03.10.2019
645 Clear 20 1016 28 10000 2.1 180 15:57 03.10.2019
646 Clear 20 1016 28 10000 2.1 180 15:39 03.10.2019
647 Clear 20 1016 28 10000 2.1 180 15:21 03.10.2019
648 Clear 20 1017 36 10000 1.5 130 14:47 03.10.2019
649 Clear 20 1017 36 10000 1.5 130 14:27 03.10.2019
650 Clear 20 1018 39 10000 1 0 13:59 03.10.2019
651 Clear 19 1018 41 10000 1.5 0 13:41 03.10.2019
652 Clear 18 1018 41 10000 1.5 0 13:19 03.10.2019
653 Clear 18 1019 47 10000 1.5 210 12:56 03.10.2019
654 Clear 17 1019 54 10000 1.5 190 12:38 03.10.2019
655 Clear 15 1019 54 10000 2.5 7.735 12:19 03.10.2019
656 Clear 12 1019 53 10000 1.5 110 11:41 03.10.2019
657 Clear 12 1019 53 10000 1.5 110 11:41 03.10.2019
658 Clear 12 1019 53 10000 1.5 110 11:23 03.10.2019
659 Clear 12 1019 61 10000 1 0 10:59 03.10.2019
660 Clouds 14 1021 24 0 1.34 176 10:40 03.10.2019
661 Clouds 11 1016 53 0 2.5 7.735 10:19 03.10.2019
662 Clouds 11 1016 53 0 2.5 7.735 10:19 03.10.2019
663 Clouds 11 1016 50 0 2.5 7.735 09:58 03.10.2019
664 Clouds 9 1016 57 0 2.5 7.735 09:40 03.10.2019
665 Clouds 9 1016 58 0 3.78 17.845 09:20 03.10.2019
666 Clouds 8 1016 59 0 3.81 17.109 08:45 03.10.2019
667 Clouds 8 1016 57 0 3.81 17.109 08:27 03.10.2019
668 Clouds 8 1016 64 0 3.81 17.109 07:57 03.10.2019
669 Clouds 8 1016 62 0 3.81 17.109 07:39 03.10.2019
670 Clouds 8 1015 64 0 3.81 17.109 07:19 03.10.2019
671 Clouds 8 1015 66 0 3.81 17.109 06:46 03.10.2019
672 Clouds 9 1015 68 0 3.7 20.647 06:20 03.10.2019
673 Clouds 9 1015 71 0 3.7 20.647 05:43 03.10.2019
674 Clouds 9 1015 70 0 3.7 20.647 04:56 03.10.2019
675 Clouds 10 1021 48 0 3.7 20.647 04:25 03.10.2019
676 Clouds 11 1022 41 0 0.89 309 03:23 03.10.2019
677 Clouds 11 1016 72 0 3.97 16.801 02:37 03.10.2019
678 Clouds 11 1022 44 0 1.34 202 01:51 03.10.2019
679 Clouds 11 1022 46 0 4.09 17.824 01:32 03.10.2019
680 Clouds 11 1022 47 0 4.09 17.824 00:47 03.10.2019
681 Clouds 12 1017 63 0 4.07 1.28 00:18 03.10.2019
682 Clouds 12 1023 65 0 4.07 1.28 23:43 02.10.2019
683 Clouds 12 1017 58 0 0.45 222 23:20 02.10.2019
684 Clouds 11 1017 59 0 0.45 322 22:43 02.10.2019
685 Clouds 11 1017 59 0 0.45 322 22:43 02.10.2019
686 Clouds 12 1017 59 0 4.07 1.28 22:21 02.10.2019
687 Clouds 12 1016 59 0 4.07 1.28 21:56 02.10.2019
688 Clouds 12 1016 58 0 4.07 1.28 21:38 02.10.2019
689 Clouds 13 1016 57 0 3.42 3.367 21:19 02.10.2019
690 Clouds 13 1016 56 0 3.72 3.642 20:56 02.10.2019
691 Clouds 14 1016 56 0 0.45 13 20:37 02.10.2019
692 Clouds 13 1015 55 0 3.72 3.642 20:19 02.10.2019
693 Clouds 14 1021 44 0 3.72 3.642 19:46 02.10.2019
694 Clouds 15 1020 41 0 3.72 3.642 19:23 02.10.2019
695 Clouds 16 1020 39 0 3.72 3.642 18:59 02.10.2019
696 Clouds 15 1020 39 0 3.72 3.642 18:40 02.10.2019
697 Clouds 18 1014 47 0 0.89 280 18:21 02.10.2019
698 Clouds 19 1020 37 0 4.23 358.088 17:59 02.10.2019
699 Clouds 18 1020 35 0 2.68 217 17:40 02.10.2019
700 Clouds 18 1020 31 0 4.23 358.088 17:21 02.10.2019
701 Clouds 17 1013 49 0 2.24 187 16:57 02.10.2019
702 Clouds 19 1020 28 0 2.68 228 16:37 02.10.2019
703 Clouds 18 1013 51 0 4.23 358.088 16:19 02.10.2019
704 Clouds 18 1019 38 0 4.23 358.088 15:55 02.10.2019
705 Clouds 19 1019 35 0 2.68 308 15:37 02.10.2019
706 Clouds 19 1019 35 0 1.34 251 15:37 02.10.2019
707 Rain 19 1019 28 0 4.02 272 15:18 02.10.2019
708 Rain 19 1019 27 0 2.68 228 14:43 02.10.2019
709 Rain 17 1019 25 0 3.13 267 14:23 02.10.2019
710 Rain 19 1019 20 0 3.13 280 13:57 02.10.2019
711 Rain 19 1012 58 0 0.45 290 13:38 02.10.2019
712 Rain 18 1011 59 0 0.89 61 13:19 02.10.2019
713 Rain 17 1018 39 0 3.05 353.884 12:40 02.10.2019
714 Clouds 17 1018 38 0 0.89 334 12:22 02.10.2019
715 Clouds 16 1011 65 0 2.02 8.106 11:55 02.10.2019
716 Clouds 16 1011 67 0 2.02 8.106 11:36 02.10.2019
717 Clouds 16 1011 65 0 2.02 8.106 11:18 02.10.2019
718 Clouds 16 1011 65 0 2.02 8.106 11:18 02.10.2019
719 Clouds 14 1018 57 0 2.02 8.106 10:38 02.10.2019
720 Clouds 14 1011 75 0 2.02 8.106 10:18 02.10.2019
721 Clouds 12 1010 72 0 0.45 232 09:40 02.10.2019
722 Clouds 13 1017 61 0 2.84 9.555 09:20 02.10.2019
723 Clouds 11 1017 58 0 3.08 14.988 08:55 02.10.2019
724 Clouds 11 1010 73 0 3.08 14.988 08:36 02.10.2019
725 Clouds 11 1009 72 0 3.08 14.988 08:18 02.10.2019
726 Clouds 11 1016 46 0 3.08 14.988 07:39 02.10.2019
727 Clouds 11 1016 47 0 2.24 321 07:20 02.10.2019
728 Clouds 11 1016 47 0 2.24 321 07:20 02.10.2019
729 Clouds 12 1016 47 0 1.34 242 06:46 02.10.2019
730 Clouds 12 1016 46 0 0.89 302 05:56 02.10.2019
731 Clouds 13 1016 77 0 0.89 262 05:24 02.10.2019
732 Clouds 13 1016 74 0 3.02 9.749 04:53 02.10.2019
733 Clouds 14 1016 71 0 3.02 9.749 03:52 02.10.2019
734 Rain 13 1010 59 0 3.61 7.647 02:42 02.10.2019
735 Rain 13 1010 59 0 3.61 7.647 02:23 02.10.2019
736 Rain 14 1010 69 0 3.61 7.647 01:40 02.10.2019
737 Rain 14 1010 78 0 3.59 6.55 00:50 02.10.2019
738 Rain 14 1017 51 0 3.59 6.55 00:26 02.10.2019
739 Rain 15 1017 47 0 2.68 301 23:43 01.10.2019
740 Rain 14 1017 47 0 3.15 8.598 23:25 01.10.2019
741 Rain 15 1017 42 0 2.24 205 22:59 01.10.2019
742 Rain 15 1017 39 0 3.13 179 22:39 01.10.2019
743 Rain 15 1017 42 0 3.58 214 22:19 01.10.2019
744 Rain 15 1016 43 0 2.68 295 21:57 01.10.2019
745 Rain 15 1016 36 0 5.36 193 21:37 01.10.2019
746 Rain 17 1008 78 0 2.2 2.92 21:19 01.10.2019
747 Rain 18 1016 58 0 1.34 309 20:55 01.10.2019
748 Rain 18 1008 79 0 2.4 357.967 20:36 01.10.2019
749 Rain 19 1015 65 0 1.34 309 20:18 01.10.2019
750 Rain 16 1015 90 0 2.68 213 19:45 01.10.2019
751 Rain 17 1015 89 0 3.58 239 19:27 01.10.2019
752 Rain 17 1007 64 0 2.4 357.967 18:59 01.10.2019
753 Rain 18 1015 87 0 2.68 281 18:40 01.10.2019
754 Clouds 22 1007 61 0 3.4 244.083 18:21 01.10.2019
755 Clouds 23 1007 59 0 3.4 244.083 17:57 01.10.2019
756 Clouds 17 1009 40 0 3.4 244.083 17:38 01.10.2019
757 Clouds 23 1014 25 0 3.58 261 17:19 01.10.2019
758 Clouds 23 1013 23 0 2.68 188 16:57 01.10.2019
759 Clouds 23 1013 23 0 2.68 188 16:57 01.10.2019
760 Clouds 24 1013 11 0 4.02 235 16:39 01.10.2019
761 Clouds 24 1007 36 0 1.34 260 16:20 01.10.2019
762 Clouds 26 1009 28 0 1.79 184 15:42 01.10.2019
763 Clouds 25 1007 36 0 2.64 225.645 15:21 01.10.2019
764 Clouds 25 1007 42 0 2.64 225.645 14:41 01.10.2019
765 Clouds 25 1008 38 0 2.64 225.645 14:20 01.10.2019
766 Clouds 25 1008 37 0 0.89 82 13:57 01.10.2019
767 Clouds 25 1009 36 0 1.34 180 13:39 01.10.2019
768 Clouds 25 1009 39 0 2.32 222.733 13:20 01.10.2019
769 Clouds 25 1009 39 0 2.32 222.733 13:20 01.10.2019
770 Clouds 25 1008 38 0 2.32 222.733 12:57 01.10.2019
771 Clouds 25 1008 38 0 2.32 222.733 12:57 01.10.2019
772 Clouds 24 1011 56 0 2.24 180 12:38 01.10.2019
773 Clear 23 1014 8 0 1.34 155 12:18 01.10.2019
774 Clear 23 1014 8 0 1.34 155 12:18 01.10.2019
775 Clear 22 1014 8 0 1.34 142 11:57 01.10.2019
776 Clear 21 1015 8 0 1.34 160 11:37 01.10.2019
777 -273 0 0 0 0 0 11:18 01.10.2019
778 Clear 18 1010 64 0 2.03 205.908 10:48 01.10.2019
779 Clear 17 1010 57 0 0.45 276 10:28 01.10.2019
780 Clear 17 1015 41 0 2.03 205.908 09:46 01.10.2019
781 Clear 14 1010 65 0 0.89 269 09:26 01.10.2019
782 Clouds 12 1010 75 0 1.38 66.714 08:46 01.10.2019
783 Clouds 11 1010 75 0 1.38 66.714 08:27 01.10.2019
784 Clouds 11 1011 75 0 1.38 66.714 07:58 01.10.2019
785 Clouds 11 1011 74 0 1.38 66.714 07:40 01.10.2019
786 Clouds 12 1011 73 0 1.38 66.714 07:20 01.10.2019
787 Clouds 12 1011 75 0 1.38 66.714 06:42 01.10.2019
788 Clouds 12 1011 72 0 1.29 38.02 06:18 01.10.2019
789 Clouds 12 1011 73 0 1.29 38.02 05:44 01.10.2019
790 Clouds 12 1011 73 0 1.29 38.02 05:44 01.10.2019
791 Clouds 13 1012 73 0 1.29 38.02 04:42 01.10.2019
792 Clouds 13 1017 48 0 1.29 38.02 03:46 01.10.2019
793 Clear 14 1018 46 0 1.25 32.122 02:20 01.10.2019
794 Clear 15 1018 46 0 1.25 32.122 01:56 01.10.2019
795 Clear 15 1018 45 0 1.02 32.88 00:52 01.10.2019
796 Clear 15 1018 42 0 0.08 71.565 00:25 01.10.2019
797 Clear 15 1018 40 0 0.08 71.565 23:42 30.09.2019
798 Clear 16 1018 40 0 0.08 71.565 23:23 30.09.2019
799 Clear 15 1018 39 0 0.08 71.565 22:58 30.09.2019
800 Clear 15 1018 38 0 0.08 71.565 22:40 30.09.2019
801 Clear 16 1018 37 0 0.08 71.565 22:21 30.09.2019
802 Clear 16 1017 80 0 2.24 177 21:55 30.09.2019
803 Clear 16 1017 78 0 0.08 71.565 21:37 30.09.2019
804 Clear 18 1013 53 0 0.95 199.179 21:19 30.09.2019
805 Clear 19 1013 51 0 0.95 199.179 20:55 30.09.2019
806 Clear 20 1013 51 0 0.77 203.993 20:37 30.09.2019
807 Clear 19 1018 25 0 0.77 203.993 20:19 30.09.2019
808 Clear 19 1018 25 0 0.77 203.993 20:19 30.09.2019
809 Clouds 21 1016 36 10000 4.1 220 19:55 30.09.2019
810 Clouds 23 1016 36 10000 4.1 220 19:37 30.09.2019
811 Clouds 24 1016 36 10000 4.1 220 19:18 30.09.2019
812 Clouds 24 1016 36 10000 4.1 220 19:18 30.09.2019
813 Clouds 24 1016 36 10000 4.1 220 19:18 30.09.2019
814 Clouds 22 1016 39 10000 5.1 220 18:41 30.09.2019
815 Clouds 24 1016 39 10000 5.1 220 18:22 30.09.2019
816 Clouds 25 1017 34 10000 5.1 210 17:57 30.09.2019
817 Clear 25 1017 32 10000 5.1 210 17:39 30.09.2019
818 Clear 25 1017 32 10000 5.1 210 17:20 30.09.2019
819 -273 0 0 0 0 0 16:54 30.09.2019
820 Clear 26 1017 32 10000 4.6 210 16:36 30.09.2019
821 Clear 25 1017 32 10000 4.6 210 16:18 30.09.2019
822 Clear 25 1017 32 10000 4.6 210 16:18 30.09.2019
823 Clear 26 1018 34 10000 3.6 220 15:39 30.09.2019
824 Clear 25 1018 32 10000 4.1 200 15:39 30.09.2019
825 Clear 25 1018 34 10000 3.6 220 15:20 30.09.2019
826 Clear 25 1019 38 10000 3.1 230 14:59 30.09.2019
827 Clear 25 1019 38 10000 3.1 230 14:38 30.09.2019
828 Clear 24 1019 36 10000 2.6 230 14:19 30.09.2019
829 Clear 24 1020 44 10000 0.5 0 13:59 30.09.2019
830 Clear 24 1020 44 10000 0.5 0 13:41 30.09.2019
831 Clear 23 1020 43 10000 1 0 13:22 30.09.2019
832 Clear 23 1021 52 10000 1 0 12:55 30.09.2019
833 Clear 23 1021 52 10000 1 0 12:55 30.09.2019
834 Clear 23 1021 52 10000 1 0 12:55 30.09.2019
835 Clear 22 1021 52 10000 1 0 12:36 30.09.2019
836 Clear 21 1021 52 10000 1 0 12:18 30.09.2019
837 Clear 20 1021 55 10000 1 0 11:43 30.09.2019
838 Clear 19 1021 55 10000 0.5 0 11:21 30.09.2019
839 Clear 18 1021 62 10000 1.5 70 10:57 30.09.2019
840 Clear 18 1021 68 0 0.45 292 10:37 30.09.2019
841 Clear 16 1021 24 0 0.89 146 10:18 30.09.2019
842 Clear 16 1021 46 0 2.53 211.881 09:40 30.09.2019
843 Clear 13 1021 46 0 0.43 26.088 09:22 30.09.2019
844 Clear 12 1015 71 0 0.43 26.088 08:52 30.09.2019
845 Clear 12 1015 72 0 0.44 32.143 08:34 30.09.2019
846 Clear 12 1015 72 0 0.44 32.143 07:59 30.09.2019
847 Clear 12 1021 48 0 0.44 32.143 07:40 30.09.2019
848 Clear 12 1021 46 0 0.44 32.143 07:18 30.09.2019
849 Clear 12 1015 71 0 0.44 32.143 06:42 30.09.2019
850 Clear 12 1021 46 0 0.78 35.589 06:23 30.09.2019
851 Clear 13 1019 92 0 0.78 35.589 05:38 30.09.2019
852 Clear 13 1016 66 0 1.14 51.758 02:51 30.09.2019
853 Clear 14 1016 65 0 1.14 51.758 02:20 30.09.2019
854 Clear 13 1022 36 0 1.09 59.962 00:57 30.09.2019
855 Clear 13 1022 36 0 1.09 59.962 00:37 30.09.2019
856 Clear 15 1016 60 0 2.96 24.913 00:19 30.09.2019
857 Clear 15 1016 60 0 2.96 24.913 00:19 30.09.2019
858 Clear 15 1016 60 0 2.96 24.913 00:19 30.09.2019
859 Clear 16 1016 55 0 2.96 24.913 23:40 29.09.2019
860 Clear 16 1016 54 0 2.96 24.913 23:20 29.09.2019
861 Clear 14 1021 26 0 2.96 24.913 22:45 29.09.2019
862 Clear 14 1021 25 0 2.96 24.913 22:25 29.09.2019
863 Clear 14 1021 25 0 2.96 24.913 22:25 29.09.2019
864 Clear 14 1021 25 0 2.96 24.913 22:25 29.09.2019
865 Clear 15 1021 24 0 2.96 24.913 21:59 29.09.2019
866 Clear 16 1020 21 0 2.96 24.913 21:39 29.09.2019
867 Clear 18 1015 52 0 2.46 18.972 21:20 29.09.2019
868 Clear 18 1015 52 0 2.46 18.972 21:20 29.09.2019
869 Clear 18 1020 13 0 2.46 18.972 20:59 29.09.2019
870 Clear 20 1020 10 0 2.46 18.972 20:41 29.09.2019
871 Clear 20 1020 10 0 2.46 18.972 20:41 29.09.2019
872 Clear 21 1017 34 10000 4.6 200 20:19 29.09.2019
873 Clear 24 1017 34 10000 4.6 200 19:55 29.09.2019
874 Clear 26 1017 34 10000 4.6 200 19:36 29.09.2019
875 Clear 26 1017 34 10000 4.6 200 19:18 29.09.2019
876 Clear 27 1017 26 10000 4.6 200 18:55 29.09.2019
877 Clear 28 1017 23 10000 4.6 190 18:36 29.09.2019
878 Clear 27 1017 23 10000 4.6 190 18:18 29.09.2019
879 Clear 27 1017 23 10000 5.1 190 17:55 29.09.2019
880 Clear 27 1017 23 10000 5.1 190 17:54 29.09.2019
881 Clear 27 1017 23 10000 5.1 190 17:54 29.09.2019
882 Clear 27 1017 23 10000 5.1 190 17:54 29.09.2019
883 Clear 27 1017 23 10000 6.2 200 17:36 29.09.2019
884 Clear 27 1017 23 10000 6.2 200 17:18 29.09.2019
885 Clear 28 1017 21 10000 5.7 200 16:41 29.09.2019
886 Clear 27 1017 21 10000 5.1 210 16:20 29.09.2019
887 Clear 28 1017 26 10000 2.6 200 15:58 29.09.2019
888 Clear 27 1018 34 10000 1.5 0 15:38 29.09.2019
889 Clear 26 1018 34 10000 1.5 0 15:19 29.09.2019
890 Clear 26 1019 41 10000 1 0 14:58 29.09.2019
891 Clear 25 1019 46 10000 1.5 0 14:38 29.09.2019
892 Clear 25 1019 46 10000 1.5 0 14:19 29.09.2019
893 Clear 24 1020 43 10000 1.5 0 13:56 29.09.2019
894 Clear 24 1020 49 10000 1.5 160 13:36 29.09.2019
895 Clear 24 1020 49 10000 1.5 160 13:18 29.09.2019
896 Clear 23 1016 47 0 2.04 218.695 12:56 29.09.2019
897 Clear 22 1016 53 0 2.04 218.695 12:38 29.09.2019
898 Clear 22 1021 59 10000 1 0 12:20 29.09.2019
899 Clear 19 1021 67 10000 0.5 0 11:41 29.09.2019
900 Clear 18 1021 67 10000 0.5 0 11:20 29.09.2019
901 Clouds 18 1017 72 0 1.43 203.893 10:58 29.09.2019
902 Clouds 17 1019 12 0 1.43 203.893 10:39 29.09.2019
903 Clouds 15 1019 16 0 1.43 203.893 10:20 29.09.2019
904 Clouds 15 1019 25 0 1.43 203.893 09:57 29.09.2019
905 Clouds 15 1017 73 0 0.45 90 09:38 29.09.2019
906 Clear 12 1017 86 0 1.21 41.811 09:18 29.09.2019
907 Clear 11 1017 85 0 1.21 41.811 08:42 29.09.2019
908 Clear 10 1020 46 0 1.11 40.13 08:21 29.09.2019
909 Clear 10 1017 87 0 1.11 40.13 07:43 29.09.2019
910 Clear 10 1020 47 0 1.11 40.13 07:25 29.09.2019
911 Clear 10 1016 87 0 1.11 40.13 06:49 29.09.2019
912 Clear 11 1017 86 0 0.75 34.244 05:55 29.09.2019
913 Clear 11 1017 84 0 0.75 34.244 04:42 29.09.2019
914 Clear 12 1020 47 0 0.75 34.244 04:23 29.09.2019
915 Clear 13 1017 91 0 0.78 39.456 02:58 29.09.2019
916 Clear 13 1021 47 0 0.78 39.456 02:19 29.09.2019
917 Clear 13 1021 45 0 0.94 36.371 01:40 29.09.2019
918 Clear 14 1021 46 0 0.94 36.371 00:55 29.09.2019
919 Clear 14 1021 45 0 0.94 36.371 00:36 29.09.2019
920 Clear 14 1021 46 0 0.39 61.273 00:18 29.09.2019
921 Clear 14 1021 42 0 0.39 61.273 23:37 28.09.2019
922 Clear 14 1021 42 0 0.39 61.273 23:18 28.09.2019
923 Clear 14 1022 40 0 0.39 61.273 22:40 28.09.2019
924 Clear 14 1022 40 0 0.39 61.273 22:21 28.09.2019
925 Clear 15 1022 39 0 0.39 61.273 21:57 28.09.2019
926 Clear 15 1022 39 0 0.39 61.273 21:39 28.09.2019
927 Clear 16 1017 66 0 1.41 199.234 21:21 28.09.2019
928 Clear 17 1017 65 0 1.41 199.234 20:57 28.09.2019
929 Clear 16 1017 66 0 1.41 199.234 20:57 28.09.2019
930 Clear 17 1017 64 0 1.28 196.167 20:38 28.09.2019
931 Clear 18 1017 62 0 1.28 196.167 20:18 28.09.2019
932 Clear 19 1021 30 0 1.28 196.167 19:56 28.09.2019
933 Clouds 19 1021 49 10000 3.6 220 19:56 28.09.2019
934 Clouds 19 1021 49 10000 3.6 220 19:37 28.09.2019
935 Clouds 19 1021 49 10000 3.6 220 19:37 28.09.2019
936 Clouds 19 1021 49 10000 3.6 220 19:37 28.09.2019
937 Clouds 21 1021 49 10000 3.6 220 19:19 28.09.2019
938 Clouds 20 1020 47 10000 4.6 210 18:54 28.09.2019
939 Clouds 21 1020 44 10000 5.1 200 18:36 28.09.2019
940 Clouds 22 1020 44 10000 5.1 200 18:18 28.09.2019
941 Clouds 23 1020 41 10000 5.7 200 17:42 28.09.2019
942 Clouds 23 1021 38 10000 5.7 210 17:22 28.09.2019
943 Clouds 23 1021 38 10000 5.7 210 17:22 28.09.2019
944 Clouds 23 1021 38 10000 6.2 210 16:57 28.09.2019
945 Clouds 23 1021 38 10000 6.2 210 16:57 28.09.2019
946 Clouds 23 1021 38 10000 6.2 210 16:38 28.09.2019
947 Clouds 23 1021 41 10000 5.7 210 16:20 28.09.2019
948 Clouds 23 1021 38 10000 5.7 210 15:40 28.09.2019
949 Clouds 23 1021 38 10000 5.7 210 15:40 28.09.2019
950 Clouds 22 1022 44 10000 6.2 200 15:22 28.09.2019
951 Clouds 22 1022 44 10000 4.6 200 14:56 28.09.2019
952 Clouds 21 1023 44 10000 4.6 200 14:37 28.09.2019
953 Clouds 21 1023 44 10000 4.6 200 14:19 28.09.2019
954 Clouds 22 1023 49 10000 4.1 210 13:55 28.09.2019
955 -273 0 0 0 0 0 13:55 28.09.2019
956 Clouds 22 1023 56 10000 2.6 220 13:36 28.09.2019
957 Clouds 22 1023 56 10000 2.6 220 13:18 28.09.2019
958 Clouds 20 1024 59 10000 1 0 12:39 28.09.2019
959 Clouds 19 1024 59 10000 1 0 12:18 28.09.2019
960 Clouds 19 1024 67 10000 1 0 11:42 28.09.2019
961 Clouds 18 1024 67 10000 1 0 11:21 28.09.2019
962 Clouds 18 1024 72 10000 0.5 0 10:59 28.09.2019
963 Clouds 18 1024 72 10000 0.5 0 10:39 28.09.2019
964 Clouds 17 1024 87 10000 0.5 0 10:19 28.09.2019
965 Clouds 15 1024 82 10000 0.5 0 09:41 28.09.2019
966 Clouds 15 1024 82 10000 0.5 0 09:41 28.09.2019
967 Clouds 15 1024 87 10000 0.47 127.546 09:22 28.09.2019
968 Clouds 14 1023 37 0 2.24 298 08:48 28.09.2019
969 Clouds 13 1023 38 0 0.89 305 08:29 28.09.2019
970 Clouds 14 1023 40 0 0.37 89.228 07:59 28.09.2019
971 Clouds 14 1017 79 0 0.37 89.228 07:41 28.09.2019
972 Clouds 14 1017 78 0 0.37 89.228 07:19 28.09.2019
973 Clouds 14 1017 78 0 0.37 89.228 06:41 28.09.2019
974 Clouds 15 1023 44 0 0.48 145.32 06:21 28.09.2019
975 Clouds 15 1022 43 0 0.48 145.32 05:37 28.09.2019
976 Clouds 15 1023 42 0 0.48 145.32 05:18 28.09.2019
977 Clouds 15 1022 38 0 0.48 145.32 04:31 28.09.2019
978 Clouds 16 1022 37 0 0.48 145.32 03:42 28.09.2019
979 Clouds 16 1023 37 0 0.6 81.413 02:59 28.09.2019
980 Clouds 16 1023 36 0 0.6 81.413 02:40 28.09.2019
981 Clouds 16 1017 75 0 0.6 81.413 02:22 28.09.2019
982 Clouds 17 1023 36 0 0.6 81.413 01:43 28.09.2019
983 Clouds 16 1023 35 0 0.64 90 01:19 28.09.2019
984 Clouds 17 1023 34 0 0.64 90 00:46 28.09.2019
985 Clouds 17 1016 67 0 2.05 28.883 00:28 28.09.2019
986 Clouds 17 1023 35 0 2.05 28.883 23:39 27.09.2019
987 Clouds 18 1023 34 0 1.34 327 23:21 27.09.2019
988 Clouds 17 1022 34 0 1.34 307 22:56 27.09.2019
989 Clouds 18 1022 34 0 2.05 28.883 22:37 27.09.2019
990 Clouds 17 1022 34 0 2.05 28.883 22:18 27.09.2019
991 Clouds 18 1022 33 0 2.05 28.883 21:41 27.09.2019
992 Clouds 19 1016 53 0 0.72 337.178 21:21 27.09.2019
993 Clouds 19 1015 51 0 0.45 96 20:59 27.09.2019
994 Clouds 19 1015 51 0 0.45 96 20:59 27.09.2019
995 Clouds 20 1022 26 0 1.05 349.695 20:40 27.09.2019
996 Clouds 19 1022 24 0 0.89 336 20:20 27.09.2019
997 Clouds 20 1022 25 0 2.68 322 19:58 27.09.2019
998 Clouds 21 1018 44 10000 4.6 210 19:39 27.09.2019
999 Clouds 21 1018 44 10000 4.6 210 19:21 27.09.2019
1000 Clouds 22 1018 36 10000 4.6 200 18:43 27.09.2019
1001 Clouds 23 1018 36 10000 4.6 200 18:24 27.09.2019
1002 Clouds 23 1018 32 10000 5.1 200 17:57 27.09.2019
1003 Clouds 23 1018 32 10000 4.6 180 17:38 27.09.2019
1004 Clouds 23 1018 32 10000 4.6 180 17:20 27.09.2019
1005 Clouds 24 1018 30 10000 5.7 190 16:57 27.09.2019
1006 Clouds 24 1018 30 10000 4.6 190 16:39 27.09.2019
1007 Clouds 25 1018 30 10000 4.6 190 16:18 27.09.2019
1008 Clouds 26 1018 30 10000 4.1 190 15:47 27.09.2019
1009 Clouds 24 1019 32 10000 4.6 180 15:21 27.09.2019
1010 Clouds 24 1019 41 10000 2.6 190 14:59 27.09.2019
1011 Clouds 24 1019 41 10000 2.6 190 14:41 27.09.2019
1012 Clouds 25 1020 44 10000 1.5 0 14:22 27.09.2019
1013 Clouds 24 1020 47 10000 1 0 13:58 27.09.2019
1014 Clear 24 1020 49 10000 1 0 13:40 27.09.2019
1015 Clear 23 1020 49 10000 1 0 13:21 27.09.2019
1016 Clear 23 1020 49 10000 1 0 13:21 27.09.2019
1017 Clear 22 1021 56 10000 1 0 12:54 27.09.2019
1018 Clear 21 1021 59 10000 1 0 12:24 27.09.2019
1019 Clear 20 1021 63 10000 1.5 130 11:59 27.09.2019
1020 Clear 19 1022 72 10000 1 0 11:38 27.09.2019
1021 Clear 19 1022 72 10000 1 0 11:20 27.09.2019
1022 Clear 18 1020 22 0 2.54 209.278 10:43 27.09.2019
1023 Clear 17 1020 23 0 2.54 209.278 10:23 27.09.2019
1024 Clear 16 1020 28 0 2.54 209.278 09:58 27.09.2019
1025 Clear 16 1020 28 0 2.54 209.278 09:58 27.09.2019
1026 Clear 15 1020 46 0 2.54 209.278 09:40 27.09.2019
1027 Clear 13 1016 87 0 0.47 64.363 09:20 27.09.2019
1028 Clear 12 1021 56 0 0.47 64.363 08:42 27.09.2019
1029 Clear 11 1016 87 0 0.41 89.859 08:22 27.09.2019
1030 Clear 12 1021 53 0 0.41 89.859 07:57 27.09.2019
1031 Clear 12 1016 86 0 0.41 89.859 07:39 27.09.2019
1032 Clear 12 1021 52 0 0.41 89.859 07:19 27.09.2019
1033 Clear 12 1016 85 0 0.41 89.859 06:40 27.09.2019
1034 Clear 12 1016 84 0 0.45 55.24 06:21 27.09.2019
1035 Clear 12 1016 84 0 0.45 55.24 05:47 27.09.2019
1036 Clear 12 1016 83 0 0.45 55.24 05:29 27.09.2019
1037 Clear 13 1016 82 0 0.45 55.24 03:40 27.09.2019
1038 Clouds 14 1021 45 0 0.83 47.773 01:56 27.09.2019
1039 Clouds 14 1021 46 0 0.9 48.425 01:32 27.09.2019
1040 Clouds 14 1021 41 0 0.9 48.425 00:44 27.09.2019
1041 Clear 15 1022 37 0 0.57 52.524 23:58 26.09.2019
1042 Clear 15 1022 37 0 0.57 52.524 23:40 26.09.2019
1043 Clear 16 1021 36 0 0.57 52.524 23:20 26.09.2019
1044 Clear 15 1020 81 0 0.57 52.524 22:58 26.09.2019
1045 Clear 15 1018 64 0 1.79 45 22:40 26.09.2019
1046 Clear 15 1017 76 0 0.57 52.524 22:18 26.09.2019
1047 Clear 15 1017 76 0 0.57 52.524 21:59 26.09.2019
1048 Clear 13 1020 78 0 0.45 327 21:38 26.09.2019
1049 Clear 18 1016 67 0 0.93 194.963 21:19 26.09.2019
1050 Clouds 18 1016 66 0 0.92 197.629 20:58 26.09.2019
1051 Clouds 19 1020 26 0 0.92 197.629 20:40 26.09.2019
1052 Clouds 19 1015 63 0 0.92 197.629 20:21 26.09.2019
1053 Clouds 19 1019 41 10000 3.1 230 19:58 26.09.2019
1054 Clouds 21 1019 41 10000 3.1 230 19:39 26.09.2019
1055 Clouds 23 1019 41 10000 3.1 230 19:18 26.09.2019
1056 Clouds 23 1019 41 10000 3.1 230 19:18 26.09.2019
1057 Clouds 22 1019 41 10000 3.6 230 18:44 26.09.2019
1058 Clouds 24 1019 41 10000 3.6 230 18:22 26.09.2019
1059 Clouds 24 1019 38 10000 4.1 220 17:59 26.09.2019
1060 Clouds 24 1019 38 10000 4.1 220 17:59 26.09.2019
1061 Clouds 24 1019 38 10000 4.1 220 17:38 26.09.2019
1062 Clouds 24 1019 38 10000 4.1 220 17:19 26.09.2019
1063 Clouds 25 1019 38 10000 4.6 210 16:56 26.09.2019
1064 Clouds 25 1019 41 10000 4.6 210 16:37 26.09.2019
1065 Clouds 25 1019 41 10000 4.6 210 16:18 26.09.2019
1066 Clouds 25 1019 41 10000 4.6 210 16:18 26.09.2019
1067 Clouds 24 1019 41 10000 4.6 220 15:42 26.09.2019
1068 Clouds 23 1019 44 10000 4.6 220 15:23 26.09.2019
1069 Clouds 23 1020 44 10000 4.1 220 14:59 26.09.2019
1070 Clouds 24 1020 44 10000 4.1 220 14:40 26.09.2019
1071 Clouds 23 1020 44 10000 3.1 220 14:21 26.09.2019
1072 Clouds 23 1021 49 10000 2.1 230 13:57 26.09.2019
1073 Clouds 22 1021 46 10000 2.1 230 13:39 26.09.2019
1074 Clouds 22 1021 46 10000 2.1 230 13:39 26.09.2019
1075 Clouds 22 1021 46 10000 2.1 230 13:19 26.09.2019
1076 Clear 21 1021 55 10000 2.6 210 12:43 26.09.2019
1077 Clear 20 1022 59 10000 1 0 12:22 26.09.2019
1078 Clear 19 1022 63 10000 1.5 190 11:57 26.09.2019
1079 Clear 18 1022 63 10000 1 0 11:38 26.09.2019
1080 Clear 18 1022 63 10000 1 0 11:19 26.09.2019
1081 Clear 17 1022 72 10000 1 0 10:42 26.09.2019
1082 Clouds 16 1016 81 0 1.75 205.816 10:23 26.09.2019
1083 Clouds 15 1016 80 0 1.75 205.816 09:57 26.09.2019
1084 Clouds 14 1016 81 0 1.75 205.816 09:39 26.09.2019
1085 Clouds 14 1020 45 0 2.22 31.69 09:18 26.09.2019
1086 Clouds 12 1016 81 0 1.93 30.811 08:48 26.09.2019
1087 Clouds 12 1016 83 0 1.93 30.811 08:30 26.09.2019
1088 Clouds 12 1016 81 0 1.93 30.811 07:47 26.09.2019
1089 Clouds 13 1016 81 0 1.93 30.811 07:22 26.09.2019
1090 Clouds 13 1015 82 0 1.93 30.811 06:52 26.09.2019
1091 Clouds 13 1015 82 0 1.93 30.811 06:28 26.09.2019
1092 Clouds 14 1021 45 0 2.52 14.747 05:52 26.09.2019
1093 Clouds 13 1020 44 0 2.52 14.747 05:26 26.09.2019
1094 Clouds 13 1015 79 0 2.52 14.747 03:27 26.09.2019
1095 Clouds 14 1021 44 0 1.59 350.911 01:56 26.09.2019
1096 Clouds 14 1015 77 0 1.59 350.911 01:38 26.09.2019
1097 Clouds 13 1015 76 0 1.35 4.926 01:19 26.09.2019
1098 Clouds 13 1020 40 0 1.35 4.926 00:41 26.09.2019
1099 Clouds 14 1020 40 0 0.75 321.971 00:21 26.09.2019
1100 Clouds 14 1015 75 0 0.75 321.971 23:43 25.09.2019
1101 -273 0 0 0 0 0 23:19 25.09.2019
1102 Clouds 15 1020 40 0 0.75 321.971 22:54 25.09.2019
1103 Clouds 15 1020 40 0 0.75 321.971 22:36 25.09.2019
1104 Clouds 15 1020 39 0 0.75 321.971 22:18 25.09.2019
1105 Clouds 16 1020 37 0 0.75 321.971 21:55 25.09.2019
1106 Clouds 15 1020 36 0 0.75 321.971 21:36 25.09.2019
1107 Rain 17 1013 67 0 0.73 291.06 21:18 25.09.2019
1108 Rain 17 1013 65 0 0.73 291.06 20:55 25.09.2019
1109 Rain 17 1013 63 0 0.44 296.334 20:37 25.09.2019
1110 Rain 17 1013 64 0 0.44 296.334 20:18 25.09.2019
1111 Rain 17 1018 29 0 0.44 296.334 19:38 25.09.2019
1112 Rain 19 1018 26 0 0.44 296.334 19:20 25.09.2019
1113 Rain 19 1018 24 0 0.44 296.334 18:56 25.09.2019
1114 Clouds 20 1016 46 10000 5.1 200 18:37 25.09.2019
1115 Rain 20 1018 24 0 0.44 296.334 18:37 25.09.2019
1116 Clouds 20 1016 46 10000 5.1 200 18:18 25.09.2019
1117 Clouds 20 1016 46 10000 5.1 200 18:18 25.09.2019
1118 Clouds 21 1016 46 10000 5.1 200 17:40 25.09.2019
1119 Clouds 21 1016 46 10000 5.1 200 17:21 25.09.2019
1120 Clouds 21 1016 43 10000 6.2 210 16:57 25.09.2019
1121 Clouds 22 1016 43 10000 6.2 210 16:37 25.09.2019
1122 Clouds 22 1016 43 10000 6.2 210 16:19 25.09.2019
1123 Clouds 21 1016 46 10000 5.7 210 15:42 25.09.2019
1124 Clouds 21 1016 49 10000 5.7 210 15:23 25.09.2019
1125 Clouds 21 1016 46 10000 6.2 210 14:58 25.09.2019
1126 Clouds 21 1016 46 10000 6.2 210 14:39 25.09.2019
1127 Clouds 20 1016 49 10000 6.2 200 14:21 25.09.2019
1128 Clouds 20 1016 49 10000 6.2 210 13:56 25.09.2019
1129 Clouds 20 1016 46 10000 5.7 210 13:38 25.09.2019
1130 Clouds 20 1016 46 10000 5.7 210 13:19 25.09.2019
1131 Clouds 19 1017 55 10000 0.5 0 12:42 25.09.2019
1132 Clouds 18 1017 55 10000 0.5 0 12:23 25.09.2019
1133 Clouds 18 1017 59 10000 1 0 11:58 25.09.2019
1134 Clouds 17 1017 59 10000 1 0 11:40 25.09.2019
1135 Clouds 16 1017 72 10000 1 80 11:19 25.09.2019
1136 Clouds 16 1017 72 10000 1.34 252.106 10:45 25.09.2019
1137 Clouds 15 1017 82 10000 1 0 10:26 25.09.2019
1138 Clouds 14 1017 87 10000 1 80 09:58 25.09.2019
1139 Clouds 14 1017 87 10000 1 80 09:58 25.09.2019
1140 Clouds 14 1016 87 10000 1 0 09:37 25.09.2019
1141 Rain 13 1019 41 0 0.46 23.264 09:19 25.09.2019
1142 Rain 13 1011 82 0 0.27 33.632 08:44 25.09.2019
1143 Rain 13 1011 80 0 0.27 33.632 08:21 25.09.2019
1144 Rain 12 1011 79 0 0.27 33.632 07:57 25.09.2019
1145 Rain 12 1018 40 0 0.27 33.632 07:38 25.09.2019
1146 Rain 13 1010 77 0 0.27 33.632 07:20 25.09.2019
1147 Rain 13 1010 74 0 0.27 33.632 06:43 25.09.2019
1148 Clouds 13 1018 39 0 0.89 318 06:22 25.09.2019
1149 Clouds 14 1018 35 0 0.49 357.061 05:31 25.09.2019
1150 Clouds 14 1018 34 0 0.49 357.061 04:55 25.09.2019
1151 Clouds 15 1018 28 0 0.88 182.736 02:19 25.09.2019
1152 Clouds 15 1015 71 0 2.68 22 00:46 25.09.2019
1153 Clouds 15 1018 34 0 0.14 63.246 00:26 25.09.2019
1154 Clouds 16 1018 33 0 0.48 123.094 23:58 24.09.2019
1155 Clouds 16 1018 33 0 0.89 298 23:39 24.09.2019
1156 Clouds 16 1018 29 0 0.48 123.094 23:20 24.09.2019
1157 Clouds 16 1014 61 0 4.92 45 22:39 24.09.2019
1158 Clouds 15 1017 77 0 0.48 123.094 22:21 24.09.2019
1159 Clouds 14 1017 74 0 0.45 120 21:58 24.09.2019
1160 Clouds 15 1018 45 0 0.53 170.876 21:58 24.09.2019
1161 Clouds 14 1017 74 0 0.45 120 21:58 24.09.2019
1162 Clouds 15 1017 72 0 0.53 170.876 21:37 24.09.2019
1163 Clear 20 1013 56 0 0.89 130 21:19 24.09.2019
1164 Clear 20 1013 55 0 2.68 155 20:57 24.09.2019
1165 Clear 20 1013 55 0 1.34 179 20:39 24.09.2019
1166 Clear 20 1013 54 0 0.89 210 20:20 24.09.2019
1167 Clear 20 1017 12 0 1.25 231.814 19:44 24.09.2019
1168 Clear 22 1017 11 0 1.25 231.814 19:24 24.09.2019
1169 Clear 22 1016 9 0 1.25 231.814 18:59 24.09.2019
1170 Clouds 24 1015 34 10000 4.6 180 18:41 24.09.2019
1171 Clouds 24 1015 34 10000 4.6 180 18:41 24.09.2019
1172 Clouds 25 1015 34 10000 4.6 180 18:22 24.09.2019
1173 Clouds 25 1015 34 10000 4.6 180 17:58 24.09.2019
1174 Clouds 25 1015 34 10000 4.6 180 17:39 24.09.2019
1175 Clouds 25 1015 34 10000 4.6 180 17:39 24.09.2019
1176 Clouds 25 1015 34 10000 4.6 180 17:20 24.09.2019
1177 Clouds 26 1015 34 10000 4.6 180 16:58 24.09.2019
1178 Clear 26 1015 34 10000 4.6 200 16:40 24.09.2019
1179 Clear 26 1016 34 10000 4.6 190 16:18 24.09.2019
1180 Clear 26 1016 34 10000 4.6 190 15:42 24.09.2019
1181 Clear 25 1016 36 10000 2.6 0 15:23 24.09.2019
1182 Clear 25 1017 36 10000 1 0 14:44 24.09.2019
1183 Clear 25 1017 40 10000 1.5 0 14:20 24.09.2019
1184 Clear 23 1017 46 10000 1.5 0 13:56 24.09.2019
1185 Clear 23 1017 46 10000 1.5 0 13:56 24.09.2019
1186 Clear 23 1018 46 10000 1 0 13:38 24.09.2019
1187 Clear 23 1018 46 10000 1 0 13:20 24.09.2019
1188 Clear 21 1018 55 10000 1 0 12:40 24.09.2019
1189 Clear 20 1018 55 10000 1 0 12:20 24.09.2019
1190 Clear 19 1019 62 10000 1 0 11:43 24.09.2019
1191 Clear 18 1019 62 10000 1 0 11:22 24.09.2019
1192 Clear 18 1019 67 10000 0.5 0 10:59 24.09.2019
1193 Clear 16 1019 67 10000 0.5 0 10:39 24.09.2019
1194 Clear 16 1019 76 10000 1 0 10:20 24.09.2019
1195 Clear 15 1019 81 10000 1 0 09:46 24.09.2019
1196 Clear 15 1019 81 10000 1 0 09:46 24.09.2019
1197 Clear 15 1019 81 10000 1 0 09:46 24.09.2019
1198 Clear 14 1020 87 10000 1 0 09:27 24.09.2019
1199 Clouds 12 1016 86 0 0.58 290.084 08:58 24.09.2019
1200 Clouds 10 1017 54 0 0.46 308.073 08:40 24.09.2019
1201 Clouds 10 1016 86 0 0.46 308.073 08:21 24.09.2019
1202 Clouds 10 1017 57 0 0.46 308.073 07:57 24.09.2019
1203 Clouds 10 1017 54 0 0.46 308.073 07:37 24.09.2019
1204 Clouds 10 1016 85 0 0.46 308.073 07:18 24.09.2019
1205 Clouds 10 1016 83 0 0.46 308.073 06:37 24.09.2019
1206 Clouds 10 1016 83 0 0.46 308.073 06:37 24.09.2019
1207 Clouds 10 1017 48 0 0.23 191.162 05:53 24.09.2019
1208 Clouds 11 1016 82 0 0.23 191.162 05:20 24.09.2019
1209 Clouds 12 1016 80 0 0.23 191.162 03:45 24.09.2019
1210 Clouds 12 1019 47 0 0.23 220.308 02:57 24.09.2019
1211 Clouds 12 1019 44 0 0.23 220.308 02:39 24.09.2019
1212 Clouds 12 1019 42 0 0.23 220.308 01:39 24.09.2019
1213 Clouds 13 1020 40 0 0.13 93.036 00:38 24.09.2019
1214 Clouds 13 1020 41 0 1.02 34.19 00:20 24.09.2019
1215 Clouds 13 1020 39 0 1.02 34.19 23:41 23.09.2019
1216 Clouds 13 1021 38 0 1.02 34.19 23:21 23.09.2019
1217 Clouds 13 1020 37 0 1.02 34.19 22:40 23.09.2019
1218 Clouds 14 1020 36 0 1.02 34.19 22:21 23.09.2019
1219 Clouds 14 1020 36 0 1.02 34.19 22:21 23.09.2019
1220 Clouds 14 1020 35 0 1.02 34.19 21:58 23.09.2019
1221 Clouds 14 1021 34 0 1.02 34.19 21:40 23.09.2019
1222 Clouds 15 1017 68 0 0.69 291.647 21:20 23.09.2019
1223 Clouds 16 1017 67 0 0.69 291.647 20:56 23.09.2019
1224 Clouds 16 1020 26 0 0.93 267.955 20:37 23.09.2019
1225 Clouds 16 1016 67 0 0.93 267.955 20:18 23.09.2019
1226 Clouds 19 1019 40 10000 5.1 200 19:39 23.09.2019
1227 Clouds 19 1019 40 10000 5.1 200 19:39 23.09.2019
1228 Clouds 19 1019 40 10000 5.1 200 19:21 23.09.2019
1229 Clouds 21 1019 40 10000 5.1 200 18:58 23.09.2019
1230 Clouds 21 1019 40 10000 4.1 210 18:39 23.09.2019
1231 Clouds 21 1019 40 10000 4.1 210 18:18 23.09.2019
1232 Clouds 22 1019 37 10000 4.6 200 17:56 23.09.2019
1233 Clouds 21 1019 37 10000 4.1 200 17:37 23.09.2019
1234 Clouds 22 1019 37 10000 4.1 200 17:18 23.09.2019
1235 Clouds 22 1019 37 10000 3.6 200 16:40 23.09.2019
1236 Clouds 21 1019 40 10000 3.6 220 16:22 23.09.2019
1237 Clouds 22 1019 37 10000 3.1 220 15:59 23.09.2019
1238 Clouds 21 1019 37 10000 3.1 220 15:41 23.09.2019
1239 Clouds 21 1019 40 10000 3.1 210 15:20 23.09.2019
1240 Clouds 21 1020 42 10000 3.1 210 14:58 23.09.2019
1241 Clouds 20 1020 45 10000 3.1 230 14:39 23.09.2019
1242 Clouds 20 1020 45 10000 3.1 230 14:19 23.09.2019
1243 Clouds 20 1020 45 10000 2.6 220 13:57 23.09.2019
1244 Clouds 21 1020 42 10000 2.1 0 13:37 23.09.2019
1245 Clouds 20 1020 42 10000 2.1 0 13:18 23.09.2019
1246 Clouds 20 1020 42 10000 2.1 0 13:18 23.09.2019
1247 Clouds 19 1021 48 10000 1 0 12:40 23.09.2019
1248 Clouds 18 1021 48 10000 1 0 12:21 23.09.2019
1249 Clouds 17 1021 67 10000 1 0 11:55 23.09.2019
1250 Clouds 17 1021 82 10000 1 0 11:36 23.09.2019
1251 Clouds 16 1021 82 10000 1 0 11:18 23.09.2019
1252 Clouds 15 1021 82 10000 1 0 10:42 23.09.2019
1253 Clouds 14 1017 79 0 1.54 235.886 10:20 23.09.2019
1254 Clouds 13 1022 44 0 1.54 235.886 09:41 23.09.2019
1255 Clouds 13 1022 63 0 1.1 39.739 09:21 23.09.2019
1256 Clouds 12 1021 67 0 1.1 39.739 08:58 23.09.2019
1257 Clouds 12 1021 68 0 1.15 35.561 08:38 23.09.2019
1258 Clouds 12 1022 65 0 1.15 35.561 08:18 23.09.2019
1259 Clouds 12 1022 65 0 1.15 35.561 08:18 23.09.2019
1260 Clouds 12 1022 68 0 1.15 35.561 08:18 23.09.2019
1261 Clouds 12 1021 70 0 1.15 35.561 07:33 23.09.2019
1262 Clouds 11 1015 78 0 1.15 35.561 06:53 23.09.2019
1263 Clouds 12 1020 72 0 2.41 20.331 06:20 23.09.2019
1264 Clouds 13 1020 73 0 2.41 20.331 05:23 23.09.2019
1265 Clouds 13 1020 73 0 2.41 20.331 04:56 23.09.2019
1266 Clouds 13 1014 80 0 2.41 20.331 03:56 23.09.2019
1267 Clouds 14 1020 61 0 2.38 22.002 01:25 23.09.2019
1268 Rain 14 1020 58 0 1.74 28.542 00:24 23.09.2019
1269 Rain 14 1013 83 0 1.74 28.542 23:58 22.09.2019
1270 Rain 14 1020 58 0 1.74 28.542 23:58 22.09.2019
1271 Rain 15 1020 58 0 1.74 28.542 23:39 22.09.2019
1272 Rain 15 1020 59 0 1.74 28.542 23:20 22.09.2019
1273 Rain 14 1020 55 0 1.74 28.542 22:54 22.09.2019
1274 Rain 14 1020 53 0 1.74 28.542 22:36 22.09.2019
1275 Rain 14 1020 54 0 1.74 28.542 22:18 22.09.2019
1276 Rain 14 1019 47 0 1.74 28.542 21:40 22.09.2019
1277 Rain 15 1011 67 0 1.34 153 21:20 22.09.2019
1278 Rain 16 1019 46 0 1.16 195.455 20:43 22.09.2019
1279 Clouds 16 1014 49 10000 3.6 240 20:24 22.09.2019
1280 Clouds 17 1014 49 10000 3.6 240 19:56 22.09.2019
1281 Clouds 18 1014 49 10000 3.6 240 19:38 22.09.2019
1282 Clouds 17 1014 49 10000 3.6 240 19:38 22.09.2019
1283 Clouds 18 1014 49 10000 3.6 240 19:19 22.09.2019
1284 Clouds 16 1014 53 10000 3.6 220 18:56 22.09.2019
1285 Clouds 16 1014 53 10000 3.6 220 18:56 22.09.2019
1286 Clouds 16 1013 56 10000 4.1 200 18:36 22.09.2019
1287 Clouds 16 1013 56 10000 4.1 200 18:36 22.09.2019
1288 Clouds 19 1013 56 10000 4.1 200 18:18 22.09.2019
1289 Clouds 19 1013 53 10000 3.6 210 17:42 22.09.2019
1290 Rain 19 1013 56 10000 4.1 200 17:24 22.09.2019
1291 Clouds 21 1013 53 10000 3.1 210 16:46 22.09.2019
1292 Clouds 22 1013 50 10000 3.6 200 16:27 22.09.2019
1293 Clouds 22 1013 50 10000 3.1 190 15:58 22.09.2019
1294 Clouds 23 1013 50 10000 3.1 190 15:40 22.09.2019
1295 Clouds 22 1013 60 10000 2.1 190 15:21 22.09.2019
1296 Clouds 22 1013 60 10000 2.1 190 15:21 22.09.2019
1297 Clouds 22 1014 56 10000 1.5 0 14:46 22.09.2019
1298 Clouds 22 1014 64 10000 1 0 14:26 22.09.2019
1299 Clouds 21 1014 68 10000 2.1 190 13:59 22.09.2019
1300 Clouds 21 1014 68 10000 2.1 190 13:41 22.09.2019
1301 Clouds 21 1014 72 10000 1.5 0 13:22 22.09.2019
1302 Clouds 20 1015 68 10000 1 0 12:55 22.09.2019
1303 Clouds 19 1015 77 10000 1 0 12:36 22.09.2019
1304 Clouds 20 1015 77 10000 1 0 12:18 22.09.2019
1305 Clouds 19 1015 82 10000 0.5 0 11:41 22.09.2019
1306 Clouds 18 1015 82 10000 0.5 0 11:23 22.09.2019
1307 Clouds 18 1015 82 10000 0.5 0 11:23 22.09.2019
1308 Rain 17 1010 83 0 2.26 209.291 10:45 22.09.2019
1309 Rain 17 1012 19 0 2.26 209.291 10:21 22.09.2019
1310 Rain 16 1010 84 0 2.26 209.291 09:59 22.09.2019
1311 Rain 15 1009 89 0 2.26 209.291 09:59 22.09.2019
1312 Rain 15 1009 89 0 2.26 209.291 09:40 22.09.2019
1313 Clouds 15 1012 38 0 0.83 170.481 09:20 22.09.2019
1314 Clouds 14 1009 92 0 0.98 196.744 08:45 22.09.2019
1315 Clouds 14 1009 92 0 0.98 196.744 08:25 22.09.2019
1316 Clouds 14 1009 92 0 0.98 196.744 07:56 22.09.2019
1317 Clouds 14 1009 91 0 0.98 196.744 07:38 22.09.2019
1318 Clouds 14 1009 91 0 0.98 196.744 07:18 22.09.2019
1319 Clouds 14 1011 39 0 0.98 196.744 06:55 22.09.2019
1320 Clouds 14 1009 88 0 0.77 226.001 05:36 22.09.2019
1321 Clouds 14 1009 85 0 0.77 226.001 03:48 22.09.2019
1322 Clouds 14 1012 41 0 1.35 210.76 02:38 22.09.2019
1323 Clouds 15 1012 40 0 1.35 210.76 02:19 22.09.2019
1324 Clouds 15 1013 40 0 0.88 204.985 01:20 22.09.2019
1325 Clouds 15 1012 36 0 0.88 204.985 00:33 22.09.2019
1326 Clouds 15 1013 31 0 0.84 154.813 23:59 21.09.2019
1327 Clouds 15 1013 27 0 0.84 154.813 23:40 21.09.2019
1328 Clouds 16 1010 72 0 0.89 149 23:19 21.09.2019
1329 Clouds 17 1013 25 0 0.89 341 22:39 21.09.2019
1330 Clouds 17 1013 25 0 0.89 341 22:39 21.09.2019
1331 Clouds 17 1013 26 0 0.84 154.813 22:21 21.09.2019
1332 Clouds 17 1013 23 0 0.84 154.813 21:43 21.09.2019
1333 Rain 16 1010 74 0 0.45 270 21:20 21.09.2019
1334 Rain 17 1010 78 0 1.75 210.992 20:59 21.09.2019
1335 Clouds 18 1014 56 10000 3.1 230 20:38 21.09.2019
1336 Clouds 18 1014 56 10000 3.1 230 20:19 21.09.2019
1337 Clouds 18 1014 56 10000 3.1 230 20:19 21.09.2019
1338 Clouds 18 1014 56 10000 3.1 230 19:47 21.09.2019
1339 Clouds 19 1014 56 10000 3.1 230 19:23 21.09.2019
1340 Clouds 20 1014 53 10000 3.6 230 18:55 21.09.2019
1341 Clouds 21 1014 49 10000 3.6 220 18:36 21.09.2019
1342 Clouds 20 1014 49 10000 3.6 220 18:18 21.09.2019
1343 Clouds 20 1014 53 10000 4.1 210 17:39 21.09.2019
1344 Clouds 20 1014 53 10000 4.1 210 17:19 21.09.2019
1345 Clouds 21 1014 50 10000 3.6 210 16:43 21.09.2019
1346 Clouds 21 1015 60 10000 2.1 210 16:24 21.09.2019
1347 Clouds 20 1015 64 10000 1.5 230 15:48 21.09.2019
1348 Clouds 21 1015 64 10000 1.5 0 15:25 21.09.2019
1349 Clouds 21 1015 64 10000 1.5 180 14:51 21.09.2019
1350 Clouds 21 1016 68 10000 1.5 160 14:32 21.09.2019
1351 Clouds 21 1016 72 10000 1.5 100 13:58 21.09.2019
1352 Clouds 19 1017 77 10000 1 0 13:40 21.09.2019
1353 Clouds 19 1017 77 10000 1 0 13:40 21.09.2019
1354 Clouds 20 1017 77 10000 1 0 13:22 21.09.2019
1355 Clouds 19 1017 88 10000 1 0 12:56 21.09.2019
1356 Clouds 19 1017 100 10000 2.6 240 12:38 21.09.2019
1357 Clouds 19 1017 100 10000 2.6 240 12:20 21.09.2019
1358 Fog 17 1017 100 10000 1.5 340 11:44 21.09.2019
1359 Fog 17 1018 100 50 0.5 0 11:24 21.09.2019
1360 Fog 17 1018 100 50 0.5 0 11:24 21.09.2019
1361 Rain 15 1012 87 0 1.73 137.653 10:55 21.09.2019
1362 Rain 15 1012 85 0 1.73 137.653 10:36 21.09.2019
1363 Rain 15 1013 82 0 0.45 203 10:18 21.09.2019
1364 Rain 15 1012 79 0 1.73 137.653 09:40 21.09.2019
1365 Clouds 15 1015 40 0 1.69 139.236 09:21 21.09.2019
1366 Clouds 15 1015 41 0 1.69 139.236 08:52 21.09.2019
1367 Clouds 14 1012 74 0 1.5 142.343 08:29 21.09.2019
1368 Clouds 15 1015 41 0 1.5 142.343 07:42 21.09.2019
1369 Clouds 15 1015 38 0 1.5 142.343 07:24 21.09.2019
1370 Clouds 15 1015 37 0 1.5 142.343 06:58 21.09.2019
1371 Clouds 15 1015 40 0 1.5 142.343 06:33 21.09.2019
1372 Clouds 15 1015 31 0 1.49 130.293 05:36 21.09.2019
1373 Clouds 16 1015 30 0 1.49 130.293 05:36 21.09.2019
1374 Clouds 16 1016 32 0 1.49 130.293 04:37 21.09.2019
1375 Clouds 16 1016 36 0 1.61 159.91 03:22 21.09.2019
1376 Clouds 16 1017 35 0 1.42 151.486 02:21 21.09.2019
1377 Clouds 17 1017 38 0 1.42 151.486 01:46 21.09.2019
1378 Clouds 16 1017 41 0 1.42 151.486 00:51 21.09.2019
1379 Clouds 16 1017 41 0 2.02 180.51 00:20 21.09.2019
1380 Clouds 16 1016 76 0 2.02 180.51 23:46 20.09.2019
1381 Clouds 16 1016 75 0 2.02 180.51 23:28 20.09.2019
1382 Clouds 17 1018 37 0 2.02 180.51 22:42 20.09.2019
1383 Clouds 17 1017 36 0 2.02 180.51 22:24 20.09.2019
1384 Clouds 17 1018 36 0 2.02 180.51 21:57 20.09.2019
1385 Clouds 17 1018 35 0 2.02 180.51 21:38 20.09.2019
1386 Rain 19 1016 71 0 1.35 162.504 21:20 20.09.2019
1387 Rain 19 1016 70 0 0.89 94 20:56 20.09.2019
1388 Rain 18 1016 71 0 1.49 164.176 20:37 20.09.2019
1389 Clouds 19 1019 49 10000 3.1 260 20:18 20.09.2019
1390 Clouds 20 1019 49 10000 3.1 260 19:45 20.09.2019
1391 Clouds 21 1019 49 10000 3.1 260 19:25 20.09.2019
1392 Clouds 21 1019 47 10000 3.6 230 18:58 20.09.2019
1393 Clouds 21 1019 47 10000 2.6 0 18:38 20.09.2019
1394 Clouds 23 1019 47 10000 2.6 0 18:18 20.09.2019
1395 Clouds 23 1019 47 10000 2.6 0 18:18 20.09.2019
1396 Clouds 24 1019 53 10000 3.1 320 17:44 20.09.2019
1397 Clouds 24 1019 49 10000 4.6 320 17:25 20.09.2019
1398 Clouds 24 1020 56 10000 4.1 330 16:43 20.09.2019
1399 Clouds 24 1020 64 10000 6.2 330 16:21 20.09.2019
1400 Clouds 23 1020 60 10000 6.7 330 15:58 20.09.2019
1401 Clouds 24 1020 60 10000 6.7 330 15:58 20.09.2019
1402 Clouds 22 1021 60 10000 6.7 320 15:40 20.09.2019
1403 Clouds 22 1021 60 10000 6.7 320 15:22 20.09.2019
1404 Clouds 23 1021 56 10000 4.6 320 14:43 20.09.2019
1405 Clouds 22 1021 53 10000 2.6 240 14:19 20.09.2019
1406 Clouds 22 1022 60 10000 1 0 13:48 20.09.2019
1407 Clouds 22 1022 60 10000 1 0 13:48 20.09.2019
1408 Clouds 21 1023 68 10000 1.5 0 13:28 20.09.2019
1409 Clouds 21 1023 68 10000 1.5 0 12:58 20.09.2019
1410 Clouds 21 1023 77 10000 1.5 130 12:37 20.09.2019
1411 Clouds 20 1023 77 10000 1.5 130 12:18 20.09.2019
1412 Clouds 20 1023 82 10000 2.1 130 11:49 20.09.2019
1413 Clouds 20 1023 82 10000 2.1 130 11:49 20.09.2019
1414 Clouds 19 1023 82 10000 1.5 120 11:21 20.09.2019
1415 Rain 18 1018 83 0 2.44 200.394 10:43 20.09.2019
1416 Rain 18 1018 83 0 2.44 200.394 10:43 20.09.2019
1417 Rain 17 1018 85 0 2.44 200.394 10:24 20.09.2019
1418 Rain 16 1018 86 0 2.44 200.394 09:59 20.09.2019
1419 Rain 15 1018 87 0 2.44 200.394 09:37 20.09.2019
1420 Rain 15 1018 87 0 2.44 200.394 09:37 20.09.2019
1421 Clear 15 1018 88 0 0.44 117.618 09:18 20.09.2019
1422 Clear 13 1017 88 0 0.44 117.618 08:41 20.09.2019
1423 Clear 13 1017 90 0 0.44 117.618 08:23 20.09.2019
1424 Clear 13 1017 89 0 0.44 117.618 07:47 20.09.2019
1425 Clouds 13 1017 90 0 0.48 118.058 07:26 20.09.2019
1426 Clouds 13 1017 89 0 0.48 118.058 06:44 20.09.2019
1427 Clear 13 1017 89 0 0.46 106.474 06:21 20.09.2019
1428 Clear 14 1020 63 0 0.46 106.474 05:44 20.09.2019
1429 Clear 14 1018 84 0 0.46 106.474 03:36 20.09.2019
1430 Clouds 14 1021 53 0 0.97 104.581 03:18 20.09.2019
1431 Clouds 14 1018 83 0 0.97 104.581 01:44 20.09.2019
1432 Clouds 14 1021 46 0 0.91 93.706 00:52 20.09.2019
1433 Clouds 15 1021 46 0 1.44 57.948 00:21 20.09.2019
1434 Clouds 16 1021 41 0 1.44 57.948 23:42 19.09.2019
1435 Clouds 16 1022 39 0 1.44 57.948 23:19 19.09.2019
1436 Clouds 15 1021 39 0 1.44 57.948 22:55 19.09.2019
1437 Clouds 15 1018 92 0 1.44 57.948 22:36 19.09.2019
1438 Clouds 16 1018 86 0 0.89 270 22:18 19.09.2019
1439 Clouds 15 1021 95 0 1.44 57.948 21:55 19.09.2019
1440 Clouds 15 1020 94 0 1.44 57.948 21:36 19.09.2019
1441 Rain 17 1018 73 0 0.41 27.687 21:18 19.09.2019
1442 Rain 17 1017 74 0 0.41 27.687 20:43 19.09.2019
1443 Rain 17 1020 33 0 0.67 30.177 20:21 19.09.2019
1444 Rain 18 1020 72 10000 1.5 10 19:55 19.09.2019
1445 Rain 18 1020 72 10000 1.5 10 19:37 19.09.2019
1446 Rain 18 1020 72 10000 1.5 10 19:19 19.09.2019
1447 Rain 18 1020 72 10000 1.5 10 19:19 19.09.2019
1448 Rain 19 1019 68 10000 2.1 0 18:42 19.09.2019
1449 Rain 19 1019 68 10000 2.1 0 18:24 19.09.2019
1450 Thunderstorm 20 1019 64 10000 1 0 17:44 19.09.2019
1451 Thunderstorm 20 1019 60 0 2.1 200 17:25 19.09.2019
1452 Rain 21 1018 49 10000 6.2 330 16:59 19.09.2019
1453 Rain 21 1018 49 10000 6.2 330 16:40 19.09.2019
1454 Rain 20 1018 41 10000 3.1 280 16:20 19.09.2019
1455 Thunderstorm 21 1019 41 10000 2.1 180 15:41 19.09.2019
1456 Thunderstorm 22 1019 47 10000 1 0 15:22 19.09.2019
1457 Clouds 24 1020 53 10000 1 0 14:58 19.09.2019
1458 Clouds 23 1020 53 10000 1 0 14:39 19.09.2019
1459 Clouds 24 1020 53 10000 1 0 14:20 19.09.2019
1460 Clouds 23 1020 60 10000 1 0 13:55 19.09.2019
1461 Clouds 23 1021 68 10000 1.5 200 13:36 19.09.2019
1462 Clouds 22 1021 68 10000 1.5 200 13:18 19.09.2019
1463 Clouds 21 1022 82 10000 1.5 210 12:36 19.09.2019
1464 Clear 21 1017 69 0 1.79 212.277 12:18 19.09.2019
1465 Clouds 19 1022 87 10000 1 0 11:41 19.09.2019
1466 Clouds 19 1022 100 10000 1 0 11:22 19.09.2019
1467 Fog 18 1022 100 10000 1 0 10:58 19.09.2019
1468 Fog 17 1022 100 3000 1 0 10:39 19.09.2019
1469 Fog 16 1022 100 3000 1 0 10:21 19.09.2019
1470 Fog 15 1022 100 800 1 0 09:55 19.09.2019
1471 Clear 15 1020 64 0 1.79 212.277 09:37 19.09.2019
1472 Fog 13 1022 100 300 1 0 09:18 19.09.2019
1473 Fog 12 1022 100 150 1 0 08:48 19.09.2019
1474 Clouds 12 1017 92 0 1.4 23.796 08:22 19.09.2019
1475 Clouds 12 1017 92 0 1.4 23.796 07:43 19.09.2019
1476 Clouds 12 1017 91 0 1.4 23.796 07:22 19.09.2019
1477 Clouds 12 1017 90 0 1.4 23.796 06:49 19.09.2019
1478 Clouds 12 1017 90 0 1.4 23.796 06:29 19.09.2019
1479 Clouds 12 1020 71 0 1.06 37.388 05:53 19.09.2019
1480 Clouds 12 1017 89 0 1.06 37.388 05:33 19.09.2019
1481 Clouds 12 1017 88 0 1.06 37.388 03:54 19.09.2019
1482 Rain 13 1021 63 0 1.59 28.599 03:18 19.09.2019
1483 Clouds 14 1017 89 0 1.77 34.284 01:34 19.09.2019
1484 Clouds 14 1017 89 0 1.77 34.284 00:51 19.09.2019
1485 Clouds 14 1017 88 0 1.77 34.284 00:26 19.09.2019
1486 Rain 14 1021 48 0 0.98 42.341 23:43 18.09.2019
1487 Rain 14 1021 47 0 0.98 42.341 23:23 18.09.2019
1488 Rain 15 1021 46 0 0.98 42.341 22:55 18.09.2019
1489 Rain 15 1021 46 0 0.98 42.341 22:55 18.09.2019
1490 Rain 14 1017 86 0 0.98 42.341 22:37 18.09.2019
1491 Rain 14 1017 87 0 0.98 42.341 22:18 18.09.2019
1492 Rain 15 1021 56 0 0.98 42.341 21:55 18.09.2019
1493 Rain 15 1017 89 0 0.98 42.341 21:37 18.09.2019
1494 Rain 16 1017 89 0 1.52 19.329 21:18 18.09.2019
1495 Rain 16 1021 50 0 1.81 24.722 20:55 18.09.2019
1496 Rain 16 1021 50 0 1.81 24.722 20:55 18.09.2019
1497 Rain 16 1016 84 0 1.81 24.722 20:37 18.09.2019
1498 Rain 15 1016 80 0 1.81 24.722 20:18 18.09.2019
1499 Rain 16 1019 43 0 1.81 24.722 19:41 18.09.2019
1500 Rain 19 1014 63 0 0.45 117 19:20 18.09.2019
1501 Rain 17 1013 63 0 1.34 79 18:57 18.09.2019
1502 Thunderstorm 18 1019 72 10000 3.6 30 18:38 18.09.2019
1503 Thunderstorm 20 1019 72 10000 3.6 30 18:19 18.09.2019
1504 Thunderstorm 19 1019 72 10000 3.6 30 17:59 18.09.2019
1505 Thunderstorm 19 1019 72 10000 3.6 30 17:40 18.09.2019
1506 Thunderstorm 20 1018 72 10000 6.2 330 17:19 18.09.2019
1507 Thunderstorm 20 1019 72 10000 3.6 30 17:19 18.09.2019
1508 Thunderstorm 20 1018 72 10000 6.2 330 16:56 18.09.2019
1509 Thunderstorm 21 1018 52 10000 7.2 330 16:38 18.09.2019
1510 Thunderstorm 22 1018 52 10000 7.2 330 16:19 18.09.2019
1511 Thunderstorm 21 1018 53 10000 5.7 330 15:56 18.09.2019
1512 Thunderstorm 21 1018 56 10000 9.8 320 15:37 18.09.2019
1513 Thunderstorm 24 1018 56 10000 9.8 320 15:19 18.09.2019
1514 Thunderstorm 26 1018 49 10000 6.7 320 14:57 18.09.2019
1515 Thunderstorm 27 1018 39 10000 4.6 0 14:39 18.09.2019
1516 Thunderstorm 24 1018 39 10000 4.6 0 14:21 18.09.2019
1517 Thunderstorm 24 1018 39 10000 4.6 0 14:21 18.09.2019
1518 Clouds 27 1019 44 10000 2.1 0 13:44 18.09.2019
1519 Clouds 27 1019 47 10000 1.5 50 13:19 18.09.2019
1520 Clouds 25 1019 47 10000 1.5 50 12:56 18.09.2019
1521 Clouds 26 1019 50 10000 1.5 0 12:37 18.09.2019
1522 Clouds 25 1019 50 10000 1.5 0 12:18 18.09.2019
1523 Clouds 24 1020 64 10000 1 0 11:40 18.09.2019
1524 Clouds 24 1020 64 10000 1 0 11:19 18.09.2019
1525 Clouds 22 1020 68 10000 2.1 70 10:41 18.09.2019
1526 Clear 21 1020 68 10000 1.5 80 10:22 18.09.2019
1527 Clear 19 1019 72 10000 1.8 220.432 09:59 18.09.2019
1528 Clear 19 1019 72 10000 1.8 220.432 09:41 18.09.2019
1529 Clear 17 1019 82 10000 0.61 69.92 09:22 18.09.2019
1530 Clear 15 1019 82 10000 1 0 08:46 18.09.2019
1531 Clouds 14 1018 57 0 0.66 48.994 08:26 18.09.2019
1532 Clouds 14 1013 86 0 0.66 48.994 07:59 18.09.2019
1533 Clouds 14 1012 86 0 0.66 48.994 07:41 18.09.2019
1534 Clouds 15 1013 87 0 0.66 48.994 07:22 18.09.2019
1535 Clouds 15 1012 89 0 0.66 48.994 06:41 18.09.2019
1536 Rain 16 1012 89 0 0.96 54.462 05:54 18.09.2019
1537 Rain 16 1012 91 0 0.96 54.462 05:21 18.09.2019
1538 Rain 16 1013 88 0 1.83 40.601 03:23 18.09.2019
1539 Rain 16 1013 87 0 1.83 40.601 02:39 18.09.2019
1540 Rain 17 1018 48 0 1.32 52.235 01:34 18.09.2019
1541 Rain 18 1019 46 0 1.32 52.235 00:50 18.09.2019
1542 Rain 17 1019 47 0 1.32 52.235 00:25 18.09.2019
1543 Rain 17 1019 49 0 1.68 39.967 23:47 17.09.2019
1544 Rain 18 1019 48 0 1.68 39.967 23:23 17.09.2019
1545 Rain 18 1019 45 0 1.68 39.967 22:44 17.09.2019
1546 Rain 18 1019 46 0 1.68 39.967 22:24 17.09.2019
1547 Rain 19 1019 46 0 1.68 39.967 21:56 17.09.2019
1548 Rain 19 1019 47 0 1.68 39.967 21:37 17.09.2019
1549 Rain 20 1019 44 0 1.99 20.495 21:19 17.09.2019
1550 Rain 20 1019 44 0 1.99 20.495 21:19 17.09.2019
1551 Rain 21 1014 60 0 1.99 20.495 20:58 17.09.2019
1552 Rain 21 1019 45 0 1.89 14.926 20:40 17.09.2019
1553 Rain 22 1018 42 0 1.89 14.926 20:22 17.09.2019
1554 Rain 22 1014 52 0 0.45 247 19:58 17.09.2019
1555 Rain 22 1014 52 0 0.45 247 19:58 17.09.2019
1556 Rain 23 1017 55 0 1.89 14.926 19:39 17.09.2019
1557 Rain 24 1017 54 0 1.89 14.926 19:19 17.09.2019
1558 Rain 24 1018 32 0 1.89 14.926 18:57 17.09.2019
1559 Rain 26 1018 31 0 1.89 14.926 18:38 17.09.2019
1560 Clouds 27 1017 32 10000 4.1 210 18:20 17.09.2019
1561 Clouds 28 1017 32 10000 4.1 210 17:46 17.09.2019
1562 Clouds 28 1017 32 10000 4.1 210 17:46 17.09.2019
1563 Clouds 28 1017 32 10000 4.1 210 17:20 17.09.2019
1564 Clouds 27 1017 32 10000 5.1 200 16:58 17.09.2019
1565 Clouds 28 1017 32 10000 5.1 200 16:39 17.09.2019
1566 Clouds 29 1018 30 10000 4.1 220 16:21 17.09.2019
1567 Clouds 29 1018 30 10000 4.1 220 16:21 17.09.2019
1568 Clouds 29 1018 30 10000 4.1 220 16:21 17.09.2019
1569 Clouds 29 1018 35 10000 3.6 210 15:40 17.09.2019
1570 Clouds 28 1018 35 10000 3.6 210 15:20 17.09.2019
1571 Clouds 28 1019 32 10000 4.1 220 14:57 17.09.2019
1572 Clouds 28 1019 39 10000 3.1 210 14:39 17.09.2019
1573 Clouds 28 1019 39 10000 3.1 210 14:19 17.09.2019
1574 Clouds 27 1019 36 10000 1.5 0 13:57 17.09.2019
1575 Clouds 27 1020 47 10000 1 0 13:38 17.09.2019
1576 Clouds 26 1020 47 10000 1 0 13:20 17.09.2019
1577 Clouds 25 1020 47 10000 1.5 140 12:42 17.09.2019
1578 Clear 24 1021 60 10000 1 0 12:19 17.09.2019
1579 Clear 24 1021 60 10000 1 0 11:45 17.09.2019
1580 Clear 23 1021 64 10000 1.5 0 11:26 17.09.2019
1581 Clear 22 1022 68 10000 0.5 0 10:59 17.09.2019
1582 Clear 21 1015 67 0 0.45 276 10:40 17.09.2019
1583 Clear 19 1022 77 10000 0.5 0 10:20 17.09.2019
1584 Clouds 19 1022 77 10000 1 0 09:54 17.09.2019
1585 Clouds 19 1022 77 10000 1 0 09:36 17.09.2019
1586 Clouds 17 1022 77 10000 1 0 09:18 17.09.2019
1587 Clouds 15 1022 82 10000 1 0 08:43 17.09.2019
1588 Clear 15 1021 74 0 1.81 42.039 08:24 17.09.2019
1589 Clear 15 1021 75 0 1.81 42.039 07:42 17.09.2019
1590 Clear 15 1015 81 0 1.81 42.039 07:42 17.09.2019
1591 Clear 15 1021 75 0 1.81 42.039 07:42 17.09.2019
1592 Clear 15 1021 75 0 1.81 42.039 07:24 17.09.2019
1593 Clear 15 1021 74 0 1.81 42.039 06:53 17.09.2019
1594 Clear 15 1021 74 0 3.02 35.127 06:29 17.09.2019
1595 Clear 15 1021 74 0 3.02 35.127 05:53 17.09.2019
1596 Clear 16 1015 79 0 3.02 35.127 04:46 17.09.2019
1597 Clear 16 1022 76 0 3.02 35.127 03:40 17.09.2019
1598 Clear 16 1023 76 0 3.08 33.045 02:39 17.09.2019
1599 Clear 16 1023 76 0 3.08 33.045 02:39 17.09.2019
1600 Clear 17 1023 77 0 3.08 33.045 01:49 17.09.2019
1601 Clear 17 1023 77 0 2.99 33.376 00:46 17.09.2019
1602 Rain 18 1024 78 0 2.51 31.066 23:41 16.09.2019
1603 Rain 18 1024 78 0 2.51 31.066 23:20 16.09.2019
1604 Rain 18 1024 79 0 2.51 31.066 22:58 16.09.2019
1605 Rain 18 1024 79 0 2.51 31.066 22:40 16.09.2019
1606 Rain 18 1024 78 0 2.51 31.066 22:21 16.09.2019
1607 Rain 19 1024 78 0 2.51 31.066 21:56 16.09.2019
1608 Rain 19 1024 77 0 2.51 31.066 21:37 16.09.2019
1609 Rain 20 1021 44 0 1.26 17.294 21:18 16.09.2019
1610 Rain 21 1022 43 0 1.13 15.029 20:41 16.09.2019
1611 Rain 22 1021 43 0 1.13 15.029 20:22 16.09.2019
1612 Clouds 22 1020 41 10000 4.1 220 19:57 16.09.2019
1613 Clouds 22 1020 41 10000 4.1 220 19:39 16.09.2019
1614 Clouds 23 1020 41 10000 4.1 220 19:20 16.09.2019
1615 Clouds 22 1020 41 10000 4.1 220 18:48 16.09.2019
1616 Clouds 22 1020 41 10000 4.1 220 18:30 16.09.2019
1617 Clouds 25 1020 41 10000 4.6 210 17:59 16.09.2019
1618 Clouds 25 1020 41 10000 4.6 210 17:59 16.09.2019
1619 Clouds 26 1021 44 10000 4.6 220 17:41 16.09.2019
1620 Clouds 26 1021 44 10000 4.6 220 17:22 16.09.2019
1621 Clouds 27 1021 41 10000 5.1 210 16:55 16.09.2019
1622 Clouds 27 1021 37 10000 5.7 200 16:37 16.09.2019
1623 Clouds 27 1021 37 10000 5.7 200 16:18 16.09.2019
1624 Clouds 28 1021 35 10000 5.7 210 15:55 16.09.2019
1625 Clouds 27 1021 37 10000 5.7 210 15:37 16.09.2019
1626 Clouds 27 1021 37 10000 5.7 210 15:37 16.09.2019
1627 Clouds 27 1021 37 10000 5.7 210 15:18 16.09.2019
1628 Clouds 27 1021 37 10000 5.7 210 15:18 16.09.2019
1629 Clouds 27 1022 37 10000 5.1 210 14:42 16.09.2019
1630 Clouds 27 1022 37 10000 3.6 210 14:22 16.09.2019
1631 Clouds 26 1022 44 10000 2.1 210 13:57 16.09.2019
1632 Clouds 26 1023 47 10000 1 0 13:38 16.09.2019
1633 Clouds 26 1023 47 10000 1 0 13:19 16.09.2019
1634 Clouds 25 1023 46 10000 1 0 12:42 16.09.2019
1635 Clouds 24 1024 49 10000 1 0 12:24 16.09.2019
1636 Clear 23 1024 52 10000 1 0 11:54 16.09.2019
1637 Clear 23 1018 60 0 1.86 180.554 11:36 16.09.2019
1638 Clear 22 1018 62 0 1.86 180.554 11:18 16.09.2019
1639 Clear 21 1022 22 0 1.86 180.554 10:38 16.09.2019
1640 Clear 20 1022 23 0 1.86 180.554 10:19 16.09.2019
1641 Clear 18 1018 75 0 1.86 180.554 09:57 16.09.2019
1642 Clear 19 1022 34 0 1.86 180.554 09:38 16.09.2019
1643 Clear 19 1022 34 0 1.86 180.554 09:38 16.09.2019
1644 Clear 16 1018 76 0 1.53 62.462 09:18 16.09.2019
1645 Clear 15 1018 78 0 1.53 62.462 08:42 16.09.2019
1646 Rain 14 1024 71 0 0.45 51 08:24 16.09.2019
1647 Rain 14 1018 75 0 1.45 62.214 07:44 16.09.2019
1648 Rain 14 1018 76 0 1.45 62.214 07:25 16.09.2019
1649 Rain 14 1018 77 0 1.45 62.214 06:58 16.09.2019
1650 Rain 14 1024 70 0 1.34 23 06:39 16.09.2019
1651 Rain 14 1024 69 0 0.99 72.023 06:21 16.09.2019
1652 Rain 14 1024 68 0 1.34 42 05:43 16.09.2019
1653 Rain 14 1024 68 0 1.34 46 05:21 16.09.2019
1654 Rain 15 1019 73 0 0.99 72.023 03:46 16.09.2019
1655 Clouds 16 1025 64 0 1.34 46 01:31 16.09.2019
1656 Clouds 16 1026 65 0 0.45 48 00:38 16.09.2019
1657 Clouds 17 1026 65 0 1.12 96.934 00:20 16.09.2019
1658 Clouds 17 1026 65 0 0.45 44 23:39 15.09.2019
1659 Clouds 17 1026 64 0 0.89 56 23:20 15.09.2019
1660 Clouds 17 1026 63 0 1.12 96.934 22:40 15.09.2019
1661 Clouds 18 1026 63 0 1.12 96.934 22:21 15.09.2019
1662 Clouds 17 1026 62 0 0.45 25 21:58 15.09.2019
1663 Clouds 17 1026 63 0 1.12 96.934 21:39 15.09.2019
1664 Clouds 17 1026 63 0 1.12 96.934 21:39 15.09.2019
1665 Clouds 17 1026 63 0 1.12 96.934 21:39 15.09.2019
1666 Rain 19 1026 63 0 1.34 142.523 21:21 15.09.2019
1667 Rain 20 1019 63 0 1.34 142.523 20:57 15.09.2019
1668 Rain 20 1019 63 0 1.34 142.523 20:57 15.09.2019
1669 Rain 20 1026 64 0 1.42 139.128 20:38 15.09.2019
1670 Clouds 21 1023 36 10000 4.6 210 20:20 15.09.2019
1671 Clouds 22 1023 36 10000 4.6 210 19:42 15.09.2019
1672 Clouds 22 1023 36 10000 4.6 210 19:22 15.09.2019
1673 Clouds 24 1023 36 10000 5.1 210 18:42 15.09.2019
1674 Clouds 26 1023 36 10000 5.1 210 18:24 15.09.2019
1675 Clouds 27 1023 34 10000 5.7 210 17:56 15.09.2019
1676 Clouds 26 1023 34 10000 5.7 210 17:56 15.09.2019
1677 Clouds 27 1023 34 10000 5.1 210 17:37 15.09.2019
1678 Clouds 27 1023 34 10000 5.1 210 17:19 15.09.2019
1679 Clouds 27 1023 34 10000 5.1 210 17:19 15.09.2019
1680 Clouds 27 1023 39 10000 3.6 220 16:42 15.09.2019
1681 Clouds 27 1024 39 10000 4.1 220 16:24 15.09.2019
1682 Clouds 27 1024 39 10000 4.1 220 15:58 15.09.2019
1683 Clouds 27 1024 39 10000 4.1 220 15:58 15.09.2019
1684 Clouds 26 1025 50 10000 2.1 210 15:39 15.09.2019
1685 Clouds 26 1025 50 10000 2.1 210 15:19 15.09.2019
1686 Clouds 26 1025 53 10000 1 0 14:56 15.09.2019
1687 Clear 25 1026 60 10000 1 0 14:38 15.09.2019
1688 Clear 25 1026 60 10000 1 0 14:19 15.09.2019
1689 Clear 25 1026 68 10000 1.5 0 13:44 15.09.2019
1690 Clouds 24 1027 72 10000 1 0 13:23 15.09.2019
1691 Clouds 23 1027 72 10000 1 0 12:43 15.09.2019
1692 Clouds 22 1027 72 10000 1 0 12:25 15.09.2019
1693 Clouds 22 1027 82 10000 2.6 60 11:59 15.09.2019
1694 Clouds 22 1027 82 10000 2.6 60 11:41 15.09.2019
1695 Clouds 21 1027 77 10000 1 0 11:21 15.09.2019
1696 Rain 19 1024 16 0 1.93 175.335 10:47 15.09.2019
1697 Rain 19 1024 16 0 1.93 175.335 10:47 15.09.2019
1698 Rain 18 1025 22 0 1.93 175.335 10:23 15.09.2019
1699 Rain 18 1025 28 0 1.93 175.335 09:59 15.09.2019
1700 Rain 17 1025 33 0 1.93 175.335 09:39 15.09.2019
1701 Rain 15 1021 93 0 1.32 73.642 09:19 15.09.2019
1702 Rain 14 1021 93 0 1.32 73.642 08:46 15.09.2019
1703 Clouds 14 1021 93 0 1.38 76.918 08:26 15.09.2019
1704 Clouds 14 1021 94 0 1.38 76.918 07:48 15.09.2019
1705 Clouds 14 1027 79 0 0.89 37 07:26 15.09.2019
1706 Clouds 15 1022 93 0 1.38 76.918 06:42 15.09.2019
1707 Clouds 16 1029 76 0 0.89 48 03:31 15.09.2019
1708 Clear 16 1028 74 0 0.45 53 02:33 15.09.2019
1709 Clear 16 1029 75 0 1.34 60 01:40 15.09.2019
1710 Clouds 16 1029 74 0 0.45 68 01:19 15.09.2019
1711 Clouds 16 1030 71 0 3.13 59 00:41 15.09.2019
1712 Clouds 17 1030 70 0 1.79 24 00:21 15.09.2019
1713 Clouds 17 1029 70 0 3.58 68 23:58 14.09.2019
1714 Clouds 17 1029 70 0 3.58 68 23:58 14.09.2019
1715 Clouds 17 1030 72 0 1.79 51 23:39 14.09.2019
1716 Clouds 17 1030 71 0 2.68 14 23:21 14.09.2019
1717 Clouds 17 1030 70 0 1.63 75.879 22:59 14.09.2019
1718 Clouds 17 1030 70 0 2.24 59 22:40 14.09.2019
1719 Clouds 17 1030 70 0 2.24 59 22:40 14.09.2019
1720 Clouds 17 1030 67 0 0.89 83 22:19 14.09.2019
1721 Clouds 17 1029 66 0 1.63 75.879 21:41 14.09.2019
1722 Rain 19 1029 67 0 1.3 107.75 21:22 14.09.2019
1723 Rain 20 1022 55 0 1.3 107.75 20:59 14.09.2019
1724 Clouds 21 1026 34 0 0.79 118.686 20:40 14.09.2019
1725 Clouds 21 1026 34 10000 1.5 110 20:40 14.09.2019
1726 Clouds 22 1026 34 10000 1.5 110 20:22 14.09.2019
1727 Clouds 23 1026 34 10000 1.5 110 19:52 14.09.2019
1728 Clouds 24 1026 34 10000 1.5 110 19:23 14.09.2019
1729 Clouds 25 1026 31 10000 2.6 240 18:59 14.09.2019
1730 Clouds 23 1026 31 10000 3.6 230 18:40 14.09.2019
1731 Clouds 24 1026 31 10000 3.6 230 18:21 14.09.2019
1732 Clouds 25 1026 34 10000 3.6 220 17:57 14.09.2019
1733 Clouds 25 1026 31 10000 2.1 210 17:39 14.09.2019
1734 Clouds 25 1026 31 10000 2.1 210 17:20 14.09.2019
1735 Clouds 26 1026 30 10000 2.6 210 16:43 14.09.2019
1736 Clouds 26 1027 28 10000 4.6 210 16:21 14.09.2019
1737 Clouds 26 1027 32 10000 2.1 0 15:42 14.09.2019
1738 Clouds 26 1027 32 10000 2.1 0 15:23 14.09.2019
1739 Clouds 27 1027 34 10000 3.1 180 14:58 14.09.2019
1740 Clouds 26 1028 36 10000 2.6 210 14:39 14.09.2019
1741 Clouds 26 1028 36 10000 2.6 210 14:18 14.09.2019
1742 Clouds 25 1028 38 10000 4.6 230 13:47 14.09.2019
1743 Clouds 25 1029 44 10000 3.6 210 13:22 14.09.2019
1744 Clouds 25 1029 36 10000 2.1 210 12:47 14.09.2019
1745 Clouds 23 1029 43 10000 2.1 200 12:25 14.09.2019
1746 Clouds 23 1029 43 10000 1.5 130 11:42 14.09.2019
1747 Clouds 22 1029 43 10000 1 0 11:21 14.09.2019
1748 Clouds 20 1024 62 0 2.14 168.144 10:55 14.09.2019
1749 Clouds 20 1028 17 0 1.34 167 10:36 14.09.2019
1750 Clouds 19 1028 25 0 2.14 168.144 10:18 14.09.2019
1751 Clouds 17 1028 34 0 2.14 168.144 09:41 14.09.2019
1752 Clouds 14 1029 74 0 2.68 52 09:21 14.09.2019
1753 Clouds 14 1029 74 0 2.68 72 08:59 14.09.2019
1754 Clouds 14 1029 74 0 0.89 90 08:41 14.09.2019
1755 Clouds 13 1029 74 0 0.89 56 08:21 14.09.2019
1756 Clouds 13 1024 64 0 1.33 71.171 07:43 14.09.2019
1757 Clouds 13 1029 73 0 2.24 72 07:23 14.09.2019
1758 Clouds 14 1029 72 0 1.79 49 06:35 14.09.2019
1759 Clouds 15 1029 69 0 1.34 45 05:53 14.09.2019
1760 Clouds 14 1029 66 0 2.24 62 04:27 14.09.2019
1761 Clouds 14 1030 63 0 0.45 15 03:25 14.09.2019
1762 Clouds 14 1031 58 0 0.45 23 02:42 14.09.2019
1763 Clouds 14 1025 65 0 1.88 63.612 02:42 14.09.2019
1764 Clouds 15 1026 65 0 1.88 63.612 01:45 14.09.2019
1765 Clouds 15 1027 62 0 1.64 66.627 01:19 14.09.2019
1766 Clouds 15 1031 63 0 3.58 52 00:40 14.09.2019
1767 Clouds 16 1032 63 0 1.79 24 00:21 14.09.2019
1768 -273 0 0 0 0 0 23:55 13.09.2019
1769 Clouds 16 1032 64 0 1.34 49 23:55 13.09.2019
1770 Clouds 16 1031 64 0 2.68 80 23:36 13.09.2019
1771 Clouds 16 1031 63 0 2.68 41 23:18 13.09.2019
1772 Clouds 16 1031 61 0 1.34 49 22:40 13.09.2019
1773 Clouds 16 1031 61 0 1.79 41 22:22 13.09.2019
1774 Clouds 16 1031 58 0 1.79 42 21:58 13.09.2019
1775 Clouds 16 1031 58 0 0.89 60 21:38 13.09.2019
1776 Clouds 18 1031 58 0 0.89 51 21:19 13.09.2019
1777 Clouds 18 1031 57 0 1.41 137.704 20:57 13.09.2019
1778 Clouds 18 1031 57 0 1.41 137.704 20:57 13.09.2019
1779 Clouds 20 1028 27 10000 3.6 40 20:37 13.09.2019
1780 Clouds 21 1028 27 10000 3.6 40 20:18 13.09.2019
1781 Clouds 20 1028 27 10000 3.6 40 19:44 13.09.2019
1782 Clouds 22 1028 27 10000 3.6 40 19:22 13.09.2019
1783 Clouds 23 1028 29 10000 3.1 60 18:58 13.09.2019
1784 Clouds 22 1028 29 10000 4.6 40 18:37 13.09.2019
1785 Clouds 24 1028 29 10000 4.6 40 18:19 13.09.2019
1786 Clear 24 1029 27 10000 3.1 40 17:44 13.09.2019
1787 Clear 24 1029 27 10000 3.1 40 17:21 13.09.2019
1788 Clear 25 1030 29 10000 1 0 16:56 13.09.2019
1789 Clouds 24 1030 31 10000 2.1 40 16:37 13.09.2019
1790 Clouds 25 1030 31 10000 2.1 40 16:18 13.09.2019
1791 Clouds 25 1031 36 10000 1 0 15:41 13.09.2019
1792 Clouds 24 1031 36 10000 1.5 50 15:23 13.09.2019
1793 Clear 24 1031 36 10000 1.5 180 14:44 13.09.2019
1794 Clear 23 1032 38 10000 1.5 0 14:23 13.09.2019
1795 Clear 23 1032 38 10000 1.5 0 13:59 13.09.2019
1796 Clear 23 1032 42 10000 1.5 240 13:40 13.09.2019
1797 Clear 23 1032 42 10000 1.5 240 13:21 13.09.2019
1798 Clear 22 1032 37 10000 2.1 230 12:44 13.09.2019
1799 Clear 22 1026 55 0 2.69 185.713 12:24 13.09.2019
1800 Clear 22 1031 45 10000 1 0 11:57 13.09.2019
1801 Clear 21 1031 48 10000 1.5 30 11:20 13.09.2019
1802 Clear 20 1030 13 0 2.69 185.713 10:41 13.09.2019
1803 Clear 18 1030 15 0 2.69 185.713 10:21 13.09.2019
1804 Clear 18 1030 24 0 2.69 185.713 10:21 13.09.2019
1805 Clear 18 1030 15 0 2.69 185.713 10:21 13.09.2019
1806 Clear 17 1030 28 0 2.69 185.713 09:54 13.09.2019
1807 Clear 16 1030 34 0 2.69 185.713 09:36 13.09.2019
1808 Clear 14 1026 62 0 2.17 52.032 09:18 13.09.2019
1809 Clear 11 1031 61 0 1.94 53.554 08:41 13.09.2019
1810 Clear 11 1026 63 0 1.94 53.554 08:21 13.09.2019
1811 Clear 12 1031 58 0 1.94 53.554 07:57 13.09.2019
1812 Clear 12 1031 58 0 1.94 53.554 07:39 13.09.2019
1813 Clear 12 1027 61 0 1.94 53.554 06:49 13.09.2019
1814 Clear 9 1028 50 0 1.67 64.22 05:50 13.09.2019
1815 Clear 9 1028 50 0 1.67 64.22 05:26 13.09.2019
1816 Clear 13 1031 62 0 0.89 86 03:42 13.09.2019
1817 Clear 13 1032 63 0 0.45 69 02:50 13.09.2019
1818 Clear 13 1027 60 0 1.29 86.626 02:18 13.09.2019
1819 Clear 13 1033 69 0 1.6 69.213 01:35 13.09.2019
1820 Clear 13 1033 69 0 1.6 69.213 01:35 13.09.2019
1821 Clear 14 1033 71 0 1.6 69.213 00:59 13.09.2019
1822 Clear 14 1033 69 0 1.6 69.213 00:33 13.09.2019
1823 Clear 14 1027 51 0 2.35 40.365 23:42 12.09.2019
1824 Clear 15 1033 73 0 2.35 40.365 23:22 12.09.2019
1825 Clear 14 1033 73 0 2.35 40.365 22:43 12.09.2019
1826 Clear 14 1033 73 0 2.35 40.365 22:43 12.09.2019
1827 Clear 15 1033 74 0 2.35 40.365 22:24 12.09.2019
1828 Clear 14 1033 75 0 2.35 40.365 21:58 12.09.2019
1829 Clear 15 1033 75 0 2.35 40.365 21:39 12.09.2019
1830 Clear 15 1033 75 0 2.35 40.365 21:39 12.09.2019
1831 Clear 18 1033 74 0 2.28 28.839 21:20 12.09.2019
1832 Clear 18 1033 76 0 1.92 29.697 20:57 12.09.2019
1833 Clear 19 1026 44 0 1.92 29.697 20:39 12.09.2019
1834 Clear 20 1026 38 0 1.92 29.697 20:20 12.09.2019
1835 Clear 21 1028 34 10000 4.1 230 19:54 12.09.2019
1836 Clear 21 1028 34 10000 4.1 230 19:36 12.09.2019
1837 Clear 23 1028 34 10000 4.1 230 19:18 12.09.2019
1838 Clear 22 1028 30 10000 3.6 230 18:38 12.09.2019
1839 Clear 22 1028 30 10000 3.6 230 18:38 12.09.2019
1840 Clear 26 1028 30 10000 3.6 230 18:19 12.09.2019
1841 Clear 26 1028 30 10000 5.1 220 17:56 12.09.2019
1842 Clear 26 1028 28 10000 4.6 220 17:38 12.09.2019
1843 Clear 27 1028 28 10000 4.6 220 17:19 12.09.2019
1844 Clear 26 1028 24 10000 3.6 210 16:42 12.09.2019
1845 Clear 27 1029 21 10000 3.1 210 16:22 12.09.2019
1846 Clear 27 1029 21 10000 3.1 210 15:45 12.09.2019
1847 Clear 27 1029 18 10000 1.5 0 15:27 12.09.2019
1848 Clear 26 1030 24 10000 2.6 90 14:58 12.09.2019
1849 Clear 26 1030 27 10000 2.6 350 14:39 12.09.2019
1850 Clear 25 1030 27 10000 2.6 350 14:20 12.09.2019
1851 Clear 25 1031 36 10000 1.5 120 13:39 12.09.2019
1852 Clear 24 1031 38 10000 1 0 13:21 12.09.2019
1853 Clear 24 1032 40 10000 1 0 12:49 12.09.2019
1854 Clear 21 1032 45 10000 0.5 0 12:20 12.09.2019
1855 Clear 21 1032 48 10000 1.5 130 11:58 12.09.2019
1856 Clear 20 1032 48 10000 1.5 130 11:40 12.09.2019
1857 Clear 19 1033 55 10000 1 0 11:21 12.09.2019
1858 Clear 18 1032 59 10000 1 0 10:50 12.09.2019
1859 Clear 19 1032 25 0 0.29 106.911 10:28 12.09.2019
1860 Clear 16 1032 35 0 0.89 73 09:57 12.09.2019
1861 Clear 15 1032 46 0 0.89 37 09:39 12.09.2019
1862 Clear 12 1030 76 0 2.88 31.845 09:19 12.09.2019
1863 Clear 11 1028 80 0 3.03 30.86 08:44 12.09.2019
1864 Clear 10 1030 79 0 3.03 30.86 08:23 12.09.2019
1865 Clear 10 1028 79 0 3.03 30.86 07:47 12.09.2019
1866 Clear 10 1029 92 0 3.03 30.86 07:21 12.09.2019
1867 Clear 10 1029 92 0 3.03 30.86 07:21 12.09.2019
1868 Clear 10 1029 92 0 3.03 30.86 07:21 12.09.2019
1869 Clear 10 1029 94 0 3.03 30.86 06:52 12.09.2019
1870 Clear 10 1029 94 0 3.03 30.86 06:52 12.09.2019
1871 Clear 10 1029 94 0 3.03 30.86 06:32 12.09.2019
1872 Clear 10 1027 79 0 3.1 30.748 05:54 12.09.2019
1873 Clear 10 1029 90 0 3.1 30.748 05:36 12.09.2019
1874 Clear 10 1029 95 0 3.1 30.748 04:44 12.09.2019
1875 Clouds 9 1029 99 0 3.84 21.524 03:23 12.09.2019
1876 Clouds 10 1029 100 0 3.65 21.676 01:43 12.09.2019
1877 Clouds 11 1029 100 0 3.65 21.676 01:21 12.09.2019
1878 Clouds 11 1027 76 0 3.65 21.676 00:45 12.09.2019
1879 Clouds 11 1029 100 0 3.65 21.676 00:27 12.09.2019
1880 Clouds 12 1029 100 0 3.97 22.043 23:43 11.09.2019
1881 Clouds 12 1029 100 0 0.45 194 23:24 11.09.2019
1882 Clouds 12 1029 100 0 0.45 208 22:57 11.09.2019
1883 Clouds 12 1029 100 0 3.97 22.043 22:38 11.09.2019
1884 Clouds 13 1029 100 0 3.97 22.043 22:19 11.09.2019
1885 Clouds 12 1029 100 0 0.45 162 21:55 11.09.2019
1886 Clouds 14 1030 47 0 3.97 22.043 21:37 11.09.2019
1887 Clouds 16 1026 69 0 2.73 27.353 21:18 11.09.2019
1888 Clouds 17 1029 41 0 2.73 27.353 20:54 11.09.2019
1889 Clouds 16 1025 66 0 2.95 18.803 20:36 11.09.2019
1890 Clouds 17 1025 62 0 2.95 18.803 20:18 11.09.2019
1891 Clouds 17 1025 62 0 2.95 18.803 20:18 11.09.2019
1892 Clouds 16 1026 100 0 2.95 18.803 19:42 11.09.2019
1893 Clouds 19 1026 100 0 2.95 18.803 19:22 11.09.2019
1894 Clouds 19 1026 100 0 2.95 18.803 19:22 11.09.2019
1895 Clouds 19 1026 100 0 2.95 18.803 18:59 11.09.2019
1896 Clouds 19 1026 100 0 2.95 18.803 18:41 11.09.2019
1897 Clouds 21 1024 53 0 0.45 273 18:22 11.09.2019
1898 Clouds 21 1024 53 0 0.89 207 17:57 11.09.2019
1899 Clouds 22 1024 54 0 0.89 109 17:38 11.09.2019
1900 Clouds 21 1024 54 0 0.45 266 17:20 11.09.2019
1901 Clouds 21 1024 59 0 0.45 219 16:49 11.09.2019
1902 Clouds 20 1028 46 0 2.67 20.415 16:26 11.09.2019
1903 Clouds 21 1028 46 0 2.67 20.415 15:59 11.09.2019
1904 Clouds 19 1024 59 0 0.45 163 15:41 11.09.2019
1905 Rain 19 1024 57 0 0.45 162 15:20 11.09.2019
1906 Rain 19 1028 73 0 4.01 22.179 14:56 11.09.2019
1907 Rain 19 1028 73 0 4.01 22.179 14:56 11.09.2019
1908 Rain 19 1024 63 0 0.89 280 14:37 11.09.2019
1909 Rain 19 1024 63 0 0.45 280 14:18 11.09.2019
1910 Rain 19 1024 63 0 4.01 22.179 13:38 11.09.2019
1911 Rain 18 1024 61 0 0.89 298 13:20 11.09.2019
1912 Rain 17 1028 83 0 2.99 25.801 12:56 11.09.2019
1913 Rain 17 1024 62 0 0.45 327 12:38 11.09.2019
1914 Rain 17 1024 64 0 0.45 158 12:20 11.09.2019
1915 Rain 16 1028 83 0 3.86 15.699 11:39 11.09.2019
1916 Rain 16 1024 67 0 3.86 15.699 11:21 11.09.2019
1917 Rain 16 1024 67 0 3.86 15.699 11:21 11.09.2019
1918 Rain 16 1024 67 0 3.86 15.699 11:21 11.09.2019
1919 Rain 15 1027 82 0 3.86 15.699 10:56 11.09.2019
1920 Rain 15 1023 69 0 3.86 15.699 10:38 11.09.2019
1921 Rain 15 1023 71 0 3.86 15.699 10:19 11.09.2019
1922 Rain 15 1022 73 0 3.86 15.699 09:39 11.09.2019
1923 Rain 13 1021 73 0 4.64 16.332 09:19 11.09.2019
1924 Rain 13 1021 76 0 4.8 17.673 08:55 11.09.2019
1925 Rain 13 1020 76 0 4.8 17.673 08:36 11.09.2019
1926 Rain 11 1020 78 0 4.8 17.673 08:18 11.09.2019
1927 Rain 11 1019 100 0 0.89 184 07:40 11.09.2019
1928 Rain 11 1019 74 0 4.8 17.673 07:21 11.09.2019
1929 Rain 13 1019 74 0 4.8 17.673 06:46 11.09.2019
1930 Rain 10 1018 100 0 1.34 214 06:24 11.09.2019
1931 Rain 12 1018 74 0 0.45 290 05:36 11.09.2019
1932 Rain 12 1018 76 0 0.45 54 05:18 11.09.2019
1933 Rain 10 1016 100 0 1.79 204 04:22 11.09.2019
1934 Rain 10 1017 79 0 0.45 207 03:29 11.09.2019
1935 Rain 11 1017 74 0 0.45 211 02:37 11.09.2019
1936 Rain 11 1016 75 0 0.89 179 01:33 11.09.2019
1937 Rain 12 1022 71 0 4.85 14.383 00:41 11.09.2019
1938 Rain 11 1016 75 0 1.79 304 00:20 11.09.2019
1939 Rain 11 1016 75 0 1.79 304 00:20 11.09.2019
1940 Rain 11 1015 72 0 0.89 211 23:41 10.09.2019
1941 Rain 11 1015 71 0 4.72 21.441 23:22 10.09.2019
1942 Rain 11 1014 72 0 0.45 262 22:57 10.09.2019
1943 Rain 11 1021 67 0 4.72 21.441 22:37 10.09.2019
1944 Rain 11 1014 70 0 4.72 21.441 22:18 10.09.2019
1945 Rain 11 1014 69 0 0.89 325 21:55 10.09.2019
1946 Rain 11 1014 69 0 0.45 149 21:36 10.09.2019
1947 Rain 11 1014 68 0 0.45 255 21:18 10.09.2019
1948 Rain 12 1020 56 0 4.68 14.999 20:55 10.09.2019
1949 Rain 12 1013 66 0 5.08 6.134 20:37 10.09.2019
1950 Rain 12 1013 66 0 0.45 288 20:18 10.09.2019
1951 Rain 12 1019 49 0 5.08 6.134 19:55 10.09.2019
1952 Rain 12 1019 49 0 5.08 6.134 19:55 10.09.2019
1953 Rain 12 1019 48 0 5.08 6.134 19:36 10.09.2019
1954 Rain 12 1019 48 0 5.08 6.134 19:36 10.09.2019
1955 Rain 12 1012 66 0 0.45 288 19:18 10.09.2019
1956 Rain 13 1018 44 0 5.08 6.134 18:43 10.09.2019
1957 Rain 13 1011 61 0 0.45 288 18:22 10.09.2019
1958 Rain 13 1017 41 0 4.61 19.998 17:57 10.09.2019
1959 Rain 13 1017 41 0 4.61 19.998 17:57 10.09.2019
1960 Rain 13 1017 41 0 4.61 19.998 17:57 10.09.2019
1961 Rain 13 1010 60 0 0.45 174 17:39 10.09.2019
1962 Rain 14 1017 37 0 4.61 19.998 17:19 10.09.2019
1963 Rain 14 1010 58 0 4.61 19.998 16:57 10.09.2019
1964 Rain 14 1009 56 0 4.61 19.998 16:38 10.09.2019
1965 Rain 14 1009 56 0 4.61 19.998 16:19 10.09.2019
1966 Rain 10 1009 96 0 0.89 205 15:43 10.09.2019
1967 Rain 14 1016 34 0 3.26 358.436 15:23 10.09.2019
1968 Rain 14 1016 33 0 3.26 358.436 14:57 10.09.2019
1969 Rain 14 1016 36 0 3.26 358.436 14:39 10.09.2019
1970 Rain 12 1016 33 0 3.26 358.436 14:19 10.09.2019
1971 Rain 14 1008 67 0 3.26 358.436 13:44 10.09.2019
1972 Rain 14 1016 36 0 3.6 6.78 13:23 10.09.2019
1973 Rain 13 1008 76 0 0.45 206 12:52 10.09.2019
1974 Rain 13 1008 78 0 3.6 6.78 12:28 10.09.2019
1975 Clouds 11 1008 82 0 3.75 17.976 11:59 10.09.2019
1976 Clouds 11 1008 82 0 3.75 17.976 11:59 10.09.2019
1977 Clouds 11 1009 89 0 3.75 17.976 11:40 10.09.2019
1978 Clouds 12 1009 87 0 3.75 17.976 11:22 10.09.2019
1979 Clouds 11 1009 90 0 3.75 17.976 10:43 10.09.2019
1980 Clouds 11 1009 91 0 3.75 17.976 10:21 10.09.2019
1981 Clouds 11 1009 90 0 3.75 17.976 09:59 10.09.2019
1982 Clouds 11 1016 60 0 3.75 17.976 09:41 10.09.2019
1983 Rain 11 1008 87 0 4.67 18.563 09:19 10.09.2019
1984 Rain 11 1008 87 0 4.75 15.584 08:47 10.09.2019
1985 Rain 11 1007 86 0 4.75 15.584 08:29 10.09.2019
1986 Rain 11 1016 57 0 4.75 15.584 07:56 10.09.2019
1987 Rain 11 1007 86 0 4.75 15.584 07:37 10.09.2019
1988 Rain 11 1007 85 0 4.75 15.584 07:19 10.09.2019
1989 Rain 12 1006 84 0 1.79 197 06:39 10.09.2019
1990 Rain 12 1006 84 0 1.79 197 06:39 10.09.2019
1991 Rain 12 1007 81 0 0.45 158 06:19 10.09.2019
1992 Rain 14 1014 35 0 1.34 346 04:18 10.09.2019
1993 Clouds 14 1013 37 0 1.16 88.018 02:38 10.09.2019
1994 Clouds 14 1010 66 0 1.79 73 02:19 10.09.2019
1995 Clouds 15 1014 35 0 1.16 88.018 01:50 10.09.2019
1996 Clouds 15 1014 35 0 1.16 88.018 01:50 10.09.2019
1997 Clouds 15 1014 35 0 1.16 88.018 01:50 10.09.2019
1998 Clouds 15 1014 35 0 1.16 88.018 01:50 10.09.2019
1999 Clouds 15 1015 32 0 1.46 85.571 01:22 10.09.2019
2000 Clouds 15 1015 29 0 1.46 85.571 00:34 10.09.2019
2001 Clouds 16 1013 66 0 0.27 190.286 23:48 09.09.2019
2002 Clouds 17 1016 28 0 0.27 190.286 23:20 09.09.2019
2003 Clouds 15 1016 26 0 0.27 190.286 22:59 09.09.2019
2004 Clouds 16 1016 26 0 0.27 190.286 22:39 09.09.2019
2005 Clouds 17 1015 25 0 0.27 190.286 22:21 09.09.2019
2006 Clouds 16 1016 69 0 2.24 205 21:59 09.09.2019
2007 Clouds 17 1016 69 0 2.24 205 21:40 09.09.2019
2008 Clouds 17 1013 53 0 0.89 23 21:21 09.09.2019
2009 Clouds 18 1013 54 0 0.45 28 20:57 09.09.2019
2010 Clouds 18 1013 54 0 0.45 42 20:38 09.09.2019
2011 Clouds 19 1010 46 0 1.85 203.468 20:19 09.09.2019
2012 Clouds 21 1014 33 10000 4.1 220 19:59 09.09.2019
2013 Clouds 20 1014 33 10000 4.1 220 19:39 09.09.2019
2014 Clouds 19 1014 33 10000 4.1 220 19:20 09.09.2019
2015 Clouds 19 1014 33 10000 4.1 220 19:20 09.09.2019
2016 Clouds 20 1014 33 10000 4.1 220 18:58 09.09.2019
2017 Clouds 20 1014 28 10000 4.6 200 18:40 09.09.2019
2018 Clouds 22 1014 28 10000 4.6 200 18:21 09.09.2019
2019 Clouds 22 1014 29 10000 3.6 220 17:58 09.09.2019
2020 Clouds 22 1014 27 10000 5.1 200 17:40 09.09.2019
2021 Clouds 21 1014 27 10000 5.1 200 17:21 09.09.2019
2022 Clouds 23 1014 27 10000 4.6 190 16:56 09.09.2019
2023 Clouds 23 1014 29 10000 6.2 200 16:38 09.09.2019
2024 Clouds 24 1014 29 10000 6.2 200 16:19 09.09.2019
2025 Clouds 24 1015 29 10000 4.1 200 15:56 09.09.2019
2026 Clouds 23 1016 33 10000 4.1 220 15:36 09.09.2019
2027 Clouds 23 1016 33 10000 4.1 220 15:18 09.09.2019
2028 Clouds 23 1016 31 10000 5.1 200 14:54 09.09.2019
2029 Clouds 23 1017 35 10000 4.6 210 14:36 09.09.2019
2030 Clouds 22 1017 37 10000 4.6 220 14:18 09.09.2019
2031 Clouds 22 1018 37 10000 4.6 220 13:43 09.09.2019
2032 Clouds 21 1018 37 10000 4.6 220 13:19 09.09.2019
2033 Clouds 21 1018 45 10000 3.1 230 12:57 09.09.2019
2034 Clouds 21 1018 45 10000 1.5 0 12:38 09.09.2019
2035 Clouds 19 1018 45 10000 1.5 0 12:19 09.09.2019
2036 Clouds 18 1019 59 10000 1 0 11:43 09.09.2019
2037 Clouds 17 1019 59 10000 1 0 11:20 09.09.2019
2038 Clouds 17 1019 62 10000 1 0 10:57 09.09.2019
2039 Clouds 15 1015 74 0 2.46 206.325 10:39 09.09.2019
2040 Clouds 16 1015 76 0 2.46 206.325 10:19 09.09.2019
2041 Clouds 14 1015 77 0 2.46 206.325 09:49 09.09.2019
2042 Clouds 13 1015 78 0 2.46 206.325 09:30 09.09.2019
2043 Clouds 10 1015 58 0 1.79 68 08:57 09.09.2019
2044 Clouds 10 1015 58 0 1.79 34 08:38 09.09.2019
2045 Clouds 9 1015 59 0 2.24 51 08:19 09.09.2019
2046 Clouds 9 1015 59 0 2.24 51 08:19 09.09.2019
2047 Clouds 9 1015 78 0 1.78 198.425 07:41 09.09.2019
2048 Clouds 9 1015 65 0 3.58 69 07:21 09.09.2019
2049 Clouds 10 1015 66 0 4.47 68 06:54 09.09.2019
2050 Clouds 10 1015 77 0 1.78 198.425 06:31 09.09.2019
2051 Clouds 12 1016 74 0 0.37 50.656 03:21 09.09.2019
2052 Clouds 13 1020 28 0 0.37 50.656 02:42 09.09.2019
2053 Clouds 13 1018 77 0 1.79 21 01:25 09.09.2019
2054 Clouds 14 1020 17 0 1.57 18.574 00:25 09.09.2019
2055 Clouds 14 1021 14 0 1.57 18.574 23:58 08.09.2019
2056 Clouds 14 1016 68 0 1.57 18.574 23:39 08.09.2019
2057 Clouds 15 1016 67 0 1.57 18.574 23:21 08.09.2019
2058 Clouds 7 1018 85 0 1.57 18.574 22:41 08.09.2019
2059 Clouds 12 1018 86 0 1.57 18.574 22:23 08.09.2019
2060 Clouds 12 1018 86 0 1.57 18.574 22:23 08.09.2019
2061 Clouds 7 1018 85 0 1.57 18.574 21:59 08.09.2019
2062 Clouds 7 1018 85 0 1.57 18.574 21:40 08.09.2019
2063 Clear 16 1016 59 0 1.61 327.325 21:22 08.09.2019
2064 Clear 17 1020 11 0 1.61 327.325 20:56 08.09.2019
2065 Clouds 18 1017 37 10000 6.7 210 20:37 08.09.2019
2066 Clouds 18 1017 37 10000 6.7 210 20:18 08.09.2019
2067 Clouds 17 1017 37 10000 6.7 210 19:39 08.09.2019
2068 Clouds 21 1017 37 10000 6.7 210 19:21 08.09.2019
2069 Clouds 19 1016 40 10000 6.7 200 18:59 08.09.2019
2070 Clouds 17 1016 40 10000 7.2 210 18:39 08.09.2019
2071 Clouds 22 1016 35 10000 6.7 210 18:19 08.09.2019
2072 Clouds 22 1016 35 10000 6.7 210 17:59 08.09.2019
2073 Clouds 23 1016 33 10000 5.7 210 17:37 08.09.2019
2074 Clouds 22 1016 33 10000 5.7 210 17:19 08.09.2019
2075 Clouds 22 1017 33 10000 5.7 210 16:56 08.09.2019
2076 Clouds 22 1017 35 10000 6.7 210 16:37 08.09.2019
2077 Clouds 22 1017 35 10000 6.7 210 16:19 08.09.2019
2078 Clouds 22 1017 35 10000 6.7 210 15:42 08.09.2019
2079 Clouds 22 1017 35 10000 6.7 210 15:22 08.09.2019
2080 Clouds 22 1017 35 10000 6.7 210 15:22 08.09.2019
2081 Clouds 22 1017 35 10000 6.7 210 14:59 08.09.2019
2082 Clouds 22 1017 33 10000 6.2 220 14:39 08.09.2019
2083 Clouds 21 1017 33 10000 6.2 220 14:21 08.09.2019
2084 Clouds 21 1017 33 10000 4.6 230 13:57 08.09.2019
2085 Clouds 21 1018 37 10000 4.1 220 13:38 08.09.2019
2086 Clouds 20 1018 37 10000 4.1 220 13:20 08.09.2019
2087 Clear 20 1019 45 10000 1.5 170 12:44 08.09.2019
2088 Clear 18 1019 45 10000 1.5 170 12:24 08.09.2019
2089 Clear 18 1019 51 10000 1 0 11:59 08.09.2019
2090 Clear 18 1020 10 0 2.68 194 11:40 08.09.2019
2091 Clear 17 1020 54 10000 1.5 130 11:20 08.09.2019
2092 Clear 17 1021 10 0 1.36 290.843 10:59 08.09.2019
2093 Clear 16 1021 11 0 1.36 290.843 10:40 08.09.2019
2094 Clear 14 1016 76 0 1.36 290.843 10:22 08.09.2019
2095 Clear 14 1018 77 0 0.89 202 09:39 08.09.2019
2096 Clear 12 1016 78 0 2.12 14.921 09:21 08.09.2019
2097 Clear 10 1017 91 0 2.12 14.921 08:57 08.09.2019
2098 Clear 10 1017 90 0 2.27 14.654 08:38 08.09.2019
2099 Clear 9 1017 87 0 2.27 14.654 08:18 08.09.2019
2100 Clear 9 1017 83 0 2.27 14.654 07:40 08.09.2019
2101 Clear 9 1017 84 0 2.27 14.654 07:21 08.09.2019
2102 Clear 9 1016 79 0 2.27 14.654 06:53 08.09.2019
2103 Clear 9 1017 81 0 2.27 14.654 06:53 08.09.2019
2104 Clear 10 1017 79 0 2.27 14.654 06:32 08.09.2019
2105 Clear 10 1017 76 0 2.24 12.673 05:38 08.09.2019
2106 Clear 10 1017 75 0 2.24 12.673 04:18 08.09.2019
2107 Clouds 11 1018 75 0 2.18 21.567 02:59 08.09.2019
2108 Clouds 11 1019 78 0 2.18 21.567 02:26 08.09.2019
2109 Clouds 12 1023 73 0 2.24 205 01:49 08.09.2019
2110 Clouds 12 1023 33 0 2.4 20.528 01:22 08.09.2019
2111 Clouds 13 1023 29 0 2.4 20.528 00:45 08.09.2019
2112 Clouds 13 1023 29 0 2.4 20.528 00:26 08.09.2019
2113 Clouds 14 1019 67 0 2.97 14.56 23:38 07.09.2019
2114 Clouds 14 1019 66 0 2.97 14.56 23:20 07.09.2019
2115 Clouds 12 1019 65 0 2.97 14.56 22:57 07.09.2019
2116 Clouds 10 1020 82 0 2.97 14.56 22:39 07.09.2019
2117 Clouds 13 1020 81 0 2.97 14.56 22:20 07.09.2019
2118 Clouds 10 1020 82 0 2.97 14.56 21:42 07.09.2019
2119 Clouds 16 1023 9 0 2.95 6.716 21:23 07.09.2019
2120 Clouds 17 1018 60 0 0.89 167 20:57 07.09.2019
2121 Clear 18 1017 58 0 0.89 167 20:37 07.09.2019
2122 Clouds 18 1018 33 10000 4.6 220 20:18 07.09.2019
2123 Clouds 17 1018 33 10000 4.6 220 19:54 07.09.2019
2124 Clouds 18 1018 33 10000 4.6 220 19:36 07.09.2019
2125 Clouds 18 1018 33 10000 4.6 220 19:18 07.09.2019
2126 Clouds 18 1018 31 10000 5.7 220 18:54 07.09.2019
2127 Clouds 18 1019 31 10000 6.2 210 18:36 07.09.2019
2128 Clouds 22 1019 31 10000 6.2 210 18:18 07.09.2019
2129 Clouds 23 1019 27 10000 6.2 210 17:41 07.09.2019
2130 Clouds 23 1019 27 10000 6.2 210 17:19 07.09.2019
2131 Clear 23 1019 27 10000 6.2 210 16:59 07.09.2019
2132 Clear 23 1019 23 10000 5.7 220 16:41 07.09.2019
2133 Clear 23 1019 23 10000 5.7 220 16:20 07.09.2019
2134 Clear 23 1020 22 10000 5.1 220 15:48 07.09.2019
2135 Clear 22 1020 16 10000 4.1 220 15:26 07.09.2019
2136 Clear 22 1020 16 10000 4.1 220 15:26 07.09.2019
2137 Clear 22 1020 14 10000 3.1 220 14:58 07.09.2019
2138 Clear 22 1021 15 10000 2.6 250 14:37 07.09.2019
2139 Clear 21 1021 25 10000 1 0 14:19 07.09.2019
2140 Clear 21 1021 25 10000 1 0 13:57 07.09.2019
2141 Clear 21 1021 25 10000 1.5 0 13:39 07.09.2019
2142 Clear 21 1021 25 10000 1.5 0 13:39 07.09.2019
2143 Clear 21 1021 25 10000 1.5 0 13:21 07.09.2019
2144 Clear 20 1023 33 10000 2.1 0 12:44 07.09.2019
2145 Clear 19 1023 33 10000 2.1 0 12:25 07.09.2019
2146 Clouds 18 1020 24 0 1.85 13.705 11:55 07.09.2019
2147 Clouds 18 1020 28 0 1.85 13.705 11:37 07.09.2019
2148 Clear 17 1023 44 10000 1.5 0 11:18 07.09.2019
2149 Clouds 16 1024 11 0 1.85 13.705 10:38 07.09.2019
2150 Clouds 16 1024 11 0 1.85 13.705 10:38 07.09.2019
2151 Clouds 15 1025 12 0 1.85 13.705 10:20 07.09.2019
2152 Clouds 12 1020 50 0 1.85 13.705 09:43 07.09.2019
2153 Clouds 10 1021 37 0 1.85 13.705 09:25 07.09.2019
2154 Clear 9 1020 40 0 3.24 21.063 08:59 07.09.2019
2155 Clear 8 1020 43 0 0.45 167 08:40 07.09.2019
2156 Clear 8 1020 38 0 3.24 21.063 08:22 07.09.2019
2157 Clear 7 1020 55 0 3.24 21.063 07:45 07.09.2019
2158 Clear 8 1020 52 0 3.24 21.063 07:25 07.09.2019
2159 Clear 8 1020 61 0 3.24 21.063 06:47 07.09.2019
2160 Clear 8 1020 77 0 0.45 315 06:19 07.09.2019
2161 Clear 9 1020 65 0 3.47 18.461 04:45 07.09.2019
2162 Clear 9 1020 65 0 3.47 18.461 04:19 07.09.2019
2163 Clear 11 1021 64 0 3.53 16.983 02:44 07.09.2019
2164 Clear 11 1025 31 0 3.53 16.983 01:44 07.09.2019
2165 Clear 11 1025 30 0 3.53 16.881 00:57 07.09.2019
2166 Clear 12 1025 30 0 3.53 16.881 00:38 07.09.2019
2167 Clear 12 1021 62 0 3.63 14.438 00:19 07.09.2019
2168 Clear 13 1021 58 0 0.45 256 23:39 06.09.2019
2169 Clear 13 1021 56 0 0.45 215 23:21 06.09.2019
2170 Clear 8 1021 92 0 0.45 191 22:57 06.09.2019
2171 Clear 9 1021 90 0 3.63 14.438 22:37 06.09.2019
2172 Clear 7 1021 92 0 0.89 203 22:19 06.09.2019
2173 Clear 8 1021 94 0 1.34 167 21:56 06.09.2019
2174 Clear 8 1021 94 0 3.63 14.438 21:38 06.09.2019
2175 Clear 16 1020 37 0 0.45 262 21:19 06.09.2019
2176 Clear 17 1019 38 0 3.24 11.473 20:54 06.09.2019
2177 Clear 18 1019 35 10000 4.1 230 20:36 06.09.2019
2178 Clear 18 1019 35 10000 4.1 230 20:18 06.09.2019
2179 Clear 18 1019 35 10000 4.1 230 20:18 06.09.2019
2180 Clear 16 1019 35 10000 4.1 230 19:41 06.09.2019
2181 Clear 21 1019 35 10000 4.1 230 19:23 06.09.2019
2182 Clear 17 1019 31 10000 6.2 220 18:56 06.09.2019
2183 Clear 17 1019 28 10000 6.2 220 18:38 06.09.2019
2184 Clear 22 1019 25 10000 5.1 220 18:19 06.09.2019
2185 Clear 22 1019 27 10000 5.7 220 17:40 06.09.2019
2186 Clear 22 1019 27 10000 5.7 220 17:20 06.09.2019
2187 Clear 22 1019 27 10000 5.7 220 16:56 06.09.2019
2188 Clear 22 1019 27 10000 5.1 230 16:38 06.09.2019
2189 Clear 22 1019 27 10000 5.1 230 16:18 06.09.2019
2190 Clear 22 1020 44 10000 3.6 180 15:41 06.09.2019
2191 Clear 22 1020 31 10000 3.6 180 15:22 06.09.2019
2192 Clear 21 1020 16 10000 3.6 130 14:47 06.09.2019
2193 Clear 21 1020 19 10000 2.6 100 14:19 06.09.2019
2194 Clear 20 1021 22 10000 2.1 0 13:44 06.09.2019
2195 Clear 20 1021 22 10000 2.1 0 13:44 06.09.2019
2196 Clear 20 1021 22 10000 2.1 0 13:23 06.09.2019
2197 Clear 20 1021 24 10000 2.1 90 12:58 06.09.2019
2198 Clear 19 1021 30 10000 2.1 0 12:37 06.09.2019
2199 Clear 18 1021 30 10000 2.1 0 12:18 06.09.2019
2200 Clear 18 1022 41 10000 1 0 11:41 06.09.2019
2201 Clear 17 1022 41 10000 1 0 11:23 06.09.2019
2202 Clear 17 1024 14 0 1.34 180 10:56 06.09.2019
2203 Clear 17 1024 14 0 1.34 180 10:56 06.09.2019
2204 Clear 16 1025 14 0 0.89 159 10:38 06.09.2019
2205 Clear 16 1025 26 0 2.72 1.625 10:18 06.09.2019
2206 Clear 13 1020 65 0 2.72 1.625 09:38 06.09.2019
2207 Clouds 11 1020 66 0 3.73 15.89 09:20 06.09.2019
2208 Clouds 10 1025 43 0 3.73 15.89 08:55 06.09.2019
2209 Clouds 10 1025 42 0 3.73 15.89 08:55 06.09.2019
2210 Clouds 9 1025 45 0 3.73 15.89 08:37 06.09.2019
2211 Clouds 8 1020 91 0 3.73 15.89 08:18 06.09.2019
2212 Clouds 8 1020 91 0 3.73 15.89 08:18 06.09.2019
2213 Clouds 7 1020 71 0 3.73 15.89 07:42 06.09.2019
2214 Clouds 7 1020 71 0 3.73 15.89 07:42 06.09.2019
2215 Clouds 7 1019 91 0 3.73 15.89 07:23 06.09.2019
2216 Clouds 8 1020 72 0 3.73 15.89 06:43 06.09.2019
2217 Clouds 8 1019 86 0 0.45 183 05:58 06.09.2019
2218 Clouds 10 1020 86 0 4.36 16.471 04:57 06.09.2019
2219 Clouds 10 1020 87 0 0.89 96 04:26 06.09.2019
2220 Clouds 10 1020 84 0 1.34 233 03:23 06.09.2019
2221 Clouds 9 1020 94 0 0.45 204 01:31 06.09.2019
2222 Clouds 12 1020 66 0 4.02 13.365 00:23 06.09.2019
2223 Clouds 12 1020 64 0 4.02 13.365 23:42 05.09.2019
2224 Clouds 12 1021 91 0 0.89 228 23:22 05.09.2019
2225 Clouds 12 1021 95 0 0.45 248 22:46 05.09.2019
2226 Clouds 13 1021 93 0 4.02 13.365 22:27 05.09.2019
2227 Clouds 13 1021 92 0 4.02 13.365 21:58 05.09.2019
2228 Clouds 13 1021 93 0 0.89 232 21:39 05.09.2019
2229 Clear 16 1019 58 0 4.15 6.64 21:20 05.09.2019
2230 Clear 16 1019 58 0 4.15 6.64 21:20 05.09.2019
2231 Clear 17 1025 11 0 2.68 244 20:58 05.09.2019
2232 Clear 17 1025 11 0 3.13 244 20:39 05.09.2019
2233 Clear 17 1018 52 0 4.29 8.34 20:20 05.09.2019
2234 Clouds 16 1019 26 10000 9.8 320 19:57 05.09.2019
2235 Clouds 17 1019 26 10000 9.8 320 19:39 05.09.2019
2236 Clouds 20 1019 26 10000 9.8 320 19:20 05.09.2019
2237 Clouds 20 1019 75 10000 9.3 320 18:43 05.09.2019
2238 Clouds 21 1019 75 10000 9.3 320 18:43 05.09.2019
2239 Clouds 21 1019 39 10000 9.3 320 18:25 05.09.2019
2240 Clouds 22 1018 17 10000 10.8 320 17:59 05.09.2019
2241 Clouds 22 1018 17 10000 9.8 320 17:39 05.09.2019
2242 Clouds 22 1018 17 10000 9.8 320 17:21 05.09.2019
2243 Clouds 22 1018 14 10000 10.3 320 16:57 05.09.2019
2244 Clouds 23 1019 15 10000 9.8 320 16:39 05.09.2019
2245 Clouds 23 1019 15 10000 9.8 320 16:18 05.09.2019
2246 Clouds 23 1019 39 10000 8.2 310 15:40 05.09.2019
2247 Clouds 23 1019 39 10000 8.2 310 15:40 05.09.2019
2248 Clouds 23 1019 35 10000 8.2 310 15:19 05.09.2019
2249 Clouds 22 1019 19 10000 7.7 310 14:57 05.09.2019
2250 Clouds 22 1019 22 10000 7.2 310 14:38 05.09.2019
2251 Clouds 22 1019 22 10000 7.2 310 14:38 05.09.2019
2252 Clouds 22 1019 22 10000 7.2 310 14:18 05.09.2019
2253 Clouds 22 1020 28 10000 6.7 310 13:43 05.09.2019
2254 Clouds 23 1020 28 10000 6.7 310 13:20 05.09.2019
2255 Clouds 22 1020 33 10000 5.7 310 12:44 05.09.2019
2256 Clouds 21 1020 33 10000 5.7 310 12:26 05.09.2019
2257 Clouds 20 1020 43 10000 2.1 0 11:57 05.09.2019
2258 Clear 19 1021 52 10000 2.6 80 11:39 05.09.2019
2259 Clear 18 1021 52 10000 2.6 80 11:18 05.09.2019
2260 Clear 17 1016 65 0 0.45 86 10:41 05.09.2019
2261 Clear 16 1016 66 0 3.11 357.712 10:22 05.09.2019
2262 Clear 15 1024 33 0 1.34 197 09:57 05.09.2019
2263 Clouds 15 1016 65 0 3.15 356.524 09:38 05.09.2019
2264 Clouds 14 1016 65 0 4.05 14.846 09:18 05.09.2019
2265 Clouds 13 1016 69 0 4.05 14.846 08:45 05.09.2019
2266 Clouds 13 1016 72 0 4.05 14.846 08:26 05.09.2019
2267 Clouds 13 1023 37 0 4.05 14.846 07:45 05.09.2019
2268 Clouds 13 1016 73 0 4.05 14.846 07:27 05.09.2019
2269 Clouds 14 1023 35 0 4.05 14.846 06:53 05.09.2019
2270 Clouds 13 1023 28 0 3.85 9.291 06:29 05.09.2019
2271 Clouds 12 1019 96 0 0.45 210 05:50 05.09.2019
2272 Clouds 12 1019 96 0 0.45 232 05:30 05.09.2019
2273 Clouds 13 1019 96 0 0.89 215 04:48 05.09.2019
2274 Clouds 13 1019 96 0 3.85 9.291 04:24 05.09.2019
2275 Clouds 13 1020 96 0 3.85 9.291 03:34 05.09.2019
2276 Clouds 14 1016 77 0 3.26 21.651 02:44 05.09.2019
2277 Clouds 14 1020 96 0 3.26 21.651 02:18 05.09.2019
2278 Clouds 14 1021 93 0 3.37 21.014 01:25 05.09.2019
2279 Clouds 12 1021 95 0 0.45 198 00:42 05.09.2019
2280 Clouds 15 1021 95 0 0.45 194 00:20 05.09.2019
2281 Clouds 15 1016 70 0 3.43 14.162 23:46 04.09.2019
2282 Clouds 15 1022 90 0 3.43 14.162 23:23 04.09.2019
2283 Clouds 15 1016 70 0 0.45 150 22:57 04.09.2019
2284 Clouds 14 1022 88 0 3.43 14.162 22:38 04.09.2019
2285 Clouds 15 1022 89 0 0.45 181 22:18 04.09.2019
2286 Clouds 16 1022 87 0 0.89 260 21:39 04.09.2019
2287 Clouds 19 1015 62 0 0.45 163 21:20 04.09.2019
2288 Clouds 20 1022 10 0 1.34 254 20:56 04.09.2019
2289 Clouds 21 1015 59 0 1.34 208 20:37 04.09.2019
2290 Clouds 21 1014 56 0 0.89 195 20:18 04.09.2019
2291 Clouds 20 1022 73 0 3.39 6.87 19:44 04.09.2019
2292 Clouds 23 1021 8 0 3.13 233 19:24 04.09.2019
2293 Clouds 20 1022 70 0 0.89 197 18:55 04.09.2019
2294 Clouds 21 1022 67 0 0.89 232 18:36 04.09.2019
2295 Clear 25 1013 38 0 0.45 309 18:18 04.09.2019
2296 Clear 26 1021 7 0 3.13 239 17:41 04.09.2019
2297 Clear 26 1013 40 0 0.89 259 17:22 04.09.2019
2298 Clear 27 1014 42 0 0.89 295 16:56 04.09.2019
2299 Clear 27 1020 7 0 4.02 189 16:38 04.09.2019
2300 Clear 27 1021 7 0 3.13 189 16:19 04.09.2019
2301 Clear 27 1021 7 0 3.58 227 15:41 04.09.2019
2302 Clear 27 1021 7 0 3.58 199 15:22 04.09.2019
2303 Clear 27 1021 7 0 3.58 199 15:22 04.09.2019
2304 Clear 27 1014 40 0 1.75 228.734 14:58 04.09.2019
2305 Clear 26 1014 39 0 1.75 228.734 14:38 04.09.2019
2306 Clear 26 1015 37 0 1.75 228.734 14:20 04.09.2019
2307 Clear 26 1021 7 0 2.68 180 13:58 04.09.2019
2308 Clear 26 1015 44 0 1.75 228.734 13:39 04.09.2019
2309 Clear 25 1015 47 0 1.4 236.57 13:21 04.09.2019
2310 Clear 24 1016 49 0 1.4 236.57 12:44 04.09.2019
2311 Clear 24 1016 54 0 1.4 236.57 12:26 04.09.2019
2312 Clear 23 1022 8 0 0.86 250.221 11:58 04.09.2019
2313 Clear 21 1017 60 0 0.86 250.221 11:38 04.09.2019
2314 Clear 21 1017 62 0 0.86 250.221 11:19 04.09.2019
2315 Clear 20 1018 56 0 0.86 250.221 10:55 04.09.2019
2316 Clear 19 1023 13 0 0.86 250.221 10:36 04.09.2019
2317 Clear 19 1023 13 0 0.86 250.221 10:36 04.09.2019
2318 Clear 18 1023 14 0 0.86 250.221 10:18 04.09.2019
2319 Clear 16 1023 28 0 0.68 266.555 09:42 04.09.2019
2320 Clear 14 1022 32 0 1.48 21.888 09:19 04.09.2019
2321 Clear 12 1017 83 0 1.48 21.888 08:42 04.09.2019
2322 Clear 12 1022 30 0 1.48 21.888 08:24 04.09.2019
2323 Clear 11 1022 30 0 1.48 21.888 07:58 04.09.2019
2324 Clear 11 1022 31 0 1.48 21.888 07:35 04.09.2019
2325 Clear 12 1022 32 0 1.48 21.888 06:49 04.09.2019
2326 Clear 12 1022 30 0 0.88 31.276 06:26 04.09.2019
2327 Clear 12 1022 27 0 0.45 62 04:54 04.09.2019
2328 Clear 12 1022 26 0 0.88 31.276 04:21 04.09.2019
2329 Clear 13 1024 26 0 0.7 28.857 02:21 04.09.2019
2330 Clear 14 1024 30 0 0.73 32.532 00:56 04.09.2019
2331 Clear 14 1024 32 0 0.73 32.532 00:36 04.09.2019
2332 Clear 15 1025 38 0 0.73 27.338 23:59 03.09.2019
2333 Clear 15 1025 37 0 0.73 27.338 23:38 03.09.2019
2334 Clear 15 1025 35 0 0.73 27.338 23:19 03.09.2019
2335 Clear 15 1025 63 0 2.24 189 22:40 03.09.2019
2336 Clear 16 1021 49 0 2.24 292 22:22 03.09.2019
2337 Clear 16 1021 49 0 2.24 292 22:22 03.09.2019
2338 Clear 17 1023 69 0 0.9 26.336 21:56 03.09.2019
2339 Clear 14 1023 66 0 0.9 26.336 21:38 03.09.2019
2340 Clouds 19 1025 54 0 0.66 346.324 21:20 03.09.2019
2341 Clouds 20 1018 55 0 0.66 346.324 20:43 03.09.2019
2342 Clouds 21 1024 53 0 0.66 346.324 20:24 03.09.2019
2343 Clouds 21 1022 52 0 0.45 89 19:57 03.09.2019
2344 Clouds 23 1021 30 0 0.89 292 19:38 03.09.2019
2345 Clouds 23 1024 58 0 0.66 346.324 19:19 03.09.2019
2346 Clouds 24 1024 56 0 0.45 194 18:56 03.09.2019
2347 Clouds 23 1025 56 0 0.89 218 18:38 03.09.2019
2348 Clouds 26 1021 36 0 1.53 246.482 18:18 03.09.2019
2349 Clouds 24 1024 53 0 1.34 198 17:41 03.09.2019
2350 Clouds 26 1020 39 0 1.79 247 17:21 03.09.2019
2351 Clouds 26 1020 38 0 1.34 157 16:59 03.09.2019
2352 Clouds 26 1020 38 0 1.34 202 16:39 03.09.2019
2353 Clouds 26 1020 39 0 2.24 202 16:20 03.09.2019
2354 Clouds 26 1018 30 0 1.53 246.482 15:41 03.09.2019
2355 Clear 26 1019 20 0 0.72 235.365 15:21 03.09.2019
2356 Clear 25 1019 19 0 0.45 163 14:58 03.09.2019
2357 Clear 25 1019 20 0 0.72 235.365 14:40 03.09.2019
2358 Clear 24 1019 19 0 0.72 235.365 14:20 03.09.2019
2359 Clear 25 1019 30 0 0.45 203 13:57 03.09.2019
2360 Clear 24 1020 30 0 0.72 235.365 13:37 03.09.2019
2361 Clear 23 1020 29 0 0.42 260.227 13:19 03.09.2019
2362 Clear 23 1020 29 0 0.42 260.227 13:19 03.09.2019
2363 Clear 23 1020 31 0 0.42 260.227 12:55 03.09.2019
2364 Clear 23 1020 31 0 0.42 260.227 12:55 03.09.2019
2365 Clear 22 1020 33 0 0.42 260.227 12:37 03.09.2019
2366 Clear 21 1020 36 0 1.2 8.441 12:19 03.09.2019
2367 Clear 20 1020 47 0 1.2 8.441 11:40 03.09.2019
2368 Clear 20 1020 47 0 1.2 8.441 11:40 03.09.2019
2369 Clear 19 1019 47 0 0.45 278 11:21 03.09.2019
2370 Clear 18 1020 51 0 1.2 8.441 10:56 03.09.2019
2371 Clear 18 1020 51 0 0.45 278 10:38 03.09.2019
2372 Clear 17 1020 48 0 1.2 8.441 10:19 03.09.2019
2373 Clear 15 1020 56 0 1.32 10.825 09:44 03.09.2019
2374 Clear 12 1024 33 0 3.55 25.258 09:25 03.09.2019
2375 Clear 11 1021 58 0 3.55 25.258 08:44 03.09.2019
2376 Clear 10 1024 44 0 3.55 25.258 08:26 03.09.2019
2377 Clear 10 1023 32 0 3.55 25.258 07:58 03.09.2019
2378 Clear 10 1023 30 0 3.55 25.258 07:39 03.09.2019
2379 Clear 10 1023 28 0 3.55 25.258 07:21 03.09.2019
2380 Clear 10 1020 59 0 3.55 25.258 06:43 03.09.2019
2381 Clear 10 1022 44 0 3.32 23.999 05:36 03.09.2019
2382 Clear 12 1023 76 0 3.32 23.999 03:34 03.09.2019
2383 Clear 13 1020 63 0 3.38 21.713 02:43 03.09.2019
2384 Clear 13 1020 62 0 3.38 21.713 02:23 03.09.2019
2385 Clear 13 1020 61 0 3.38 21.713 01:47 03.09.2019
2386 Clear 12 1020 60 0 3.47 20.827 01:27 03.09.2019
2387 Clear 13 1023 81 0 3.47 20.827 00:40 03.09.2019
2388 Clear 15 1019 56 0 3.63 14.989 23:59 02.09.2019
2389 Clear 15 1019 63 0 3.63 14.989 23:39 02.09.2019
2390 Clear 15 1019 63 0 3.63 14.989 23:19 02.09.2019
2391 Clear 15 1019 63 0 3.63 14.989 23:19 02.09.2019
2392 Clear 13 1019 61 0 3.63 14.989 22:56 02.09.2019
2393 Clear 13 1019 61 0 3.63 14.989 22:56 02.09.2019
2394 Clear 12 1023 78 0 3.63 14.989 22:37 02.09.2019
2395 Clear 12 1023 85 0 3.63 14.989 22:19 02.09.2019
2396 Clear 12 1023 84 0 0.45 212 21:56 02.09.2019
2397 Clear 13 1023 84 0 3.73 15.518 21:37 02.09.2019
2398 Clouds 18 1017 55 0 3.42 11.185 21:19 02.09.2019
2399 Clouds 19 1017 51 0 3.42 11.185 20:42 02.09.2019
2400 Clouds 20 1016 47 0 0.45 211 20:23 02.09.2019
2401 Clouds 22 1019 50 10000 4.6 220 19:59 02.09.2019
2402 Clouds 19 1019 50 10000 4.6 220 19:41 02.09.2019
2403 Clouds 22 1019 50 10000 4.6 220 19:22 02.09.2019
2404 Clouds 23 1019 50 10000 4.6 220 18:57 02.09.2019
2405 Clouds 24 1019 47 10000 4.6 220 18:37 02.09.2019
2406 Clouds 22 1019 47 10000 5.7 220 18:18 02.09.2019
2407 Clouds 22 1019 47 10000 5.7 220 18:18 02.09.2019
2408 Clouds 22 1019 47 10000 6.2 200 17:40 02.09.2019
2409 Clouds 22 1019 47 10000 6.2 200 17:21 02.09.2019
2410 Clouds 22 1019 47 10000 5.7 220 16:59 02.09.2019
2411 Clouds 22 1019 47 10000 5.7 220 16:59 02.09.2019
2412 Clouds 23 1019 47 10000 5.7 220 16:39 02.09.2019
2413 Clouds 22 1019 47 10000 5.7 220 16:39 02.09.2019
2414 Clouds 23 1019 47 10000 5.7 220 16:20 02.09.2019
2415 Clouds 23 1019 50 10000 5.1 230 15:46 02.09.2019
2416 Clouds 22 1019 53 10000 5.7 240 15:27 02.09.2019
2417 Clouds 21 1019 56 10000 5.7 230 14:58 02.09.2019
2418 Clouds 21 1020 56 10000 5.7 240 14:39 02.09.2019
2419 Clouds 21 1020 56 10000 5.7 240 14:21 02.09.2019
2420 Clouds 21 1020 50 10000 5.1 230 13:56 02.09.2019
2421 Clouds 21 1020 49 10000 2.6 200 13:37 02.09.2019
2422 Clouds 21 1020 49 10000 2.6 200 13:18 02.09.2019
2423 Clouds 20 1021 60 10000 2.1 0 12:45 02.09.2019
2424 Clouds 19 1021 60 10000 2.1 0 12:25 02.09.2019
2425 Clouds 19 1021 60 10000 2.1 240 11:58 02.09.2019
2426 Clouds 18 1021 56 10000 1 0 11:39 02.09.2019
2427 Clouds 18 1021 56 10000 1 0 11:20 02.09.2019
2428 Clouds 17 1016 66 0 2.87 0.619 10:57 02.09.2019
2429 Clouds 17 1016 68 0 2.87 0.619 10:38 02.09.2019
2430 Clouds 17 1016 68 0 2.87 0.619 10:38 02.09.2019
2431 Clouds 17 1016 69 0 2.87 0.619 10:19 02.09.2019
2432 Clouds 16 1015 71 0 2.87 0.619 09:45 02.09.2019
2433 Clouds 16 1015 73 0 2.97 18.093 09:22 02.09.2019
2434 Clouds 16 1015 73 0 2.97 18.093 09:22 02.09.2019
2435 Clouds 16 1015 74 0 0.89 150 08:45 02.09.2019
2436 Clouds 15 1015 74 0 2.97 18.093 08:23 02.09.2019
2437 Clouds 14 1019 95 0 2.97 18.093 07:59 02.09.2019
2438 Clouds 14 1019 91 0 2.97 18.093 07:40 02.09.2019
2439 Clouds 14 1019 91 0 2.97 18.093 07:21 02.09.2019
2440 Clouds 14 1019 95 0 2.97 18.093 06:44 02.09.2019
2441 Clouds 15 1014 74 0 2.65 10.936 06:22 02.09.2019
2442 Clouds 15 1014 74 0 2.65 10.936 05:44 02.09.2019
2443 Clouds 15 1014 75 0 2.65 10.936 05:18 02.09.2019
2444 Rain 14 1014 76 0 2.73 13.43 02:46 02.09.2019
2445 Rain 14 1015 80 0 2.73 13.43 01:43 02.09.2019
2446 Rain 15 1014 83 0 2.63 15.762 00:47 02.09.2019
2447 Rain 17 1014 82 0 2.94 8.721 00:28 02.09.2019
2448 Rain 17 1019 72 0 2.94 8.721 23:41 01.09.2019
2449 Rain 16 1020 93 0 2.94 8.721 23:21 01.09.2019
2450 Rain 16 1020 92 0 2.94 8.721 22:57 01.09.2019
2451 Rain 16 1020 93 0 2.94 8.721 22:39 01.09.2019
2452 Rain 18 1016 80 0 0.89 270 22:19 01.09.2019
2453 Clouds 18 1017 49 10000 3.6 90 21:55 01.09.2019
2454 Clouds 18 1017 49 10000 3.6 90 21:37 01.09.2019
2455 Clouds 19 1017 49 10000 3.6 90 21:18 01.09.2019
2456 Clouds 19 1017 49 10000 3.6 90 20:55 01.09.2019
2457 Clouds 20 1016 49 10000 1.5 110 20:36 01.09.2019
2458 Clouds 20 1016 47 10000 2.1 210 20:18 01.09.2019
2459 Clouds 20 1016 47 10000 2.1 210 20:18 01.09.2019
2460 Clouds 20 1016 44 10000 4.1 200 19:41 01.09.2019
2461 Clouds 20 1016 44 10000 5.7 190 19:21 01.09.2019
2462 Clouds 20 1016 44 10000 4.1 200 19:21 01.09.2019
2463 Clouds 20 1016 44 10000 5.7 190 18:57 01.09.2019
2464 Clouds 21 1016 39 10000 5.7 210 18:38 01.09.2019
2465 Clouds 22 1016 39 10000 5.1 200 18:20 01.09.2019
2466 Clouds 23 1016 39 10000 4.6 200 17:42 01.09.2019
2467 Clouds 24 1016 39 10000 4.6 200 17:24 01.09.2019
2468 Clouds 22 1016 44 10000 2.1 150 16:58 01.09.2019
2469 Clouds 23 1016 44 10000 1.5 110 16:38 01.09.2019
2470 Clouds 22 1016 44 10000 1.5 110 16:18 01.09.2019
2471 Clouds 22 1016 44 10000 1.5 110 16:18 01.09.2019
2472 Clouds 23 1017 50 10000 1.5 60 15:43 01.09.2019
2473 Clouds 25 1017 53 10000 1 0 15:24 01.09.2019
2474 Clouds 25 1017 53 10000 1 0 14:45 01.09.2019
2475 Clouds 24 1018 53 10000 1 0 14:27 01.09.2019
2476 Clouds 23 1018 49 10000 1 0 13:59 01.09.2019
2477 Clouds 22 1019 60 10000 1 0 13:41 01.09.2019
2478 Clouds 22 1019 60 10000 1 0 13:23 01.09.2019
2479 Clear 21 1019 63 10000 1.5 80 12:45 01.09.2019
2480 Clear 20 1019 63 10000 1.5 80 12:26 01.09.2019
2481 Clear 20 1020 77 10000 0.5 0 11:58 01.09.2019
2482 Clear 20 1020 82 10000 0.5 0 11:38 01.09.2019
2483 Clear 19 1020 82 10000 0.5 0 11:19 01.09.2019
2484 Clouds 18 1020 87 10000 1.5 100 10:45 01.09.2019
2485 Clouds 17 1020 87 10000 1.5 100 10:23 01.09.2019
2486 Clear 17 1020 82 10000 1 0 09:48 01.09.2019
2487 Clouds 16 1019 58 0 1.34 59 09:26 01.09.2019
2488 Clouds 16 1019 58 0 1.34 59 09:26 01.09.2019
2489 Clouds 16 1013 77 0 0.95 91.75 08:58 01.09.2019
2490 Clouds 15 1019 57 0 1.34 84 08:39 01.09.2019
2491 Clouds 15 1019 58 0 1.79 305 08:20 01.09.2019
2492 Clouds 15 1019 61 0 1.34 35 07:41 01.09.2019
2493 Clouds 15 1013 74 0 0.95 91.75 07:21 01.09.2019
2494 Clouds 15 1019 61 0 0.89 48 06:39 01.09.2019
2495 Clouds 15 1019 62 0 1.79 72 05:59 01.09.2019
2496 Clouds 15 1019 61 0 0.45 56 04:43 01.09.2019
2497 Clouds 15 1020 63 0 0.68 53.331 03:49 01.09.2019
2498 Clouds 15 1014 76 0 0.68 53.331 03:30 01.09.2019
2499 Clouds 16 1021 62 0 2.14 32.274 02:37 01.09.2019
2500 Clouds 16 1021 62 0 2.14 32.274 02:19 01.09.2019
2501 Clouds 16 1015 73 0 2.49 41.607 01:28 01.09.2019
2502 Clouds 17 1015 73 0 2.49 41.607 00:48 01.09.2019
2503 Clear 17 1022 65 0 1.99 20.734 00:25 01.09.2019
2504 Clear 17 1022 70 0 1.99 20.734 23:59 31.08.2019
2505 Clear 17 1021 69 0 1.99 20.734 23:39 31.08.2019
2506 Clear 17 1022 67 0 1.99 20.734 23:20 31.08.2019
2507 Clear 18 1022 65 0 1.99 20.734 22:54 31.08.2019
2508 Clear 18 1016 58 0 4.02 22 22:36 31.08.2019
2509 Clear 18 1016 58 0 4.02 22 22:36 31.08.2019
2510 Clear 18 1016 58 0 4.02 22 22:36 31.08.2019
2511 Clear 18 1016 60 0 5.81 45 22:18 31.08.2019
2512 Clear 17 1022 62 0 1.99 20.734 21:42 31.08.2019
2513 Rain 19 1022 64 0 0.6 324.842 21:21 31.08.2019
2514 Clouds 20 1019 50 10000 3.6 230 20:51 31.08.2019
2515 Clouds 20 1019 50 10000 3.6 230 20:31 31.08.2019
2516 Clouds 19 1019 50 10000 3.6 230 19:59 31.08.2019
2517 Clouds 20 1019 47 10000 3.6 240 19:41 31.08.2019
2518 Clouds 20 1019 47 10000 3.6 240 19:22 31.08.2019
2519 Clouds 21 1018 44 10000 1 0 18:41 31.08.2019
2520 Clouds 23 1018 44 10000 1 0 18:21 31.08.2019
2521 Rain 24 1018 36 10000 2.6 10 17:58 31.08.2019
2522 Rain 24 1017 36 10000 12.9 310 17:37 31.08.2019
2523 Rain 25 1017 36 10000 12.9 310 17:19 31.08.2019
2524 Rain 24 1017 36 10000 9.3 320 16:59 31.08.2019
2525 Thunderstorm 24 1017 32 10000 4.1 250 16:41 31.08.2019
2526 Thunderstorm 24 1017 32 10000 4.1 250 16:21 31.08.2019
2527 Rain 25 1018 30 10000 5.1 260 15:59 31.08.2019
2528 Rain 25 1018 33 10000 4.1 220 15:38 31.08.2019
2529 Rain 27 1018 33 10000 4.1 220 15:18 31.08.2019
2530 Clouds 25 1019 42 10000 1.5 160 14:42 31.08.2019
2531 Clouds 27 1019 42 10000 1.5 160 14:23 31.08.2019
2532 Clouds 27 1020 47 10000 1.5 0 13:42 31.08.2019
2533 Clouds 27 1020 47 10000 1.5 0 13:23 31.08.2019
2534 Clouds 27 1020 47 10000 1.5 0 13:23 31.08.2019
2535 Clouds 27 1021 53 10000 1 0 12:59 31.08.2019
2536 Clouds 26 1021 53 10000 1 0 12:59 31.08.2019
2537 Clouds 26 1021 60 10000 0.5 0 12:40 31.08.2019
2538 Clouds 26 1021 60 10000 0.5 0 12:21 31.08.2019
2539 Clouds 24 1021 68 10000 0.5 0 11:56 31.08.2019
2540 Clouds 24 1022 72 10000 1 0 11:38 31.08.2019
2541 Clouds 23 1022 72 10000 1 0 11:20 31.08.2019
2542 Clear 21 1017 49 0 0.89 112 10:43 31.08.2019
2543 Clear 19 1016 83 0 1.07 225.757 10:19 31.08.2019
2544 Clear 19 1016 83 0 1.07 225.757 10:19 31.08.2019
2545 Clear 18 1017 78 0 1.07 225.757 09:59 31.08.2019
2546 Clear 19 1017 62 0 0.89 45 09:38 31.08.2019
2547 Clear 17 1016 73 0 1.37 36.903 09:19 31.08.2019
2548 Clear 15 1022 62 0 1.37 36.903 08:44 31.08.2019
2549 Clear 15 1022 62 0 1.37 36.903 08:44 31.08.2019
2550 Clear 14 1022 61 0 1.37 36.903 08:25 31.08.2019
2551 Clear 14 1022 58 0 1.37 36.903 07:42 31.08.2019
2552 Clear 14 1022 56 0 1.37 36.903 07:23 31.08.2019
2553 Clear 14 1022 55 0 1.37 36.903 06:49 31.08.2019
2554 Clear 14 1022 54 0 1.61 34.461 06:21 31.08.2019
2555 Clear 14 1016 78 0 1.61 34.461 05:34 31.08.2019
2556 Clear 14 1022 55 0 1.61 34.461 04:36 31.08.2019
2557 Clear 15 1023 55 0 1.61 34.461 03:50 31.08.2019
2558 Clear 15 1023 56 0 1.16 44.303 02:50 31.08.2019
2559 Clear 16 1017 74 0 1.16 44.303 01:56 31.08.2019
2560 Clear 15 1024 56 0 1.34 38.46 01:35 31.08.2019
2561 Clear 15 1024 56 0 1.34 38.46 01:35 31.08.2019
2562 Clear 16 1024 69 0 1.34 38.46 00:52 31.08.2019
2563 Clear 16 1024 68 0 1.34 38.46 00:52 31.08.2019
2564 Clear 16 1024 69 0 1.34 38.46 00:52 31.08.2019
2565 Clear 16 1024 71 0 1.34 38.46 00:31 31.08.2019
2566 Rain 16 1025 70 0 1.12 57.08 23:59 30.08.2019
2567 Rain 17 1018 72 0 1.12 57.08 23:39 30.08.2019
2568 Rain 17 1025 65 0 1.12 57.08 23:18 30.08.2019
2569 Rain 16 1025 64 0 1.12 57.08 22:42 30.08.2019
2570 Rain 16 1025 64 0 1.12 57.08 22:24 30.08.2019
2571 Rain 18 1025 66 0 1.12 57.08 21:59 30.08.2019
2572 Rain 18 1025 64 0 1.08 47.691 21:38 30.08.2019
2573 Rain 19 1025 63 0 0.38 322.673 21:20 30.08.2019
2574 Rain 19 1025 63 0 0.38 322.673 21:20 30.08.2019
2575 Rain 18 1025 63 0 0.38 322.673 20:59 30.08.2019
2576 Rain 19 1025 64 0 0.38 322.673 20:40 30.08.2019
2577 Thunderstorm 19 1023 77 10000 2.1 320 20:20 30.08.2019
2578 Thunderstorm 20 1023 77 10000 2.1 320 19:58 30.08.2019
2579 Thunderstorm 19 1023 77 10000 2.1 320 19:39 30.08.2019
2580 Thunderstorm 20 1023 68 10000 2.1 270 19:19 30.08.2019
2581 Thunderstorm 22 1023 68 10000 2.1 270 18:54 30.08.2019
2582 Thunderstorm 22 1023 68 10000 5.1 330 18:36 30.08.2019
2583 Thunderstorm 23 1022 64 10000 7.2 330 18:18 30.08.2019
2584 -273 0 0 0 0 0 17:55 30.08.2019
2585 Thunderstorm 24 1022 53 10000 5.7 330 17:37 30.08.2019
2586 Thunderstorm 24 1022 53 10000 5.7 330 17:18 30.08.2019
2587 Clouds 25 1021 37 10000 2.1 200 16:42 30.08.2019
2588 Clouds 24 1021 37 10000 2.1 200 16:22 30.08.2019
2589 Clouds 24 1022 48 10000 1.5 100 15:43 30.08.2019
2590 Clouds 26 1022 48 10000 1.5 100 15:23 30.08.2019
2591 Clouds 27 1023 47 10000 1 0 14:47 30.08.2019
2592 Clouds 29 1023 47 10000 1 0 14:29 30.08.2019
2593 Clouds 28 1024 50 10000 1 0 13:59 30.08.2019
2594 Clouds 28 1025 56 10000 1 0 13:40 30.08.2019
2595 Clouds 28 1025 56 10000 1 0 13:22 30.08.2019
2596 Clouds 27 1025 77 10000 1 0 12:46 30.08.2019
2597 Clouds 27 1019 52 0 1.91 211.662 12:27 30.08.2019
2598 Clouds 26 1019 52 0 1.91 211.662 11:59 30.08.2019
2599 Clouds 26 1023 7 0 1.91 211.662 11:41 30.08.2019
2600 Clouds 24 1024 7 0 1.91 211.662 11:23 30.08.2019
2601 Clouds 22 1024 8 0 1.91 211.662 10:39 30.08.2019
2602 Clouds 21 1019 64 0 0.45 270 10:20 30.08.2019
2603 Clouds 20 1024 22 0 1.91 211.662 09:56 30.08.2019
2604 Clouds 20 1024 22 0 1.91 211.662 09:56 30.08.2019
2605 Clouds 20 1024 24 0 1.91 211.662 09:36 30.08.2019
2606 Clouds 20 1024 24 0 1.91 211.662 09:36 30.08.2019
2607 Clouds 17 1020 76 0 1.97 40.541 09:18 30.08.2019
2608 Clouds 17 1020 76 0 1.97 40.541 09:18 30.08.2019
2609 Clouds 16 1026 59 0 1.97 40.541 08:44 30.08.2019
2610 Clouds 15 1026 61 0 1.97 40.541 08:24 30.08.2019
2611 Clouds 15 1026 63 0 1.97 40.541 07:56 30.08.2019
2612 Clouds 15 1026 64 0 1.97 40.541 07:37 30.08.2019
2613 Clouds 15 1019 74 0 1.97 40.541 07:18 30.08.2019
2614 Clouds 15 1026 62 0 1.97 40.541 06:40 30.08.2019
2615 Clouds 16 1025 61 0 2.77 35.449 06:20 30.08.2019
2616 Clouds 16 1018 76 0 2.77 35.449 05:32 30.08.2019
2617 Clouds 17 1018 77 0 2.77 35.449 03:57 30.08.2019
2618 Clouds 17 1018 77 0 2.77 35.449 03:57 30.08.2019
2619 Clouds 17 1026 57 0 2.77 35.449 03:57 30.08.2019
2620 Clouds 17 1026 57 0 2.77 35.449 03:37 30.08.2019
2621 Clouds 17 1026 57 0 2.77 35.449 03:37 30.08.2019
2622 Clouds 17 1018 77 0 2.51 33.589 02:41 30.08.2019
2623 Clouds 18 1026 55 0 2.51 33.589 01:51 30.08.2019
2624 Clouds 18 1026 65 0 2.54 33.202 00:55 30.08.2019
2625 Clouds 18 1026 70 0 2.56 25.594 00:20 30.08.2019
2626 Clouds 19 1024 35 0 2.56 25.594 23:48 29.08.2019
2627 Clouds 19 1024 35 0 2.56 25.594 23:48 29.08.2019
2628 Clouds 19 1024 33 0 2.56 25.594 23:23 29.08.2019
2629 Clouds 20 1024 33 0 2.56 25.594 22:56 29.08.2019
2630 Clouds 19 1026 88 0 2.56 25.594 22:37 29.08.2019
2631 Clouds 21 1024 28 0 2.56 25.594 22:19 29.08.2019
2632 Rain 20 1026 85 0 2.61 25.555 21:41 29.08.2019
2633 Rain 21 1018 70 0 0.89 134 21:21 29.08.2019
2634 Rain 21 1018 71 0 0.89 148 20:58 29.08.2019
2635 Rain 21 1025 83 0 1.37 28.065 20:39 29.08.2019
2636 Thunderstorm 23 1021 41 10000 5.1 80 20:19 29.08.2019
2637 Thunderstorm 23 1021 41 10000 5.1 80 19:47 29.08.2019
2638 Thunderstorm 23 1021 41 10000 5.1 80 19:26 29.08.2019
2639 Rain 24 1021 44 10000 2.1 300 18:58 29.08.2019
2640 Rain 24 1021 44 10000 5.7 330 18:40 29.08.2019
2641 Thunderstorm 28 1021 33 10000 4.1 220 18:18 29.08.2019
2642 Thunderstorm 28 1021 33 10000 4.1 220 18:18 29.08.2019
2643 Rain 28 1021 35 10000 4.1 230 17:54 29.08.2019
2644 Rain 27 1021 35 10000 4.1 230 17:36 29.08.2019
2645 Clouds 26 1021 33 10000 3.6 230 17:18 29.08.2019
2646 Clouds 29 1021 37 10000 3.1 200 16:41 29.08.2019
2647 Clouds 30 1021 37 10000 3.6 230 16:23 29.08.2019
2648 Clouds 29 1022 42 10000 3.1 220 15:41 29.08.2019
2649 Clouds 28 1022 42 10000 3.1 220 15:22 29.08.2019
2650 Clouds 28 1022 42 10000 3.1 220 15:22 29.08.2019
2651 Clouds 29 1022 39 10000 4.6 220 14:58 29.08.2019
2652 Clouds 28 1022 42 10000 2.6 210 14:40 29.08.2019
2653 Clouds 28 1022 42 10000 2.6 210 14:20 29.08.2019
2654 Clouds 27 1022 42 10000 1.5 0 13:57 29.08.2019
2655 Clouds 27 1023 44 10000 1.5 0 13:38 29.08.2019
2656 Clouds 26 1023 44 10000 1.5 0 13:18 29.08.2019
2657 Clouds 26 1023 50 10000 1.5 0 12:56 29.08.2019
2658 Clouds 26 1023 50 10000 1 0 12:38 29.08.2019
2659 Clouds 25 1023 50 10000 1 0 12:19 29.08.2019
2660 Clouds 24 1024 60 10000 0.5 0 11:42 29.08.2019
2661 Clouds 23 1024 60 10000 0.5 0 11:21 29.08.2019
2662 Clear 23 1023 9 0 0.67 231.461 10:57 29.08.2019
2663 Clear 21 1018 80 0 0.67 231.461 10:38 29.08.2019
2664 Clear 21 1018 80 0 0.67 231.461 10:20 29.08.2019
2665 Clear 20 1018 74 0 0.87 221.1 09:41 29.08.2019
2666 Clear 17 1018 82 0 2.07 33.091 09:19 29.08.2019
2667 Clear 16 1024 73 0 2.07 33.091 08:49 29.08.2019
2668 Clear 15 1024 70 0 2.07 33.091 08:31 29.08.2019
2669 Clear 14 1018 81 0 2.07 33.091 07:58 29.08.2019
2670 Clear 15 1024 75 0 2.07 33.091 07:37 29.08.2019
2671 Clear 14 1023 71 0 2.07 33.091 07:18 29.08.2019
2672 Clear 14 1023 73 0 2.07 33.091 06:40 29.08.2019
2673 Clear 15 1023 67 0 2.1 26.553 05:52 29.08.2019
2674 Clear 15 1017 80 0 2.1 26.553 05:31 29.08.2019
2675 Clear 15 1023 69 0 2.1 26.553 04:48 29.08.2019
2676 Clear 15 1023 66 0 2.1 26.553 04:28 29.08.2019
2677 Clouds 17 1023 71 0 1.47 27.628 01:55 29.08.2019
2678 Clouds 17 1023 71 0 1.8 31.816 01:35 29.08.2019
2679 Clouds 18 1024 75 0 1.8 31.816 00:48 29.08.2019
2680 Rain 17 1023 78 0 2.54 27.859 00:24 29.08.2019
2681 Rain 18 1017 68 0 2.54 27.859 23:59 28.08.2019
2682 Rain 18 1023 82 0 2.54 27.859 23:39 28.08.2019
2683 Rain 18 1023 86 0 2.54 27.859 23:21 28.08.2019
2684 Rain 18 1023 85 0 2.54 27.859 22:56 28.08.2019
2685 Rain 19 1023 82 0 2.54 27.859 22:38 28.08.2019
2686 Rain 20 1023 83 0 2.54 27.859 22:18 28.08.2019
2687 Rain 20 1023 82 0 2.4 24.088 21:41 28.08.2019
2688 Rain 22 1016 67 0 1.85 25.125 21:23 28.08.2019
2689 Rain 23 1015 68 0 1.85 25.125 20:57 28.08.2019
2690 Rain 23 1020 23 0 1.85 25.125 20:38 28.08.2019
2691 Rain 23 1015 61 0 1.85 25.125 20:20 28.08.2019
2692 Rain 21 1015 62 0 1.85 25.125 19:42 28.08.2019
2693 Rain 25 1022 75 0 1.85 25.125 19:22 28.08.2019
2694 Rain 24 1022 65 0 1.85 25.125 18:58 28.08.2019
2695 Rain 24 1022 64 0 0.45 232 18:37 28.08.2019
2696 Rain 26 1014 54 0 0.65 270.444 18:19 28.08.2019
2697 Rain 26 1014 56 0 0.65 270.444 17:39 28.08.2019
2698 Rain 26 1014 53 0 0.45 305 17:19 28.08.2019
2699 Rain 26 1014 57 0 0.65 270.444 16:45 28.08.2019
2700 Rain 26 1019 6 0 2.68 193 16:23 28.08.2019
2701 Rain 26 1019 6 0 2.68 193 16:23 28.08.2019
2702 Rain 26 1019 6 0 2.68 232 15:59 28.08.2019
2703 Rain 26 1019 6 0 4.02 178 15:38 28.08.2019
2704 Rain 26 1014 41 0 1.25 213.856 15:20 28.08.2019
2705 Rain 26 1019 6 0 3.58 187 14:57 28.08.2019
2706 Rain 25 1015 47 0 0.89 1 14:39 28.08.2019
2707 Rain 25 1015 55 0 0.89 106 14:20 28.08.2019
2708 Rain 25 1015 60 0 1.25 213.856 13:58 28.08.2019
2709 Rain 25 1015 64 0 1.25 213.856 13:38 28.08.2019
2710 Rain 25 1015 61 0 1.05 237.896 13:19 28.08.2019
2711 Rain 25 1015 59 0 0.45 60 12:42 28.08.2019
2712 Clouds 24 1015 62 0 1.13 220.013 12:24 28.08.2019
2713 Clouds 23 1020 10 0 1.34 224 11:57 28.08.2019
2714 Clouds 23 1015 72 0 1.13 220.013 11:38 28.08.2019
2715 Clouds 22 1015 74 0 1.13 220.013 11:20 28.08.2019
2716 Clouds 21 1015 85 0 1.13 220.013 10:55 28.08.2019
2717 Clouds 21 1020 24 0 1.13 220.013 10:37 28.08.2019
2718 Clouds 19 1015 89 0 1.13 220.013 10:18 28.08.2019
2719 Clouds 18 1020 38 0 0.54 255.6 09:41 28.08.2019
2720 Clouds 16 1020 84 0 2.06 35.013 09:20 28.08.2019
2721 Clouds 15 1020 88 0 2.06 35.013 08:39 28.08.2019
2722 Clouds 15 1020 87 0 2.06 35.013 08:21 28.08.2019
2723 Clouds 13 1015 91 0 2.06 35.013 07:45 28.08.2019
2724 Clouds 14 1020 83 0 2.06 35.013 07:25 28.08.2019
2725 Clouds 14 1015 91 0 2.06 35.013 06:59 28.08.2019
2726 Clouds 14 1019 84 0 2.06 35.013 06:40 28.08.2019
2727 Rain 14 1015 89 0 2.08 25.095 05:44 28.08.2019
2728 Rain 15 1015 87 0 2.08 25.095 03:32 28.08.2019
2729 Rain 16 1021 87 0 1.35 14.18 01:50 28.08.2019
2730 Rain 16 1015 87 0 0.99 45.288 01:29 28.08.2019
2731 Rain 16 1015 89 0 0.99 45.288 00:41 28.08.2019
2732 Rain 17 1015 89 0 0.59 26.261 23:59 27.08.2019
2733 Rain 18 1015 91 0 0.59 26.261 23:40 27.08.2019
2734 Rain 18 1015 91 0 0.59 26.261 23:40 27.08.2019
2735 Rain 18 1015 91 0 0.59 26.261 23:21 27.08.2019
2736 Rain 18 1015 91 0 0.59 26.261 22:56 27.08.2019
2737 Rain 17 1021 87 0 0.59 26.261 22:38 27.08.2019
2738 Rain 17 1015 91 0 0.75 105.819 22:19 27.08.2019
2739 Rain 17 1020 86 0 0.75 105.819 21:55 27.08.2019
2740 Rain 17 1020 86 0 0.75 105.819 21:55 27.08.2019
2741 Rain 17 1020 84 0 0.75 105.819 21:36 27.08.2019
2742 Rain 19 1014 88 0 0.45 96 21:18 27.08.2019
2743 Rain 20 1013 83 0 0.28 289.877 20:41 27.08.2019
2744 Rain 21 1013 76 0 0.28 289.877 20:21 27.08.2019
2745 Rain 21 1019 37 0 0.28 289.877 19:58 27.08.2019
2746 Rain 22 1019 34 0 0.28 289.877 19:39 27.08.2019
2747 Rain 22 1019 23 0 0.89 17 19:21 27.08.2019
2748 Rain 21 1019 86 0 0.28 289.877 18:43 27.08.2019
2749 Rain 22 1018 10 0 3.13 210 18:19 27.08.2019
2750 Rain 22 1019 71 0 1.54 200.282 17:59 27.08.2019
2751 Rain 22 1019 61 0 1.54 200.282 17:41 27.08.2019
2752 Rain 23 1019 62 0 1.54 200.282 17:22 27.08.2019
2753 Rain 22 1019 63 0 1.54 200.282 16:47 27.08.2019
2754 Rain 22 1019 63 0 0.45 39 16:28 27.08.2019
2755 Rain 22 1019 59 0 1.54 200.282 15:58 27.08.2019
2756 Rain 23 1012 50 0 0.45 208 15:39 27.08.2019
2757 Rain 23 1017 15 0 3.58 188 15:20 27.08.2019
2758 Rain 22 1017 14 0 2.68 227 14:54 27.08.2019
2759 Rain 23 1013 49 0 1.34 183 14:36 27.08.2019
2760 Rain 23 1013 53 0 1.34 359 14:18 27.08.2019
2761 Rain 23 1014 48 0 1.34 110 13:41 27.08.2019
2762 Clouds 24 1018 7 0 1.34 307 13:20 27.08.2019
2763 Clouds 23 1018 8 0 0.89 302 12:42 27.08.2019
2764 Clouds 23 1014 64 0 2.23 182.006 12:21 27.08.2019
2765 Clouds 20 1020 66 0 1.79 28 11:57 27.08.2019
2766 Clouds 19 1020 65 0 0.45 68 11:37 27.08.2019
2767 Clouds 20 1020 67 0 1.79 65 11:18 27.08.2019
2768 Clouds 19 1014 79 0 2.23 182.006 10:41 27.08.2019
2769 Clouds 17 1014 87 0 2.23 182.006 10:19 27.08.2019
2770 Clouds 17 1020 68 0 2.23 182.006 10:19 27.08.2019
2771 Clouds 17 1020 70 0 1.79 51 09:55 27.08.2019
2772 Rain 17 1013 85 0 2.29 70.28 09:37 27.08.2019
2773 Rain 16 1020 73 0 2.24 49 09:18 27.08.2019
2774 Rain 16 1014 87 0 0.84 36.584 08:44 27.08.2019
2775 Rain 16 1020 71 0 1.34 53 08:24 27.08.2019
2776 Rain 16 1014 88 0 0.84 36.584 07:43 27.08.2019
2777 Rain 16 1020 67 0 2.68 59 07:20 27.08.2019
2778 Rain 16 1020 68 0 1.34 52 06:58 27.08.2019
2779 Rain 17 1020 66 0 0.89 23 06:37 27.08.2019
2780 Rain 17 1020 62 0 1.55 308.509 06:18 27.08.2019
2781 Rain 16 1020 64 0 1.79 69 05:24 27.08.2019
2782 Rain 16 1021 53 0 0.45 39 03:42 27.08.2019
2783 Clouds 17 1021 49 0 0.45 32 02:26 27.08.2019
2784 Clouds 16 1021 46 0 0.45 58 01:45 27.08.2019
2785 Clouds 17 1021 46 0 1.27 44.712 01:23 27.08.2019
2786 Clouds 17 1021 50 0 1.27 44.712 00:46 27.08.2019
2787 Clouds 18 1021 52 0 0.96 108.7 00:25 27.08.2019
2788 Clouds 18 1021 56 0 0.96 108.7 23:40 26.08.2019
2789 Clouds 19 1021 53 0 1.34 42 23:21 26.08.2019
2790 Clouds 19 1021 54 0 2.24 3 22:54 26.08.2019
2791 Clouds 19 1021 49 0 1.79 20 22:36 26.08.2019
2792 Clouds 19 1021 53 0 1.34 70 22:18 26.08.2019
2793 Clouds 19 1020 57 0 3.58 34 21:39 26.08.2019
2794 Clouds 22 1013 56 0 1.8 219.598 21:20 26.08.2019
2795 Clouds 23 1013 48 0 1.8 219.598 20:57 26.08.2019
2796 Clouds 24 1012 44 0 1.8 219.598 20:39 26.08.2019
2797 Clouds 25 1018 32 10000 1.5 230 20:19 26.08.2019
2798 Clouds 25 1018 32 10000 1.5 230 19:44 26.08.2019
2799 Clouds 24 1018 32 10000 2.6 230 19:20 26.08.2019
2800 Clouds 24 1018 32 10000 2.6 230 18:59 26.08.2019
2801 Clouds 26 1019 26 10000 4.1 220 18:38 26.08.2019
2802 Clouds 26 1019 26 10000 4.1 220 18:38 26.08.2019
2803 Clouds 28 1019 26 10000 1.5 240 18:19 26.08.2019
2804 Clouds 28 1019 26 10000 1.5 240 18:19 26.08.2019
2805 Clouds 27 1019 25 10000 3.6 220 17:44 26.08.2019
2806 Clouds 28 1020 23 10000 4.1 230 17:20 26.08.2019
2807 Clouds 28 1020 23 10000 4.1 230 17:20 26.08.2019
2808 Clouds 28 1020 23 10000 4.1 230 16:58 26.08.2019
2809 Clouds 28 1020 23 10000 5.1 220 16:40 26.08.2019
2810 Clouds 29 1020 23 10000 5.7 220 16:19 26.08.2019
2811 Clouds 29 1020 23 10000 5.7 220 16:19 26.08.2019
2812 Clouds 29 1020 23 10000 5.7 220 15:59 26.08.2019
2813 Clouds 29 1020 25 10000 5.1 230 15:41 26.08.2019
2814 Clouds 29 1020 30 10000 1.5 0 15:21 26.08.2019
2815 Clouds 29 1020 30 10000 2.1 220 14:44 26.08.2019
2816 Clouds 29 1020 31 10000 2.1 200 14:23 26.08.2019
2817 Clouds 28 1020 31 10000 2.1 200 13:57 26.08.2019
2818 Clouds 27 1021 36 10000 2.1 200 13:38 26.08.2019
2819 Clouds 27 1021 36 10000 2.1 200 13:38 26.08.2019
2820 Clouds 27 1021 44 10000 1.5 200 13:19 26.08.2019
2821 Clouds 27 1021 50 10000 1 0 12:43 26.08.2019
2822 Clouds 26 1022 60 10000 1 0 12:23 26.08.2019
2823 Clouds 25 1022 60 10000 1 0 11:45 26.08.2019
2824 Clouds 24 1022 60 10000 1 0 11:27 26.08.2019
2825 Clear 24 1019 8 0 2.59 198.33 10:59 26.08.2019
2826 Clear 23 1019 8 0 0.89 149 10:41 26.08.2019
2827 Clear 22 1019 11 0 2.59 198.33 10:19 26.08.2019
2828 Clear 20 1015 66 0 0.45 82 09:47 26.08.2019
2829 Clear 18 1021 64 0 1.79 38 09:26 26.08.2019
2830 Clear 16 1021 63 0 1.34 56 08:59 26.08.2019
2831 Clear 15 1021 66 0 1.04 83.544 08:41 26.08.2019
2832 Clear 15 1021 65 0 0.45 138 08:22 26.08.2019
2833 Clear 14 1014 83 0 1.04 83.544 07:45 26.08.2019
2834 Clear 15 1021 60 0 1.04 83.544 07:25 26.08.2019
2835 Clear 15 1021 66 0 1.04 83.544 06:58 26.08.2019
2836 Clear 15 1021 69 0 1.04 83.544 06:39 26.08.2019
2837 Clear 15 1021 68 0 1.11 61.724 06:19 26.08.2019
2838 Clear 16 1015 80 0 1.11 61.724 05:41 26.08.2019
2839 Clear 16 1022 65 0 1.11 61.724 04:22 26.08.2019
2840 Clouds 17 1015 74 0 1 52.281 02:42 26.08.2019
2841 Clouds 19 1023 55 0 1.01 48.456 01:23 26.08.2019
2842 Clouds 19 1023 65 0 1.01 48.456 00:45 26.08.2019
2843 Clouds 20 1023 68 0 1.03 96.303 00:26 26.08.2019
2844 Clouds 20 1015 64 0 1.03 96.303 23:45 25.08.2019
2845 Clouds 20 1023 71 0 1.03 96.303 23:21 25.08.2019
2846 Clouds 20 1023 68 0 1.03 96.303 22:59 25.08.2019
2847 Clouds 20 1023 69 0 1.03 96.303 22:40 25.08.2019
2848 Clouds 20 1023 71 0 1.03 96.303 22:20 25.08.2019
2849 Clouds 20 1023 69 0 1.03 96.303 21:58 25.08.2019
2850 Clouds 22 1020 68 0 1.34 178 21:39 25.08.2019
2851 Rain 23 1023 69 0 1.62 46.705 21:19 25.08.2019
2852 Rain 24 1014 53 0 0.89 119 20:55 25.08.2019
2853 Rain 24 1014 53 0 0.89 119 20:55 25.08.2019
2854 Clouds 25 1019 28 10000 3.1 220 20:36 25.08.2019
2855 Clouds 26 1019 28 10000 3.1 220 20:18 25.08.2019
2856 Clouds 27 1019 28 10000 3.1 220 19:40 25.08.2019
2857 Clouds 28 1019 30 10000 3.6 220 19:21 25.08.2019
2858 Clouds 26 1019 30 10000 3.6 220 18:59 25.08.2019
2859 Clouds 26 1019 30 10000 3.6 220 18:59 25.08.2019
2860 Clouds 26 1019 27 10000 4.6 210 18:40 25.08.2019
2861 Clouds 29 1019 27 10000 4.6 210 18:22 25.08.2019
2862 Clouds 29 1019 28 10000 3.1 230 17:56 25.08.2019
2863 Clouds 29 1019 28 10000 3.1 230 17:38 25.08.2019
2864 Clouds 29 1019 25 10000 3.6 210 17:19 25.08.2019
2865 Clouds 29 1019 27 10000 2.6 210 16:40 25.08.2019
2866 Clouds 30 1020 27 10000 2.1 180 16:22 25.08.2019
2867 Clouds 29 1020 26 10000 1 0 15:47 25.08.2019
2868 Clouds 30 1020 26 10000 1 0 15:26 25.08.2019
2869 Clouds 29 1020 32 10000 2.1 0 14:55 25.08.2019
2870 Clouds 29 1020 32 10000 2.1 0 14:55 25.08.2019
2871 Clouds 29 1020 32 10000 2.1 0 14:37 25.08.2019
2872 Clouds 28 1021 32 10000 1.5 0 14:19 25.08.2019
2873 Clouds 28 1021 36 10000 1.5 0 13:43 25.08.2019
2874 Clouds 28 1022 36 10000 1 0 13:21 25.08.2019
2875 Clouds 27 1022 49 10000 1 0 12:54 25.08.2019
2876 Clouds 26 1022 49 10000 1 0 12:36 25.08.2019
2877 Clouds 26 1022 49 10000 1 0 12:36 25.08.2019
2878 Clouds 26 1023 56 10000 1 0 12:18 25.08.2019
2879 Clouds 25 1023 49 10000 1 0 11:41 25.08.2019
2880 Clouds 23 1023 56 10000 1.5 70 11:22 25.08.2019
2881 Clouds 23 1023 56 10000 1.5 70 10:59 25.08.2019
2882 Clouds 23 1023 63 10000 0.5 0 10:40 25.08.2019
2883 Clouds 21 1023 68 10000 1.5 70 10:20 25.08.2019
2884 Clouds 20 1023 68 10000 1.5 70 09:55 25.08.2019
2885 Clouds 20 1023 68 10000 1.5 70 09:55 25.08.2019
2886 Clouds 18 1023 77 10000 2.1 60 09:37 25.08.2019
2887 Clear 17 1023 59 0 1.68 37.45 09:18 25.08.2019
2888 Clear 16 1017 76 0 1.68 37.45 08:42 25.08.2019
2889 Clear 15 1023 60 0 1.68 37.45 08:20 25.08.2019
2890 Clear 15 1016 75 0 1.68 37.45 07:35 25.08.2019
2891 Clear 14 1016 76 0 1.68 37.45 06:46 25.08.2019
2892 Clear 15 1022 60 0 1.68 37.45 06:46 25.08.2019
2893 Clear 15 1023 64 0 2 35.731 05:43 25.08.2019
2894 Clear 16 1016 76 0 2 35.731 04:32 25.08.2019
2895 Clouds 17 1023 60 0 2.18 36.749 02:58 25.08.2019
2896 Clouds 16 1023 59 0 2.18 36.749 02:38 25.08.2019
2897 Clouds 17 1024 55 0 2.21 36.377 01:20 25.08.2019
2898 Clouds 17 1024 56 0 2.21 36.377 00:38 25.08.2019
2899 Clouds 19 1017 69 0 2.05 30.226 00:20 25.08.2019
2900 Clouds 20 1017 66 0 2.05 30.226 23:47 24.08.2019
2901 Clouds 20 1024 60 0 2.05 30.226 23:22 24.08.2019
2902 Clouds 19 1024 58 0 2.05 30.226 22:55 24.08.2019
2903 Clouds 19 1024 59 0 2.05 30.226 22:36 24.08.2019
2904 Clouds 19 1024 58 0 2.05 30.226 22:18 24.08.2019
2905 Clouds 20 1024 58 0 2.05 30.226 21:42 24.08.2019
2906 Rain 22 1016 43 0 1.51 18.363 21:24 24.08.2019
2907 Rain 23 1016 43 0 1.51 18.363 20:59 24.08.2019
2908 Rain 24 1015 45 0 1.51 18.363 20:41 24.08.2019
2909 Clouds 26 1020 37 10000 4.1 210 20:20 24.08.2019
2910 Clouds 27 1020 37 10000 4.1 210 19:59 24.08.2019
2911 Clouds 26 1020 37 10000 4.1 210 19:40 24.08.2019
2912 Clouds 29 1020 35 10000 4.1 210 19:22 24.08.2019
2913 Clouds 28 1020 32 10000 5.1 210 18:56 24.08.2019
2914 Clouds 27 1020 32 10000 5.1 210 18:36 24.08.2019
2915 Clouds 28 1020 30 10000 4.1 210 18:18 24.08.2019
2916 Clouds 29 1020 30 10000 4.1 220 17:41 24.08.2019
2917 Clouds 29 1020 30 10000 3.6 210 17:22 24.08.2019
2918 Clouds 27 1020 30 10000 4.1 210 16:42 24.08.2019
2919 Clouds 27 1021 35 10000 3.6 220 16:19 24.08.2019
2920 Clouds 29 1021 35 10000 3.6 210 15:55 24.08.2019
2921 Clouds 29 1021 35 10000 3.6 210 15:37 24.08.2019
2922 Clouds 28 1021 37 10000 4.1 210 15:18 24.08.2019
2923 Clouds 28 1021 37 10000 3.1 190 14:41 24.08.2019
2924 Clouds 28 1021 44 10000 1.5 180 14:19 24.08.2019
2925 Clouds 27 1022 47 10000 1.5 120 13:55 24.08.2019
2926 Clouds 27 1022 47 10000 1.5 120 13:36 24.08.2019
2927 Clouds 27 1022 44 10000 1 0 13:18 24.08.2019
2928 Clouds 26 1023 49 10000 1.5 0 12:42 24.08.2019
2929 Clouds 25 1023 56 10000 1 0 12:23 24.08.2019
2930 Clouds 24 1023 56 10000 1 0 11:54 24.08.2019
2931 Clouds 24 1023 56 10000 1 0 11:54 24.08.2019
2932 Clouds 24 1023 56 10000 1.5 70 11:36 24.08.2019
2933 Clear 23 1017 62 0 1.56 228.412 11:18 24.08.2019
2934 Clear 22 1021 8 0 1.56 228.412 10:40 24.08.2019
2935 Clear 21 1021 11 0 1.56 228.412 10:21 24.08.2019
2936 Clear 19 1021 23 0 1.56 228.412 09:43 24.08.2019
2937 Clear 17 1017 79 0 0.84 43.068 09:19 24.08.2019
2938 Clear 16 1017 81 0 0.84 43.068 08:44 24.08.2019
2939 Clear 15 1023 68 0 0.84 43.068 08:26 24.08.2019
2940 Clear 14 1023 67 0 0.84 43.068 07:53 24.08.2019
2941 Clear 14 1017 80 0 0.84 43.068 07:31 24.08.2019
2942 Clear 14 1023 68 0 0.84 43.068 06:53 24.08.2019
2943 Clear 15 1017 80 0 0.84 48.507 06:23 24.08.2019
2944 Clear 15 1023 71 0 0.84 48.507 05:39 24.08.2019
2945 Clear 16 1023 70 0 0.84 48.507 03:50 24.08.2019
2946 Clear 16 1023 70 0 0.84 48.507 03:31 24.08.2019
2947 Clouds 17 1024 72 0 0.96 25.74 02:19 24.08.2019
2948 Clouds 16 1024 73 0 1.08 35.562 01:29 24.08.2019
2949 Clouds 18 1024 74 0 1.08 35.562 00:48 24.08.2019
2950 Clouds 18 1024 74 0 1.61 46.18 00:24 24.08.2019
2951 Clouds 18 1017 65 0 1.61 46.18 23:45 23.08.2019
2952 Clouds 18 1017 65 0 1.61 46.18 23:45 23.08.2019
2953 Clouds 19 1024 68 0 1.61 46.18 23:21 23.08.2019
2954 Clouds 19 1022 69 0 1.61 46.18 22:45 23.08.2019
2955 Clouds 20 1022 66 0 1.61 46.18 22:27 23.08.2019
2956 Clouds 21 1021 64 0 2.68 193 21:56 23.08.2019
2957 Clouds 17 1024 66 0 1.66 48.306 21:37 23.08.2019
2958 Clouds 20 1024 66 0 1.66 48.306 21:37 23.08.2019
2959 Clouds 22 1016 59 0 0.07 89.157 21:19 23.08.2019
2960 Clouds 23 1021 10 0 0.07 89.157 20:52 23.08.2019
2961 Clouds 24 1021 34 10000 3.6 200 20:33 23.08.2019
2962 Clouds 27 1021 34 10000 3.6 200 19:47 23.08.2019
2963 Clouds 28 1021 32 10000 4.6 220 19:19 23.08.2019
2964 Clouds 26 1021 30 10000 3.6 220 18:56 23.08.2019
2965 Clouds 27 1021 30 10000 3.6 220 18:37 23.08.2019
2966 Clouds 28 1021 28 10000 4.1 220 18:19 23.08.2019
2967 Clouds 28 1021 30 10000 4.1 210 17:42 23.08.2019
2968 Clouds 29 1021 28 10000 4.1 230 17:24 23.08.2019
2969 Clouds 29 1021 28 10000 4.1 230 16:56 23.08.2019
2970 Clouds 28 1021 30 10000 4.1 210 16:38 23.08.2019
2971 Clouds 29 1022 32 10000 3.6 220 16:20 23.08.2019
2972 Clouds 29 1022 32 10000 1.5 0 15:40 23.08.2019
2973 Clouds 29 1022 30 10000 3.1 220 15:22 23.08.2019
2974 Clouds 28 1022 30 10000 3.1 220 14:56 23.08.2019
2975 Clouds 28 1023 36 10000 2.6 230 14:38 23.08.2019
2976 Clouds 28 1023 36 10000 1.5 0 14:20 23.08.2019
2977 Clouds 27 1023 41 10000 1.5 0 13:42 23.08.2019
2978 Clouds 27 1024 40 10000 1.5 140 13:23 23.08.2019
2979 Clouds 26 1024 40 10000 1.5 140 12:59 23.08.2019
2980 Clouds 26 1024 43 10000 1.5 110 12:41 23.08.2019
2981 Clear 24 1024 46 10000 1.5 130 12:21 23.08.2019
2982 Clear 24 1024 46 10000 1.5 130 11:57 23.08.2019
2983 Clear 23 1025 52 10000 1 0 11:39 23.08.2019
2984 Clear 23 1018 59 0 1.83 204.992 11:19 23.08.2019
2985 Clear 21 1019 66 0 1.83 204.992 10:55 23.08.2019
2986 Clear 20 1023 9 0 1.83 204.992 10:37 23.08.2019
2987 Clouds 20 1023 12 0 1.84 213.38 10:18 23.08.2019
2988 Clouds 19 1023 24 0 1.84 213.38 09:43 23.08.2019
2989 Clear 16 1019 74 0 0.66 54.342 09:20 23.08.2019
2990 Clear 14 1024 51 0 0.66 54.342 08:45 23.08.2019
2991 Clear 13 1024 45 0 0.66 54.342 08:21 23.08.2019
2992 Clear 12 1024 44 0 0.66 54.342 07:56 23.08.2019
2993 Clear 12 1024 46 0 0.66 54.342 07:38 23.08.2019
2994 Clear 13 1024 47 0 0.45 21 07:20 23.08.2019
2995 Clear 13 1024 50 0 0.66 54.342 06:41 23.08.2019
2996 Clear 13 1024 60 0 0.45 56 06:21 23.08.2019
2997 Clear 13 1019 69 0 0.74 68.757 05:44 23.08.2019
2998 Clear 13 1019 72 0 0.74 68.757 05:23 23.08.2019
2999 Clear 13 1024 57 0 0.89 80 03:42 23.08.2019
3000 Clear 14 1024 59 0 0.65 59.445 02:37 23.08.2019
3001 Clear 14 1024 61 0 0.65 59.445 02:19 23.08.2019
3002 Clear 14 1025 52 0 0.84 61.291 00:46 23.08.2019
3003 Clear 16 1025 62 0 1.77 48.138 00:23 23.08.2019
3004 Clear 16 1025 63 0 1.77 48.138 23:59 22.08.2019
3005 Clear 17 1025 66 0 1.77 48.138 23:40 22.08.2019
3006 Clear 17 1025 35 0 1.77 48.138 23:20 22.08.2019
3007 Clear 16 1024 57 0 1.77 48.138 22:42 22.08.2019
3008 Clear 17 1024 54 0 0.45 18 22:23 22.08.2019
3009 Clear 16 1024 58 0 3.13 193 21:58 22.08.2019
3010 Clear 17 1024 17 0 1.76 54.042 21:40 22.08.2019
3011 Clear 19 1018 57 0 2.17 18.343 21:21 22.08.2019
3012 Clear 21 1018 45 0 2.17 18.343 20:57 22.08.2019
3013 Clear 22 1017 39 0 2.17 18.343 20:39 22.08.2019
3014 Clouds 24 1021 47 10000 4.6 220 20:19 22.08.2019
3015 Clouds 25 1021 47 10000 4.6 220 19:56 22.08.2019
3016 Clouds 23 1021 47 10000 4.6 220 19:37 22.08.2019
3017 Clouds 27 1021 44 10000 5.7 220 19:19 22.08.2019
3018 Clouds 27 1021 44 10000 5.7 220 18:56 22.08.2019
3019 Clouds 27 1021 44 10000 5.7 220 18:37 22.08.2019
3020 Clouds 27 1021 34 10000 4.6 220 18:18 22.08.2019
3021 Clouds 27 1021 32 10000 4.1 220 17:42 22.08.2019
3022 Clouds 27 1021 32 10000 4.1 220 17:23 22.08.2019
3023 Clouds 27 1021 23 10000 3.6 220 16:58 22.08.2019
3024 Clouds 27 1021 23 10000 3.6 220 16:39 22.08.2019
3025 Clouds 27 1021 18 10000 2.1 170 16:21 22.08.2019
3026 Clouds 27 1021 18 10000 2.1 170 15:59 22.08.2019
3027 Clouds 27 1021 18 10000 2.1 170 15:58 22.08.2019
3028 Clouds 27 1022 18 10000 2.1 150 15:38 22.08.2019
3029 Clouds 27 1022 18 10000 2.1 150 15:38 22.08.2019
3030 Clouds 27 1022 18 10000 2.1 150 15:38 22.08.2019
3031 Clouds 27 1022 18 10000 2.1 150 15:38 22.08.2019
3032 Clouds 27 1022 21 10000 2.1 230 15:19 22.08.2019
3033 Clouds 27 1022 21 10000 2.1 230 15:19 22.08.2019
3034 Clouds 27 1022 21 10000 2.1 230 15:19 22.08.2019
3035 Clouds 26 1022 18 10000 1.5 0 14:41 22.08.2019
3036 Clouds 26 1022 27 10000 1.5 0 14:22 22.08.2019
3037 Clouds 26 1022 27 10000 1.5 0 13:59 22.08.2019
3038 Clouds 25 1023 38 10000 1.5 0 13:41 22.08.2019
3039 Clouds 25 1023 40 10000 2.1 0 13:21 22.08.2019
3040 Clouds 24 1023 46 10000 1 0 12:58 22.08.2019
3041 Clouds 24 1023 46 10000 1 0 12:38 22.08.2019
3042 Clear 23 1023 49 10000 1 0 12:19 22.08.2019
3043 Clear 22 1024 48 10000 1.5 80 11:42 22.08.2019
3044 Clear 22 1018 45 0 0.79 315.31 11:21 22.08.2019
3045 Clear 21 1018 53 0 0.79 315.31 10:58 22.08.2019
3046 Clear 21 1024 10 0 0.79 315.31 10:40 22.08.2019
3047 Clear 20 1024 10 0 0.79 315.31 10:22 22.08.2019
3048 Clear 19 1024 20 0 0.77 352.352 09:57 22.08.2019
3049 Clear 17 1024 39 0 0.77 352.352 09:39 22.08.2019
3050 Clouds 15 1023 24 0 0.45 239 09:20 22.08.2019
3051 Clouds 14 1023 25 0 2.5 23.301 08:56 22.08.2019
3052 Clouds 14 1023 25 0 2.5 23.301 08:38 22.08.2019
3053 Clouds 13 1023 35 0 2.5 23.301 08:19 22.08.2019
3054 Clouds 13 1023 40 0 2.5 23.301 07:39 22.08.2019
3055 Clouds 12 1019 78 0 2.5 23.301 07:20 22.08.2019
3056 Clouds 12 1022 58 0 2.5 23.301 06:52 22.08.2019
3057 Clouds 13 1022 48 0 2.28 23.707 06:24 22.08.2019
3058 Clouds 14 1018 69 0 2.28 23.707 05:40 22.08.2019
3059 Clouds 14 1022 48 0 2.28 23.707 04:28 22.08.2019
3060 Clouds 15 1023 69 0 1.33 14.801 02:38 22.08.2019
3061 Clouds 15 1023 68 0 1.33 14.801 01:45 22.08.2019
3062 Clouds 15 1023 63 0 1.27 13.127 01:21 22.08.2019
3063 Clouds 16 1024 66 0 1.27 13.127 00:41 22.08.2019
3064 Clouds 16 1024 61 0 1.12 57.123 00:22 22.08.2019
3065 Clouds 16 1024 59 0 1.12 57.123 23:48 21.08.2019
3066 Clouds 17 1019 70 0 1.12 57.123 23:29 21.08.2019
3067 Clouds 16 1024 62 0 1.12 57.123 22:59 21.08.2019
3068 Clouds 16 1024 58 0 1.12 57.123 22:40 21.08.2019
3069 Clouds 16 1024 55 0 1.12 57.123 22:21 21.08.2019
3070 Clouds 17 1023 47 0 1.12 57.123 21:57 21.08.2019
3071 Clouds 17 1023 44 0 1.45 47.48 21:38 21.08.2019
3072 Clouds 19 1018 63 0 1.25 357.562 21:19 21.08.2019
3073 Clouds 20 1018 61 0 1.25 357.562 20:56 21.08.2019
3074 Clouds 20 1018 61 0 1.25 357.562 20:56 21.08.2019
3075 Clouds 20 1018 58 0 1.25 357.562 20:38 21.08.2019
3076 Clouds 21 1017 54 0 1.25 357.562 20:20 21.08.2019
3077 Clouds 22 1022 12 0 1.25 357.562 19:44 21.08.2019
3078 Clouds 22 1022 12 0 1.25 357.562 19:44 21.08.2019
3079 Clouds 22 1017 47 0 1.79 197 19:25 21.08.2019
3080 Clouds 23 1022 8 0 0.89 217 18:58 21.08.2019
3081 Clouds 24 1022 8 0 1.34 202 18:39 21.08.2019
3082 Clouds 24 1022 8 0 1.34 243 18:20 21.08.2019
3083 Clouds 25 1022 8 0 1.34 243 17:45 21.08.2019
3084 Clouds 25 1022 8 0 2.24 205 17:23 21.08.2019
3085 Clouds 25 1022 8 0 1.34 241 16:58 21.08.2019
3086 Clouds 26 1022 8 0 3.13 221 16:40 21.08.2019
3087 Clouds 26 1017 27 0 1.15 267.463 16:20 21.08.2019
3088 Clouds 26 1021 8 0 3.13 189 15:58 21.08.2019
3089 Clouds 25 1021 8 0 3.13 220 15:38 21.08.2019
3090 Clouds 25 1018 25 0 1.46 211.138 15:19 21.08.2019
3091 Clouds 24 1018 25 0 1.46 211.138 14:56 21.08.2019
3092 Clouds 24 1019 29 0 1.46 211.138 14:38 21.08.2019
3093 Clouds 24 1019 24 0 1.46 211.138 14:19 21.08.2019
3094 Clouds 24 1019 25 0 1.46 211.138 13:43 21.08.2019
3095 Clouds 23 1020 34 0 1.32 219.528 13:20 21.08.2019
3096 Clouds 23 1020 39 0 1.32 219.528 12:58 21.08.2019
3097 Clouds 23 1020 46 0 1.32 219.528 12:40 21.08.2019
3098 Clouds 22 1020 53 0 0.27 243.721 12:20 21.08.2019
3099 Clouds 21 1021 62 0 0.27 243.721 11:54 21.08.2019
3100 Clouds 20 1021 64 0 0.27 243.721 11:36 21.08.2019
3101 Clouds 19 1021 69 0 0.27 243.721 11:18 21.08.2019
3102 Clouds 17 1024 26 0 0.45 166 10:42 21.08.2019
3103 Clouds 16 1024 30 0 0.89 221 10:22 21.08.2019
3104 Clouds 15 1024 37 0 0.27 243.721 09:58 21.08.2019
3105 Clouds 14 1024 39 0 0.27 243.721 09:40 21.08.2019
3106 Clouds 13 1023 44 0 2.26 30.037 09:21 21.08.2019
3107 Clouds 12 1022 85 0 2.26 30.037 08:50 21.08.2019
3108 Clouds 11 1023 47 0 2.26 30.037 08:26 21.08.2019
3109 Clouds 10 1023 65 0 2.26 30.037 07:56 21.08.2019
3110 Clouds 10 1023 61 0 2.26 30.037 07:37 21.08.2019
3111 Clouds 11 1022 84 0 2.26 30.037 07:18 21.08.2019
3112 Clouds 11 1023 72 0 2.26 30.037 06:44 21.08.2019
3113 Clear 11 1023 77 0 2.58 25.482 06:19 21.08.2019
3114 Clear 11 1021 85 0 2.58 25.482 05:29 21.08.2019
3115 Clear 11 1023 73 0 2.58 25.482 04:51 21.08.2019
3116 Clouds 12 1023 85 0 2.49 26.235 02:44 21.08.2019
3117 Clouds 12 1024 71 0 2.49 26.235 01:36 21.08.2019
3118 Clouds 13 1024 82 0 2.68 23.081 00:43 21.08.2019
3119 Clouds 13 1024 83 0 3.09 20.061 00:21 21.08.2019
3120 Clouds 14 1021 77 0 3.09 20.061 23:45 20.08.2019
3121 Clouds 14 1021 77 0 3.09 20.061 23:45 20.08.2019
3122 Clouds 14 1021 79 0 3.09 20.061 23:21 20.08.2019
3123 Clouds 14 1021 84 0 3.09 20.061 22:59 20.08.2019
3124 Clouds 15 1021 77 0 1.79 22 22:40 20.08.2019
3125 Clouds 15 1021 78 0 3.13 45 22:22 20.08.2019
3126 Clouds 15 1021 81 0 3.09 20.061 21:58 20.08.2019
3127 Clouds 15 1024 87 0 3.16 22.246 21:39 20.08.2019
3128 Clouds 15 1024 85 0 3.07 16.833 21:20 20.08.2019
3129 Clouds 16 1020 68 0 0.45 145 20:59 20.08.2019
3130 Clouds 16 1020 68 0 0.45 145 20:59 20.08.2019
3131 Clouds 17 1020 64 0 0.45 202 20:41 20.08.2019
3132 Clouds 18 1025 26 0 3.07 16.833 20:22 20.08.2019
3133 Clouds 19 1025 23 0 0.89 269 19:40 20.08.2019
3134 Clouds 20 1025 23 0 0.45 228 19:22 20.08.2019
3135 Clouds 20 1025 23 0 0.45 228 19:22 20.08.2019
3136 Clouds 21 1025 23 0 1.34 180 18:57 20.08.2019
3137 Clouds 21 1025 16 0 2.24 196 18:39 20.08.2019
3138 Clouds 21 1025 16 0 2.24 196 18:39 20.08.2019
3139 Clouds 21 1025 16 0 2.24 196 18:39 20.08.2019
3140 Rain 21 1018 58 0 2.39 353.808 18:19 20.08.2019
3141 Rain 20 1018 29 0 0.45 315 17:57 20.08.2019
3142 Rain 20 1018 64 0 2.39 353.808 17:38 20.08.2019
3143 Rain 20 1018 64 0 2.39 353.808 17:19 20.08.2019
3144 Rain 20 1018 74 0 2.39 353.808 16:44 20.08.2019
3145 -273 0 0 0 0 0 16:25 20.08.2019
3146 Rain 17 1018 78 0 2.39 353.808 15:43 20.08.2019
3147 Rain 15 1022 91 0 0.45 235 15:19 20.08.2019
3148 Rain 15 1019 90 0 1.34 40.234 14:59 20.08.2019
3149 Rain 15 1022 95 0 1.34 40.234 14:41 20.08.2019
3150 Rain 15 1021 95 0 1.79 52 14:21 20.08.2019
3151 Rain 15 1018 95 0 1.34 40.234 13:56 20.08.2019
3152 Rain 15 1018 95 0 1.34 40.234 13:37 20.08.2019
3153 Rain 15 1019 96 0 1.66 25.177 13:19 20.08.2019
3154 Rain 15 1020 96 0 1.66 25.177 12:50 20.08.2019
3155 Rain 15 1018 96 0 3.15 358.455 12:25 20.08.2019
3156 Rain 15 1025 64 0 3.15 358.455 11:58 20.08.2019
3157 Rain 15 1025 66 0 3.15 358.455 11:38 20.08.2019
3158 Rain 15 1017 96 0 3.15 358.455 11:18 20.08.2019
3159 Rain 15 1021 95 0 0.89 262 10:56 20.08.2019
3160 Rain 15 1023 79 0 3.15 358.455 10:38 20.08.2019
3161 Rain 15 1016 96 0 3.15 358.455 10:19 20.08.2019
3162 Rain 16 1015 96 0 3.15 358.455 09:43 20.08.2019
3163 Rain 14 1020 97 0 1.7 91.347 09:24 20.08.2019
3164 Rain 15 1021 97 0 1.7 91.347 08:43 20.08.2019
3165 Rain 15 1021 97 0 1.7 91.347 08:43 20.08.2019
3166 Rain 15 1022 79 0 1.7 91.347 08:25 20.08.2019
3167 Rain 15 1022 78 0 1.7 91.347 07:59 20.08.2019
3168 Rain 16 1023 78 0 1.7 91.347 07:41 20.08.2019
3169 Rain 15 1015 96 0 0.45 226 07:22 20.08.2019
3170 Rain 15 1014 95 0 1.7 91.347 06:56 20.08.2019
3171 Rain 15 1014 95 0 0.89 239 06:24 20.08.2019
3172 Rain 16 1013 95 0 0.9 153.777 05:49 20.08.2019
3173 Rain 15 1012 95 0 0.9 153.777 04:56 20.08.2019
3174 Rain 15 1020 81 0 0.9 153.777 03:37 20.08.2019
3175 Rain 16 1014 94 0 1.2 155.245 02:36 20.08.2019
3176 Rain 16 1021 95 0 1.32 119.433 01:36 20.08.2019
3177 Rain 16 1021 92 0 1.32 119.433 00:50 20.08.2019
3178 Rain 16 1021 92 0 1.32 119.433 00:31 20.08.2019
3179 Rain 16 1021 74 0 0.45 242 23:56 19.08.2019
3180 Rain 16 1013 90 0 1.06 164.04 23:36 19.08.2019
3181 Rain 17 1013 88 0 1.06 164.04 23:18 19.08.2019
3182 Rain 15 1023 37 0 1.06 164.04 22:41 19.08.2019
3183 Rain 15 1023 37 0 1.06 164.04 22:21 19.08.2019
3184 Rain 16 1023 37 0 1.06 164.04 21:58 19.08.2019
3185 Rain 16 1023 35 0 0.56 188.785 21:39 19.08.2019
3186 Rain 20 1021 62 0 1.61 210.958 21:20 19.08.2019
3187 Rain 20 1012 61 0 1.61 210.958 20:58 19.08.2019
3188 Clouds 21 1018 42 10000 4.1 220 20:38 19.08.2019
3189 Clouds 22 1018 42 10000 4.1 220 20:19 19.08.2019
3190 -273 0 0 0 0 0 19:55 19.08.2019
3191 Clouds 22 1018 42 10000 4.1 220 19:55 19.08.2019
3192 Clouds 21 1018 42 10000 4.1 220 19:37 19.08.2019
3193 Clouds 23 1018 42 10000 5.1 230 19:18 19.08.2019
3194 Clouds 23 1018 39 10000 4.6 220 18:42 19.08.2019
3195 Clouds 23 1018 39 10000 4.6 220 18:42 19.08.2019
3196 Clouds 23 1018 39 10000 4.6 220 18:24 19.08.2019
3197 Clouds 24 1019 39 10000 5.1 210 17:58 19.08.2019
3198 Clouds 24 1018 37 10000 6.2 210 17:40 19.08.2019
3199 Clouds 24 1018 39 10000 6.2 200 17:19 19.08.2019
3200 Clouds 24 1018 39 10000 6.2 200 16:56 19.08.2019
3201 Clouds 23 1019 44 10000 5.7 210 16:37 19.08.2019
3202 Clouds 23 1019 44 10000 5.7 210 16:18 19.08.2019
3203 Clouds 22 1019 50 10000 6.2 210 15:45 19.08.2019
3204 Clouds 23 1019 47 10000 6.2 210 15:20 19.08.2019
3205 Clouds 23 1019 47 10000 6.2 210 14:55 19.08.2019
3206 Clouds 23 1019 50 10000 6.2 220 14:36 19.08.2019
3207 Clouds 22 1019 50 10000 5.1 220 14:18 19.08.2019
3208 Clouds 23 1019 54 10000 5.1 230 13:54 19.08.2019
3209 Clouds 24 1019 54 10000 5.1 230 13:36 19.08.2019
3210 Clouds 23 1019 54 10000 5.7 220 13:18 19.08.2019
3211 Clouds 22 1019 57 10000 6.2 210 12:41 19.08.2019
3212 Clouds 21 1019 57 10000 4.6 220 12:22 19.08.2019
3213 Clouds 20 1019 57 10000 3.6 220 11:43 19.08.2019
3214 Clouds 20 1019 57 10000 3.6 220 11:25 19.08.2019
3215 Clouds 20 1019 69 0 0.45 69 10:59 19.08.2019
3216 Clouds 20 1019 70 0 0.45 69 10:39 19.08.2019
3217 Clouds 19 1019 71 0 3.4 193.975 10:19 19.08.2019
3218 Clouds 19 1019 76 0 3.4 193.975 09:54 19.08.2019
3219 Clouds 18 1019 72 0 3.4 193.975 09:36 19.08.2019
3220 Clouds 18 1010 69 0 1.45 79.388 09:18 19.08.2019
3221 Clouds 17 1010 71 0 1.45 79.388 08:42 19.08.2019
3222 Clouds 15 1021 39 0 2.24 311 08:21 19.08.2019
3223 Clouds 15 1021 38 0 2.24 312 07:52 19.08.2019
3224 Clouds 15 1021 38 0 1.34 218 07:34 19.08.2019
3225 Clouds 16 1015 88 0 1.45 79.388 06:59 19.08.2019
3226 Clouds 16 1020 35 0 2.24 246 06:36 19.08.2019
3227 Clouds 16 1014 86 0 1.59 57.834 05:26 19.08.2019
3228 Clouds 16 1019 83 0 1.59 57.834 04:33 19.08.2019
3229 Rain 18 1019 36 0 2.68 233 03:24 19.08.2019
3230 Rain 18 1019 35 0 1.49 62.079 02:29 19.08.2019
3231 Rain 18 1011 56 0 1.34 230 01:36 19.08.2019
3232 Rain 18 1020 80 0 1.36 67.956 00:44 19.08.2019
3233 Rain 20 1020 78 0 2.45 32.716 00:23 19.08.2019
3234 Rain 21 1020 79 0 2.45 32.716 23:43 18.08.2019
3235 Rain 21 1020 76 0 2.45 32.716 23:22 18.08.2019
3236 Rain 20 1020 81 0 2.45 32.716 22:57 18.08.2019
3237 Rain 19 1020 83 0 2.45 32.716 22:38 18.08.2019
3238 Rain 21 1019 77 0 2.45 32.716 22:20 18.08.2019
3239 Rain 22 1018 76 0 2.24 236 21:56 18.08.2019
3240 Rain 12 1015 86 0 2.45 32.716 21:37 18.08.2019
3241 Clouds 19 1012 49 0 1.35 298.658 21:19 18.08.2019
3242 Clouds 19 1012 49 0 1.35 298.658 20:44 18.08.2019
3243 Clouds 32 1013 27 10000 4.6 210 20:25 18.08.2019
3244 Clouds 32 1013 27 10000 4.6 210 19:56 18.08.2019
3245 Clouds 32 1013 27 10000 4.6 210 19:56 18.08.2019
3246 Clouds 32 1013 27 10000 4.6 210 19:38 18.08.2019
3247 Clouds 33 1013 18 10000 4.1 240 19:19 18.08.2019
3248 Clouds 33 1013 19 10000 4.1 230 18:41 18.08.2019
3249 Clouds 34 1013 18 10000 5.1 230 18:23 18.08.2019
3250 Clouds 32 1013 18 10000 5.1 230 17:59 18.08.2019
3251 Clouds 32 1014 20 10000 5.1 240 17:41 18.08.2019
3252 Clouds 32 1014 20 10000 6.2 230 17:19 18.08.2019
3253 Clouds 32 1014 18 10000 5.1 230 16:57 18.08.2019
3254 Clouds 32 1014 18 10000 5.1 230 16:38 18.08.2019
3255 Clouds 32 1014 23 10000 5.1 220 16:19 18.08.2019
3256 Clouds 32 1014 24 10000 5.1 230 15:55 18.08.2019
3257 Clouds 32 1014 23 10000 5.1 220 15:55 18.08.2019
3258 Clouds 32 1014 24 10000 5.1 230 15:37 18.08.2019
3259 Clouds 32 1014 24 10000 4.6 190 15:19 18.08.2019
3260 Clouds 32 1015 27 10000 5.1 210 14:40 18.08.2019
3261 Clouds 31 1015 35 10000 3.6 230 14:20 18.08.2019
3262 Clouds 30 1015 35 10000 3.6 230 13:59 18.08.2019
3263 Clouds 29 1015 35 10000 3.6 230 13:40 18.08.2019
3264 Clear 29 1016 39 10000 3.1 0 13:21 18.08.2019
3265 Clear 27 1016 47 10000 1.5 200 12:54 18.08.2019
3266 Clear 27 1016 47 10000 1.5 200 12:36 18.08.2019
3267 Clear 25 1016 57 10000 1 0 12:18 18.08.2019
3268 Clear 25 1016 57 10000 1 0 12:18 18.08.2019
3269 Clear 24 1016 60 10000 1 0 11:41 18.08.2019
3270 Clear 22 1013 36 0 4.09 226.15 11:22 18.08.2019
3271 Clear 22 1013 36 0 4.09 226.15 10:56 18.08.2019
3272 Clear 22 1013 36 0 4.09 226.15 10:38 18.08.2019
3273 Clear 22 1013 36 0 4.09 226.15 10:18 18.08.2019
3274 Clear 22 1013 36 0 4.09 226.15 09:42 18.08.2019
3275 Clear 14 1012 68 0 0.49 63.066 09:19 18.08.2019
3276 Clear 14 1012 68 0 0.49 63.066 08:43 18.08.2019
3277 Clear 14 1012 68 0 0.49 63.066 08:25 18.08.2019
3278 Clear 14 1012 68 0 0.49 63.066 07:49 18.08.2019
3279 Clear 14 1012 68 0 0.49 63.066 07:29 18.08.2019
3280 Clear 13 1012 86 0 1.07 109.992 06:19 18.08.2019
3281 Clear 13 1012 86 0 1.07 109.992 04:59 18.08.2019
3282 Clear 13 1012 86 0 1.07 109.992 03:46 18.08.2019
3283 Clear 13 1013 91 0 0.64 87.291 02:50 18.08.2019
3284 Clear 13 1013 91 0 0.64 87.291 02:26 18.08.2019
3285 Clear 13 1013 91 0 0.64 87.291 01:48 18.08.2019
3286 Clear 13 1013 89 0 0.65 98.456 01:25 18.08.2019
3287 Clear 13 1013 89 0 0.65 98.456 01:25 18.08.2019
3288 Clear 13 1013 89 0 0.65 98.456 00:40 18.08.2019
3289 Clear 14 1014 90 0 0.72 105.255 00:19 18.08.2019
3290 Clear 14 1014 90 0 0.72 105.255 23:57 17.08.2019
3291 Clear 14 1014 90 0 0.72 105.255 23:37 17.08.2019
3292 Clear 14 1014 90 0 0.72 105.255 23:18 17.08.2019
3293 Clear 14 1014 90 0 0.72 105.255 22:56 17.08.2019
3294 Clear 14 1014 90 0 0.72 105.255 22:38 17.08.2019
3295 Clear 14 1014 90 0 0.72 105.255 22:20 17.08.2019
3296 Clear 14 1014 90 0 0.72 105.255 21:42 17.08.2019
3297 Clouds 20 1013 54 0 2.07 236.402 21:23 17.08.2019
3298 Clouds 20 1013 54 0 2.07 236.402 20:56 17.08.2019
3299 Clouds 20 1013 54 0 2.07 236.402 20:36 17.08.2019
3300 Clouds 29 1016 35 10000 5.7 220 20:18 17.08.2019
3301 Clouds 29 1016 35 10000 5.7 220 19:41 17.08.2019
3302 Clouds 29 1016 33 10000 6.7 210 19:22 17.08.2019
3303 Clouds 29 1016 33 10000 6.7 210 19:22 17.08.2019
3304 Clouds 29 1016 33 10000 6.7 210 18:54 17.08.2019
3305 Clouds 31 1016 31 10000 6.2 220 18:36 17.08.2019
3306 Clouds 31 1016 27 10000 5.7 210 18:18 17.08.2019
3307 Clouds 31 1016 27 10000 5.7 210 18:18 17.08.2019
3308 Clouds 31 1016 27 10000 5.1 220 17:42 17.08.2019
3309 Clouds 31 1016 26 10000 5.7 210 17:21 17.08.2019
3310 Clouds 31 1016 26 10000 5.7 210 16:56 17.08.2019
3311 Clouds 32 1016 24 10000 5.7 200 16:37 17.08.2019
3312 Clouds 32 1017 26 10000 6.2 210 16:18 17.08.2019
3313 Clouds 31 1017 26 10000 5.7 200 15:42 17.08.2019
3314 Clouds 30 1017 26 10000 5.7 200 15:42 17.08.2019
3315 Clouds 31 1018 26 10000 4.6 190 15:22 17.08.2019
3316 Clouds 30 1018 25 10000 5.7 190 14:57 17.08.2019
3317 Clouds 30 1018 25 10000 5.7 190 14:38 17.08.2019
3318 Clouds 30 1018 27 10000 2.6 200 14:19 17.08.2019
3319 Clouds 29 1019 28 10000 2.1 200 13:43 17.08.2019
3320 Clouds 28 1019 36 10000 1.5 0 13:19 17.08.2019
3321 Clouds 28 1020 38 10000 1.5 0 12:42 17.08.2019
3322 Clear 27 1020 38 10000 1.5 0 12:20 17.08.2019
3323 Clear 26 1020 38 10000 1.5 0 11:58 17.08.2019
3324 Clear 25 1020 46 10000 1.5 190 11:38 17.08.2019
3325 Clouds 25 1013 41 0 3.05 206.935 11:19 17.08.2019
3326 Clouds 23 1018 9 0 1.34 164 10:40 17.08.2019
3327 Clouds 22 1018 10 0 3.05 206.935 10:20 17.08.2019
3328 Clouds 21 1018 12 0 3.05 206.935 09:52 17.08.2019
3329 Clouds 20 1019 18 0 3.05 206.935 09:33 17.08.2019
3330 Clouds 17 1022 52 0 0.89 77 08:58 17.08.2019
3331 Clouds 17 1015 59 0 0.7 83.678 08:58 17.08.2019
3332 Clouds 16 1014 59 0 0.7 83.678 08:28 17.08.2019
3333 Clouds 15 1021 51 0 0.7 83.678 07:56 17.08.2019
3334 Clouds 15 1021 51 0 0.45 58 07:38 17.08.2019
3335 Clouds 15 1021 50 0 0.45 58 07:19 17.08.2019
3336 Clouds 16 1021 49 0 0.96 64.478 05:59 17.08.2019
3337 Clouds 16 1021 50 0 0.96 64.478 04:32 17.08.2019
3338 Clouds 16 1020 30 0 0.96 64.478 03:51 17.08.2019
3339 Clear 17 1022 45 0 1.01 49.744 02:36 17.08.2019
3340 Clear 17 1022 45 0 1.01 49.744 02:36 17.08.2019
3341 Clear 17 1022 47 0 1.01 51.057 01:36 17.08.2019
3342 Clear 18 1022 48 0 1.01 51.057 01:18 17.08.2019
3343 Clear 18 1022 49 0 1.01 51.057 00:44 17.08.2019
3344 Clear 19 1022 50 0 1.25 68.037 23:58 16.08.2019
3345 Clear 19 1023 48 0 1.25 68.037 23:39 16.08.2019
3346 Clear 19 1023 52 0 1.25 68.037 23:20 16.08.2019
3347 Clear 19 1023 48 0 1.25 68.037 22:42 16.08.2019
3348 Clear 19 1020 70 0 0.45 360 22:19 16.08.2019
3349 Clear 19 1022 52 0 1.25 68.037 21:43 16.08.2019
3350 Clouds 23 1014 33 0 1.49 226.9 21:22 16.08.2019
3351 Clouds 23 1013 32 0 1.49 226.9 20:59 16.08.2019
3352 Clouds 24 1019 8 0 1.49 226.9 20:40 16.08.2019
3353 Clouds 26 1017 23 10000 5.7 210 20:19 16.08.2019
3354 Clouds 27 1017 23 10000 5.7 210 19:45 16.08.2019
3355 Clouds 29 1017 20 10000 6.2 210 19:24 16.08.2019
3356 Clouds 29 1017 20 10000 6.2 210 18:59 16.08.2019
3357 Clouds 29 1017 20 10000 6.2 210 18:41 16.08.2019
3358 Clouds 29 1017 20 10000 6.7 210 18:22 16.08.2019
3359 Clouds 29 1018 19 10000 6.7 200 17:44 16.08.2019
3360 Clouds 29 1018 19 10000 6.7 200 17:25 16.08.2019
3361 Clouds 29 1018 19 10000 6.7 200 16:56 16.08.2019
3362 Clouds 29 1018 19 10000 6.2 210 16:38 16.08.2019
3363 Clouds 29 1019 22 10000 6.7 210 16:18 16.08.2019
3364 Clouds 29 1019 27 10000 6.2 220 15:41 16.08.2019
3365 Clouds 28 1019 30 10000 5.7 210 15:22 16.08.2019
3366 Clouds 28 1019 30 10000 5.7 210 14:58 16.08.2019
3367 Clouds 28 1020 30 10000 5.1 220 14:40 16.08.2019
3368 Clouds 27 1020 37 10000 5.1 220 14:19 16.08.2019
3369 Clouds 27 1020 37 10000 5.1 220 13:57 16.08.2019
3370 Clouds 26 1020 39 10000 4.1 230 13:37 16.08.2019
3371 Clouds 27 1020 39 10000 4.1 230 13:37 16.08.2019
3372 Clear 26 1021 41 10000 3.1 240 13:19 16.08.2019
3373 Clear 25 1021 47 10000 3.1 210 12:39 16.08.2019
3374 Clear 24 1022 53 10000 1.5 0 12:20 16.08.2019
3375 Clear 23 1022 56 10000 1 0 11:42 16.08.2019
3376 Clear 23 1016 53 0 2.09 203.709 11:24 16.08.2019
3377 Clear 22 1016 51 0 0.45 53 10:45 16.08.2019
3378 Clear 21 1021 12 0 1.34 179 10:27 16.08.2019
3379 Clear 19 1021 15 0 2.09 203.709 09:58 16.08.2019
3380 Clear 19 1021 23 0 2.09 203.709 09:37 16.08.2019
3381 Clouds 17 1022 53 0 0.52 19.415 09:18 16.08.2019
3382 Clouds 15 1021 53 0 0.52 19.415 08:42 16.08.2019
3383 Clouds 15 1021 48 0 0.52 19.415 08:21 16.08.2019
3384 Clouds 14 1016 77 0 0.52 19.415 07:59 16.08.2019
3385 Clouds 13 1021 45 0 0.52 19.415 07:41 16.08.2019
3386 Clouds 14 1016 75 0 0.52 19.415 07:21 16.08.2019
3387 Clouds 15 1021 56 0 2.68 60 06:32 16.08.2019
3388 Clouds 16 1015 74 0 0.98 189.067 05:43 16.08.2019
3389 Clouds 16 1015 73 0 0.98 189.067 04:32 16.08.2019
3390 Clouds 17 1023 36 0 0.59 183.028 02:47 16.08.2019
3391 Clouds 18 1023 36 0 0.59 183.028 01:42 16.08.2019
3392 Clouds 18 1023 36 0 0.59 180.097 01:19 16.08.2019
3393 Clouds 18 1024 35 0 0.59 180.097 00:41 16.08.2019
3394 Rain 18 1016 66 0 1.75 38.347 00:21 16.08.2019
3395 Rain 18 1016 61 0 1.75 38.347 23:45 15.08.2019
3396 Rain 18 1016 63 0 1.75 38.347 23:22 15.08.2019
3397 Rain 18 1023 34 0 1.75 38.347 22:58 15.08.2019
3398 Rain 16 1023 72 0 1.75 38.347 22:39 15.08.2019
3399 Rain 17 1023 71 0 1.75 38.347 22:20 15.08.2019
3400 Clouds 16 1023 72 0 1.61 36.891 21:55 15.08.2019
3401 Clouds 17 1023 81 0 1.61 36.891 21:37 15.08.2019
3402 Rain 20 1015 61 0 1.99 345.378 21:18 15.08.2019
3403 Rain 21 1014 57 0 0.45 146 20:42 15.08.2019
3404 Clouds 22 1018 39 10000 6.2 210 20:21 15.08.2019
3405 Clouds 20 1018 39 10000 6.2 210 19:57 15.08.2019
3406 Clouds 19 1018 39 10000 6.2 210 19:38 15.08.2019
3407 Clouds 23 1018 37 10000 7.7 200 19:20 15.08.2019
3408 Clouds 22 1018 35 10000 8.2 200 18:47 15.08.2019
3409 Clouds 24 1018 37 10000 8.2 200 18:23 15.08.2019
3410 Clouds 24 1018 37 10000 8.2 200 17:57 15.08.2019
3411 Clouds 24 1018 37 10000 8.2 200 17:57 15.08.2019
3412 Clouds 24 1018 37 10000 8.2 200 17:37 15.08.2019
3413 Clouds 24 1018 37 10000 8.7 210 17:19 15.08.2019
3414 Clouds 24 1018 37 10000 7.7 210 16:48 15.08.2019
3415 Clouds 24 1018 37 10000 7.7 210 16:28 15.08.2019
3416 Clouds 24 1018 37 10000 7.7 200 15:59 15.08.2019
3417 Clouds 25 1019 37 10000 7.7 200 15:38 15.08.2019
3418 Clouds 25 1019 37 10000 7.7 200 15:38 15.08.2019
3419 Clouds 25 1019 35 10000 7.7 200 15:19 15.08.2019
3420 Clouds 25 1019 34 10000 7.2 190 14:43 15.08.2019
3421 Clouds 25 1020 37 10000 6.2 200 14:23 15.08.2019
3422 Clouds 24 1020 37 10000 6.2 200 13:58 15.08.2019
3423 Clouds 24 1020 37 10000 4.6 190 13:40 15.08.2019
3424 Clouds 24 1020 41 10000 2.1 120 13:21 15.08.2019
3425 Clouds 23 1020 41 10000 2.1 120 12:57 15.08.2019
3426 Clouds 23 1021 41 10000 1 0 12:39 15.08.2019
3427 Clouds 22 1022 43 10000 1.5 0 12:19 15.08.2019
3428 Clouds 22 1022 49 10000 1 0 11:57 15.08.2019
3429 Clouds 21 1022 49 10000 1 0 11:36 15.08.2019
3430 Clear 21 1015 52 0 2.27 216.452 11:18 15.08.2019
3431 Clear 20 1015 63 0 2.27 216.452 10:40 15.08.2019
3432 Clear 20 1015 67 0 2.27 216.452 10:21 15.08.2019
3433 Clear 19 1015 69 0 2.27 216.452 09:58 15.08.2019
3434 Clear 18 1022 30 0 2.11 218.214 09:39 15.08.2019
3435 Clear 17 1015 73 0 2.28 27.487 09:21 15.08.2019
3436 Clear 15 1022 72 0 2.28 27.487 08:38 15.08.2019
3437 Clear 15 1015 69 0 2.28 27.487 08:19 15.08.2019
3438 Clear 14 1015 70 0 2.28 27.487 07:46 15.08.2019
3439 Clear 14 1015 70 0 2.28 27.487 07:46 15.08.2019
3440 Clear 14 1015 70 0 2.28 27.487 07:28 15.08.2019
3441 Clear 14 1021 78 0 2.28 27.487 06:56 15.08.2019
3442 Clear 14 1015 70 0 2.28 27.487 06:34 15.08.2019
3443 Clear 14 1021 75 0 2.05 27.629 05:54 15.08.2019
3444 Clear 14 1015 69 0 2.05 27.629 05:29 15.08.2019
3445 Clear 14 1021 77 0 2.05 27.629 04:39 15.08.2019
3446 Clear 14 1022 68 0 2.05 27.629 03:48 15.08.2019
3447 Clouds 15 1016 64 0 1.68 27.789 02:46 15.08.2019
3448 Clouds 16 1022 33 0 1.68 27.789 01:54 15.08.2019
3449 Clear 16 1022 31 0 1.27 31.655 01:36 15.08.2019
3450 Clear 16 1023 26 0 1.27 31.655 00:42 15.08.2019
3451 Clear 17 1017 60 0 2.58 24.238 00:22 15.08.2019
3452 Clear 16 1023 68 0 2.58 24.238 23:58 14.08.2019
3453 Clear 16 1023 68 0 2.58 24.238 23:38 14.08.2019
3454 Clear 16 1023 68 0 2.58 24.238 23:38 14.08.2019
3455 Clear 17 1016 58 0 2.58 24.238 23:19 14.08.2019
3456 Clear 18 1023 69 0 2.58 24.238 22:57 14.08.2019
3457 Clear 17 1023 69 0 2.58 24.238 22:39 14.08.2019
3458 Clear 17 1022 71 0 2.58 24.238 22:20 14.08.2019
3459 Clear 16 1022 70 0 2.58 24.238 21:56 14.08.2019
3460 Clear 20 1022 66 0 2.78 26.574 21:37 14.08.2019
3461 Clouds 21 1015 48 0 2.62 0.765 21:18 14.08.2019
3462 Clouds 23 1021 9 0 1.34 331 20:42 14.08.2019
3463 Clouds 23 1021 8 0 2.62 0.765 20:21 14.08.2019
3464 Clouds 23 1021 8 0 2.62 0.765 20:21 14.08.2019
3465 Clouds 24 1020 8 0 2.68 249 19:56 14.08.2019
3466 Clouds 23 1021 60 0 1.34 238 19:38 14.08.2019
3467 Clouds 15 1017 56 0 2.62 0.765 19:19 14.08.2019
3468 Clouds 15 1017 56 0 2.62 0.765 18:56 14.08.2019
3469 Clouds 15 1017 56 0 2.62 0.765 18:38 14.08.2019
3470 Clouds 20 1017 33 0 2 311.934 18:19 14.08.2019
3471 Clouds 20 1017 33 0 2 311.934 17:56 14.08.2019
3472 Clouds 20 1017 33 0 2 311.934 17:36 14.08.2019
3473 Clouds 20 1017 33 0 2 311.934 17:36 14.08.2019
3474 Clouds 20 1017 33 0 2 311.934 17:18 14.08.2019
3475 Clouds 20 1017 33 0 2 311.934 16:41 14.08.2019
3476 Clouds 20 1017 33 0 2 311.934 16:20 14.08.2019
3477 Clouds 20 1017 33 0 2 311.934 15:45 14.08.2019
3478 Clouds 21 1018 32 0 1.47 285.037 15:25 14.08.2019
3479 Clouds 21 1018 32 0 1.47 285.037 14:59 14.08.2019
3480 Clouds 21 1018 32 0 1.47 285.037 14:39 14.08.2019
3481 Clouds 21 1018 32 0 1.47 285.037 14:19 14.08.2019
3482 Clouds 21 1018 32 0 1.47 285.037 13:55 14.08.2019
3483 Clouds 21 1018 32 0 1.47 285.037 13:37 14.08.2019
3484 Clouds 20 1018 34 0 1.56 271.729 13:19 14.08.2019
3485 Clouds 20 1018 34 0 1.56 271.729 12:55 14.08.2019
3486 Clear 18 1021 48 10000 1 0 12:36 14.08.2019
3487 Clear 18 1021 48 10000 1 0 12:18 14.08.2019
3488 Clear 18 1021 48 10000 1 0 12:18 14.08.2019
3489 Clear 18 1021 48 10000 1 0 11:45 14.08.2019
3490 Clear 18 1021 52 10000 1 0 11:23 14.08.2019
3491 Clear 16 1021 59 10000 1.5 80 10:54 14.08.2019
3492 Clear 16 1021 59 10000 1.5 80 10:36 14.08.2019
3493 Clear 14 1022 67 10000 2.1 80 10:18 14.08.2019
3494 Clear 14 1022 67 10000 2.1 80 09:41 14.08.2019
3495 Clouds 8 1019 78 0 1.18 11.177 09:20 14.08.2019
3496 Clouds 8 1019 78 0 1.18 11.177 08:43 14.08.2019
3497 Clouds 8 1019 78 0 1.18 11.177 08:25 14.08.2019
3498 Clouds 8 1019 78 0 1.18 11.177 07:56 14.08.2019
3499 Clouds 8 1019 78 0 1.18 11.177 07:35 14.08.2019
3500 Clouds 8 1019 78 0 1.18 11.177 06:50 14.08.2019
3501 Clouds 7 1020 82 0 0.95 11.144 06:25 14.08.2019
3502 Clouds 7 1020 82 0 0.95 11.144 05:28 14.08.2019
3503 Clouds 7 1020 82 0 0.95 11.144 03:41 14.08.2019
3504 Clouds 6 1020 91 0 2.23 30.399 02:37 14.08.2019
3505 Clouds 6 1020 91 0 2.23 30.399 01:57 14.08.2019
3506 Clouds 6 1020 89 0 1.93 31.351 01:23 14.08.2019
3507 Clouds 7 1020 92 0 2.45 18.524 00:23 14.08.2019
3508 Clouds 12 1021 79 0 2.45 18.524 23:40 13.08.2019
3509 Clouds 11 1021 79 0 2.45 18.524 23:19 13.08.2019
3510 Clouds 11 1021 79 0 2.45 18.524 22:43 13.08.2019
3511 Clouds 12 1021 79 0 2.45 18.524 22:24 13.08.2019
3512 Clouds 8 1021 84 0 2.45 18.524 21:59 13.08.2019
3513 Clouds 13 1020 82 0 2.45 18.524 21:39 13.08.2019
3514 Rain 18 1016 42 0 2.69 20.618 21:19 13.08.2019
3515 Rain 19 1015 40 0 0.89 231 20:58 13.08.2019
3516 Rain 20 1015 39 0 0.89 133 20:39 13.08.2019
3517 Rain 20 1015 37 0 2.69 20.618 20:19 13.08.2019
3518 Rain 20 1022 13 0 1.34 233 19:54 13.08.2019
3519 Rain 19 1020 84 0 2.69 20.618 19:54 13.08.2019
3520 Rain 19 1020 81 0 2.69 20.618 19:36 13.08.2019
3521 Rain 22 1022 13 0 1.34 258 19:18 13.08.2019
3522 Rain 22 1022 11 0 1.34 248 18:41 13.08.2019
3523 Rain 22 1022 10 0 2.24 216 18:21 13.08.2019
3524 Rain 22 1018 30 0 0.89 303 17:43 13.08.2019
3525 Rain 23 1022 10 0 2.68 231 17:22 13.08.2019
3526 Rain 23 1022 10 0 3.13 240 16:58 13.08.2019
3527 Rain 23 1022 10 0 4.02 183 16:40 13.08.2019
3528 Rain 23 1022 10 0 3.58 195 16:21 13.08.2019
3529 Rain 23 1022 10 0 3.58 228 15:59 13.08.2019
3530 Rain 23 1022 10 0 3.58 228 15:59 13.08.2019
3531 Rain 22 1022 10 0 3.13 226 15:38 13.08.2019
3532 Clouds 22 1022 10 0 3.58 183 15:19 13.08.2019
3533 Clouds 22 1022 10 0 3.58 183 15:19 13.08.2019
3534 Clouds 22 1022 10 0 3.58 183 15:19 13.08.2019
3535 Clouds 21 1015 33 0 2.07 259.554 14:42 13.08.2019
3536 Clouds 21 1023 13 0 3.58 191 14:20 13.08.2019
3537 Clouds 22 1015 38 0 0.45 135 13:56 13.08.2019
3538 Clouds 22 1015 38 0 0.45 225 13:56 13.08.2019
3539 Clouds 22 1015 36 0 2.07 259.554 13:38 13.08.2019
3540 Clouds 21 1016 39 0 0.45 316 13:18 13.08.2019
3541 Clouds 21 1016 46 0 2.24 259.697 12:42 13.08.2019
3542 Clouds 19 1022 24 0 2.24 281 12:24 13.08.2019
3543 Clouds 19 1016 54 0 1.16 283.928 11:59 13.08.2019
3544 Clouds 18 1016 54 0 1.16 283.928 11:40 13.08.2019
3545 Clouds 18 1017 54 0 1.16 283.928 11:21 13.08.2019
3546 Clouds 17 1023 27 0 2.68 221 10:57 13.08.2019
3547 Clouds 17 1023 29 0 2.24 219 10:37 13.08.2019
3548 Clouds 16 1017 66 0 1.16 283.928 10:19 13.08.2019
3549 Clouds 15 1023 42 0 0.45 331 09:44 13.08.2019
3550 Clouds 15 1023 45 0 2.28 15.035 09:23 13.08.2019
3551 Clouds 15 1023 45 0 2.28 15.035 09:23 13.08.2019
3552 Clouds 14 1017 83 0 2.28 15.035 08:44 13.08.2019
3553 Clouds 13 1023 57 0 2.28 15.035 08:23 13.08.2019
3554 Clouds 12 1023 58 0 0.89 234 07:58 13.08.2019
3555 Clouds 12 1023 59 0 2.28 15.035 07:38 13.08.2019
3556 Clouds 12 1023 59 0 2.28 15.035 07:38 13.08.2019
3557 Clouds 12 1023 67 0 2.28 15.035 07:19 13.08.2019
3558 Clouds 12 1023 66 0 2.28 15.035 06:41 13.08.2019
3559 Clouds 12 1019 84 0 2.59 18.232 05:37 13.08.2019
3560 Clouds 11 1020 93 0 0.45 233 03:36 13.08.2019
3561 Clouds 14 1024 56 0 2.94 14.278 02:20 13.08.2019
3562 Clouds 14 1025 54 0 2.93 12.88 01:20 13.08.2019
3563 Clouds 14 1025 52 0 2.93 12.88 00:47 13.08.2019
3564 Clouds 15 1017 73 0 3.08 14.185 23:57 12.08.2019
3565 Clouds 15 1018 80 0 2.68 202 23:38 12.08.2019
3566 Clouds 15 1025 39 0 3.08 14.185 23:19 12.08.2019
3567 Clouds 15 1025 39 0 3.08 14.185 23:19 12.08.2019
3568 Clouds 14 1025 36 0 3.08 14.185 22:40 12.08.2019
3569 Clouds 15 1024 36 0 3.08 14.185 22:20 12.08.2019
3570 Clouds 15 1024 36 0 3.08 14.185 22:20 12.08.2019
3571 Clouds 15 1024 35 0 3.08 14.185 21:56 12.08.2019
3572 Clouds 14 1021 93 0 3.08 14.185 21:37 12.08.2019
3573 Rain 18 1024 34 0 3.67 9.703 21:19 12.08.2019
3574 Rain 18 1023 32 0 3.67 9.703 20:57 12.08.2019
3575 Clouds 19 1017 33 10000 5.1 210 20:38 12.08.2019
3576 Clouds 19 1017 33 10000 5.1 210 20:20 12.08.2019
3577 Clouds 19 1017 33 10000 5.1 210 20:20 12.08.2019
3578 Clouds 17 1017 33 10000 5.1 210 19:55 12.08.2019
3579 Clouds 19 1017 33 10000 5.1 210 19:37 12.08.2019
3580 Clouds 21 1017 38 10000 5.7 210 19:18 12.08.2019
3581 Clouds 21 1017 36 10000 5.7 220 18:55 12.08.2019
3582 Clouds 21 1017 36 10000 5.7 220 18:36 12.08.2019
3583 Clouds 22 1017 36 10000 6.2 220 18:18 12.08.2019
3584 Clouds 22 1017 39 10000 5.7 210 17:46 12.08.2019
3585 Clouds 23 1017 39 10000 5.7 210 17:28 12.08.2019
3586 Clouds 24 1017 39 10000 5.7 210 16:56 12.08.2019
3587 Clouds 24 1017 39 10000 5.7 210 16:38 12.08.2019
3588 Clouds 24 1017 38 10000 5.7 220 16:19 12.08.2019
3589 Clouds 23 1017 38 10000 5.7 220 15:57 12.08.2019
3590 Clouds 23 1017 38 10000 5.7 220 15:57 12.08.2019
3591 Clouds 23 1017 38 10000 5.7 220 15:57 12.08.2019
3592 Clouds 23 1017 36 10000 6.2 210 15:38 12.08.2019
3593 Clouds 23 1017 36 10000 7.2 200 15:20 12.08.2019
3594 Clouds 22 1017 41 10000 6.7 200 14:43 12.08.2019
3595 Clouds 22 1017 44 10000 6.2 200 14:24 12.08.2019
3596 Clouds 21 1017 44 10000 6.2 200 13:59 12.08.2019
3597 Clouds 21 1017 50 10000 5.7 210 13:41 12.08.2019
3598 Clouds 21 1018 53 10000 3.1 220 13:23 12.08.2019
3599 Clouds 21 1018 56 10000 2.1 0 12:43 12.08.2019
3600 Clouds 20 1018 60 10000 1 0 12:22 12.08.2019
3601 Clouds 19 1018 72 10000 1 0 11:48 12.08.2019
3602 Clouds 19 1018 72 10000 1 0 11:29 12.08.2019
3603 Clouds 19 1018 68 10000 1 0 10:59 12.08.2019
3604 Clouds 19 1018 72 10000 1.5 240 10:40 12.08.2019
3605 Clouds 18 1018 88 10000 0.5 0 10:22 12.08.2019
3606 Clouds 18 1018 88 10000 0.5 0 10:22 12.08.2019
3607 Clouds 18 1017 82 10000 1 0 09:55 12.08.2019
3608 Clouds 18 1017 82 10000 1 0 09:37 12.08.2019
3609 Rain 16 1020 50 0 0.29 350.177 09:18 12.08.2019
3610 Rain 16 1020 57 0 0.29 350.177 08:40 12.08.2019
3611 Rain 16 1021 95 0 0.29 350.177 08:22 12.08.2019
3612 Rain 15 1020 54 0 2.24 240 07:56 12.08.2019
3613 Rain 15 1019 56 0 0.29 350.177 07:35 12.08.2019
3614 Rain 15 1019 55 0 0.29 350.177 06:54 12.08.2019
3615 Rain 15 1020 53 0 0.02 345.964 06:18 12.08.2019
3616 Rain 16 1017 75 0 0.02 345.964 04:26 12.08.2019
3617 Clouds 16 1020 43 0 1.17 33.009 02:43 12.08.2019
3618 Clouds 17 1021 35 0 1.17 33.009 01:42 12.08.2019
3619 Clouds 17 1020 33 0 1.17 33.009 01:18 12.08.2019
3620 Clouds 16 1019 79 0 1.17 33.009 00:54 12.08.2019
3621 Clouds 16 1019 77 0 1.17 33.009 00:36 12.08.2019
3622 Clouds 17 1019 76 0 0.45 200 00:18 12.08.2019
3623 Clouds 17 1019 66 0 1.55 14.036 23:39 11.08.2019
3624 Clouds 17 1019 65 0 1.55 14.036 23:39 11.08.2019
3625 Clouds 19 1019 69 0 1.55 14.036 23:19 11.08.2019
3626 Clouds 18 1021 33 0 1.55 14.036 22:56 11.08.2019
3627 Clouds 18 1021 33 0 0.89 296 22:37 11.08.2019
3628 Clouds 18 1020 33 0 1.55 14.036 22:18 11.08.2019
3629 Clouds 17 1018 72 0 1.55 14.036 21:55 11.08.2019
3630 Clouds 18 1020 32 0 1.55 14.036 21:36 11.08.2019
3631 Clouds 21 1018 61 0 2.64 207.816 21:18 11.08.2019
3632 Clouds 21 1018 58 0 2.64 207.816 20:42 11.08.2019
3633 Clouds 21 1018 57 0 2.64 207.816 20:42 11.08.2019
3634 Clouds 22 1015 30 10000 5.1 260 20:23 11.08.2019
3635 Clouds 23 1015 30 10000 5.1 260 19:54 11.08.2019
3636 Clouds 22 1015 30 10000 5.1 260 19:36 11.08.2019
3637 Clouds 24 1015 28 10000 4.6 260 19:18 11.08.2019
3638 Clouds 23 1015 37 10000 4.1 190 18:38 11.08.2019
3639 Clouds 24 1015 39 10000 4.1 190 18:19 11.08.2019
3640 Clouds 25 1015 39 10000 4.6 210 17:42 11.08.2019
3641 Clouds 24 1015 42 10000 5.7 200 17:21 11.08.2019
3642 Clouds 24 1015 42 10000 5.7 200 16:59 11.08.2019
3643 Clouds 25 1015 39 10000 4.1 220 16:40 11.08.2019
3644 Clouds 24 1015 39 10000 5.1 190 16:22 11.08.2019
3645 Clouds 25 1015 39 10000 5.1 190 15:57 11.08.2019
3646 Clouds 24 1016 37 10000 4.6 210 15:38 11.08.2019
3647 Clouds 23 1016 39 10000 4.1 210 15:20 11.08.2019
3648 Clouds 24 1016 45 10000 5.1 220 14:42 11.08.2019
3649 Clouds 25 1016 47 10000 4.6 220 14:24 11.08.2019
3650 Clouds 24 1017 50 10000 3.1 210 13:47 11.08.2019
3651 Clouds 23 1017 50 10000 3.1 210 13:26 11.08.2019
3652 Clouds 24 1017 50 10000 4.6 200 12:59 11.08.2019
3653 Clouds 24 1018 53 10000 6.2 210 12:41 11.08.2019
3654 Clouds 23 1018 57 10000 6.7 210 12:21 11.08.2019
3655 Clouds 23 1018 53 10000 7.7 200 11:40 11.08.2019
3656 Rain 23 1016 19 0 2.68 238 11:22 11.08.2019
3657 Rain 23 1016 24 0 2.68 309 10:56 11.08.2019
3658 Rain 24 1008 35 0 0.45 0 10:38 11.08.2019
3659 Rain 23 1015 26 0 1.34 300 10:19 11.08.2019
3660 Rain 23 1015 26 0 1.34 300 10:19 11.08.2019
3661 Rain 22 1015 29 0 1.34 171 09:54 11.08.2019
3662 Rain 21 1015 31 0 1.34 166 09:36 11.08.2019
3663 -273 0 0 0 0 0 09:36 11.08.2019
3664 Rain 20 1017 72 0 4.47 68 09:18 11.08.2019
3665 Rain 19 1017 76 0 4.02 37 08:40 11.08.2019
3666 Rain 17 1017 78 0 3.13 63 08:21 11.08.2019
3667 Rain 15 1017 75 0 4.92 44 07:43 11.08.2019
3668 Rain 15 1017 78 0 3.58 84 07:18 11.08.2019
3669 Rain 15 1018 74 0 2.24 4 06:37 11.08.2019
3670 Clouds 17 1019 67 0 1.63 149.802 05:19 11.08.2019
3671 Clouds 17 1021 67 0 0.89 30 02:53 11.08.2019
3672 Clouds 17 1021 37 0 1.15 137.649 01:58 11.08.2019
3673 Clouds 17 1021 37 0 1.15 137.649 01:32 11.08.2019
3674 Clouds 18 1022 36 0 1.24 135.524 00:56 11.08.2019
3675 Clouds 18 1022 34 0 1.24 135.524 00:36 11.08.2019
3676 Clouds 20 1022 58 0 0.45 1 23:56 10.08.2019
3677 Clouds 20 1022 61 0 1.17 168.661 23:34 10.08.2019
3678 Clouds 20 1022 55 0 0.89 8 22:57 10.08.2019
3679 Clouds 19 1022 26 0 1.17 168.661 22:38 10.08.2019
3680 Clouds 20 1022 25 0 1.17 168.661 22:19 10.08.2019
3681 Clouds 20 1022 23 0 1.17 168.661 21:40 10.08.2019
3682 Clouds 23 1022 53 0 2.91 218.66 21:21 10.08.2019
3683 Clouds 24 1022 51 0 2.91 218.66 20:58 10.08.2019
3684 Clouds 25 1018 27 10000 3.6 210 20:39 10.08.2019
3685 Clouds 25 1018 27 10000 3.6 210 20:20 10.08.2019
3686 Clouds 26 1018 27 10000 3.6 210 19:44 10.08.2019
3687 Clouds 27 1018 27 10000 3.6 210 19:25 10.08.2019
3688 Clouds 25 1018 27 10000 5.1 200 18:43 10.08.2019
3689 Clouds 28 1019 31 10000 5.7 210 18:25 10.08.2019
3690 Clouds 28 1019 31 10000 5.7 210 17:57 10.08.2019
3691 Clouds 28 1018 33 10000 5.7 220 17:38 10.08.2019
3692 Clouds 27 1018 33 10000 6.2 220 17:19 10.08.2019
3693 Clouds 27 1019 33 10000 5.1 210 16:43 10.08.2019
3694 Clouds 28 1019 33 10000 5.1 210 16:24 10.08.2019
3695 Clouds 29 1019 35 10000 6.7 200 15:48 10.08.2019
3696 Clouds 28 1019 35 10000 6.2 210 15:22 10.08.2019
3697 Clouds 27 1019 37 10000 5.1 210 14:44 10.08.2019
3698 Clouds 27 1019 37 10000 5.1 210 14:44 10.08.2019
3699 Clouds 27 1019 37 10000 5.7 200 14:21 10.08.2019
3700 Clouds 27 1019 37 10000 5.1 200 13:41 10.08.2019
3701 Clouds 26 1020 39 10000 6.2 200 13:20 10.08.2019
3702 Clouds 26 1020 39 10000 5.7 200 12:54 10.08.2019
3703 Clouds 25 1020 39 10000 5.7 200 12:36 10.08.2019
3704 Clouds 25 1020 47 10000 4.1 210 12:18 10.08.2019
3705 Clouds 25 1020 53 10000 2.6 230 11:41 10.08.2019
3706 Clear 25 1022 11 0 1.34 194 11:22 10.08.2019
3707 Clear 25 1022 11 0 0.89 160 10:55 10.08.2019
3708 Clear 24 1022 14 0 0.45 115 10:36 10.08.2019
3709 Clear 24 1022 14 0 0.45 176 10:18 10.08.2019
3710 Clear 22 1022 61 0 1.79 359 09:40 10.08.2019
3711 Clear 21 1021 62 0 1.79 58 09:22 10.08.2019
3712 Clear 20 1021 62 0 0.89 46 08:42 10.08.2019
3713 Clear 19 1021 61 0 0.89 14 08:20 10.08.2019
3714 Clear 18 1021 61 0 1.34 20 07:54 10.08.2019
3715 Clear 18 1021 61 0 1.34 20 07:54 10.08.2019
3716 Clear 18 1021 62 0 0.45 79 07:29 10.08.2019
3717 Clear 18 1020 60 0 0.89 89 06:49 10.08.2019
3718 Clear 18 1020 58 0 1.34 83 06:26 10.08.2019
3719 Clear 18 1020 60 0 0.89 48 05:25 10.08.2019
3720 Clear 19 1020 33 0 0.89 284 04:31 10.08.2019
3721 Clouds 20 1019 32 0 2.68 235 02:54 10.08.2019
3722 Clouds 20 1019 29 0 0.89 196 02:24 10.08.2019
3723 Clouds 20 1021 68 0 0.97 157.462 01:42 10.08.2019
3724 Clouds 19 1021 74 0 1.21 147.139 01:21 10.08.2019
3725 Clouds 19 1014 65 0 1.21 147.139 00:48 10.08.2019
3726 Clear 21 1021 50 0 3.13 55 00:22 10.08.2019
3727 Clear 23 1021 48 0 1.79 41 23:44 09.08.2019
3728 Clear 23 1021 50 0 2.24 56 23:24 09.08.2019
3729 Clear 22 1016 54 0 1.04 160.746 22:57 09.08.2019
3730 Clear 21 1016 52 0 0.45 350 22:38 09.08.2019
3731 Clear 25 1015 43 0 1.04 160.746 22:20 09.08.2019
3732 Clear 26 1016 80 0 2.24 207 21:43 09.08.2019
3733 Clear 27 1016 11 0 1.34 309 21:23 09.08.2019
3734 Clear 28 1015 8 0 2.68 320 20:59 09.08.2019
3735 Clear 29 1015 6 0 0.45 298 20:40 09.08.2019
3736 Clouds 30 1014 21 10000 4.6 240 20:21 09.08.2019
3737 Clouds 29 1014 21 10000 4.6 240 19:56 09.08.2019
3738 Clouds 30 1014 21 10000 4.6 240 19:38 09.08.2019
3739 Clouds 31 1014 20 10000 5.1 260 19:18 09.08.2019
3740 Clouds 31 1014 20 10000 5.1 210 18:40 09.08.2019
3741 Clouds 34 1014 17 10000 4.6 220 18:22 09.08.2019
3742 Clouds 34 1014 17 10000 5.1 220 17:56 09.08.2019
3743 Clouds 34 1014 17 10000 5.1 220 17:56 09.08.2019
3744 Clouds 34 1014 17 10000 5.1 220 17:38 09.08.2019
3745 Clouds 34 1015 17 10000 6.2 210 17:19 09.08.2019
3746 -273 0 0 0 0 0 16:41 09.08.2019
3747 Clouds 34 1015 23 10000 4.6 220 16:23 09.08.2019
3748 Clouds 34 1015 23 10000 4.1 180 15:57 09.08.2019
3749 Clouds 34 1015 23 10000 4.1 180 15:57 09.08.2019
3750 Clouds 34 1015 23 10000 4.1 180 15:38 09.08.2019
3751 Clouds 34 1016 22 10000 4.1 230 15:19 09.08.2019
3752 Clear 34 1016 22 10000 3.1 200 14:44 09.08.2019
3753 Clear 34 1016 22 10000 4.1 0 14:23 09.08.2019
3754 Clear 34 1016 22 10000 4.1 0 14:23 09.08.2019
3755 Clear 33 1016 22 10000 4.1 0 13:57 09.08.2019
3756 Clear 33 1016 27 10000 4.1 180 13:39 09.08.2019
3757 Clear 33 1016 30 10000 3.1 170 13:19 09.08.2019
3758 Clouds 32 1017 45 10000 2.1 140 12:45 09.08.2019
3759 Clouds 30 1017 44 10000 1.5 140 12:23 09.08.2019
3760 Clouds 30 1017 44 10000 1.5 140 11:57 09.08.2019
3761 Clear 30 1017 50 10000 1 0 11:37 09.08.2019
3762 Clear 29 1014 5 0 2.24 252 11:18 09.08.2019
3763 Clear 27 1014 6 0 1.34 312 10:40 09.08.2019
3764 Clear 26 1014 9 0 0.89 268 10:21 09.08.2019
3765 Clear 24 1010 66 0 3.38 213.69 09:45 09.08.2019
3766 Clouds 23 1014 22 0 0.49 178.254 09:20 09.08.2019
3767 Clouds 21 1014 25 0 0.49 178.254 08:56 09.08.2019
3768 Clear 20 1019 62 0 3.58 25 08:37 09.08.2019
3769 Clear 19 1019 62 0 3.58 70 08:18 09.08.2019
3770 Clear 18 1019 64 0 3.58 18 07:43 09.08.2019
3771 Clear 18 1019 63 0 2.68 51 07:22 09.08.2019
3772 Clear 18 1019 64 0 1.34 62 06:55 09.08.2019
3773 Clear 18 1019 65 0 2.24 59 06:27 09.08.2019
3774 Clear 18 1019 63 0 2.24 24 05:50 09.08.2019
3775 Clear 20 1020 63 0 2.68 76 03:19 09.08.2019
3776 Clear 20 1019 61 0 2.68 52 01:45 09.08.2019
3777 Clear 21 1019 63 0 2.68 65 00:45 09.08.2019
3778 Clear 22 1019 63 0 2.24 38 00:26 09.08.2019
3779 Clear 22 1019 63 0 2.24 56 23:59 08.08.2019
3780 Clear 22 1019 63 0 2.68 60 23:38 08.08.2019
3781 Clear 23 1019 62 0 1.34 77 23:19 08.08.2019
3782 Clear 23 1019 65 0 1.79 132 22:57 08.08.2019
3783 Clear 23 1019 63 0 1.34 46 22:36 08.08.2019
3784 Clear 23 1019 63 0 0.89 73 22:18 08.08.2019
3785 Clear 23 1019 64 0 0.68 200.753 21:55 08.08.2019
3786 Clear 23 1019 64 0 0.68 200.753 21:55 08.08.2019
3787 Clear 23 1018 62 0 0.89 48 21:36 08.08.2019
3788 Clouds 26 1014 7 0 0.45 343 21:18 08.08.2019
3789 Clouds 29 1014 6 0 2.12 228.005 20:42 08.08.2019
3790 Clouds 29 1014 37 10000 5.1 210 20:20 08.08.2019
3791 Clouds 30 1014 37 10000 5.1 210 19:56 08.08.2019
3792 Clouds 30 1014 37 10000 5.1 210 19:36 08.08.2019
3793 Clouds 31 1014 38 10000 4.6 210 19:18 08.08.2019
3794 Clouds 31 1014 38 10000 4.6 220 18:41 08.08.2019
3795 Clouds 31 1014 38 10000 5.1 210 18:19 08.08.2019
3796 Clouds 31 1014 35 10000 6.2 200 17:42 08.08.2019
3797 Clouds 32 1014 35 10000 6.2 200 17:24 08.08.2019
3798 Clouds 32 1014 35 10000 5.7 200 16:59 08.08.2019
3799 Clouds 32 1014 35 10000 6.2 210 16:41 08.08.2019
3800 Clouds 31 1015 35 10000 6.7 200 16:23 08.08.2019
3801 Clouds 32 1015 35 10000 4.6 200 15:57 08.08.2019
3802 Clouds 32 1015 35 10000 4.6 200 15:38 08.08.2019
3803 Clouds 32 1015 35 10000 4.1 180 15:20 08.08.2019
3804 Clouds 31 1015 35 10000 3.1 190 14:38 08.08.2019
3805 Clouds 30 1015 37 10000 2.6 200 14:19 08.08.2019
3806 Clouds 30 1016 39 10000 1.5 0 13:42 08.08.2019
3807 Clouds 29 1016 47 10000 2.1 230 13:23 08.08.2019
3808 Clouds 28 1016 50 10000 1 0 12:58 08.08.2019
3809 Clouds 28 1016 50 10000 1 0 12:38 08.08.2019
3810 Clear 28 1015 6 0 1.34 324 12:18 08.08.2019
3811 Clouds 26 1017 64 10000 1.5 0 11:42 08.08.2019
3812 Clear 26 1015 6 0 1.46 212.853 11:24 08.08.2019
3813 Clear 25 1015 8 0 1.46 212.853 10:41 08.08.2019
3814 Clear 23 1016 13 0 1.46 212.853 10:22 08.08.2019
3815 Clear 23 1016 20 0 1.46 212.853 09:58 08.08.2019
3816 Clear 22 1012 68 0 1.46 212.853 09:39 08.08.2019
3817 Clouds 22 1016 25 0 0.38 66.922 09:20 08.08.2019
3818 Clouds 19 1016 33 0 0.5 41.121 08:40 08.08.2019
3819 Clouds 19 1016 38 0 0.5 41.121 08:21 08.08.2019
3820 Clouds 17 1017 67 0 2.24 70 07:42 08.08.2019
3821 Clouds 17 1017 67 0 1.79 65 07:21 08.08.2019
3822 Clouds 18 1017 68 0 2.68 69 06:58 08.08.2019
3823 Clouds 18 1017 69 0 2.68 45 06:40 08.08.2019
3824 Clouds 18 1016 69 0 2.68 53 05:54 08.08.2019
3825 Clouds 18 1016 39 0 0.2 354.806 05:27 08.08.2019
3826 Clouds 18 1016 37 0 0.2 354.806 03:54 08.08.2019
3827 Clouds 18 1015 83 0 0.2 354.806 03:35 08.08.2019
3828 Clouds 19 1017 35 0 1.57 124.573 01:39 08.08.2019
3829 Clouds 19 1016 34 0 1.24 112.847 00:45 08.08.2019
3830 Clouds 20 1016 33 0 0.7 220.164 00:18 08.08.2019
3831 Clouds 20 1016 29 0 0.7 220.164 23:22 07.08.2019
3832 Clouds 20 1017 64 0 1.34 48 22:59 07.08.2019
3833 Clouds 20 1016 28 0 0.7 220.164 22:59 07.08.2019
3834 Clouds 20 1016 27 0 0.7 220.164 22:40 07.08.2019
3835 Clouds 20 1016 25 0 0.7 220.164 22:20 07.08.2019
3836 Clouds 20 1016 24 0 0.7 220.164 21:56 07.08.2019
3837 Clouds 20 1014 74 0 0.7 220.164 21:38 07.08.2019
3838 Rain 21 1015 23 0 1.77 214.076 21:19 07.08.2019
3839 Rain 21 1015 21 0 1.77 214.076 20:56 07.08.2019
3840 Rain 22 1015 21 0 1.34 240 20:37 07.08.2019
3841 Rain 22 1015 18 0 0.89 289 20:19 07.08.2019
3842 Rain 21 1014 65 0 1.93 222.242 19:40 07.08.2019
3843 Rain 21 1016 71 0 1.34 39 19:22 07.08.2019
3844 Rain 22 1017 72 0 1.34 336 18:55 07.08.2019
3845 Rain 22 1016 71 0 2.24 20 18:37 07.08.2019
3846 Rain 22 1016 72 0 1.34 10 18:19 07.08.2019
3847 Rain 22 1016 81 0 2.82 235.663 17:54 07.08.2019
3848 Rain 23 1016 77 0 2.24 42 17:54 07.08.2019
3849 Rain 23 1016 82 0 0.45 63 17:36 07.08.2019
3850 Rain 22 1016 83 0 1.34 84 17:18 07.08.2019
3851 Rain 22 1016 85 0 2.82 235.663 16:54 07.08.2019
3852 Rain 23 1016 84 0 2.82 235.663 16:36 07.08.2019
3853 Rain 24 1015 9 0 2.82 235.663 16:18 07.08.2019
3854 Rain 27 1015 6 0 2.82 235.663 15:41 07.08.2019
3855 Rain 28 1015 6 0 3.87 219.36 15:19 07.08.2019
3856 Rain 28 1015 6 0 3.87 219.36 14:49 07.08.2019
3857 Rain 29 1015 6 0 0.45 210 14:30 07.08.2019
3858 Rain 28 1015 6 0 0.45 179 13:57 07.08.2019
3859 Rain 28 1015 6 0 3.87 219.36 13:38 07.08.2019
3860 Rain 27 1015 7 0 1.34 131 13:18 07.08.2019
3861 -273 0 0 0 0 0 12:56 07.08.2019
3862 Rain 27 1015 11 0 3.58 184 12:36 07.08.2019
3863 Clouds 26 1015 13 0 3.58 182 12:18 07.08.2019
3864 Clouds 26 1016 18 0 2.24 219 11:43 07.08.2019
3865 Clouds 24 1015 21 0 2.24 279 11:21 07.08.2019
3866 Clouds 25 1015 21 0 3.13 199 10:58 07.08.2019
3867 Clouds 25 1015 22 0 2.24 226 10:39 07.08.2019
3868 Clouds 23 1015 27 0 2.81 212.157 10:18 07.08.2019
3869 Clouds 22 1015 32 0 2.81 212.157 09:45 07.08.2019
3870 Clouds 20 1015 33 0 1.34 183 09:22 07.08.2019
3871 Clouds 20 1015 36 0 1.34 233 08:57 07.08.2019
3872 Clouds 19 1014 57 0 1.34 38 08:38 07.08.2019
3873 Clouds 19 1014 60 0 0.89 51 08:20 07.08.2019
3874 Clouds 19 1014 34 0 1.07 133.975 07:41 07.08.2019
3875 Clouds 19 1014 70 0 1.07 133.975 07:20 07.08.2019
3876 Clouds 19 1015 34 0 1.07 133.975 06:31 07.08.2019
3877 Clouds 19 1012 68 0 1.34 315 05:54 07.08.2019
3878 Clouds 20 1015 60 0 1.36 128.079 04:57 07.08.2019
3879 Clouds 21 1015 46 0 1.34 30 03:21 07.08.2019
3880 Clouds 20 1015 52 0 0.86 89.13 02:49 07.08.2019
3881 Clouds 20 1016 53 0 1.34 77 01:58 07.08.2019
3882 Clouds 21 1016 37 0 1.38 87.26 01:39 07.08.2019
3883 Clouds 20 1018 46 0 1.38 87.26 00:43 07.08.2019
3884 Clouds 21 1018 46 0 1.49 58.78 00:22 07.08.2019
3885 Clouds 22 1016 34 0 1.49 58.78 23:41 06.08.2019
3886 Clouds 22 1016 33 0 1.49 58.78 23:21 06.08.2019
3887 Clouds 22 1004 50 0 1.49 58.78 22:56 06.08.2019
3888 Clouds 22 1015 83 0 2.68 191 22:37 06.08.2019
3889 Clouds 21 1018 55 0 1.49 58.78 22:18 06.08.2019
3890 Clouds 21 1003 46 0 1.49 58.78 21:42 06.08.2019
3891 Clouds 24 1017 54 0 2.36 208.224 21:24 06.08.2019
3892 Clouds 26 1015 20 0 2.36 208.224 20:57 06.08.2019
3893 Clouds 27 1015 20 0 2.1 224.018 20:39 06.08.2019
3894 Clouds 27 1015 14 0 2.1 224.018 20:21 06.08.2019
3895 Clouds 27 1017 71 0 2.1 224.018 19:43 06.08.2019
3896 Clouds 30 1014 8 0 2.1 224.018 19:25 06.08.2019
3897 Clouds 30 1015 8 0 2.1 224.018 18:46 06.08.2019
3898 Clouds 30 1015 11 0 0.89 193 18:27 06.08.2019
3899 Clouds 31 1009 32 0 4.5 219.34 17:59 06.08.2019
3900 Clouds 30 1010 37 0 3.13 180 17:39 06.08.2019
3901 Clouds 31 1011 36 0 3.13 157 17:21 06.08.2019
3902 Clouds 31 1010 29 0 0.45 225 16:59 06.08.2019
3903 Clouds 31 1011 37 0 3.13 180 16:38 06.08.2019
3904 Clouds 29 1018 40 0 0.89 332 16:19 06.08.2019
3905 Clouds 31 1015 9 0 3.58 225 15:56 06.08.2019
3906 Clouds 32 1014 8 0 3.13 267 15:38 06.08.2019
3907 Clear 32 1014 8 0 3.13 211 15:19 06.08.2019
3908 Clear 31 1014 5 0 3.58 221 14:43 06.08.2019
3909 Clear 31 1014 5 0 3.58 195 14:24 06.08.2019
3910 Clear 30 1014 6 0 2.68 260 13:57 06.08.2019
3911 Clear 30 1014 6 0 2.68 260 13:57 06.08.2019
3912 Clear 30 1014 6 0 4.02 195 13:38 06.08.2019
3913 Clear 30 1015 6 0 2.68 241 13:19 06.08.2019
3914 Clear 29 1015 9 0 1.34 185 12:55 06.08.2019
3915 Clear 28 1015 9 0 3.13 179 12:36 06.08.2019
3916 Clouds 27 1016 9 0 2.24 180 12:18 06.08.2019
3917 Clouds 26 1016 12 0 2.68 243 11:40 06.08.2019
3918 Clouds 26 1016 12 0 2.68 243 11:40 06.08.2019
3919 Clouds 26 1016 12 0 2.68 243 11:40 06.08.2019
3920 Clouds 26 1016 13 0 2.83 210.574 11:18 06.08.2019
3921 Clouds 25 1016 20 0 2.83 210.574 10:41 06.08.2019
3922 Clouds 24 1016 22 0 2.83 210.574 10:22 06.08.2019
3923 Clouds 23 1016 25 0 2.83 210.574 09:48 06.08.2019
3924 Clear 21 1018 54 0 1.79 69 09:24 06.08.2019
3925 Clear 20 1019 53 0 2.24 53 08:57 06.08.2019
3926 Clear 19 1019 52 0 2.24 59 08:37 06.08.2019
3927 Clear 18 1019 52 0 0.89 44 08:19 06.08.2019
3928 Clear 17 1019 50 0 1.21 93.635 07:35 06.08.2019
3929 Clear 17 1019 49 0 1.21 93.635 06:51 06.08.2019
3930 Clear 17 1019 47 0 0.45 17 06:26 06.08.2019
3931 Clear 18 1019 46 0 0.45 42 05:47 06.08.2019
3932 Clear 18 1020 55 0 1.79 21 02:59 06.08.2019
3933 Clear 19 1020 52 0 1.34 97 01:46 06.08.2019
3934 Clear 19 1020 53 0 0.89 359 01:21 06.08.2019
3935 Clear 20 1020 54 0 0.45 76 00:26 06.08.2019
3936 Clear 21 1020 53 0 0.45 62 23:21 05.08.2019
3937 Clear 20 1021 56 0 0.45 53 22:59 05.08.2019
3938 Clear 20 1021 55 0 0.89 42 22:40 05.08.2019
3939 Clear 21 1017 62 0 0.45 320 22:22 05.08.2019
3940 Clear 22 1018 76 0 1.04 72 21:43 05.08.2019
3941 Clear 25 1020 59 0 2.04 195.83 21:21 05.08.2019
3942 Clear 25 1020 51 0 1.98 200.691 20:58 05.08.2019
3943 Clear 26 1020 54 0 0.45 21 20:40 05.08.2019
3944 Clouds 27 1015 27 10000 4.6 200 20:22 05.08.2019
3945 Clouds 26 1015 27 10000 4.6 200 19:57 05.08.2019
3946 Clouds 28 1015 27 10000 4.6 200 19:38 05.08.2019
3947 Clouds 28 1015 21 10000 5.7 180 19:19 05.08.2019
3948 Clouds 28 1015 22 10000 5.1 200 18:42 05.08.2019
3949 Clouds 30 1016 22 10000 5.7 200 18:21 05.08.2019
3950 Clouds 29 1016 24 10000 5.7 210 17:51 05.08.2019
3951 Clouds 29 1016 24 10000 5.7 210 17:30 05.08.2019
3952 Clouds 31 1016 24 10000 5.7 210 16:59 05.08.2019
3953 Clouds 30 1016 26 10000 5.7 210 16:41 05.08.2019
3954 Clouds 30 1016 26 10000 6.7 200 16:23 05.08.2019
3955 Clouds 31 1016 27 10000 6.7 210 15:43 05.08.2019
3956 Clouds 30 1017 27 10000 5.7 210 15:20 05.08.2019
3957 Clouds 31 1017 29 10000 5.1 210 14:42 05.08.2019
3958 Clouds 29 1017 35 10000 4.6 210 14:22 05.08.2019
3959 Clouds 29 1018 39 10000 2.6 220 13:49 05.08.2019
3960 Clouds 28 1018 42 10000 1.5 0 13:24 05.08.2019
3961 Clouds 27 1019 47 10000 1.5 190 12:56 05.08.2019
3962 Clouds 27 1019 47 10000 1.5 190 12:37 05.08.2019
3963 Clear 27 1019 53 10000 1.5 200 12:18 05.08.2019
3964 Clear 26 1019 53 10000 1.5 140 11:42 05.08.2019
3965 Clear 25 1019 53 10000 1.5 140 11:24 05.08.2019
3966 Clear 24 1018 21 0 1.34 200 10:46 05.08.2019
3967 Clear 24 1018 18 0 0.45 237 10:28 05.08.2019
3968 Clear 22 1019 20 0 0.89 146 09:55 05.08.2019
3969 Clear 22 1016 61 0 0.45 90 09:37 05.08.2019
3970 Clear 20 1021 52 0 0.89 46 09:19 05.08.2019
3971 Clear 19 1021 50 0 0.68 92.18 08:43 05.08.2019
3972 Clear 18 1021 49 0 1.34 39 08:21 05.08.2019
3973 Clear 18 1021 54 0 0.45 98 07:47 05.08.2019
3974 Clear 17 1021 52 0 0.68 92.18 07:27 05.08.2019
3975 Clear 17 1021 51 0 0.68 92.18 06:41 05.08.2019
3976 Clear 18 1021 51 0 1 93.558 05:53 05.08.2019
3977 Clear 18 1021 50 0 1 93.558 05:22 05.08.2019
3978 Clear 17 1021 50 0 0.45 34 04:32 05.08.2019
3979 Clear 17 1021 55 0 1 93.558 03:42 05.08.2019
3980 Clouds 19 1021 60 0 0.89 72 02:37 05.08.2019
3981 Clouds 19 1022 62 0 1.26 65.816 01:40 05.08.2019
3982 Clouds 19 1019 33 0 1.26 65.816 00:54 05.08.2019
3983 Clouds 20 1019 33 0 1.26 65.816 00:36 05.08.2019
3984 Rain 20 1019 32 0 1.78 37.895 00:18 05.08.2019
3985 Rain 21 1022 69 0 0.45 62 23:41 04.08.2019
3986 Rain 22 1019 28 0 1.78 37.895 23:20 04.08.2019
3987 Rain 21 1019 24 0 1.78 37.895 22:56 04.08.2019
3988 Rain 21 1019 68 0 2.24 274 22:37 04.08.2019
3989 Rain 21 1006 34 0 0.45 180 22:19 04.08.2019
3990 Rain 19 1021 71 0 1.78 37.895 21:44 04.08.2019
3991 Clouds 24 1021 71 0 0.94 187.655 21:22 04.08.2019
3992 Rain 26 1017 7 0 0.99 152.094 20:55 04.08.2019
3993 Rain 27 1017 7 0 0.99 152.094 20:37 04.08.2019
3994 Clouds 28 1015 31 10000 5.7 210 20:18 04.08.2019
3995 Clouds 28 1015 31 10000 5.7 210 19:42 04.08.2019
3996 Clouds 29 1015 29 10000 5.1 200 19:24 04.08.2019
3997 Clouds 29 1015 27 10000 5.7 210 18:42 04.08.2019
3998 Clouds 31 1015 24 10000 4.1 210 18:21 04.08.2019
3999 Clouds 31 1015 24 10000 4.1 210 17:54 04.08.2019
4000 Clouds 31 1015 24 10000 5.1 210 17:36 04.08.2019
4001 Clouds 31 1015 21 10000 5.7 210 17:18 04.08.2019
4002 Clouds 33 1016 24 10000 5.1 210 16:41 04.08.2019
4003 Clouds 32 1016 24 10000 5.1 210 16:41 04.08.2019
4004 Clouds 32 1016 26 10000 5.7 200 16:22 04.08.2019
4005 Clouds 32 1016 29 10000 6.2 210 15:45 04.08.2019
4006 Clouds 32 1016 29 10000 6.7 210 15:23 04.08.2019
4007 Clouds 32 1016 31 10000 4.6 210 14:46 04.08.2019
4008 Clouds 31 1016 31 10000 4.6 210 14:27 04.08.2019
4009 Clouds 31 1017 35 10000 4.1 220 13:59 04.08.2019
4010 Clouds 30 1017 37 10000 2.1 0 13:41 04.08.2019
4011 Clouds 30 1018 42 10000 1.5 130 13:22 04.08.2019
4012 Clouds 29 1018 44 10000 1.5 140 12:44 04.08.2019
4013 Clouds 28 1018 44 10000 1.5 140 12:25 04.08.2019
4014 Clouds 28 1018 50 10000 1 0 11:56 04.08.2019
4015 Clouds 27 1019 56 10000 1 0 11:37 04.08.2019
4016 Clear 27 1018 8 0 1.34 181 11:19 04.08.2019
4017 Clear 25 1018 10 0 1.34 184 10:40 04.08.2019
4018 Clear 24 1011 54 0 0.45 260 10:19 04.08.2019
4019 Clear 22 1018 22 0 2.24 217.463 09:44 04.08.2019
4020 Clear 20 1021 50 0 0.84 49.76 09:22 04.08.2019
4021 Clouds 19 1021 50 0 0.45 68 08:43 04.08.2019
4022 Clouds 18 1021 49 0 0.93 52.895 08:25 04.08.2019
4023 Clouds 17 1020 50 0 0.45 45 07:51 04.08.2019
4024 Clouds 17 1020 56 0 0.45 62 06:56 04.08.2019
4025 Clouds 17 1020 58 0 0.93 52.895 06:28 04.08.2019
4026 Clouds 17 1018 36 0 1.09 50.02 03:46 04.08.2019
4027 Clear 18 1020 67 0 1.34 37 02:24 04.08.2019
4028 Clear 17 1020 62 0 0.87 52.694 01:33 04.08.2019
4029 Clear 18 1020 66 0 0.87 52.694 00:46 04.08.2019
4030 Clear 20 1020 63 0 1.14 79.812 00:26 04.08.2019
4031 Clear 20 1020 63 0 1.14 79.812 00:26 04.08.2019
4032 Clear 21 1020 67 0 1.14 79.812 23:57 03.08.2019
4033 Clear 21 1021 63 0 1.14 79.812 23:39 03.08.2019
4034 Clear 22 1014 67 0 1.14 79.812 23:18 03.08.2019
4035 Clear 22 1014 67 0 1.14 79.812 23:18 03.08.2019
4036 Clear 20 1018 19 0 1.14 79.812 22:44 03.08.2019
4037 Clear 21 1018 21 0 1.14 79.812 22:20 03.08.2019
4038 Clear 21 1007 31 0 1.14 79.812 21:41 03.08.2019
4039 Clouds 25 1010 37 0 2.64 242.736 21:22 03.08.2019
4040 Clouds 26 1009 32 0 0.89 235 20:57 03.08.2019
4041 Clouds 28 1015 27 10000 5.1 210 20:36 03.08.2019
4042 Clouds 28 1015 27 10000 5.1 210 20:18 03.08.2019
4043 Clouds 29 1015 27 10000 5.1 210 19:41 03.08.2019
4044 Clouds 30 1015 27 10000 5.1 200 19:22 03.08.2019
4045 Clouds 31 1015 25 10000 5.7 210 18:46 03.08.2019
4046 Clouds 31 1015 25 10000 5.7 210 18:26 03.08.2019
4047 Clouds 30 1015 27 10000 5.7 180 17:47 03.08.2019
4048 Clouds 31 1016 27 10000 5.7 200 17:20 03.08.2019
4049 Clouds 31 1016 29 10000 5.1 210 16:54 03.08.2019
4050 Clouds 31 1016 29 10000 5.1 210 16:36 03.08.2019
4051 Clouds 31 1016 29 10000 6.2 210 16:18 03.08.2019
4052 Clouds 31 1016 31 10000 6.2 210 15:42 03.08.2019
4053 Clouds 31 1017 33 10000 6.2 200 15:20 03.08.2019
4054 Clouds 30 1017 33 10000 4.6 210 14:38 03.08.2019
4055 Clouds 30 1017 37 10000 1.5 0 14:18 03.08.2019
4056 Clouds 30 1017 37 10000 1.5 0 14:18 03.08.2019
4057 Clouds 29 1018 45 10000 1.5 0 13:47 03.08.2019
4058 Clouds 28 1018 47 10000 1 0 13:23 03.08.2019
4059 Clouds 28 1018 47 10000 1 0 12:56 03.08.2019
4060 Clouds 27 1019 50 10000 1 0 12:37 03.08.2019
4061 Clear 27 1019 50 10000 1 0 12:19 03.08.2019
4062 Clear 25 1019 53 10000 1.5 0 11:39 03.08.2019
4063 Clear 25 1012 55 0 2.51 211.751 11:20 03.08.2019
4064 Clear 24 1019 11 0 2.51 211.751 10:38 03.08.2019
4065 Clear 23 1020 19 0 2.51 211.751 10:19 03.08.2019
4066 Clear 21 1019 24 0 2.51 211.751 09:38 03.08.2019
4067 Clear 21 1019 24 0 2.51 211.751 09:38 03.08.2019
4068 Clear 19 1013 75 0 0.47 42.125 09:18 03.08.2019
4069 Clear 17 1013 75 0 0.49 26.46 08:43 03.08.2019
4070 Clear 15 1020 60 0 1.79 42 07:40 03.08.2019
4071 Clear 15 1020 66 0 1.34 28 06:57 03.08.2019
4072 Clear 15 1020 71 0 0.89 6 06:18 03.08.2019
4073 Clear 16 1020 76 0 1.34 46 03:35 03.08.2019
4074 Clouds 17 1020 78 0 0.83 52.825 02:25 03.08.2019
4075 Clouds 17 1020 35 0 1.08 39.125 00:58 03.08.2019
4076 Clouds 18 1020 34 0 1.08 39.125 00:32 03.08.2019
4077 Clouds 19 1021 80 0 2.34 34.029 23:42 02.08.2019
4078 Clouds 19 1012 57 0 2.34 34.029 23:20 02.08.2019
4079 Clouds 19 1012 57 0 2.34 34.029 23:20 02.08.2019
4080 Clouds 18 1012 56 0 2.34 34.029 22:58 02.08.2019
4081 Clouds 17 1021 85 0 2.34 34.029 22:40 02.08.2019
4082 Clouds 17 1021 84 0 2.34 34.029 22:21 02.08.2019
4083 Clouds 17 1021 83 0 2.34 34.029 21:56 02.08.2019
4084 Clouds 18 1021 83 0 2.34 34.029 21:37 02.08.2019
4085 Clouds 23 1011 56 0 1.91 328.66 21:18 02.08.2019
4086 Clouds 23 1011 56 0 1.91 328.66 21:18 02.08.2019
4087 Clouds 24 1011 55 0 0.45 212 20:42 02.08.2019
4088 -273 0 0 0 0 0 20:22 02.08.2019
4089 Clouds 26 1016 33 10000 5.1 190 19:49 02.08.2019
4090 Clouds 27 1016 33 10000 5.1 190 19:29 02.08.2019
4091 Clouds 27 1016 33 10000 6.2 190 18:47 02.08.2019
4092 Clouds 28 1016 33 10000 6.2 190 18:29 02.08.2019
4093 Clouds 28 1016 33 10000 6.2 190 17:56 02.08.2019
4094 Clouds 29 1016 31 10000 6.7 180 17:38 02.08.2019
4095 Clouds 29 1016 31 10000 6.2 180 17:18 02.08.2019
4096 Clouds 30 1016 29 10000 4.6 190 16:39 02.08.2019
4097 Clouds 30 1016 29 10000 5.7 180 16:20 02.08.2019
4098 Clouds 29 1016 30 10000 6.7 180 15:45 02.08.2019
4099 Clouds 29 1016 33 10000 5.7 190 15:20 02.08.2019
4100 Clouds 29 1016 33 10000 5.7 190 14:57 02.08.2019
4101 Clouds 29 1016 35 10000 6.2 180 14:39 02.08.2019
4102 Clouds 28 1017 35 10000 3.6 180 14:18 02.08.2019
4103 Clouds 27 1017 51 10000 1.5 0 13:42 02.08.2019
4104 Clouds 26 1018 53 10000 2.1 0 13:19 02.08.2019
4105 Clouds 26 1018 50 10000 2.6 170 12:41 02.08.2019
4106 Clouds 25 1018 60 10000 2.6 170 12:19 02.08.2019
4107 Clouds 24 1018 56 10000 1 0 11:40 02.08.2019
4108 Clear 23 1011 58 0 2.15 247.501 11:22 02.08.2019
4109 Clear 23 1011 69 0 2.15 247.501 10:44 02.08.2019
4110 Clear 22 1020 23 0 2.15 247.501 10:24 02.08.2019
4111 Clear 21 1020 31 0 2.15 247.501 09:53 02.08.2019
4112 Clear 20 1020 36 0 2.15 247.501 09:30 02.08.2019
4113 Clouds 17 1019 65 0 0.46 314.825 08:56 02.08.2019
4114 Clouds 16 1019 66 0 0.45 59 08:26 02.08.2019
4115 Clouds 15 1011 82 0 0.46 314.825 07:59 02.08.2019
4116 Clouds 15 1019 65 0 0.46 314.825 07:39 02.08.2019
4117 Clouds 15 1018 66 0 0.46 314.825 07:21 02.08.2019
4118 Clouds 15 1011 81 0 0.46 314.825 06:27 02.08.2019
4119 Rain 16 1019 72 0 0.39 30.637 05:41 02.08.2019
4120 Rain 15 1019 66 0 0.45 31 03:32 02.08.2019
4121 Rain 15 1019 70 0 0.76 3.864 02:37 02.08.2019
4122 Rain 15 1019 78 0 0.44 2.37 01:30 02.08.2019
4123 Clear 17 1011 62 0 0.84 37.707 00:22 02.08.2019
4124 Clear 18 1020 84 0 0.84 37.707 23:44 01.08.2019
4125 Clear 18 1019 79 0 0.84 37.707 23:23 01.08.2019
4126 Clear 16 1019 72 0 0.45 208 22:42 01.08.2019
4127 Clear 16 1019 80 0 0.84 37.707 22:22 01.08.2019
4128 Clear 16 1018 77 0 0.84 37.707 21:55 01.08.2019
4129 Clear 19 1018 76 0 0.84 37.707 21:37 01.08.2019
4130 Clouds 22 1009 48 0 1.68 213.228 21:18 01.08.2019
4131 Clear 24 1009 43 0 0.45 229 20:43 01.08.2019
4132 Clouds 26 1014 30 10000 5.1 210 20:22 01.08.2019
4133 Clouds 27 1014 30 10000 5.1 210 19:45 01.08.2019
4134 Clouds 26 1014 28 10000 5.7 220 19:23 01.08.2019
4135 Clouds 26 1014 28 10000 5.7 220 19:23 01.08.2019
4136 Clouds 26 1014 28 10000 4.6 200 18:55 01.08.2019
4137 Clouds 26 1014 28 10000 4.6 200 18:36 01.08.2019
4138 Clouds 27 1015 27 10000 6.7 210 18:18 01.08.2019
4139 Clouds 27 1015 28 10000 5.1 220 17:44 01.08.2019
4140 Clouds 28 1015 28 10000 5.1 220 17:26 01.08.2019
4141 Clouds 28 1015 33 10000 5.1 220 16:44 01.08.2019
4142 Clouds 27 1015 35 10000 5.7 220 16:22 01.08.2019
4143 Clouds 27 1015 35 10000 6.2 220 15:45 01.08.2019
4144 Clouds 27 1016 39 10000 6.2 220 15:20 01.08.2019
4145 Clouds 27 1016 42 10000 6.7 220 14:44 01.08.2019
4146 Clouds 26 1016 42 10000 5.7 220 14:22 01.08.2019
4147 Clouds 27 1016 42 10000 5.7 220 13:59 01.08.2019
4148 Clouds 27 1016 39 10000 5.1 210 13:40 01.08.2019
4149 Clouds 27 1017 39 10000 5.1 210 13:21 01.08.2019
4150 Clouds 26 1017 50 10000 3.1 230 12:49 01.08.2019
4151 Clear 25 1017 53 10000 1 0 12:28 01.08.2019
4152 Clear 24 1017 53 10000 1 0 11:58 01.08.2019
4153 Clear 24 1017 56 10000 1.5 70 11:40 01.08.2019
4154 Clouds 23 1018 9 0 4.47 225 11:22 01.08.2019
4155 Clouds 22 1011 69 0 2.59 217.776 10:41 01.08.2019
4156 Clouds 21 1011 74 0 2.59 217.776 10:23 01.08.2019
4157 Clouds 20 1018 53 0 1.34 52 09:50 01.08.2019
4158 Clouds 20 1018 53 0 1.34 52 09:50 01.08.2019
4159 Rain 18 1018 51 0 2.68 51 09:24 01.08.2019
4160 Rain 17 1018 52 0 0.86 73.926 08:57 01.08.2019
4161 Rain 16 1018 55 0 0.86 73.926 08:39 01.08.2019
4162 Rain 15 1018 59 0 0.45 89 08:18 01.08.2019
4163 Rain 15 1018 56 0 0.86 73.926 07:42 01.08.2019
4164 Rain 15 1018 56 0 0.86 73.926 07:18 01.08.2019
4165 Rain 15 1012 77 0 0.86 73.926 06:39 01.08.2019
4166 Rain 14 1019 55 0 0.27 88.947 05:32 01.08.2019
4167 Rain 14 1019 55 0 0.27 88.947 05:32 01.08.2019
4168 Clouds 16 1020 54 0 1.34 58 02:36 01.08.2019
4169 Clouds 15 1020 55 0 0.53 95.958 01:41 01.08.2019
4170 Clouds 15 1021 57 0 0.53 95.958 00:27 01.08.2019
4171 Clouds 17 1020 36 0 0.61 87.251 23:59 31.07.2019
4172 Clouds 17 1020 35 0 0.61 87.251 23:41 31.07.2019
4173 Clouds 18 1020 34 0 0.61 87.251 23:20 31.07.2019
4174 Clouds 16 1020 71 0 0.61 87.251 22:45 31.07.2019
4175 Clouds 18 1020 70 0 2.24 192 22:25 31.07.2019
4176 Clouds 18 1011 39 0 0.61 87.251 21:41 31.07.2019
4177 Clouds 21 1020 68 0 2.34 218.446 21:23 31.07.2019
4178 Clouds 22 1013 49 0 0.45 141 20:49 31.07.2019
4179 Clouds 23 1019 9 0 0.89 294 20:24 31.07.2019
4180 Clouds 23 1020 68 0 2.12 207.845 19:55 31.07.2019
4181 Clouds 23 1020 68 0 2.12 207.845 19:37 31.07.2019
4182 Clouds 25 1016 36 0 0.89 326 19:19 31.07.2019
4183 Clouds 24 1020 72 0 2.12 207.845 18:39 31.07.2019
4184 Clouds 25 1019 8 0 1.34 206 18:18 31.07.2019
4185 Clouds 26 1019 8 0 3.13 195 17:45 31.07.2019
4186 Clouds 26 1020 8 0 3.58 187 17:20 31.07.2019
4187 Clouds 26 1019 8 0 2.68 171 16:54 31.07.2019
4188 Clouds 26 1014 32 0 3.99 214.936 16:27 31.07.2019
4189 Clouds 26 1015 34 0 0.89 202 15:58 31.07.2019
4190 Clouds 26 1020 8 0 3.58 176 15:38 31.07.2019
4191 Clouds 26 1020 8 0 3.58 176 15:38 31.07.2019
4192 Clouds 25 1020 8 0 3.58 258 15:20 31.07.2019
4193 Clouds 25 1020 9 0 3.13 221 14:42 31.07.2019
4194 Clouds 25 1020 9 0 4.02 198 14:19 31.07.2019
4195 Clouds 25 1014 40 0 3.85 212.131 13:55 31.07.2019
4196 Clear 25 1020 49 10000 2.6 220 13:36 31.07.2019
4197 Clear 24 1020 49 10000 2.6 220 13:18 31.07.2019
4198 Clear 24 1020 49 10000 2.6 220 13:18 31.07.2019
4199 Clear 23 1020 49 10000 2.6 220 12:40 31.07.2019
4200 Clouds 20 1021 56 10000 1 0 12:21 31.07.2019
4201 Clouds 20 1016 51 0 3.25 210.175 11:39 31.07.2019
4202 Clouds 20 1015 53 0 3.25 210.175 11:20 31.07.2019
4203 Clouds 19 1015 66 0 3.25 210.175 10:45 31.07.2019
4204 Clouds 19 1022 26 0 1.34 250 10:21 31.07.2019
4205 Clouds 18 1022 26 0 1.34 308 09:58 31.07.2019
4206 Clouds 18 1016 63 0 3.25 210.175 09:39 31.07.2019
4207 Clouds 18 1016 63 0 3.25 210.175 09:39 31.07.2019
4208 Clouds 17 1020 68 0 2.24 17 09:21 31.07.2019
4209 Clouds 15 1020 66 0 4.02 52 08:42 31.07.2019
4210 Clouds 15 1020 66 0 2.68 75 08:22 31.07.2019
4211 Clouds 14 1020 64 0 1.79 53 07:40 31.07.2019
4212 Clouds 14 1019 64 0 0.89 35 07:22 31.07.2019
4213 Clouds 14 1014 83 0 0.22 155.665 04:56 31.07.2019
4214 Clouds 14 1014 80 0 0.22 155.665 03:29 31.07.2019
4215 Clouds 16 1014 72 0 2.52 26.016 00:24 31.07.2019
4216 Clouds 17 1014 70 0 2.52 26.016 23:40 30.07.2019
4217 Clouds 16 1014 68 0 2.52 26.016 23:20 30.07.2019
4218 Clouds 16 1023 26 0 1.34 179 22:46 30.07.2019
4219 Clouds 16 1023 26 0 1.34 179 22:46 30.07.2019
4220 Clouds 15 1020 87 0 2.52 26.016 22:25 30.07.2019
4221 Clouds 15 1020 88 0 0.45 236 21:56 30.07.2019
4222 Clouds 15 1019 88 0 2.52 26.016 21:36 30.07.2019
4223 Clear 20 1022 25 0 1.34 223 21:18 30.07.2019
4224 Clouds 21 1011 39 0 0.89 158 20:42 30.07.2019
4225 Clouds 21 1011 40 0 1.79 113 20:23 30.07.2019
4226 Clouds 22 1011 43 0 1.34 176 19:58 30.07.2019
4227 Clouds 21 1018 85 0 2.31 249.144 19:38 30.07.2019
4228 Clouds 21 1018 88 0 2.31 249.144 18:56 30.07.2019
4229 Clouds 21 1018 86 0 0.45 197 18:38 30.07.2019
4230 Clear 24 1010 38 0 1.34 252 18:18 30.07.2019
4231 Clear 24 1010 39 0 0.89 181 17:41 30.07.2019
4232 Clear 24 1012 33 0 5.76 214.868 17:19 30.07.2019
4233 Clear 24 1010 39 0 5.76 214.868 16:51 30.07.2019
4234 Clear 23 1018 78 0 5.76 214.868 16:21 30.07.2019
4235 Clear 23 1011 35 0 0.89 225 15:56 30.07.2019
4236 Clear 22 1018 81 0 0.89 203 15:37 30.07.2019
4237 Rain 23 1011 40 0 5.96 212.282 15:18 30.07.2019
4238 Rain 23 1011 43 0 0.45 309 14:41 30.07.2019
4239 Rain 23 1011 42 0 1.34 230 14:19 30.07.2019
4240 Rain 23 1011 49 0 0.45 201 13:46 30.07.2019
4241 Clear 23 1011 54 0 1.34 150 13:28 30.07.2019
4242 Clear 23 1011 58 0 0.45 280 12:58 30.07.2019
4243 Clear 22 1011 59 0 6.01 213.428 12:39 30.07.2019
4244 Rain 21 1011 60 0 3.31 207.425 12:21 30.07.2019
4245 Rain 22 1010 57 0 0.45 155 11:39 30.07.2019
4246 Rain 21 1020 20 0 1.34 325 11:20 30.07.2019
4247 Rain 21 1020 20 0 1.34 325 11:20 30.07.2019
4248 Clear 21 1011 61 0 0.45 160 10:46 30.07.2019
4249 Clear 21 1011 64 0 0.89 162 10:26 30.07.2019
4250 Clear 20 1011 71 0 3.62 210.177 09:50 30.07.2019
4251 Clear 19 1011 71 0 3.62 210.177 09:31 30.07.2019
4252 Clouds 17 1011 70 0 1.47 55.64 08:49 30.07.2019
4253 Clouds 17 1010 67 0 1.47 55.64 08:31 30.07.2019
4254 Clouds 17 1010 71 0 1.47 55.64 07:47 30.07.2019
4255 Clouds 16 1010 74 0 1.47 55.64 07:28 30.07.2019
4256 Clouds 15 1016 81 0 1.47 55.64 06:48 30.07.2019
4257 Clouds 16 1016 83 0 1.05 85.938 05:56 30.07.2019
4258 Clouds 16 1017 84 0 1.05 85.938 05:32 30.07.2019
4259 Clear 18 1018 35 0 1.13 76.727 01:41 30.07.2019
4260 Clear 18 1015 54 0 1.13 65.463 00:45 30.07.2019
4261 Clear 19 1010 60 0 3.11 40.376 00:20 30.07.2019
4262 Clear 19 1010 59 0 3.11 40.376 23:44 29.07.2019
4263 Clear 20 1010 61 0 3.11 40.376 23:26 29.07.2019
4264 Clear 20 1010 61 0 3.11 40.376 23:26 29.07.2019
4265 Clear 11 1013 83 0 3.11 40.376 22:57 29.07.2019
4266 Clear 18 1017 68 0 3.11 40.376 22:38 29.07.2019
4267 Clear 19 1017 68 0 3.11 40.376 22:20 29.07.2019
4268 Clear 19 1017 68 0 3.11 40.376 21:55 29.07.2019
4269 Clear 13 1017 66 0 3.11 40.376 21:37 29.07.2019
4270 Clear 24 1009 48 0 0.89 188 21:18 29.07.2019
4271 Clear 25 1008 38 0 0.71 259.084 20:45 29.07.2019
4272 Clear 26 1014 7 0 1.34 192 20:23 29.07.2019
4273 Clear 27 1013 6 0 2.68 205 19:55 29.07.2019
4274 Clear 29 1012 25 10000 5.7 200 19:36 29.07.2019
4275 Clear 29 1012 25 10000 5.7 200 19:18 29.07.2019
4276 Clear 29 1012 25 10000 5.7 200 18:41 29.07.2019
4277 Clear 29 1012 25 10000 5.1 200 18:21 29.07.2019
4278 Clear 30 1012 25 10000 4.1 200 17:50 29.07.2019
4279 Clear 29 1012 25 10000 4.1 200 17:32 29.07.2019
4280 Clear 29 1012 25 10000 3.6 190 16:58 29.07.2019
4281 Clear 29 1012 25 10000 3.6 190 16:58 29.07.2019
4282 Clear 29 1012 25 10000 3.6 200 16:39 29.07.2019
4283 Clear 30 1013 23 10000 4.1 200 16:20 29.07.2019
4284 Clear 29 1013 23 10000 4.6 210 15:50 29.07.2019
4285 Clear 29 1013 23 10000 4.6 210 15:30 29.07.2019
4286 Clear 28 1013 24 10000 3.6 210 14:45 29.07.2019
4287 Clear 28 1013 28 10000 2.6 220 14:21 29.07.2019
4288 Clear 28 1013 28 10000 2.6 220 14:21 29.07.2019
4289 Clear 27 1013 33 10000 1 0 13:57 29.07.2019
4290 Clear 27 1013 33 10000 1 0 13:36 29.07.2019
4291 Clear 26 1013 36 10000 1 0 13:18 29.07.2019
4292 Clear 25 1014 43 10000 1 0 12:41 29.07.2019
4293 Clear 24 1014 49 10000 1.5 0 12:21 29.07.2019
4294 -273 0 0 0 0 0 11:42 29.07.2019
4295 Clear 22 1009 54 0 1.58 240.246 11:21 29.07.2019
4296 Clear 21 1008 56 0 1.58 240.246 10:45 29.07.2019
4297 Clear 20 1009 57 0 1.58 240.246 10:23 29.07.2019
4298 Clear 18 1014 25 0 1.58 240.246 09:45 29.07.2019
4299 Clear 16 1013 54 0 0.45 177 09:25 29.07.2019
4300 Clear 15 1009 79 0 1.43 3.702 08:56 29.07.2019
4301 Clear 14 1009 77 0 1.43 3.702 08:27 29.07.2019
4302 Clear 12 1013 55 0 1.43 3.702 07:55 29.07.2019
4303 Clear 12 1009 82 0 1.43 3.702 07:32 29.07.2019
4304 Clear 12 1009 80 0 1.43 3.702 06:43 29.07.2019
4305 Clear 12 1012 63 0 0.45 46 05:38 29.07.2019
4306 Clear 13 1012 76 0 3.13 66 04:24 29.07.2019
4307 Clear 15 1014 39 0 0.54 106.576 01:53 29.07.2019
4308 Clear 15 1013 81 0 0.54 106.576 01:35 29.07.2019
4309 Clear 15 1013 78 0 0.53 111.841 00:59 29.07.2019
4310 Clear 16 1014 32 0 0.53 111.841 00:30 29.07.2019
4311 Clear 18 1015 28 0 0.75 22.112 23:45 28.07.2019
4312 Clear 18 1015 27 0 0.75 22.112 23:26 28.07.2019
4313 Clear 17 1003 35 0 0.75 22.112 22:46 28.07.2019
4314 Clear 17 1003 36 0 0.75 22.112 22:28 28.07.2019
4315 Clear 17 1003 35 0 0.75 22.112 21:56 28.07.2019
4316 Clear 17 1003 35 0 0.75 22.112 21:56 28.07.2019
4317 Clear 17 1003 36 0 0.75 22.112 21:37 28.07.2019
4318 Clear 20 1008 46 0 0.45 136 21:18 28.07.2019
4319 Clear 21 1014 13 0 1.53 239.249 20:42 28.07.2019
4320 Clouds 22 1010 36 10000 5.7 220 20:24 28.07.2019
4321 Clouds 22 1010 36 10000 5.7 220 19:41 28.07.2019
4322 Clouds 24 1010 33 10000 5.7 210 19:21 28.07.2019
4323 Clouds 24 1010 34 10000 5.1 210 18:46 28.07.2019
4324 Clouds 24 1010 31 10000 5.7 210 18:27 28.07.2019
4325 Clouds 25 1010 34 10000 5.7 210 17:56 28.07.2019
4326 Clouds 25 1010 34 10000 5.7 210 17:38 28.07.2019
4327 Clouds 25 1010 34 10000 5.7 220 17:19 28.07.2019
4328 Clouds 25 1010 31 10000 5.7 220 16:42 28.07.2019
4329 Clouds 25 1010 31 10000 5.7 220 16:24 28.07.2019
4330 Clouds 24 1011 25 10000 2.6 150 15:48 28.07.2019
4331 Clouds 24 1011 25 10000 2.6 150 15:27 28.07.2019
4332 Clear 24 1011 27 10000 1.5 140 14:41 28.07.2019
4333 Clear 24 1011 28 10000 3.1 110 14:21 28.07.2019
4334 Clear 24 1011 28 10000 3.1 110 14:00 28.07.2019
4335 Clear 23 1011 33 10000 3.6 120 13:39 28.07.2019
4336 Clear 23 1012 33 10000 3.1 100 13:19 28.07.2019
4337 Clear 22 1012 32 10000 1.5 0 12:43 28.07.2019
4338 Clear 21 1012 32 10000 1.5 0 12:25 28.07.2019
4339 Clear 20 1012 45 10000 2.6 50 11:50 28.07.2019
4340 Clear 20 1012 45 10000 2.6 50 11:29 28.07.2019
4341 Clouds 19 1010 54 0 2.6 5.579 10:58 28.07.2019
4342 Clouds 19 1009 66 0 1.79 157 10:38 28.07.2019
4343 Clouds 19 1008 44 0 0.89 316 10:18 28.07.2019
4344 Clouds 16 1015 44 0 2.6 5.579 09:40 28.07.2019
4345 Clouds 14 1009 68 0 3.79 9.089 09:20 28.07.2019
4346 Clouds 14 1009 68 0 3.78 5.471 08:42 28.07.2019
4347 Clouds 13 1009 73 0 3.78 5.471 08:21 28.07.2019
4348 Clouds 12 1009 73 0 3.78 5.471 07:40 28.07.2019
4349 Clouds 11 1008 75 0 3.78 5.471 07:21 28.07.2019
4350 Clouds 11 1008 72 0 3.78 5.471 06:33 28.07.2019
4351 Clouds 12 1007 74 0 3.46 2.633 05:19 28.07.2019
4352 Rain 13 1007 87 0 3.74 0.092 02:37 28.07.2019
4353 Clouds 13 1006 85 0 3.75 0.901 01:32 28.07.2019
4354 Clouds 13 1006 89 0 3.75 0.901 00:52 28.07.2019
4355 Rain 13 1006 91 0 4 3.928 00:25 28.07.2019
4356 Rain 14 1006 91 0 0.45 167 23:52 27.07.2019
4357 Rain 14 1012 49 0 4 3.928 23:27 27.07.2019
4358 Rain 13 1005 93 0 4 3.928 22:44 27.07.2019
4359 Rain 14 1012 34 0 4.47 343 22:26 27.07.2019
4360 Rain 14 1011 64 0 0.89 306 21:47 27.07.2019
4361 Rain 15 1003 92 0 3.03 5.921 21:23 27.07.2019
4362 Rain 16 1003 92 0 3.42 5.122 20:56 27.07.2019
4363 Rain 16 1006 59 10000 5.7 340 20:37 27.07.2019
4364 Rain 16 1006 59 10000 5.7 340 20:19 27.07.2019
4365 Rain 16 1006 59 10000 5.7 340 19:39 27.07.2019
4366 Thunderstorm 17 1006 49 10000 7.2 310 19:21 27.07.2019
4367 Thunderstorm 18 1005 49 10000 5.7 220 18:46 27.07.2019
4368 Thunderstorm 18 1005 49 10000 5.7 220 18:28 27.07.2019
4369 Clouds 18 1005 53 10000 3.1 220 17:50 27.07.2019
4370 Clouds 18 1005 53 10000 3.1 220 17:32 27.07.2019
4371 Clouds 19 1006 56 10000 1.5 0 16:55 27.07.2019
4372 Clouds 19 1006 56 10000 1.5 0 16:37 27.07.2019
4373 Clouds 19 1007 60 10000 1.5 0 15:56 27.07.2019
4374 Clouds 19 1007 68 10000 1.5 130 15:36 27.07.2019
4375 Clouds 18 1007 77 10000 1.5 0 15:18 27.07.2019
4376 Clouds 18 1008 88 10000 1.5 0 14:41 27.07.2019
4377 Clouds 17 1009 100 10000 1 0 14:23 27.07.2019
4378 Fog 17 1009 100 10000 1 0 13:46 27.07.2019
4379 Rain 17 1009 100 8000 1.5 260 13:22 27.07.2019
4380 Rain 16 1009 100 7000 1 200 12:50 27.07.2019
4381 Rain 15 1009 100 7000 1 200 12:27 27.07.2019
4382 Rain 16 1010 100 4600 2.6 240 11:54 27.07.2019
4383 Rain 16 1010 100 4600 2.6 240 11:36 27.07.2019
4384 Rain 16 1002 95 0 3.19 210.193 11:18 27.07.2019
4385 Rain 16 1008 79 0 3.19 210.193 10:40 27.07.2019
4386 Rain 16 1008 83 0 3.19 210.193 10:20 27.07.2019
4387 Rain 16 1003 93 0 3.19 210.193 09:40 27.07.2019
4388 Clouds 15 1008 92 0 0.94 140.788 09:22 27.07.2019
4389 Clouds 15 1003 91 0 1.02 141.938 08:47 27.07.2019
4390 Clouds 16 1008 77 0 1.02 141.938 08:27 27.07.2019
4391 Clouds 16 1002 74 0 1.02 141.938 07:47 27.07.2019
4392 Clouds 16 1009 68 0 1.02 141.938 07:27 27.07.2019
4393 Clouds 16 1003 72 0 1.02 141.938 06:55 27.07.2019
4394 Clouds 16 1009 68 0 0.45 23 06:29 27.07.2019
4395 Clouds 16 1010 68 0 0.45 46 05:43 27.07.2019
4396 Clouds 16 1012 37 0 0.86 61.998 04:59 27.07.2019
4397 Clouds 16 1011 63 0 0.86 61.998 04:21 27.07.2019
4398 Rain 17 1012 62 0 1.16 30.871 02:44 27.07.2019
4399 Rain 17 1012 63 0 0.89 48 02:25 27.07.2019
4400 Rain 16 1009 76 0 3.13 67 01:42 27.07.2019
4401 Clouds 17 1011 75 0 1.34 270 00:57 27.07.2019
4402 Clouds 16 1013 77 0 0.87 41.155 00:31 27.07.2019
4403 Rain 18 1014 66 0 2.02 25.204 23:51 26.07.2019
4404 Rain 18 1014 64 0 2.02 25.204 23:29 26.07.2019
4405 Rain 18 1014 32 0 2.02 25.204 22:45 26.07.2019
4406 Rain 18 1014 32 0 2.02 25.204 22:26 26.07.2019
4407 Rain 19 1014 32 0 2.02 25.204 21:58 26.07.2019
4408 Rain 19 1014 32 0 0.45 315 21:58 26.07.2019
4409 Rain 19 1014 27 0 2.02 25.204 21:37 26.07.2019
4410 Rain 21 1006 60 0 1.39 80.416 21:18 26.07.2019
4411 Clouds 22 1013 60 10000 2.6 40 20:41 26.07.2019
4412 Clouds 22 1013 60 10000 2.6 40 20:21 26.07.2019
4413 Clouds 22 1013 60 10000 2.6 40 19:42 26.07.2019
4414 Rain 22 1014 56 10000 1 0 19:23 26.07.2019
4415 Rain 22 1014 41 10000 4.1 240 18:46 26.07.2019
4416 Clouds 23 1014 34 10000 7.2 250 18:22 26.07.2019
4417 Clouds 23 1014 34 10000 7.2 250 17:58 26.07.2019
4418 Clouds 22 1014 32 10000 5.7 260 17:39 26.07.2019
4419 Rain 21 1016 66 0 5.46 246.395 17:18 26.07.2019
4420 Clouds 22 1014 32 10000 3.1 260 16:55 26.07.2019
4421 Clouds 23 1014 32 10000 3.1 260 16:37 26.07.2019
4422 Clear 23 1014 30 10000 5.1 220 16:18 26.07.2019
4423 Clear 24 1014 28 10000 4.1 190 15:45 26.07.2019
4424 Clear 25 1014 28 10000 5.7 200 15:22 26.07.2019
4425 Clear 24 1014 30 10000 6.2 210 14:54 26.07.2019
4426 Clear 24 1014 30 10000 6.2 210 14:36 26.07.2019
4427 Clear 25 1014 30 10000 6.2 220 14:18 26.07.2019
4428 Clear 27 1014 30 10000 6.2 220 13:37 26.07.2019
4429 Clear 26 1014 34 10000 5.1 220 13:19 26.07.2019
4430 Clouds 25 1015 41 10000 1 0 12:42 26.07.2019
4431 Clouds 25 1015 39 10000 1.5 110 12:19 26.07.2019
4432 Clouds 24 1015 41 10000 0.5 0 11:39 26.07.2019
4433 Clouds 24 1017 53 0 2.96 195.357 11:19 26.07.2019
4434 Clouds 24 1008 72 0 2.96 195.357 10:49 26.07.2019
4435 Clouds 23 1016 22 0 2.96 195.357 10:31 26.07.2019
4436 Clouds 22 1017 50 0 1.79 59 09:54 26.07.2019
4437 Clouds 21 1017 48 0 2.96 195.357 09:34 26.07.2019
4438 Clouds 19 1017 48 0 0.45 84 08:43 26.07.2019
4439 Clouds 19 1017 49 0 0.65 159.911 08:22 26.07.2019
4440 Clouds 18 1017 46 0 0.45 14 07:57 26.07.2019
4441 Clouds 18 1008 67 0 0.65 159.911 07:27 26.07.2019
4442 Clouds 18 1017 45 0 0.65 159.911 06:41 26.07.2019
4443 Clear 18 1018 40 0 0.56 172.087 05:19 26.07.2019
4444 Clear 18 1018 35 0 0.56 172.087 04:21 26.07.2019
4445 Clear 19 1019 37 0 0.45 38 02:39 26.07.2019
4446 Clear 19 1020 46 0 0.89 73 01:35 26.07.2019
4447 Clear 19 1020 49 0 1.79 31 00:39 26.07.2019
4448 Clear 22 1020 46 0 0.89 76 23:55 25.07.2019
4449 Clear 22 1021 48 0 1.79 69 23:23 25.07.2019
4450 Clear 20 1021 48 0 1.79 42 22:55 25.07.2019
4451 Clear 22 1021 45 0 1.34 46 22:36 25.07.2019
4452 Clear 23 1021 49 0 1.79 30 22:18 25.07.2019
4453 Clear 24 1020 47 0 1.79 113 21:41 25.07.2019
4454 Clear 26 1020 52 0 2.24 41 21:21 25.07.2019
4455 Clouds 28 1009 37 0 0.45 139 20:45 25.07.2019
4456 Clouds 29 1015 27 10000 6.7 210 20:22 25.07.2019
4457 Clouds 29 1015 27 10000 6.7 210 20:22 25.07.2019
4458 Clouds 31 1015 27 10000 6.7 210 19:42 25.07.2019
4459 Clouds 32 1015 24 10000 6.7 220 19:24 25.07.2019
4460 Clouds 31 1015 20 10000 6.2 210 18:46 25.07.2019
4461 Clouds 32 1015 20 10000 6.2 210 18:27 25.07.2019
4462 Clouds 33 1015 18 10000 6.7 210 17:57 25.07.2019
4463 Clouds 33 1016 17 10000 6.2 210 17:38 25.07.2019
4464 Clouds 33 1016 17 10000 6.2 210 17:38 25.07.2019
4465 Clouds 34 1016 16 10000 6.2 200 17:20 25.07.2019
4466 Clouds 34 1016 16 10000 6.7 210 16:42 25.07.2019
4467 Clouds 33 1016 18 10000 6.2 200 16:22 25.07.2019
4468 Clouds 34 1017 18 10000 7.2 210 15:51 25.07.2019
4469 Clouds 34 1017 18 10000 6.7 210 15:21 25.07.2019
4470 Clouds 33 1017 18 10000 6.2 200 14:44 25.07.2019
4471 Clouds 33 1017 22 10000 6.7 200 14:25 25.07.2019
4472 Clouds 33 1017 22 10000 6.7 200 13:59 25.07.2019
4473 Clouds 33 1017 25 10000 4.1 220 13:40 25.07.2019
4474 Clear 33 1018 35 10000 1.5 230 13:22 25.07.2019
4475 Clear 31 1018 37 10000 1 0 12:35 25.07.2019
4476 Clear 30 1018 42 10000 1 0 11:59 25.07.2019
4477 Clear 29 1019 44 10000 1 0 11:40 25.07.2019
4478 Clear 29 1019 44 10000 1 0 11:40 25.07.2019
4479 Clear 28 1010 40 0 2.6 217.315 11:22 25.07.2019
4480 Clear 27 1010 51 0 2.6 217.315 10:45 25.07.2019
4481 Clear 26 1011 43 0 0.45 58 10:24 25.07.2019
4482 Clear 24 1016 10 0 2.6 217.315 09:46 25.07.2019
4483 Clear 22 1021 39 0 2.24 69 09:27 25.07.2019
4484 Clear 21 1021 38 0 2.24 87 08:49 25.07.2019
4485 Clear 20 1021 39 0 2.68 65 08:29 25.07.2019
4486 Clear 18 1021 41 0 2.24 18 07:39 25.07.2019
4487 Clear 18 1011 63 0 0.21 360 06:45 25.07.2019
4488 Clear 18 1021 40 0 1.34 65 06:19 25.07.2019
4489 Clear 19 1011 63 0 0.72 42.005 05:32 25.07.2019
4490 Clear 19 1022 41 0 0.89 45 04:44 25.07.2019
4491 Clear 20 1023 45 0 1.34 55 02:24 25.07.2019
4492 Clear 20 1023 47 0 0.89 75 01:21 25.07.2019
4493 Clouds 22 1024 46 0 1.34 59 00:23 25.07.2019
4494 Clouds 22 1024 49 0 1.79 65 23:53 24.07.2019
4495 Clouds 22 1012 52 0 1.01 64.524 23:32 24.07.2019
4496 Clouds 22 1012 52 0 1.01 64.524 23:32 24.07.2019
4497 Clouds 21 1024 53 0 2.24 56 22:58 24.07.2019
4498 Clouds 21 1024 51 0 1.01 64.524 22:40 24.07.2019
4499 Clouds 22 1024 51 0 1.34 48 22:21 24.07.2019
4500 Clouds 23 1024 50 0 1.01 64.524 21:44 24.07.2019
4501 Clouds 26 1023 49 0 0.45 38 21:23 24.07.2019
4502 Clouds 27 1023 46 0 0.89 42 20:59 24.07.2019
4503 Clouds 28 1023 42 0 2.72 214.076 20:39 24.07.2019
4504 Clouds 28 1023 41 0 2.72 214.076 20:20 24.07.2019
4505 Clouds 28 1023 46 0 2.72 214.076 19:55 24.07.2019
4506 Clouds 28 1023 49 0 2.72 214.076 19:36 24.07.2019
4507 Clouds 30 1011 32 0 1.34 139 19:18 24.07.2019
4508 Clouds 28 1024 54 0 2.72 214.076 18:41 24.07.2019
4509 Clouds 32 1010 21 0 1.34 70 18:23 24.07.2019
4510 Clouds 32 1018 10 0 1.34 34 17:43 24.07.2019
4511 Clouds 32 1024 52 0 3.34 225.049 17:20 24.07.2019
4512 Clouds 31 1024 47 0 3.34 225.049 16:42 24.07.2019
4513 Clouds 32 1024 35 0 3.34 225.049 16:22 24.07.2019
4514 Clouds 36 1016 26 0 1.79 180 15:41 24.07.2019
4515 Clear 35 1011 19 0 1.34 114 15:23 24.07.2019
4516 Clear 34 1015 27 0 3.19 218.253 14:57 24.07.2019
4517 Clear 34 1011 20 0 1.34 4 14:38 24.07.2019
4518 Clear 34 1011 20 0 1.34 4 14:38 24.07.2019
4519 Clear 34 1011 20 0 1.34 4 14:38 24.07.2019
4520 Clear 34 1011 20 0 1.34 4 14:38 24.07.2019
4521 Clear 34 1011 20 0 0.89 152 14:19 24.07.2019
4522 Clear 33 1011 21 0 0.89 15 13:37 24.07.2019
4523 Clear 33 1012 21 0 0.89 139 13:18 24.07.2019
4524 Clear 33 1012 20 0 1.34 142 12:50 24.07.2019
4525 Clear 31 1012 23 0 3.08 214.361 12:30 24.07.2019
4526 Clear 30 1012 33 0 1.96 210.463 11:39 24.07.2019
4527 Clear 29 1012 35 0 1.96 210.463 11:20 24.07.2019
4528 Clear 28 1012 35 0 0.45 80 10:44 24.07.2019
4529 Clear 27 1019 7 0 1.96 210.463 10:25 24.07.2019
4530 Clear 24 1017 49 0 1.96 210.463 09:45 24.07.2019
4531 Clouds 23 1013 54 0 1.34 44.243 09:25 24.07.2019
4532 Clouds 21 1024 41 0 1.34 44.243 08:57 24.07.2019
4533 Clear 20 1024 40 0 1.23 34.542 08:30 24.07.2019
4534 Clear 20 1024 38 0 1.23 34.542 07:51 24.07.2019
4535 Clear 19 1024 39 0 1.23 34.542 07:24 24.07.2019
4536 Clear 19 1013 52 0 1.23 34.542 06:29 24.07.2019
4537 Clear 19 1024 38 0 0.45 48 05:40 24.07.2019
4538 Clouds 21 1025 37 0 0.92 15.403 02:45 24.07.2019
4539 Clouds 22 1025 35 0 0.94 22.287 01:29 24.07.2019
4540 Clouds 21 1025 35 0 0.94 22.287 00:57 24.07.2019
4541 Clouds 21 1025 35 0 0.94 22.287 00:57 24.07.2019
4542 Clouds 21 1025 35 0 0.94 22.287 00:57 24.07.2019
4543 Clouds 22 1026 37 0 1.34 56 00:22 24.07.2019
4544 Clouds 22 1026 38 0 0.45 14 23:42 23.07.2019
4545 Clouds 23 1026 37 0 1.79 42 23:23 23.07.2019
4546 Clouds 24 1026 43 0 1.02 68.261 22:39 23.07.2019
4547 Clouds 24 1025 42 0 1.02 68.261 22:19 23.07.2019
4548 Clouds 26 1025 42 0 1.02 68.261 21:58 23.07.2019
4549 Clouds 23 1025 45 0 1.02 68.261 21:40 23.07.2019
4550 Clouds 27 1013 24 0 1.01 230.398 21:21 23.07.2019
4551 Clouds 30 1012 21 0 0.45 77 20:44 23.07.2019
4552 Clouds 29 1025 40 0 1.44 221.388 20:21 23.07.2019
4553 Clouds 30 1025 46 0 1.44 221.388 19:42 23.07.2019
4554 Clouds 31 1025 54 0 1.44 221.388 19:19 23.07.2019
4555 Clouds 30 1025 56 0 1.44 221.388 18:47 23.07.2019
4556 Clouds 34 1012 19 0 0.89 174 18:23 23.07.2019
4557 Clouds 34 1018 3 0 2.79 229.608 17:44 23.07.2019
4558 Clouds 35 1018 3 0 2.79 229.608 17:25 23.07.2019
4559 Clouds 33 1026 48 0 2.79 229.608 16:51 23.07.2019
4560 Clouds 35 1019 2 0 2.79 229.608 16:28 23.07.2019
4561 Clouds 36 1019 3 0 2.79 229.608 15:59 23.07.2019
4562 Clouds 36 1013 20 0 1.34 245 15:40 23.07.2019
4563 Clear 36 1020 21 0 0.89 250 15:21 23.07.2019
4564 Clear 36 1019 2 0 2.68 213 14:38 23.07.2019
4565 Clear 35 1017 19 0 6.71 225 14:19 23.07.2019
4566 Clear 35 1014 24 0 0.45 120 13:56 23.07.2019
4567 Clear 35 1014 24 0 0.45 120 13:56 23.07.2019
4568 Clear 34 1014 26 0 0.45 148 13:38 23.07.2019
4569 Clear 33 1014 24 0 1.79 212 13:20 23.07.2019
4570 Clear 32 1014 22 0 0.45 333 12:44 23.07.2019
4571 Clear 32 1014 30 0 2.55 219.185 12:25 23.07.2019
4572 Clear 31 1015 35 0 2.55 219.185 11:45 23.07.2019
4573 Clear 30 1020 5 0 1.34 160 11:26 23.07.2019
4574 Clear 28 1015 36 0 0.45 262 10:52 23.07.2019
4575 Clear 27 1021 7 0 2.55 219.185 10:28 23.07.2019
4576 Clear 24 1021 10 0 2.55 219.185 09:44 23.07.2019
4577 Clouds 22 1026 40 0 0.89 76 09:24 23.07.2019
4578 Clouds 21 1026 39 0 0.58 49.839 08:57 23.07.2019
4579 Clouds 20 1026 38 0 1.34 79 08:38 23.07.2019
4580 Clouds 19 1016 55 0 0.58 49.839 08:19 23.07.2019
4581 Clouds 19 1026 38 0 0.89 28 07:50 23.07.2019
4582 Clouds 19 1016 52 0 0.58 49.839 07:32 23.07.2019
4583 Clouds 18 1026 38 0 1.79 55 06:38 23.07.2019
4584 Clouds 18 1016 53 0 0.89 40.286 05:34 23.07.2019
4585 Clouds 20 1028 42 0 2.68 60 01:57 23.07.2019
4586 Clouds 20 1028 41 0 0.45 58 01:20 23.07.2019
4587 Clouds 21 1028 40 0 1.79 44 00:27 23.07.2019
4588 Clouds 22 1029 45 0 2.24 83 23:40 22.07.2019
4589 Clouds 22 1029 41 0 1.79 69 23:21 22.07.2019
4590 Clouds 22 1029 42 0 0.8 54.146 22:46 22.07.2019
4591 Clouds 23 1029 47 0 0.89 58 22:27 22.07.2019
4592 Clouds 23 1029 49 0 0.89 55 21:58 22.07.2019
4593 Clouds 24 1029 55 0 0.8 54.146 21:40 22.07.2019
4594 Clouds 27 1016 27 0 2.05 223.477 21:20 22.07.2019
4595 Clouds 29 1016 23 0 2.32 221.884 20:44 22.07.2019
4596 Clouds 30 1022 16 10000 6.7 200 20:23 22.07.2019
4597 Clouds 31 1022 16 10000 6.7 200 19:43 22.07.2019
4598 Clouds 32 1022 18 10000 7.2 210 19:24 22.07.2019
4599 Clouds 30 1022 18 10000 7.2 210 18:55 22.07.2019
4600 Clouds 30 1023 19 10000 6.2 200 18:37 22.07.2019
4601 Clouds 33 1023 19 10000 6.7 200 18:19 22.07.2019
4602 Clouds 33 1023 20 10000 6.2 210 17:39 22.07.2019
4603 Clouds 34 1023 19 10000 6.7 200 17:20 22.07.2019
4604 Clouds 34 1023 19 10000 6.7 200 17:20 22.07.2019
4605 Clouds 34 1023 20 10000 6.2 200 16:41 22.07.2019
4606 Clouds 35 1023 20 10000 4.6 210 16:21 22.07.2019
4607 Clouds 35 1024 20 10000 4.6 210 15:55 22.07.2019
4608 Clouds 34 1024 20 10000 4.6 210 15:36 22.07.2019
4609 Clouds 35 1024 21 10000 4.1 220 15:18 22.07.2019
4610 Clouds 34 1024 21 10000 3.6 220 14:42 22.07.2019
4611 Clouds 33 1025 26 10000 2.1 190 14:19 22.07.2019
4612 Clear 32 1025 33 10000 1 0 13:45 22.07.2019
4613 Clear 32 1025 35 10000 1.5 140 13:22 22.07.2019
4614 Clear 31 1026 37 10000 1 0 12:44 22.07.2019
4615 Clouds 30 1018 35 0 2.28 209.177 12:23 22.07.2019
4616 Clear 29 1027 47 10000 0.5 0 11:44 22.07.2019
4617 Clear 28 1024 9 0 2.24 180 11:20 22.07.2019
4618 Clear 27 1025 13 0 2.21 208.77 10:43 22.07.2019
4619 Clear 26 1025 18 0 2.21 208.77 10:25 22.07.2019
4620 Clear 24 1023 56 0 1.79 90 09:43 22.07.2019
4621 Clouds 22 1029 45 0 0.89 69 09:24 22.07.2019
4622 Clouds 20 1029 43 0 1.34 66 08:44 22.07.2019
4623 Clouds 19 1029 44 0 1.79 45 08:25 22.07.2019
4624 Clouds 18 1029 44 0 1.79 70 07:54 22.07.2019
4625 Clouds 18 1029 43 0 2.24 51 07:32 22.07.2019
4626 Clouds 18 1029 45 0 2.24 68 06:42 22.07.2019
4627 Clouds 19 1029 49 0 1.34 63 03:50 22.07.2019
4628 Clouds 20 1029 51 0 0.85 49.53 01:51 22.07.2019
4629 Clouds 20 1026 37 0 1.09 58.303 00:50 22.07.2019
4630 Clouds 21 1029 52 0 0.66 66.881 00:24 22.07.2019
4631 Clouds 21 1029 57 0 0.66 66.881 23:54 21.07.2019
4632 Clouds 21 1029 60 0 0.66 66.881 23:26 21.07.2019
4633 Clouds 22 1025 35 0 0.66 66.881 22:41 21.07.2019
4634 Clouds 23 1025 34 0 0.66 66.881 22:21 21.07.2019
4635 Clouds 24 1024 33 0 0.66 66.881 21:56 21.07.2019
4636 Clouds 24 1024 34 0 0.66 66.881 21:36 21.07.2019
4637 Clouds 25 1016 42 0 1.29 231.444 21:18 21.07.2019
4638 Clouds 26 1028 56 0 1.46 238.942 20:41 21.07.2019
4639 Clear 27 1022 25 10000 5.1 210 20:23 21.07.2019
4640 Clear 26 1022 25 10000 5.1 210 19:53 21.07.2019
4641 Clear 28 1022 25 10000 5.1 210 19:29 21.07.2019
4642 Clouds 28 1022 24 10000 5.7 210 18:56 21.07.2019
4643 Clouds 28 1022 24 10000 4.6 210 18:37 21.07.2019
4644 Clouds 28 1022 24 10000 4.6 210 18:37 21.07.2019
4645 Clouds 30 1022 24 10000 5.7 200 18:19 21.07.2019
4646 Clear 29 1022 24 10000 5.1 200 17:40 21.07.2019
4647 Clouds 29 1022 24 10000 5.7 210 17:19 21.07.2019
4648 Clouds 33 1022 26 10000 6.7 210 16:42 21.07.2019
4649 Clouds 32 1022 26 10000 6.7 210 16:24 21.07.2019
4650 Clear 31 1023 27 10000 6.2 210 15:45 21.07.2019
4651 Clear 31 1023 27 10000 5.1 210 15:24 21.07.2019
4652 Clear 31 1023 27 10000 5.1 210 14:54 21.07.2019
4653 Clear 30 1024 29 10000 4.1 220 14:25 21.07.2019
4654 Clear 30 1024 29 10000 4.1 220 13:59 21.07.2019
4655 Clear 29 1024 33 10000 3.1 230 13:39 21.07.2019
4656 Clear 28 1024 35 10000 2.6 230 13:19 21.07.2019
4657 Clear 28 1024 42 10000 1 0 12:40 21.07.2019
4658 Clear 28 1024 42 10000 1 0 12:40 21.07.2019
4659 Clear 27 1024 41 10000 1.5 210 12:21 21.07.2019
4660 Clear 26 1024 50 10000 1.5 160 11:45 21.07.2019
4661 Clear 25 1024 50 10000 1.5 160 11:26 21.07.2019
4662 Clear 24 1017 52 0 2.65 213.996 10:47 21.07.2019
4663 Clear 23 1017 57 0 2.65 213.996 10:25 21.07.2019
4664 Clear 22 1023 32 0 1.34 256 09:55 21.07.2019
4665 Clear 22 1023 36 0 1.34 299 09:35 21.07.2019
4666 Clear 19 1026 52 0 2.24 34 08:49 21.07.2019
4667 Clear 18 1026 54 0 4.02 75 08:29 21.07.2019
4668 Clear 18 1026 55 0 4.92 58 07:53 21.07.2019
4669 Clear 17 1017 64 0 0.7 174.798 07:18 21.07.2019
4670 Clear 18 1025 54 0 2.68 63 06:23 21.07.2019
4671 Clear 18 1025 64 0 1.34 66 03:50 21.07.2019
4672 Clear 19 1025 57 0 0.45 38 01:51 21.07.2019
4673 Clouds 19 1025 59 0 0.89 34 00:44 21.07.2019
4674 Clouds 21 1025 56 0 0.83 63.281 00:20 21.07.2019
4675 Clouds 21 1015 60 0 0.45 142 23:44 20.07.2019
4676 Clouds 21 1025 52 0 0.83 63.281 23:23 20.07.2019
4677 Clouds 23 1022 75 0 2.24 229 22:49 20.07.2019
4678 Clouds 22 1022 75 0 1.34 207 22:23 20.07.2019
4679 Clouds 22 1021 75 0 1.34 201 21:58 20.07.2019
4680 Clouds 23 1021 74 0 0.83 63.281 21:39 20.07.2019
4681 Clouds 25 1018 40 10000 5.1 210 21:21 20.07.2019
4682 Clouds 26 1018 40 10000 5.1 210 20:42 20.07.2019
4683 Clouds 26 1018 40 10000 5.1 210 20:42 20.07.2019
4684 Clouds 27 1018 29 10000 4.1 220 20:21 20.07.2019
4685 Clouds 27 1018 25 10000 5.1 210 19:46 20.07.2019
4686 Clouds 29 1018 27 10000 6.2 210 19:21 20.07.2019
4687 Clouds 29 1018 26 10000 5.7 210 18:44 20.07.2019
4688 Clouds 30 1018 26 10000 5.1 200 18:22 20.07.2019
4689 Clouds 31 1018 26 10000 4.6 200 17:55 20.07.2019
4690 Clouds 30 1018 26 10000 5.1 200 17:25 20.07.2019
4691 Clouds 30 1018 24 10000 5.1 190 16:45 20.07.2019
4692 Clouds 31 1018 24 10000 5.1 190 16:26 20.07.2019
4693 Clouds 31 1019 27 10000 5.1 190 15:58 20.07.2019
4694 Clouds 31 1019 29 10000 5.1 200 15:38 20.07.2019
4695 Clouds 31 1019 29 10000 4.6 220 15:20 20.07.2019
4696 Clouds 30 1019 33 10000 4.6 220 14:47 20.07.2019
4697 Clouds 29 1019 33 10000 4.6 220 14:28 20.07.2019
4698 Clouds 27 1019 35 10000 4.1 230 13:39 20.07.2019
4699 Clouds 27 1019 34 10000 3.6 230 13:21 20.07.2019
4700 Clouds 27 1019 34 10000 3.6 230 12:57 20.07.2019
4701 Clouds 27 1019 44 10000 2.1 220 12:26 20.07.2019
4702 Clouds 27 1019 44 10000 2.1 220 12:26 20.07.2019
4703 Clear 25 1019 60 10000 2.1 230 11:57 20.07.2019
4704 Clear 25 1019 60 10000 2.1 230 11:27 20.07.2019
4705 Rain 24 1012 66 0 2.28 194.103 10:58 20.07.2019
4706 Rain 23 1012 70 0 2.28 194.103 10:37 20.07.2019
4707 Rain 22 1012 69 0 2.28 194.103 10:18 20.07.2019
4708 Rain 22 1012 69 0 2.28 194.103 10:18 20.07.2019
4709 Rain 21 1012 64 0 2.28 194.103 09:45 20.07.2019
4710 Rain 19 1021 57 0 0.89 55 09:22 20.07.2019
4711 Clear 18 1012 82 0 0.51 104.145 08:45 20.07.2019
4712 Clear 18 1020 58 0 0.45 8 08:20 20.07.2019
4713 Clear 18 1012 85 0 0.51 104.145 07:21 20.07.2019
4714 Clear 18 1020 54 0 1.34 58 06:41 20.07.2019
4715 Clear 17 1020 57 0 2.24 45 04:31 20.07.2019
4716 Clear 18 1020 54 0 1.34 42 03:40 20.07.2019
4717 Clear 19 1020 56 0 0.45 66 01:21 20.07.2019
4718 Clear 19 1020 56 0 0.45 66 01:21 20.07.2019
4719 Clear 19 1020 61 0 0.45 65 00:46 20.07.2019
4720 Clear 20 1021 63 0 2.24 56 00:21 20.07.2019
4721 Clear 21 1020 63 0 1.79 73 23:44 19.07.2019
4722 Clear 21 1021 58 0 1.34 53 23:26 19.07.2019
4723 Clear 21 1020 59 0 2.24 58 22:50 19.07.2019
4724 Clear 20 1020 63 0 1.79 55 22:26 19.07.2019
4725 Clear 17 1020 63 0 0.45 72 21:51 19.07.2019
4726 Clear 23 1020 64 0 1.34 49 21:33 19.07.2019
4727 Clouds 26 1016 6 0 2.6 211.285 20:58 19.07.2019
4728 Clouds 27 1016 6 0 2.6 211.285 20:38 19.07.2019
4729 Clouds 27 1016 32 10000 6.2 220 20:20 19.07.2019
4730 Clouds 27 1016 32 10000 6.2 220 19:35 19.07.2019
4731 Clouds 29 1017 33 10000 5.7 200 18:46 19.07.2019
4732 Clouds 29 1017 33 10000 5.7 200 18:25 19.07.2019
4733 Clouds 29 1017 35 10000 5.1 220 17:56 19.07.2019
4734 Clouds 29 1017 35 10000 5.1 220 17:29 19.07.2019
4735 Clouds 29 1017 35 10000 5.7 220 16:57 19.07.2019
4736 Clouds 29 1017 35 10000 5.7 220 16:39 19.07.2019
4737 Clouds 29 1017 35 10000 5.7 220 16:39 19.07.2019
4738 Clouds 28 1018 33 10000 6.2 220 16:18 19.07.2019
4739 Clouds 28 1018 37 10000 5.1 210 15:43 19.07.2019
4740 Clouds 28 1018 35 10000 5.1 210 15:24 19.07.2019
4741 Clouds 27 1018 37 10000 4.1 220 14:45 19.07.2019
4742 Clouds 27 1019 42 10000 4.6 220 14:25 19.07.2019
4743 Clouds 26 1019 44 10000 4.1 220 13:47 19.07.2019
4744 Clouds 26 1019 44 10000 4.1 220 13:27 19.07.2019
4745 Clouds 25 1019 50 10000 1.5 240 12:58 19.07.2019
4746 Clouds 25 1019 53 10000 1.5 0 12:38 19.07.2019
4747 Clouds 24 1020 53 10000 1 0 12:19 19.07.2019
4748 Clouds 23 1020 56 10000 1 0 11:45 19.07.2019
4749 Clear 23 1014 55 0 2.28 206.026 11:19 19.07.2019
4750 Clear 23 1014 55 0 2.28 206.026 11:19 19.07.2019
4751 Clear 22 1014 62 0 2.28 206.026 10:48 19.07.2019
4752 Clear 21 1014 71 0 2.28 206.026 10:23 19.07.2019
4753 Clear 20 1020 17 0 1.34 206 09:59 19.07.2019
4754 Clear 19 1020 23 0 2.28 206.026 09:41 19.07.2019
4755 Clear 18 1020 60 0 0.44 99.633 09:22 19.07.2019
4756 Clear 17 1020 61 0 0.52 92.752 08:49 19.07.2019
4757 Clear 16 1020 61 0 0.45 55 08:22 19.07.2019
4758 Clear 15 1014 79 0 0.52 92.752 07:29 19.07.2019
4759 Clear 15 1013 79 0 0.73 60.021 05:57 19.07.2019
4760 Clouds 17 1013 70 0 0.69 34.706 02:43 19.07.2019
4761 Clouds 17 1021 36 0 0.33 57.677 01:20 19.07.2019
4762 Clouds 17 1021 35 0 0.33 57.677 00:45 19.07.2019
4763 Rain 18 1013 66 0 1.86 35.184 23:58 18.07.2019
4764 Rain 18 1013 68 0 1.86 35.184 23:39 18.07.2019
4765 Rain 18 1013 68 0 1.86 35.184 23:21 18.07.2019
4766 Rain 18 1020 64 0 1.86 35.184 22:40 18.07.2019
4767 Rain 18 1020 70 0 1.86 35.184 22:20 18.07.2019
4768 Rain 18 1020 70 0 1.86 35.184 22:20 18.07.2019
4769 Rain 16 1020 67 0 1.86 35.184 21:44 18.07.2019
4770 Rain 21 1020 17 0 1.86 35.184 21:26 18.07.2019
4771 Rain 21 1011 63 0 0.72 329.607 20:52 18.07.2019
4772 Clouds 22 1016 50 10000 2.6 230 20:29 18.07.2019
4773 Clouds 23 1016 50 10000 2.6 230 19:59 18.07.2019
4774 Clouds 22 1016 50 10000 2.6 230 19:40 18.07.2019
4775 Clouds 23 1016 47 10000 4.6 210 19:19 18.07.2019
4776 Clouds 23 1016 50 10000 4.6 210 18:42 18.07.2019
4777 Clouds 25 1016 50 10000 5.7 210 18:21 18.07.2019
4778 Clouds 25 1016 50 10000 5.7 210 18:21 18.07.2019
4779 Clouds 26 1016 50 10000 5.7 210 17:44 18.07.2019
4780 Clouds 26 1016 50 10000 5.7 210 17:44 18.07.2019
4781 Clouds 26 1016 50 10000 5.7 210 17:24 18.07.2019
4782 Clouds 26 1016 51 10000 6.2 210 16:57 18.07.2019
4783 Clouds 26 1016 48 10000 6.2 210 16:39 18.07.2019
4784 Clouds 26 1016 48 10000 6.2 220 16:18 18.07.2019
4785 Clouds 25 1016 51 10000 6.2 220 15:44 18.07.2019
4786 Clouds 25 1016 51 10000 6.2 220 15:44 18.07.2019
4787 Clouds 26 1016 48 10000 5.1 210 15:25 18.07.2019
4788 Clouds 26 1016 47 10000 5.1 200 14:50 18.07.2019
4789 Clouds 25 1016 47 10000 5.1 200 14:32 18.07.2019
4790 Clouds 25 1016 88 10000 2.1 160 13:50 18.07.2019
4791 Clouds 24 1017 57 10000 2.1 240 13:24 18.07.2019
4792 Clouds 23 1017 57 10000 2.1 230 12:53 18.07.2019
4793 Clouds 22 1017 56 10000 1.5 0 12:22 18.07.2019
4794 Clouds 22 1018 60 10000 1.5 200 11:58 18.07.2019
4795 Clouds 21 1018 60 10000 1.5 200 11:39 18.07.2019
4796 Clouds 21 1012 64 0 1.45 209.485 11:21 18.07.2019
4797 Clouds 21 1012 70 0 1.45 209.485 10:49 18.07.2019
4798 Clouds 19 1012 79 0 1.45 209.485 09:50 18.07.2019
4799 Clouds 18 1012 79 0 1.45 209.485 09:27 18.07.2019
4800 Clouds 17 1020 28 0 1.68 29.893 08:52 18.07.2019
4801 Clouds 16 1012 82 0 1.68 29.893 08:25 18.07.2019
4802 Clouds 16 1012 84 0 1.68 29.893 07:56 18.07.2019
4803 Clouds 15 1012 83 0 1.68 29.893 07:35 18.07.2019
4804 Clouds 15 1012 83 0 1.68 29.893 06:48 18.07.2019
4805 Clouds 15 1017 88 0 2.25 20.425 06:20 18.07.2019
4806 Clouds 15 1012 78 0 2.25 20.425 03:34 18.07.2019
4807 Clouds 15 1018 87 0 1.65 27.905 01:53 18.07.2019
4808 Clouds 16 1019 89 0 1.65 27.905 01:33 18.07.2019
4809 Clouds 17 1019 86 0 0.45 186 23:57 17.07.2019
4810 Clouds 18 1013 70 0 2.91 26.6 23:21 17.07.2019
4811 Clouds 18 1019 88 0 0.45 238 22:59 17.07.2019
4812 Clouds 18 1019 91 0 0.45 233 22:41 17.07.2019
4813 Clouds 18 1019 80 0 2.91 26.6 22:21 17.07.2019
4814 Clouds 19 1019 81 0 0.45 330 21:56 17.07.2019
4815 Clouds 18 1019 82 0 2.91 26.6 21:36 17.07.2019
4816 Rain 20 1011 66 0 0.4 17.669 21:18 17.07.2019
4817 Rain 19 1018 83 0 0.45 236 20:41 17.07.2019
4818 Rain 18 1018 83 0 1.34 250 20:21 17.07.2019
4819 Rain 19 1018 84 0 0.54 49.075 19:59 17.07.2019
4820 Rain 19 1018 80 0 0.54 49.075 19:39 17.07.2019
4821 Rain 20 1018 83 0 1.34 231 19:18 17.07.2019
4822 Rain 19 1018 80 0 0.89 205 18:42 17.07.2019
4823 Rain 20 1018 80 0 0.76 359.169 18:20 17.07.2019
4824 Rain 20 1018 85 0 0.45 243 17:51 17.07.2019
4825 Rain 22 1018 86 0 1.34 203 17:27 17.07.2019
4826 Rain 25 1011 60 0 0.76 359.169 16:58 17.07.2019
4827 Rain 25 1011 60 0 0.76 359.169 16:38 17.07.2019
4828 Rain 25 1011 65 0 0.45 212 16:18 17.07.2019
4829 Rain 25 1011 73 0 0.76 359.169 15:51 17.07.2019
4830 Rain 25 1011 83 0 0.76 359.169 15:29 17.07.2019
4831 Rain 25 1010 52 0 1.68 328.049 14:55 17.07.2019
4832 Rain 25 1017 6 0 3.58 228 14:37 17.07.2019
4833 Rain 25 1010 51 0 1.68 328.049 14:18 17.07.2019
4834 Rain 25 1011 56 0 1.68 328.049 13:41 17.07.2019
4835 Rain 25 1011 56 0 0.96 315.848 13:21 17.07.2019
4836 Rain 23 1011 65 0 0.96 315.848 12:40 17.07.2019
4837 Clouds 23 1011 67 0 0.89 179 12:21 17.07.2019
4838 Clouds 22 1011 69 0 1.9 228.862 11:45 17.07.2019
4839 Clouds 22 1011 67 0 1.9 228.862 11:21 17.07.2019
4840 Clouds 21 1018 8 0 1.9 228.862 10:51 17.07.2019
4841 Clouds 20 1018 12 0 1.9 228.862 10:31 17.07.2019
4842 Clouds 20 1018 12 0 1.9 228.862 10:31 17.07.2019
4843 Clouds 20 1011 71 0 1.9 228.862 09:59 17.07.2019
4844 Clouds 19 1012 69 0 1.9 228.862 09:40 17.07.2019
4845 Clouds 18 1018 64 0 0.45 21 09:22 17.07.2019
4846 Clouds 17 1018 64 0 0.89 37 08:43 17.07.2019
4847 Clouds 16 1018 64 0 0.11 88.409 08:22 17.07.2019
4848 Clouds 16 1012 74 0 0.11 88.409 07:50 17.07.2019
4849 Clouds 16 1018 62 0 1.79 27 07:24 17.07.2019
4850 Clouds 16 1018 63 0 1.34 76 06:55 17.07.2019
4851 Clouds 16 1018 65 0 1.34 59 06:29 17.07.2019
4852 Clouds 16 1018 63 0 0.89 96 05:48 17.07.2019
4853 Clouds 16 1018 64 0 1.79 30 05:28 17.07.2019
4854 Clouds 15 1018 62 0 0.89 65 04:42 17.07.2019
4855 Clouds 16 1018 61 0 1.34 65 03:19 17.07.2019
4856 Clouds 16 1019 60 0 0.45 66 01:59 17.07.2019
4857 Clouds 17 1019 24 0 0.71 44.943 01:26 17.07.2019
4858 Clouds 16 1019 23 0 0.71 44.943 00:48 17.07.2019
4859 Clouds 18 1019 23 0 1.87 43.612 00:24 17.07.2019
4860 Clouds 19 1019 17 0 1.87 43.612 23:58 16.07.2019
4861 Clouds 20 1019 12 0 1.87 43.612 23:31 16.07.2019
4862 Clouds 18 1020 65 0 1.87 43.612 22:59 16.07.2019
4863 Clouds 13 1020 68 0 1.87 43.612 22:40 16.07.2019
4864 Clouds 21 1020 69 0 1.87 43.612 22:20 16.07.2019
4865 Clouds 18 1020 67 0 1.87 43.612 21:45 16.07.2019
4866 Clouds 23 1013 45 0 0.25 24.031 21:21 16.07.2019
4867 Clouds 25 1018 8 0 0.48 248.221 20:58 16.07.2019
4868 Clouds 25 1012 38 0 0.48 248.221 20:39 16.07.2019
4869 Clouds 25 1012 38 0 0.45 119 20:20 16.07.2019
4870 Clouds 26 1017 7 0 1.34 255 19:50 16.07.2019
4871 Clouds 27 1017 7 0 2.68 184 19:27 16.07.2019
4872 Clouds 26 1019 59 0 0.89 207 18:56 16.07.2019
4873 Clouds 28 1017 6 0 2.68 226 18:37 16.07.2019
4874 Clear 28 1017 6 0 3.13 185 18:19 16.07.2019
4875 Clear 29 1017 6 0 2.68 202 17:40 16.07.2019
4876 Clear 28 1017 6 0 2.68 202 17:20 16.07.2019
4877 Clear 28 1012 36 0 0.45 296 16:43 16.07.2019
4878 Clear 28 1012 34 0 0.89 148 16:21 16.07.2019
4879 Clear 28 1013 35 0 0.89 293 15:42 16.07.2019
4880 Clear 27 1013 35 0 0.45 229 15:21 16.07.2019
4881 Clear 27 1013 35 0 0.89 212 14:59 16.07.2019
4882 Clear 27 1013 34 0 1.34 278 14:41 16.07.2019
4883 Clear 26 1013 36 0 1.34 235 14:23 16.07.2019
4884 Clear 26 1013 39 0 2.56 213.994 13:45 16.07.2019
4885 Clear 26 1014 39 0 2.56 213.994 13:24 16.07.2019
4886 Clear 25 1014 36 0 2.56 213.994 12:54 16.07.2019
4887 Clear 25 1014 40 0 2.56 213.994 12:36 16.07.2019
4888 Clear 24 1014 42 0 2 219.886 12:18 16.07.2019
4889 Clear 24 1019 8 0 2 219.886 11:42 16.07.2019
4890 Clear 23 1014 47 0 2 219.886 11:22 16.07.2019
4891 Clear 22 1020 9 0 2 219.886 10:47 16.07.2019
4892 Clear 21 1013 44 0 0.45 52 10:22 16.07.2019
4893 Clear 19 1019 13 0 2 219.886 09:58 16.07.2019
4894 Clear 19 1020 13 0 2 219.886 09:40 16.07.2019
4895 Clear 16 1015 70 0 1.15 6.754 09:19 16.07.2019
4896 Clear 16 1015 70 0 1.15 6.754 09:19 16.07.2019
4897 Clouds 14 1019 38 0 1.04 8.964 08:42 16.07.2019
4898 Clouds 14 1018 35 0 1.04 8.964 08:20 16.07.2019
4899 Clouds 12 1018 47 0 1.04 8.964 07:42 16.07.2019
4900 Clouds 12 1018 44 0 1.04 8.964 07:24 16.07.2019
4901 Clouds 12 1018 31 0 1.04 8.964 06:47 16.07.2019
4902 Clouds 12 1018 29 0 1.04 8.964 06:26 16.07.2019
4903 Clouds 12 1018 33 0 1.3 28.316 05:36 16.07.2019
4904 Clouds 12 1014 65 0 1.3 28.316 05:18 16.07.2019
4905 Clouds 14 1018 65 0 1.3 28.316 03:54 16.07.2019
4906 Clouds 14 1018 65 0 1.3 28.316 03:54 16.07.2019
4907 Clear 15 1014 64 0 2.79 25.455 03:20 16.07.2019
4908 Clear 15 1014 63 0 2.79 25.455 02:30 16.07.2019
4909 Clear 14 1019 65 0 2.79 25.455 01:43 16.07.2019
4910 Clear 15 1020 19 0 2.79 25.455 00:42 16.07.2019
4911 Clear 17 1019 60 0 3.27 26.401 00:20 16.07.2019
4912 Clear 17 1019 65 0 3.27 26.401 23:45 15.07.2019
4913 Clear 18 1020 11 0 3.27 26.401 23:27 15.07.2019
4914 Clear 13 1019 66 0 0.89 221 22:47 15.07.2019
4915 Clear 14 1019 65 0 0.89 222 22:22 15.07.2019
4916 Clear 10 1018 67 0 3.27 26.401 21:58 15.07.2019
4917 Clear 18 1018 65 0 0.89 190 21:40 15.07.2019
4918 Clear 22 1012 48 0 0.45 212 21:20 15.07.2019
4919 Clear 24 1012 44 0 3.38 3.105 20:55 15.07.2019
4920 Clear 25 1015 20 0 1.34 270 20:36 15.07.2019
4921 Clouds 25 1014 17 10000 7.2 320 20:18 15.07.2019
4922 Clouds 24 1014 17 10000 7.2 320 19:39 15.07.2019
4923 Clouds 25 1014 17 10000 7.2 320 19:19 15.07.2019
4924 Clear 28 1013 17 10000 6.7 310 18:49 15.07.2019
4925 Clear 27 1013 17 10000 7.2 310 18:23 15.07.2019
4926 Clear 28 1013 17 10000 7.7 310 17:58 15.07.2019
4927 Clear 28 1013 17 10000 7.2 300 17:40 15.07.2019
4928 Clear 28 1013 17 10000 7.2 300 17:22 15.07.2019
4929 Clear 28 1013 17 10000 7.2 310 16:58 15.07.2019
4930 Clear 28 1013 33 10000 6.2 280 16:37 15.07.2019
4931 Clear 27 1013 17 10000 2.1 0 16:18 15.07.2019
4932 Clear 27 1013 20 10000 3.1 170 15:41 15.07.2019
4933 Clear 27 1013 20 10000 3.1 170 15:41 15.07.2019
4934 Clear 27 1013 20 10000 3.1 170 15:23 15.07.2019
4935 Clear 27 1013 22 10000 2.6 0 14:59 15.07.2019
4936 Clear 27 1013 21 10000 2.6 160 14:38 15.07.2019
4937 Clear 27 1013 21 10000 2.6 160 14:19 15.07.2019
4938 Clear 27 1014 23 10000 1.5 260 13:47 15.07.2019
4939 Clear 26 1014 23 10000 1.5 260 13:19 15.07.2019
4940 Clear 26 1014 22 10000 1.5 0 12:47 15.07.2019
4941 Clear 25 1014 27 10000 1.5 0 12:27 15.07.2019
4942 Clear 25 1014 28 10000 1 0 11:57 15.07.2019
4943 Clear 24 1015 30 10000 1.5 0 11:38 15.07.2019
4944 Clear 24 1015 30 10000 1.5 0 11:18 15.07.2019
4945 Clear 23 1017 9 0 2.68 245 10:41 15.07.2019
4946 Clear 23 1017 9 0 3.13 245 10:41 15.07.2019
4947 Clear 23 1017 9 0 3.13 245 10:40 15.07.2019
4948 Clear 23 1009 36 0 1.34 317 10:22 15.07.2019
4949 Clear 22 1009 39 0 0.89 248 09:42 15.07.2019
4950 Clouds 17 1011 55 0 0.45 309 09:20 15.07.2019
4951 Clear 17 1010 63 0 4.08 11.359 08:46 15.07.2019
4952 Clear 16 1017 33 0 4.08 11.359 08:25 15.07.2019
4953 Clear 14 1014 90 0 1.34 207 07:52 15.07.2019
4954 Clear 14 1014 81 0 1.34 245 07:30 15.07.2019
4955 Clear 13 1014 84 0 2.24 176 06:40 15.07.2019
4956 Clouds 13 1014 84 0 1.34 235 06:20 15.07.2019
4957 Clouds 14 1010 70 0 3.77 13.554 05:42 15.07.2019
4958 Clouds 14 1010 69 0 3.77 13.554 04:45 15.07.2019
4959 Clouds 14 1014 91 0 3.77 13.554 04:23 15.07.2019
4960 Clouds 15 1015 77 0 0.89 207 02:51 15.07.2019
4961 Clouds 17 1011 64 0 3.23 11.22 01:55 15.07.2019
4962 Clouds 17 1011 62 0 3.24 11.49 01:33 15.07.2019
4963 Clouds 16 1016 81 0 0.89 221 00:53 15.07.2019
4964 Clouds 16 1016 81 0 0.89 221 00:53 15.07.2019
4965 Clouds 16 1016 81 0 0.89 221 00:53 15.07.2019
4966 Clouds 18 1017 23 0 3.24 11.49 00:28 15.07.2019
4967 Clouds 19 1011 59 0 3.35 10.726 23:58 14.07.2019
4968 Clouds 19 1011 60 0 3.35 10.726 23:39 14.07.2019
4969 Clouds 18 1010 60 0 3.35 10.726 23:19 14.07.2019
4970 Clouds 17 1016 82 0 0.89 221 22:57 14.07.2019
4971 Clouds 18 1016 86 0 1.34 174 22:38 14.07.2019
4972 Clouds 20 1017 9 0 1.34 312 22:18 14.07.2019
4973 Clouds 19 1016 90 0 0.45 218 21:42 14.07.2019
4974 Rain 21 1009 58 0 3.41 357.679 21:19 14.07.2019
4975 Rain 22 1016 9 0 2.68 247 20:57 14.07.2019
4976 Rain 22 1009 57 0 0.45 281 20:37 14.07.2019
4977 Clouds 22 1013 64 10000 2.6 230 20:19 14.07.2019
4978 Clouds 23 1013 64 10000 2.6 230 19:45 14.07.2019
4979 Clouds 23 1013 64 10000 2.6 230 19:26 14.07.2019
4980 Clouds 24 1013 64 10000 1 0 18:57 14.07.2019
4981 Clouds 24 1013 64 10000 1.5 110 18:38 14.07.2019
4982 Clouds 24 1013 64 10000 1.5 110 18:20 14.07.2019
4983 Clouds 24 1013 64 10000 1 0 17:47 14.07.2019
4984 Clouds 24 1013 68 10000 1.5 0 17:21 14.07.2019
4985 Clouds 22 1014 73 10000 1.5 210 16:47 14.07.2019
4986 Clouds 21 1014 77 10000 1 0 16:24 14.07.2019
4987 Clouds 20 1015 88 10000 1 0 15:54 14.07.2019
4988 Rain 20 1015 93 10000 1.5 330 15:29 14.07.2019
4989 Rain 20 1015 100 10000 2.1 360 14:50 14.07.2019
4990 Rain 20 1015 100 10000 1 0 14:22 14.07.2019
4991 Rain 20 1015 88 10000 5.1 210 13:57 14.07.2019
4992 Rain 20 1015 60 10000 3.6 220 13:37 14.07.2019
4993 Rain 20 1015 60 10000 3.6 220 13:19 14.07.2019
4994 Clouds 21 1014 64 10000 5.7 220 12:42 14.07.2019
4995 Clouds 21 1014 64 10000 5.7 220 12:22 14.07.2019
4996 Clouds 22 1014 64 10000 4.1 220 11:53 14.07.2019
4997 Clouds 22 1014 68 10000 2.6 230 11:27 14.07.2019
4998 Rain 22 1005 82 0 0.88 262.182 10:58 14.07.2019
4999 Rain 22 1016 21 0 0.89 193 10:40 14.07.2019
5000 Rain 22 1006 71 0 0.88 262.182 10:19 14.07.2019
5001 Rain 23 1006 73 0 0.88 262.182 09:42 14.07.2019
5002 Rain 22 1016 32 0 0.96 51.256 09:23 14.07.2019
5003 Rain 20 1016 35 0 0.52 61.699 08:41 14.07.2019
5004 Rain 19 1006 74 0 0.52 61.699 07:57 14.07.2019
5005 Rain 19 1006 76 0 0.52 61.699 07:35 14.07.2019
5006 Rain 19 1016 73 0 0.52 61.699 06:40 14.07.2019
5007 Rain 18 1006 74 0 1.15 55.277 05:44 14.07.2019
5008 Rain 16 1017 92 0 1.15 55.277 03:46 14.07.2019
5009 Rain 18 1017 92 0 0.89 166 03:27 14.07.2019
5010 Rain 18 1018 87 0 0.45 162 02:39 14.07.2019
5011 Rain 19 1018 66 0 0.89 169 02:20 14.07.2019
5012 Rain 19 1017 35 0 0.36 210.105 01:31 14.07.2019
5013 Rain 19 1017 34 0 0.36 210.105 00:55 14.07.2019
5014 Rain 20 1017 34 0 0.36 210.105 00:37 14.07.2019
5015 Rain 21 1008 61 0 0.69 129.126 00:18 14.07.2019
5016 Rain 21 1019 63 0 0.45 83 23:42 13.07.2019
5017 Rain 22 1008 59 0 0.69 129.126 23:22 13.07.2019
5018 Rain 22 1017 24 0 0.69 129.126 22:43 13.07.2019
5019 Rain 22 1018 23 0 0.69 129.126 22:22 13.07.2019
5020 Rain 14 1014 95 0 0.69 129.126 21:49 13.07.2019
5021 Clouds 25 1017 13 0 0.98 299.112 21:23 13.07.2019
5022 Clouds 26 1008 48 0 0.89 343 20:53 13.07.2019
5023 Clouds 26 1014 40 10000 7.2 210 20:35 13.07.2019
5024 Clouds 27 1014 40 10000 7.2 210 19:59 13.07.2019
5025 Clouds 28 1014 40 10000 7.2 210 19:37 13.07.2019
5026 Clouds 28 1014 40 10000 7.2 210 19:19 13.07.2019
5027 Clouds 30 1014 35 10000 2.6 230 18:39 13.07.2019
5028 Clouds 30 1014 35 10000 2.6 230 18:19 13.07.2019
5029 Clouds 30 1015 33 10000 7.7 200 17:38 13.07.2019
5030 Clouds 31 1015 33 10000 7.7 200 17:19 13.07.2019
5031 Clouds 31 1015 29 10000 8.2 200 16:44 13.07.2019
5032 Clouds 31 1015 29 10000 8.2 200 16:26 13.07.2019
5033 Clouds 31 1015 29 10000 8.2 200 16:26 13.07.2019
5034 Clouds 31 1015 29 10000 6.7 210 15:48 13.07.2019
5035 Clouds 31 1015 29 10000 6.7 210 15:24 13.07.2019
5036 Clouds 30 1016 31 10000 7.7 200 14:57 13.07.2019
5037 Clouds 30 1016 33 10000 3.1 210 14:38 13.07.2019
5038 Clouds 30 1016 33 10000 3.1 210 14:19 13.07.2019
5039 Clear 29 1017 42 10000 2.1 0 13:43 13.07.2019
5040 Clear 29 1018 45 10000 1.5 0 13:19 13.07.2019
5041 Clear 27 1018 50 10000 1 0 12:41 13.07.2019
5042 Clear 26 1018 50 10000 1 0 12:23 13.07.2019
5043 Clear 26 1018 50 10000 1.5 0 11:57 13.07.2019
5044 Clear 25 1019 53 10000 1 0 11:20 13.07.2019
5045 Clear 25 1019 53 10000 1 0 11:20 13.07.2019
5046 Clear 25 1010 53 0 2.53 229.762 10:57 13.07.2019
5047 Clear 24 1021 14 0 0.89 348 10:39 13.07.2019
5048 Clear 23 1011 58 0 2.53 229.762 10:20 13.07.2019
5049 Clear 23 1021 20 0 2.53 229.762 09:41 13.07.2019
5050 Clouds 21 1021 48 0 0.48 296.296 09:22 13.07.2019
5051 Clear 19 1021 46 0 0.58 288.938 08:46 13.07.2019
5052 Clear 19 1011 54 0 0.58 288.938 08:26 13.07.2019
5053 Clear 17 1021 43 0 1.34 63 07:31 13.07.2019
5054 Clear 17 1021 40 0 0.58 288.938 06:54 13.07.2019
5055 Clear 17 1021 45 0 1.24 22.101 06:27 13.07.2019
5056 Clear 17 1021 54 0 1.24 22.101 05:37 13.07.2019
5057 Clear 17 1021 36 0 1.24 22.101 04:25 13.07.2019
5058 Clear 18 1021 35 0 1.24 22.101 03:59 13.07.2019
5059 Clear 18 1021 34 0 1.24 22.101 03:39 13.07.2019
5060 Clear 18 1022 66 0 2.17 17.824 02:20 13.07.2019
5061 Clear 18 1022 75 0 2.17 17.824 01:43 13.07.2019
5062 Clear 17 1022 74 0 0.45 177 01:20 13.07.2019
5063 Clear 18 1022 70 0 0.89 214 00:57 13.07.2019
5064 Clear 20 1012 64 0 2.57 16.629 00:20 13.07.2019
5065 Clear 20 1022 70 0 2.57 16.629 23:49 12.07.2019
5066 Clear 20 1012 62 0 2.57 16.629 23:49 12.07.2019
5067 Clear 21 1012 61 0 2.57 16.629 23:29 12.07.2019
5068 Clear 16 1022 75 0 2.57 16.629 22:46 12.07.2019
5069 Clear 16 1022 74 0 2.57 16.629 22:24 12.07.2019
5070 Clear 20 1021 62 0 0.45 90 21:44 12.07.2019
5071 Clear 26 1011 35 0 1.56 329.923 21:23 12.07.2019
5072 Clear 26 1022 71 0 1.56 329.923 20:57 12.07.2019
5073 Clear 27 1019 6 0 1.56 329.923 20:39 12.07.2019
5074 Clouds 29 1016 31 10000 6.2 210 20:21 12.07.2019
5075 Clouds 29 1016 31 10000 6.2 210 19:42 12.07.2019
5076 Clouds 30 1016 31 10000 6.2 210 19:24 12.07.2019
5077 Clouds 31 1016 31 10000 7.2 200 18:46 12.07.2019
5078 Clouds 31 1016 31 10000 7.2 200 18:22 12.07.2019
5079 Clouds 31 1016 31 10000 6.7 200 17:53 12.07.2019
5080 Clouds 31 1016 31 10000 6.7 200 17:29 12.07.2019
5081 Clouds 32 1016 29 10000 5.7 210 16:51 12.07.2019
5082 Clouds 32 1017 26 10000 5.1 200 16:23 12.07.2019
5083 Clouds 32 1017 26 10000 5.1 210 15:54 12.07.2019
5084 Clouds 32 1017 27 10000 5.1 220 15:36 12.07.2019
5085 Clouds 31 1017 27 10000 5.1 220 15:18 12.07.2019
5086 Clouds 30 1018 29 10000 4.6 210 14:43 12.07.2019
5087 -273 0 0 0 0 0 14:20 12.07.2019
5088 Clear 29 1018 42 10000 1 0 13:43 12.07.2019
5089 Clear 29 1018 42 10000 1 0 13:20 12.07.2019
5090 Clear 27 1019 47 10000 1.5 0 12:41 12.07.2019
5091 Clear 27 1019 47 10000 1.5 0 12:21 12.07.2019
5092 Clear 26 1019 53 10000 1 0 11:45 12.07.2019
5093 Clear 25 1019 53 10000 1 0 11:24 12.07.2019
5094 Clear 25 1020 60 10000 1 0 10:55 12.07.2019
5095 Clear 24 1020 68 10000 1 0 10:37 12.07.2019
5096 Clear 24 1020 68 10000 1 0 10:18 12.07.2019
5097 Clear 22 1020 68 10000 1 0 09:46 12.07.2019
5098 Clear 20 1020 72 10000 1 0 09:23 12.07.2019
5099 Clear 19 1021 57 0 1.31 14.185 08:42 12.07.2019
5100 Clear 18 1012 77 0 1.31 14.185 08:21 12.07.2019
5101 Clear 17 1021 59 0 1.31 14.185 07:47 12.07.2019
5102 Clear 16 1012 78 0 1.31 14.185 07:28 12.07.2019
5103 Clear 16 1020 54 0 1.38 16.91 06:29 12.07.2019
5104 Clear 17 1021 49 0 1.38 16.91 05:50 12.07.2019
5105 Clear 18 1021 64 0 1.38 16.91 03:46 12.07.2019
5106 Clear 18 1021 67 0 0.87 23.147 01:50 12.07.2019
5107 Clear 19 1020 34 0 0.79 35.631 01:29 12.07.2019
5108 Clear 18 1021 71 0 0.79 35.631 00:34 12.07.2019
5109 Clouds 20 1012 74 0 2.29 24.828 23:54 11.07.2019
5110 Clouds 21 1012 73 0 2.29 24.828 23:36 11.07.2019
5111 Clouds 21 1012 72 0 2.29 24.828 23:18 11.07.2019
5112 Clouds 13 1016 92 0 2.29 24.828 22:41 11.07.2019
5113 Clouds 16 1021 82 0 2.29 24.828 22:22 11.07.2019
5114 Clouds 23 1021 82 0 2.29 24.828 21:43 11.07.2019
5115 Clouds 26 1010 51 0 0.97 299.083 21:20 11.07.2019
5116 Clouds 27 1015 33 10000 6.2 190 20:56 11.07.2019
5117 Clouds 27 1015 33 10000 6.2 190 20:37 11.07.2019
5118 Clouds 27 1015 33 10000 6.2 190 20:37 11.07.2019
5119 Clouds 27 1015 33 10000 6.2 190 20:18 11.07.2019
5120 Clouds 27 1015 33 10000 6.2 190 20:18 11.07.2019
5121 Clouds 27 1015 31 10000 6.2 190 19:45 11.07.2019
5122 Clouds 29 1015 31 10000 6.2 190 19:25 11.07.2019
5123 Clouds 28 1015 31 10000 5.1 190 18:53 11.07.2019
5124 Clouds 29 1015 33 10000 5.7 200 18:33 11.07.2019
5125 Clouds 29 1015 33 10000 6.2 210 17:59 11.07.2019
5126 Clouds 30 1015 31 10000 6.7 200 17:40 11.07.2019
5127 Clouds 30 1015 31 10000 6.7 200 17:22 11.07.2019
5128 Clouds 30 1016 33 10000 6.2 200 16:49 11.07.2019
5129 Clouds 30 1016 33 10000 5.7 200 16:23 11.07.2019
5130 Clouds 30 1016 33 10000 5.1 210 15:44 11.07.2019
5131 Clouds 29 1016 33 10000 5.1 210 15:25 11.07.2019
5132 Clouds 29 1016 33 10000 4.1 220 14:59 11.07.2019
5133 Clouds 30 1016 31 10000 3.6 200 14:40 11.07.2019
5134 Clouds 29 1016 31 10000 3.6 200 14:20 11.07.2019
5135 Clouds 29 1017 37 10000 2.6 200 13:45 11.07.2019
5136 Clouds 29 1017 42 10000 1.5 190 13:25 11.07.2019
5137 Clouds 27 1017 47 10000 1 0 12:39 11.07.2019
5138 Clouds 27 1018 53 10000 1 0 12:20 11.07.2019
5139 Clouds 26 1018 53 10000 1 0 11:52 11.07.2019
5140 Clouds 25 1018 57 10000 1 0 11:30 11.07.2019
5141 Clear 24 1018 64 10000 1 0 10:54 11.07.2019
5142 Clear 23 1018 64 10000 0.5 0 10:20 11.07.2019
5143 Clear 22 1018 72 10000 1 0 09:58 11.07.2019
5144 Clear 21 1018 77 10000 1 0 09:39 11.07.2019
5145 Clear 20 1018 77 10000 1 0 09:20 11.07.2019
5146 Clear 18 1018 88 10000 1 0 08:42 11.07.2019
5147 Clear 17 1018 88 10000 1 0 08:20 11.07.2019
5148 Clouds 16 1012 89 0 0.4 4.681 07:45 11.07.2019
5149 Clouds 15 1019 75 0 0.4 4.681 07:25 11.07.2019
5150 Clouds 16 1019 82 0 0.89 55 06:21 11.07.2019
5151 Clouds 16 1012 85 0 0.31 9.431 05:33 11.07.2019
5152 Clouds 17 1019 80 0 1.79 65 04:57 11.07.2019
5153 Clouds 17 1012 84 0 0.31 9.431 03:58 11.07.2019
5154 Clouds 17 1019 78 0 1.79 62 02:31 11.07.2019
5155 Clouds 18 1020 77 0 1.79 66 00:42 11.07.2019
5156 Clouds 19 1013 78 0 0.84 31.011 23:51 10.07.2019
5157 Clouds 20 1013 77 0 0.84 31.011 23:28 10.07.2019
5158 Clouds 19 1015 77 0 0.84 31.011 22:58 10.07.2019
5159 Clouds 20 1018 31 0 0.89 274 22:26 10.07.2019
5160 Clouds 15 1020 84 0 0.84 31.011 21:57 10.07.2019
5161 Clouds 12 1016 93 0 0.84 31.011 21:57 10.07.2019
5162 Clouds 14 1020 87 0 0.45 212 21:39 10.07.2019
5163 Rain 24 1012 64 0 0.45 136 21:21 10.07.2019
5164 Rain 24 1012 54 0 0.89 126 20:48 10.07.2019
5165 Rain 26 1018 8 0 3.58 228 20:26 10.07.2019
5166 Rain 27 1018 7 0 3.13 257 19:58 10.07.2019
5167 Rain 24 1020 73 0 0.45 179 19:40 10.07.2019
5168 Rain 27 1018 6 0 3.58 201 19:20 10.07.2019
5169 Rain 25 1020 75 0 0.45 174 18:46 10.07.2019
5170 Clouds 28 1018 6 0 2.68 231 18:24 10.07.2019
5171 Clouds 28 1018 6 0 3.13 205 17:49 10.07.2019
5172 Clouds 28 1017 6 0 3.58 215 17:30 10.07.2019
5173 Clouds 28 1018 6 0 3.13 204 16:47 10.07.2019
5174 Clouds 28 1017 7 0 3.13 250 16:21 10.07.2019
5175 Clouds 28 1017 7 0 3.13 250 16:21 10.07.2019
5176 Clouds 28 1018 6 0 3.13 175 15:47 10.07.2019
5177 Clear 27 1013 35 0 1.07 306.795 15:26 10.07.2019
5178 Clear 27 1013 37 0 1.07 306.795 14:49 10.07.2019
5179 Clear 26 1013 35 0 1.07 306.795 14:29 10.07.2019
5180 Clear 26 1014 39 0 0.45 229 13:59 10.07.2019
5181 Clear 26 1014 39 0 0.45 150 13:36 10.07.2019
5182 Clouds 26 1014 38 0 0.9 316.984 13:18 10.07.2019
5183 Clouds 25 1014 42 0 0.45 276 12:41 10.07.2019
5184 Clouds 24 1014 49 0 1.69 1.087 12:21 10.07.2019
5185 Clouds 23 1014 50 0 1.69 1.087 11:49 10.07.2019
5186 Clouds 22 1019 82 10000 0.5 0 11:22 10.07.2019
5187 Clouds 22 1019 13 0 1.69 1.087 10:58 10.07.2019
5188 Clouds 20 1019 82 10000 0.5 0 10:24 10.07.2019
5189 Clouds 19 1015 78 0 1.69 1.087 09:55 10.07.2019
5190 Clouds 19 1015 78 0 1.69 1.087 09:55 10.07.2019
5191 Clouds 18 1019 87 10000 2.1 60 09:36 10.07.2019
5192 Clouds 18 1019 87 10000 2.1 60 09:18 10.07.2019
5193 Clouds 16 1014 82 0 2.9 14.919 08:45 10.07.2019
5194 Clouds 16 1014 82 0 2.9 14.919 08:22 10.07.2019
5195 Clouds 14 1014 84 0 2.9 14.919 07:45 10.07.2019
5196 Clouds 14 1018 95 0 2.9 14.919 07:23 10.07.2019
5197 Clouds 13 1017 94 0 0.89 187 06:36 10.07.2019
5198 Clouds 13 1017 94 0 3.03 13.358 05:40 10.07.2019
5199 Clouds 14 1013 88 0 3.03 13.358 04:30 10.07.2019
5200 Clouds 14 1018 86 0 3.13 17.237 01:59 10.07.2019
5201 Clouds 14 1018 86 0 3.04 16.981 00:43 10.07.2019
5202 Clouds 14 1018 92 0 0.45 180 23:42 09.07.2019
5203 Clouds 15 1018 92 0 2.94 16.312 23:23 09.07.2019
5204 Clouds 16 1013 88 0 2.94 16.312 22:57 09.07.2019
5205 Clouds 15 1017 94 0 2.94 16.312 22:36 09.07.2019
5206 Clouds 15 1012 87 0 2.94 16.312 22:18 09.07.2019
5207 Clouds 15 1012 87 0 2.94 16.312 22:18 09.07.2019
5208 Clouds 16 1016 89 0 2.94 16.312 21:43 09.07.2019
5209 Rain 16 1018 28 0 2.35 8.8 21:25 09.07.2019
5210 Rain 17 1011 91 0 1.65 339.147 20:44 09.07.2019
5211 Rain 17 1016 85 0 1.65 339.147 20:26 09.07.2019
5212 Rain 18 1016 80 0 1.65 339.147 19:44 09.07.2019
5213 Rain 18 1016 81 0 1.65 339.147 19:26 09.07.2019
5214 Rain 19 1009 70 0 1.65 339.147 18:49 09.07.2019
5215 Rain 19 1009 70 0 1.65 339.147 18:49 09.07.2019
5216 Rain 20 1017 24 0 1.34 219 18:27 09.07.2019
5217 Rain 20 1009 63 0 2.64 29.464 17:57 09.07.2019
5218 Rain 20 1009 62 0 2.64 29.464 17:39 09.07.2019
5219 Rain 20 1009 61 0 2.64 29.464 17:20 09.07.2019
5220 Rain 21 1009 55 0 0.45 255 16:50 09.07.2019
5221 Rain 21 1009 55 0 0.45 255 16:25 09.07.2019
5222 Rain 20 1015 88 0 0.89 215 15:55 09.07.2019
5223 Rain 21 1008 61 0 0.45 357 15:36 09.07.2019
5224 Rain 21 1014 80 0 1.6 327.265 14:59 09.07.2019
5225 Rain 21 1015 84 0 0.89 124 14:39 09.07.2019
5226 Rain 20 1015 84 0 1.6 327.265 14:19 09.07.2019
5227 Rain 21 1015 82 0 0.89 207 13:45 09.07.2019
5228 Rain 20 1014 84 0 0.89 198 13:27 09.07.2019
5229 Rain 20 1016 24 0 2.68 230 12:42 09.07.2019
5230 Rain 19 1014 84 0 1 328.147 12:23 09.07.2019
5231 Rain 18 1014 86 0 1 328.147 11:58 09.07.2019
5232 Rain 18 1014 84 0 1 328.147 11:40 09.07.2019
5233 Rain 17 1014 78 0 1 328.147 11:21 09.07.2019
5234 Rain 17 1014 78 0 1 328.147 11:21 09.07.2019
5235 Rain 17 1014 86 0 1 328.147 10:54 09.07.2019
5236 Rain 17 1015 78 0 1 328.147 10:33 09.07.2019
5237 Rain 16 1015 78 0 1 328.147 09:42 09.07.2019
5238 Rain 16 1015 78 0 1.89 16.041 09:22 09.07.2019
5239 Rain 16 1014 78 0 1.89 16.041 08:55 09.07.2019
5240 Rain 16 1016 49 0 0.45 328 08:37 09.07.2019
5241 Rain 18 1023 71 0 2.24 60 03:59 05.07.2019
5242 Rain 18 1023 73 0 2.68 77 03:38 05.07.2019
5243 Rain 19 1015 73 0 0.61 80.507 03:19 05.07.2019
5244 Rain 19 1015 73 0 0.61 80.507 03:19 05.07.2019
5245 Rain 19 1023 72 0 2.68 68 02:44 05.07.2019
5246 Rain 20 1024 68 0 1.79 35 01:39 05.07.2019
5247 Rain 19 1024 75 0 3.13 62 01:19 05.07.2019
5248 Rain 20 1023 69 0 0.45 62 00:46 05.07.2019
5249 Rain 21 1023 65 0 2.24 56 23:53 04.07.2019
5250 Rain 22 1023 65 0 1.79 14 23:21 04.07.2019
5251 Rain 21 1023 68 0 1.79 49 22:45 04.07.2019
5252 Rain 21 1023 64 0 0.89 82 22:25 04.07.2019
5253 Rain 22 1023 66 0 2.24 52 21:57 04.07.2019
5254 Rain 23 1023 64 0 1.79 35 21:39 04.07.2019
5255 Rain 24 1022 60 0 0.89 72 21:21 04.07.2019
5256 Clouds 26 1018 29 10000 5.7 220 20:40 04.07.2019
5257 Clouds 27 1018 29 10000 5.7 220 20:22 04.07.2019
5258 Clouds 28 1018 29 10000 5.7 220 19:57 04.07.2019
5259 Clouds 28 1018 29 10000 5.7 220 19:38 04.07.2019
5260 Clouds 29 1018 29 10000 5.7 220 19:20 04.07.2019
5261 Clouds 28 1018 25 10000 5.7 210 18:43 04.07.2019
5262 Clouds 31 1018 25 10000 5.7 210 18:25 04.07.2019
5263 Clouds 32 1018 21 10000 4.1 220 17:46 04.07.2019
5264 Clouds 33 1018 19 10000 3.6 220 17:19 04.07.2019
5265 Clouds 33 1019 22 10000 3.1 210 15:59 04.07.2019
5266 Clouds 30 1019 24 10000 3.1 220 15:40 04.07.2019
5267 Clouds 32 1019 24 10000 3.1 220 15:22 04.07.2019
5268 Clouds 31 1020 27 10000 2.6 230 14:55 04.07.2019
5269 Clouds 30 1020 28 10000 2.1 220 14:37 04.07.2019
5270 Clouds 29 1020 32 10000 1.5 0 14:18 04.07.2019
5271 Clouds 29 1021 44 10000 1.5 180 13:42 04.07.2019
5272 Clear 27 1021 44 10000 1 0 13:23 04.07.2019
5273 Clear 27 1021 44 10000 1 0 12:57 04.07.2019
5274 Clear 27 1021 53 10000 1.5 0 12:37 04.07.2019
5275 Clear 26 1021 53 10000 1.5 0 12:19 04.07.2019
5276 Clear 25 1021 60 10000 1 0 11:39 04.07.2019
5277 Clear 24 1021 60 10000 1 0 11:19 04.07.2019
5278 Clear 24 1014 48 0 0.45 255 10:40 04.07.2019
5279 Clear 22 1019 14 0 1.68 202.714 10:21 04.07.2019
5280 Clear 22 1015 52 0 1.68 202.714 09:44 04.07.2019
5281 Clear 18 1022 60 0 0.66 45.122 09:25 04.07.2019
5282 Clear 17 1022 59 0 0.74 44.12 08:56 04.07.2019
5283 Clear 15 1022 61 0 0.74 44.12 08:23 04.07.2019
5284 Clear 15 1016 81 0 0.74 44.12 07:45 04.07.2019
5285 Clear 14 1021 60 0 0.89 63 07:22 04.07.2019
5286 Clear 14 1021 61 0 2.24 48 06:51 04.07.2019
5287 Clear 15 1021 61 0 1.79 55 05:52 04.07.2019
5288 Clear 15 1015 74 0 0.69 42.012 05:33 04.07.2019
5289 Clouds 16 1021 65 0 0.45 110 02:43 04.07.2019
5290 Clouds 16 1022 65 0 1.43 46.787 01:41 04.07.2019
5291 Clouds 16 1015 67 0 1.42 49.328 01:21 04.07.2019
5292 Rain 17 1022 64 0 1.83 49.531 23:56 03.07.2019
5293 Rain 18 1022 65 0 1.83 49.531 23:37 03.07.2019
5294 Rain 18 1015 63 0 1.83 49.531 23:18 03.07.2019
5295 Rain 18 1022 64 0 1.83 49.531 22:42 03.07.2019
5296 Rain 19 1022 66 0 2.35 14.916 22:24 03.07.2019
5297 Rain 19 1021 67 0 2.35 14.916 21:59 03.07.2019
5298 Rain 19 1021 62 0 2.35 14.916 21:39 03.07.2019
5299 Rain 20 1014 63 0 0.45 72 21:20 03.07.2019
5300 Rain 21 1021 66 0 2.01 52.97 20:43 03.07.2019
5301 Rain 21 1021 65 0 2.01 52.97 20:23 03.07.2019
5302 Rain 21 1021 65 0 0.45 97 19:50 03.07.2019
5303 Rain 21 1020 66 0 0.89 51 19:50 03.07.2019
5304 Rain 21 1014 63 0 1.79 333 19:32 03.07.2019
5305 Rain 21 1014 57 0 2.01 52.97 18:48 03.07.2019
5306 Rain 21 1022 67 0 0.93 274.799 18:29 03.07.2019
5307 Rain 21 1023 69 0 0.93 274.799 17:57 03.07.2019
5308 Rain 21 1021 41 0 0.45 11 17:37 03.07.2019
5309 Rain 22 1020 36 0 1.34 355 17:18 03.07.2019
5310 Rain 21 1021 63 0 0.93 274.799 16:43 03.07.2019
5311 Rain 21 1021 63 0 0.93 274.799 16:43 03.07.2019
5312 Rain 23 1020 64 0 0.93 274.799 16:20 03.07.2019
5313 Rain 24 1012 40 0 1.34 130 15:47 03.07.2019
5314 Rain 24 1021 77 0 0.45 248 15:29 03.07.2019
5315 Rain 28 1017 6 0 1.34 182 14:53 03.07.2019
5316 Rain 30 1017 5 0 3.13 233 14:26 03.07.2019
5317 Rain 29 1012 36 0 1.34 159 13:59 03.07.2019
5318 Rain 28 1013 37 0 1.79 163 13:34 03.07.2019
5319 Rain 27 1018 6 0 1.34 260 12:54 03.07.2019
5320 Rain 26 1013 41 0 2.06 213.428 12:21 03.07.2019
5321 Rain 26 1013 42 0 2.06 213.428 11:58 03.07.2019
5322 Rain 25 1013 47 0 2.06 213.428 11:39 03.07.2019
5323 Rain 25 1014 48 0 2.06 213.428 11:20 03.07.2019
5324 Rain 23 1019 14 0 2.06 213.428 10:41 03.07.2019
5325 Rain 22 1019 17 0 2.06 213.428 10:22 03.07.2019
5326 Rain 21 1015 66 0 2.06 213.428 09:42 03.07.2019
5327 Rain 18 1020 60 0 1.34 52 09:21 03.07.2019
5328 Rain 17 1020 59 0 1.34 75 08:53 03.07.2019
5329 Rain 17 1020 59 0 1.34 75 08:53 03.07.2019
5330 Rain 17 1014 74 0 0.18 134.559 08:32 03.07.2019
5331 Clear 16 1020 61 0 1.79 44 07:53 03.07.2019
5332 Clear 16 1014 76 0 0.11 167.943 07:35 03.07.2019
5333 Clear 15 1014 74 0 0.11 167.943 06:48 03.07.2019
5334 Clear 15 1020 61 0 0.45 45 05:44 03.07.2019
5335 Clear 15 1020 66 0 1.34 79 05:19 03.07.2019
5336 Clear 16 1013 71 0 0.4 68.647 03:30 03.07.2019
5337 Rain 16 1020 62 0 0.89 87 02:37 03.07.2019
5338 Rain 16 1021 64 0 1.23 43.48 01:22 03.07.2019
5339 Rain 16 1021 63 0 1.79 59 00:55 03.07.2019
5340 Rain 16 1021 61 0 0.89 56 00:36 03.07.2019
5341 Rain 16 1021 61 0 0.89 53 23:46 02.07.2019
5342 Rain 17 1021 61 0 1.79 72 23:21 02.07.2019
5343 Rain 16 1021 59 0 1.79 53 22:59 02.07.2019
5344 Rain 16 1021 59 0 2.68 42 22:40 02.07.2019
5345 Rain 16 1021 59 0 2.68 42 22:40 02.07.2019
5346 Rain 17 1013 79 0 1.6 57.114 22:22 02.07.2019
5347 Rain 17 1013 81 0 1.6 57.114 21:47 02.07.2019
5348 Rain 17 1021 56 0 1.79 45 21:26 02.07.2019
5349 Rain 18 1012 79 0 0.45 145 20:59 02.07.2019
5350 Rain 19 1021 62 0 0.45 24 20:41 02.07.2019
5351 Rain 18 1012 60 0 0.89 117 20:22 02.07.2019
5352 Rain 19 1011 46 0 2.6 62.361 19:44 02.07.2019
5353 Rain 19 1022 60 0 2.6 62.361 19:25 02.07.2019
5354 Rain 18 1021 62 0 2.6 62.361 18:59 02.07.2019
5355 Rain 19 1021 61 0 2.6 62.361 18:37 02.07.2019
5356 Clouds 22 1022 59 0 3.2 219.127 18:18 02.07.2019
5357 Clouds 24 1021 60 0 3.2 219.127 17:37 02.07.2019
5358 Clouds 25 1021 60 0 1.34 49 17:19 02.07.2019
5359 Clouds 25 1021 61 0 1.79 41 17:19 02.07.2019
5360 Clouds 25 1022 66 0 0.45 225 16:44 02.07.2019
5361 Clouds 25 1021 67 0 0.45 115 16:25 02.07.2019
5362 Clouds 24 1021 71 0 0.89 193 15:40 02.07.2019
5363 Clouds 27 1010 32 0 0.89 238 15:22 02.07.2019
5364 Clouds 27 1010 36 0 0.45 330 14:48 02.07.2019
5365 Clouds 27 1021 71 0 0.89 228 14:28 02.07.2019
5366 Clouds 26 1011 35 0 0.45 281 13:45 02.07.2019
5367 Clouds 26 1021 67 0 0.89 208 13:20 02.07.2019
5368 Clouds 26 1011 41 0 3.35 211.615 12:45 02.07.2019
5369 Clouds 25 1021 53 0 2.79 216.903 12:24 02.07.2019
5370 Clouds 25 1021 49 0 2.79 216.903 11:55 02.07.2019
5371 Clouds 25 1012 47 0 2.79 216.903 11:37 02.07.2019
5372 Clouds 25 1012 49 0 2.79 216.903 11:18 02.07.2019
5373 Clouds 23 1012 57 0 2.79 216.903 10:39 02.07.2019
5374 Clouds 22 1021 48 0 2.79 216.903 10:21 02.07.2019
5375 Clouds 21 1021 48 0 0.45 63 09:42 02.07.2019
5376 Clear 20 1012 69 0 0.54 196.264 09:19 02.07.2019
5377 Clear 19 1022 47 0 0.46 196.735 08:40 02.07.2019
5378 Clear 18 1012 68 0 0.46 196.735 08:20 02.07.2019
5379 Clear 17 1021 46 0 0.46 196.735 07:50 02.07.2019
5380 Clear 16 1021 46 0 0.46 196.735 07:20 02.07.2019
5381 Clear 16 1012 63 0 0.46 196.735 06:42 02.07.2019
5382 Clear 16 1012 62 0 0.27 76.472 05:58 02.07.2019
5383 Clear 17 1022 37 0 1.34 306 03:26 02.07.2019
5384 Clear 18 1023 33 0 0.45 213 00:48 02.07.2019
5385 Clear 19 1023 33 0 0.57 219.908 23:44 01.07.2019
5386 Clear 20 1009 59 0 0.45 142 23:19 01.07.2019
5387 Clear 20 1023 34 0 0.57 219.908 22:44 01.07.2019
5388 Clear 20 1022 32 0 0.89 323 22:26 01.07.2019
5389 Clear 20 1021 31 0 3.13 214 21:47 01.07.2019
5390 Clear 25 1023 44 0 2.24 60 21:25 01.07.2019
5391 Clear 25 1022 47 0 2.57 205.19 20:51 01.07.2019
5392 Clouds 26 1017 17 10000 5.7 210 20:21 01.07.2019
5393 Clouds 27 1017 17 10000 5.7 210 19:57 01.07.2019
5394 Clouds 26 1017 17 10000 5.7 210 19:39 01.07.2019
5395 Clouds 27 1018 17 10000 6.2 210 19:21 01.07.2019
5396 Clouds 27 1018 17 10000 6.2 210 18:50 01.07.2019
5397 Clouds 28 1018 16 10000 5.7 220 18:28 01.07.2019
5398 Clouds 28 1018 16 10000 5.7 210 17:55 01.07.2019
5399 Clouds 29 1018 14 10000 5.1 220 17:37 01.07.2019
5400 Clouds 29 1018 14 10000 5.1 220 17:19 01.07.2019
5401 Clouds 29 1019 14 10000 4.6 210 16:44 01.07.2019
5402 Clouds 29 1019 17 10000 5.1 210 16:24 01.07.2019
5403 Clouds 28 1019 16 10000 5.1 190 15:44 01.07.2019
5404 Clouds 30 1019 17 10000 5.1 190 15:26 01.07.2019
5405 Clouds 30 1020 19 10000 6.2 200 14:45 01.07.2019
5406 Clear 30 1020 19 10000 5.7 200 14:24 01.07.2019
5407 Clear 29 1020 22 10000 4.6 200 13:48 01.07.2019
5408 Clear 29 1020 28 10000 1.5 210 13:24 01.07.2019
5409 Clear 28 1021 30 10000 0.5 0 12:58 01.07.2019
5410 Clear 28 1021 30 10000 0.5 0 12:38 01.07.2019
5411 Clear 27 1021 34 10000 1 0 12:20 01.07.2019
5412 Clear 27 1021 39 10000 1 0 11:45 01.07.2019
5413 Clear 26 1022 23 0 2.68 210 11:23 01.07.2019
5414 Clear 25 1013 45 0 3.31 212.561 10:48 01.07.2019
5415 Clear 23 1024 34 0 0.45 52 10:25 01.07.2019
5416 Clear 23 1024 37 0 0.45 267 09:59 01.07.2019
5417 Clear 22 1024 36 0 1.34 17 09:40 01.07.2019
5418 Clear 21 1024 40 0 0.89 55 09:21 01.07.2019
5419 Clear 20 1024 39 0 2.68 31 08:38 01.07.2019
5420 Clear 20 1024 37 0 2.24 68 08:38 01.07.2019
5421 Clear 19 1024 40 0 2.68 66 08:19 01.07.2019
5422 Clear 18 1024 40 0 2.24 46 07:28 01.07.2019
5423 Clear 18 1013 44 0 0.58 113.55 06:30 01.07.2019
5424 Clear 20 1022 33 0 0.89 72.137 02:21 01.07.2019
5425 Clear 20 1022 74 0 0.87 67.491 00:50 01.07.2019
5426 Clear 21 1021 31 0 0.87 67.491 00:29 01.07.2019
5427 -273 0 0 0 0 0 23:56 30.06.2019
5428 Clear 23 1026 42 0 1.79 30 23:22 30.06.2019
5429 Clear 23 1021 82 0 1.34 212 22:52 30.06.2019
5430 Clear 24 1021 66 0 0.72 93.666 22:21 30.06.2019
5431 Clear 27 1020 72 0 1.34 214 21:42 30.06.2019
5432 Clouds 28 1025 43 0 0.45 27 21:22 30.06.2019
5433 Clouds 28 1025 40 0 0.89 34 20:57 30.06.2019
5434 Clouds 28 1025 39 0 1.34 56 20:39 30.06.2019
5435 Clouds 30 1019 14 10000 5.1 210 20:21 30.06.2019
5436 Clouds 31 1019 14 10000 5.1 210 19:44 30.06.2019
5437 Clouds 32 1019 14 10000 5.1 220 19:25 30.06.2019
5438 Clouds 32 1019 14 10000 5.1 220 19:25 30.06.2019
5439 Clouds 32 1019 12 10000 6.2 210 18:39 30.06.2019
5440 Clouds 33 1019 15 10000 5.7 210 18:20 30.06.2019
5441 Clouds 33 1020 13 10000 4.6 210 17:39 30.06.2019
5442 Clouds 33 1020 14 10000 5.7 210 17:18 30.06.2019
5443 Clouds 33 1020 13 10000 5.1 200 16:49 30.06.2019
5444 Clouds 33 1020 13 10000 4.6 200 16:27 30.06.2019
5445 Clouds 34 1020 13 10000 4.1 210 15:38 30.06.2019
5446 Clouds 33 1020 14 10000 5.1 190 15:19 30.06.2019
5447 Clouds 32 1021 17 10000 5.1 190 14:54 30.06.2019
5448 Clouds 32 1021 17 10000 5.1 190 14:35 30.06.2019
5449 Clouds 32 1021 26 10000 2.6 200 13:49 30.06.2019
5450 Clouds 33 1021 26 10000 2.6 200 13:30 30.06.2019
5451 Clouds 32 1021 29 10000 2.1 230 12:57 30.06.2019
5452 Clear 31 1022 35 10000 1 0 12:39 30.06.2019
5453 Clear 30 1022 35 10000 0.5 0 12:19 30.06.2019
5454 Clear 29 1022 42 10000 1 0 11:45 30.06.2019
5455 Clear 28 1014 39 0 2.43 211.668 11:21 30.06.2019
5456 Clear 28 1020 8 0 2.68 271 10:54 30.06.2019
5457 Clear 28 1021 8 0 2.24 269 10:36 30.06.2019
5458 Clear 27 1021 8 0 1.34 305 10:18 30.06.2019
5459 Clear 26 1014 45 0 2.43 211.668 09:42 30.06.2019
5460 Clear 22 1014 52 0 0.56 81.011 09:20 30.06.2019
5461 Clear 20 1025 37 0 2.24 44 08:40 30.06.2019
5462 Clear 20 1025 38 0 1.79 93 08:21 30.06.2019
5463 Clear 19 1014 52 0 0.48 72.739 07:47 30.06.2019
5464 Clear 18 1025 39 0 1.34 56 07:24 30.06.2019
5465 Clear 19 1025 39 0 2.24 68 06:37 30.06.2019
5466 Clear 21 1025 48 0 1.08 44.176 03:32 30.06.2019
5467 Clear 21 1025 48 0 1.08 44.176 03:32 30.06.2019
5468 Clouds 19 1021 73 0 1.53 37.626 01:53 30.06.2019
5469 Clouds 23 1017 65 0 1.45 39.395 00:46 30.06.2019
5470 Clouds 24 1026 44 0 1.5 48.922 00:24 30.06.2019
5471 Clouds 25 1021 10 0 1.5 48.922 23:48 29.06.2019
5472 Clouds 24 1021 13 0 1.5 48.922 23:22 29.06.2019
5473 Clouds 25 1021 60 0 1.5 48.922 22:47 29.06.2019
5474 Clouds 27 1019 62 0 1.34 213 22:23 29.06.2019
5475 Clouds 27 1004 26 0 1.26 61.801 21:55 29.06.2019
5476 Clouds 29 1025 38 0 0.62 289.991 21:25 29.06.2019
5477 Clouds 32 1011 34 0 0.62 289.991 20:47 29.06.2019
5478 Clouds 32 1017 13 10000 3.6 220 20:29 29.06.2019
5479 Clouds 31 1017 13 10000 3.6 220 19:59 29.06.2019
5480 Clouds 32 1017 13 10000 3.6 220 19:41 29.06.2019
5481 Clouds 35 1017 14 10000 3.6 220 19:20 29.06.2019
5482 Clouds 35 1017 14 10000 3.6 220 19:20 29.06.2019
5483 Clouds 35 1017 13 10000 4.6 220 18:47 29.06.2019
5484 Clouds 35 1017 13 10000 4.6 210 18:24 29.06.2019
5485 Clouds 35 1018 12 10000 4.1 220 17:38 29.06.2019
5486 Clouds 36 1018 13 10000 4.1 220 17:19 29.06.2019
5487 Clouds 36 1018 14 10000 3.1 240 16:43 29.06.2019
5488 Clouds 37 1018 12 10000 4.1 210 16:00 29.06.2019
5489 Clouds 36 1018 11 10000 2.1 260 15:32 29.06.2019
5490 Clouds 36 1019 18 10000 3.1 220 14:46 29.06.2019
5491 Clouds 36 1019 21 10000 2.1 210 14:27 29.06.2019
5492 Clouds 35 1019 24 10000 1.5 140 13:58 29.06.2019
5493 Clouds 35 1019 24 10000 1.5 140 13:39 29.06.2019
5494 Clouds 35 1020 25 10000 1 0 13:19 29.06.2019
5495 Clear 34 1012 23 0 2.72 221.156 12:40 29.06.2019
5496 Clear 33 1012 29 0 1.72 216.863 12:22 29.06.2019
5497 Clear 33 1012 31 0 1.72 216.863 11:45 29.06.2019
5498 Clear 31 1019 5 0 1.72 216.863 11:27 29.06.2019
5499 Clear 30 1019 6 0 1.72 216.863 10:51 29.06.2019
5500 Clear 27 1012 39 0 1.72 216.863 10:22 29.06.2019
5501 Clear 26 1020 8 0 1.72 216.863 09:57 29.06.2019
5502 Clear 22 1025 31 0 1.21 30.468 08:55 29.06.2019
5503 Clear 21 1013 44 0 1.24 28.173 08:31 29.06.2019
5504 Clear 20 1013 45 0 1.24 28.173 07:45 29.06.2019
5505 Clear 20 1025 29 0 1.79 53 06:55 29.06.2019
5506 Clear 20 1025 30 0 0.89 56 06:36 29.06.2019
5507 Clear 19 1013 42 0 1.57 29.985 06:18 29.06.2019
5508 Clouds 21 1026 37 0 0.45 44 01:43 29.06.2019
5509 Clouds 22 1027 38 0 0.45 39 00:49 29.06.2019
5510 Clouds 22 1027 34 0 0.89 49 23:48 28.06.2019
5511 Clouds 23 1022 11 0 1.58 55.523 23:21 28.06.2019
5512 Clouds 22 1007 43 0 1.58 55.523 22:47 28.06.2019
5513 Clouds 23 1007 42 0 1.58 55.523 22:19 28.06.2019
5514 Clouds 24 1020 59 0 1.58 55.523 21:45 28.06.2019
5515 Clouds 29 1027 34 0 1.97 60.536 21:19 28.06.2019
5516 Clouds 31 1018 14 10000 2.6 240 20:41 28.06.2019
5517 Clouds 31 1018 14 10000 2.6 240 20:19 28.06.2019
5518 Clouds 32 1018 14 10000 2.6 240 19:40 28.06.2019
5519 Clouds 32 1018 14 10000 3.6 230 19:21 28.06.2019
5520 Clouds 31 1018 13 10000 3.6 230 18:41 28.06.2019
5521 Clouds 34 1019 14 10000 4.1 220 18:21 28.06.2019
5522 Clouds 35 1019 16 10000 4.1 220 17:44 28.06.2019
5523 Clouds 36 1019 11 10000 3.1 250 17:25 28.06.2019
5524 Clouds 35 1019 11 10000 2.6 230 16:46 28.06.2019
5525 Clouds 35 1019 11 10000 2.6 200 16:19 28.06.2019
5526 Clouds 36 1020 11 10000 3.6 200 15:44 28.06.2019
5527 Clouds 36 1020 11 10000 2.1 200 15:18 28.06.2019
5528 Clouds 35 1020 14 10000 1.5 200 14:40 28.06.2019
5529 Clouds 35 1021 23 10000 1 0 14:21 28.06.2019
5530 Clouds 36 1021 24 10000 1.5 130 13:47 28.06.2019
5531 Clouds 34 1022 33 10000 1 0 13:28 28.06.2019
5532 Clouds 33 1022 39 10000 1 0 12:52 28.06.2019
5533 Clouds 33 1022 39 10000 1 0 12:33 28.06.2019
5534 Clear 31 1023 39 10000 1 0 11:40 28.06.2019
5535 Clear 30 1014 34 0 0.85 134.478 11:18 28.06.2019
5536 Clear 29 1014 41 0 0.85 134.478 10:41 28.06.2019
5537 Clear 27 1014 41 0 0.85 134.478 10:18 28.06.2019
5538 Clear 25 1018 37 0 0.45 90 09:44 28.06.2019
5539 Clear 23 1015 50 0 1.86 41.403 09:25 28.06.2019
5540 Clear 22 1015 52 0 1.95 41.404 08:43 28.06.2019
5541 Clear 21 1027 22 0 0.89 41 08:24 28.06.2019
5542 Clear 21 1027 25 0 0.89 45 07:42 28.06.2019
5543 Clear 21 1027 31 0 0.45 63 06:54 28.06.2019
5544 Clear 19 1028 36 0 0.45 51 03:59 28.06.2019
5545 Clear 22 1029 34 0 0.89 38 00:47 28.06.2019
5546 Clear 23 1029 33 0 1.79 46 00:20 28.06.2019
5547 Clear 23 1029 37 0 1.34 48 23:46 27.06.2019
5548 Clear 23 1029 28 0 2.24 58 23:24 27.06.2019
5549 Clear 23 1009 32 0 1.03 38.444 22:43 27.06.2019
5550 Clear 24 1020 65 0 0.89 168 22:25 27.06.2019
5551 Clear 25 1020 64 0 2.24 193 21:58 27.06.2019
5552 Clear 24 1008 28 0 1.03 38.444 21:39 27.06.2019
5553 Clear 28 1015 26 0 1.59 224.339 21:20 27.06.2019
5554 Clear 30 1015 22 0 0.45 155 20:46 27.06.2019
5555 Clouds 32 1022 20 10000 4.6 220 20:28 27.06.2019
5556 Clouds 33 1022 20 10000 4.6 220 19:48 27.06.2019
5557 Clouds 34 1022 20 10000 4.6 220 19:29 27.06.2019
5558 Clouds 35 1022 15 10000 5.1 210 18:52 27.06.2019
5559 Clouds 35 1022 13 10000 5.7 210 18:30 27.06.2019
5560 Clouds 36 1022 14 10000 4.6 220 17:47 27.06.2019
5561 Clouds 37 1023 12 10000 4.1 220 17:24 27.06.2019
5562 Clouds 37 1023 12 10000 4.1 220 16:59 27.06.2019
5563 Clouds 37 1023 9 10000 4.6 220 16:37 27.06.2019
5564 Clouds 37 1023 13 10000 4.6 220 16:18 27.06.2019
5565 Clouds 37 1023 13 10000 4.6 220 16:18 27.06.2019
5566 Clear 37 1023 16 10000 4.6 220 15:45 27.06.2019
5567 Clear 36 1024 18 10000 3.1 220 15:21 27.06.2019
5568 Clear 36 1024 20 10000 2.6 210 14:43 27.06.2019
5569 Clear 36 1025 24 10000 1 0 14:24 27.06.2019
5570 Clear 36 1025 27 10000 1 0 13:48 27.06.2019
5571 Clear 35 1025 27 10000 1 0 13:30 27.06.2019
5572 Clear 35 1017 27 0 2.25 200.953 12:52 27.06.2019
5573 Clear 34 1017 25 0 2.25 200.953 12:33 27.06.2019
5574 Clear 32 1018 28 0 2.06 205.781 11:56 27.06.2019
5575 Clear 32 1017 36 0 2.06 205.781 11:38 27.06.2019
5576 Clear 31 1018 43 0 2.06 205.781 11:20 27.06.2019
5577 Clear 28 1023 6 0 2.06 205.781 10:42 27.06.2019
5578 Clear 27 1018 42 0 2.06 205.781 10:20 27.06.2019
5579 Clear 26 1024 8 0 2.06 205.781 09:50 27.06.2019
5580 Clear 23 1030 28 0 1.79 76 09:21 27.06.2019
5581 Clear 21 1030 29 0 1.34 34 08:51 27.06.2019
5582 Clear 21 1018 41 0 1.42 66.452 08:30 27.06.2019
5583 Clear 21 1030 28 0 2.24 48 07:48 27.06.2019
5584 Clear 21 1018 41 0 1.42 66.452 07:48 27.06.2019
5585 Clear 20 1030 28 0 1.34 32 07:24 27.06.2019
5586 Clear 20 1030 27 0 0.45 108 06:37 27.06.2019
5587 Clear 18 1030 25 0 0.45 27 03:52 27.06.2019
5588 Clear 19 1030 23 0 0.89 62 02:43 27.06.2019
5589 Clear 20 1031 24 0 1.79 69.163 01:45 27.06.2019
5590 Clear 21 1031 26 0 0.45 13 00:53 27.06.2019
5591 Clear 21 1031 22 0 0.89 55 00:29 27.06.2019
5592 Clear 22 1031 27 0 0.89 37 23:51 26.06.2019
5593 Clear 23 1030 31 0 0.45 55 23:23 26.06.2019
5594 Clear 22 1030 36 0 0.45 55 22:59 26.06.2019
5595 Clear 22 1030 36 0 0.89 70 22:40 26.06.2019
5596 Clear 24 1030 40 0 0.45 340 22:19 26.06.2019
5597 Clear 25 1029 28 0 0.89 122 21:43 26.06.2019
5598 Clear 27 1029 37 0 0.45 125 21:21 26.06.2019
5599 Clear 28 1029 30 0 2.24 46 20:57 26.06.2019
5600 Clear 30 1016 24 0 0.45 139 20:37 26.06.2019
5601 Clear 30 1015 23 0 0.45 181 20:19 26.06.2019
5602 Clear 30 1029 28 0 2.68 83 19:43 26.06.2019
5603 Clear 30 1029 30 0 2.24 15 19:23 26.06.2019
5604 Clear 31 1028 37 0 2.68 60 18:46 26.06.2019
5605 Clear 33 1014 20 0 4.28 172.116 18:23 26.06.2019
5606 Clear 33 1014 21 0 0.45 143 17:58 26.06.2019
5607 Clear 33 1015 21 0 0.89 290 17:38 26.06.2019
5608 Clear 33 1015 21 0 0.45 155 17:19 26.06.2019
5609 Clear 34 1015 22 0 0.45 280 16:46 26.06.2019
5610 Clear 34 1015 19 0 1.34 288 16:22 26.06.2019
5611 Clear 33 1015 20 0 0.45 174 15:37 26.06.2019
5612 Clear 34 1015 21 0 0.89 145 15:19 26.06.2019
5613 Clear 33 1015 21 0 0.89 41 14:38 26.06.2019
5614 Clear 33 1015 21 0 0.45 242 14:19 26.06.2019
5615 Clear 32 1015 21 0 1.79 211 13:42 26.06.2019
5616 Clouds 32 1015 21 0 0.89 353 13:20 26.06.2019
5617 Clouds 32 1015 20 0 0.89 92 12:41 26.06.2019
5618 Clouds 31 1015 20 0 1.34 172 12:22 26.06.2019
5619 Clouds 30 1015 21 0 0.89 153 11:45 26.06.2019
5620 Clouds 29 1015 25 0 0.89 226 11:19 26.06.2019
5621 Clouds 27 1016 26 0 0.89 283 10:41 26.06.2019
5622 Clouds 26 1016 28 0 0.45 328 10:22 26.06.2019
5623 Clouds 24 1016 32 0 4.36 167.716 09:42 26.06.2019
5624 Clouds 22 1016 39 0 2.08 96.769 09:18 26.06.2019
5625 Clouds 20 1027 38 0 4.92 56 08:41 26.06.2019
5626 Clouds 19 1016 35 0 1.93 100.802 08:19 26.06.2019
5627 Clouds 20 1016 34 0 1.93 100.802 07:45 26.06.2019
5628 Clouds 20 1026 37 0 4.92 56 06:38 26.06.2019
5629 Clouds 17 1016 27 0 0.89 179 06:20 26.06.2019
5630 Clear 19 1026 37 0 2.24 7 00:59 26.06.2019
5631 Clear 20 1015 30 0 0.45 82 00:20 26.06.2019
5632 Clear 20 1015 29 0 1.94 99.885 23:43 25.06.2019
5633 Clear 21 1026 37 0 3.13 38 23:24 25.06.2019
5634 Clear 20 1026 36 0 2.68 75 22:56 25.06.2019
5635 Clear 20 1026 31 0 2.68 38 22:37 25.06.2019
5636 Clear 21 1026 28 0 3.13 51 22:19 25.06.2019
5637 Clear 20 1012 37 0 1.94 99.885 21:40 25.06.2019
5638 Clear 25 1025 33 0 2.24 24 21:21 25.06.2019
5639 Clear 27 1013 25 0 0.45 183 20:43 25.06.2019
5640 Clear 28 1025 31 0 3.13 44 20:43 25.06.2019
5641 Clear 27 1025 37 0 2.68 66 20:20 25.06.2019
5642 Clear 27 1025 37 0 2.68 66 20:20 25.06.2019
5643 Clear 27 1025 38 0 2.24 68 19:45 25.06.2019
5644 Clear 27 1025 38 0 2.24 68 19:45 25.06.2019
5645 Clear 28 1025 39 0 3.13 42 19:22 25.06.2019
5646 Clear 29 1017 29 0 0.89 67 18:43 25.06.2019
5647 Clear 30 1013 27 0 0.45 61 18:25 25.06.2019
5648 Clear 31 1013 27 0 0.45 150 17:51 25.06.2019
5649 -273 0 0 0 0 0 17:28 25.06.2019
5650 Clear 31 1013 28 0 0.45 257 16:55 25.06.2019
5651 Clear 31 1013 28 0 0.45 271 16:37 25.06.2019
5652 Clear 31 1013 27 0 0.45 170 16:19 25.06.2019
5653 Clear 30 1013 24 0 0.45 152 15:39 25.06.2019
5654 Clouds 29 1018 6 0 2.68 228 15:20 25.06.2019
5655 Clouds 29 1017 28 0 0.89 67 15:20 25.06.2019
5656 Clouds 29 1013 24 0 0.89 102 14:50 25.06.2019
5657 Clouds 28 1013 23 0 0.89 129 14:31 25.06.2019
5658 Clouds 29 1013 26 0 0.89 108 13:43 25.06.2019
5659 Clouds 28 1013 29 0 0.45 88 13:24 25.06.2019
5660 Clouds 27 1019 20 0 2.24 166 12:43 25.06.2019
5661 Clouds 25 1013 30 0 0.45 162 12:24 25.06.2019
5662 Clouds 25 1013 30 0 0.45 162 12:24 25.06.2019
5663 Clouds 25 1013 32 0 0.45 265 11:46 25.06.2019
5664 Clouds 24 1013 32 0 0.45 135 11:25 25.06.2019
5665 Clouds 23 1013 36 0 3.2 174.95 10:58 25.06.2019
5666 Clouds 23 1013 49 0 3.2 174.95 10:37 25.06.2019
5667 Clouds 22 1019 38 0 3.2 174.95 10:19 25.06.2019
5668 Clouds 19 1020 40 0 0.45 190 09:39 25.06.2019
5669 Clouds 18 1022 43 0 3.13 28 09:21 25.06.2019
5670 Clouds 18 1013 57 0 1.36 107.301 08:59 25.06.2019
5671 Clouds 17 1013 60 0 1.36 107.301 08:31 25.06.2019
5672 Clouds 18 1013 55 0 1.4 101.149 07:45 25.06.2019
5673 Clouds 17 1021 39 0 3.13 7 07:26 25.06.2019
5674 Clouds 17 1013 55 0 1.4 101.149 06:47 25.06.2019
5675 Clouds 16 1021 39 0 3.58 97 05:58 25.06.2019
5676 Clouds 16 1021 37 0 1.79 52 02:43 25.06.2019
5677 Clouds 18 1021 32 0 2.68 58 00:39 25.06.2019
5678 Clouds 19 1012 48 0 1.52 102.459 00:19 25.06.2019
5679 Clouds 19 1020 32 0 1.34 134 23:51 24.06.2019
5680 Clouds 19 1021 30 0 1.34 42 23:32 24.06.2019
5681 Clouds 20 1021 44 0 1.34 72 22:48 24.06.2019
5682 Clouds 20 1020 47 0 0.89 11 22:20 24.06.2019
5683 Clouds 23 1020 41 0 0.89 333 21:54 24.06.2019
5684 Clouds 23 1020 46 0 0.45 13 21:36 24.06.2019
5685 Clouds 23 1010 43 0 2.09 154.049 21:18 24.06.2019
5686 Clear 26 1016 25 10000 3.6 230 20:42 24.06.2019
5687 Clear 26 1016 25 10000 3.6 230 20:22 24.06.2019
5688 Clear 27 1016 25 10000 3.6 230 19:48 24.06.2019
5689 Clear 27 1016 25 10000 4.1 230 19:26 24.06.2019
5690 Clear 27 1016 25 10000 4.6 230 18:54 24.06.2019
5691 Clear 27 1016 25 10000 4.6 230 18:31 24.06.2019
5692 Clear 28 1016 23 10000 4.6 230 17:59 24.06.2019
5693 Clear 29 1016 22 10000 4.6 230 17:37 24.06.2019
5694 Clear 28 1017 23 10000 6.2 220 16:56 24.06.2019
5695 Clear 28 1017 25 10000 6.7 220 16:37 24.06.2019
5696 Clear 28 1017 25 10000 6.7 220 16:19 24.06.2019
5697 Clear 28 1017 27 10000 5.1 220 15:40 24.06.2019
5698 Clear 28 1017 23 10000 5.1 220 15:22 24.06.2019
5699 Clear 29 1018 22 10000 5.7 220 14:35 24.06.2019
5700 Clear 28 1018 23 10000 4.6 220 13:57 24.06.2019
5701 Clear 28 1018 34 10000 3.1 220 13:32 24.06.2019
5702 Clear 27 1019 47 10000 1 0 12:46 24.06.2019
5703 Clear 27 1019 47 10000 1 0 12:26 24.06.2019
5704 Clear 27 1019 50 10000 1 0 11:59 24.06.2019
5705 Clear 26 1019 49 10000 1 0 11:40 24.06.2019
5706 Clouds 26 1012 32 0 3.07 188.455 11:21 24.06.2019
5707 Clouds 25 1012 60 0 3.07 188.455 10:50 24.06.2019
5708 Clouds 24 1015 9 0 3.07 188.455 10:27 24.06.2019
5709 Clouds 22 1013 67 0 0.45 212 09:49 24.06.2019
5710 Clouds 22 1013 67 0 0.45 212 09:49 24.06.2019
5711 Clouds 22 1013 67 0 0.45 212 09:49 24.06.2019
5712 Clouds 19 1019 40 0 5.36 27 09:22 24.06.2019
5713 Clouds 18 1019 42 0 4.02 35 08:52 24.06.2019
5714 Clouds 17 1019 41 0 2.68 84 08:26 24.06.2019
5715 Clouds 17 1019 42 0 3.13 20 08:26 24.06.2019
5716 Clouds 16 1019 40 0 1.79 66 07:45 24.06.2019
5717 Clouds 16 1019 40 0 2.24 45 07:26 24.06.2019
5718 Clouds 15 1020 62 0 1.34 28 06:39 24.06.2019
5719 Clouds 16 1020 63 0 0.89 70 06:19 24.06.2019
5720 Clouds 16 1020 57 0 2.24 359 05:24 24.06.2019
5721 Clouds 16 1020 59 0 1.79 56 04:24 24.06.2019
5722 Clouds 18 1020 58 0 0.89 53 02:56 24.06.2019
5723 Clouds 18 1021 59 0 1.34 70 02:20 24.06.2019
5724 Clouds 18 1021 49 0 2.24 39 01:49 24.06.2019
5725 Clouds 18 1021 47 0 1.79 42 01:21 24.06.2019
5726 Clouds 19 1021 59 0 2.24 69 00:39 24.06.2019
5727 Clouds 19 1021 62 0 1.79 52 00:19 24.06.2019
5728 Clouds 20 1021 62 0 0.89 32 23:44 23.06.2019
5729 Clouds 20 1021 61 0 0.89 32 23:22 23.06.2019
5730 Clouds 20 1021 58 0 2.24 46 22:43 23.06.2019
5731 Clouds 18 1021 54 0 2.68 51 22:20 23.06.2019
5732 Clouds 19 1020 54 0 2.68 23 21:44 23.06.2019
5733 Clouds 24 1020 59 0 2.68 68 21:25 23.06.2019
5734 Clouds 25 1020 59 0 0.45 44 20:58 23.06.2019
5735 Clouds 25 1020 58 0 0.45 75 20:38 23.06.2019
5736 Clouds 26 1016 33 10000 3.1 230 20:20 23.06.2019
5737 Clouds 27 1016 33 10000 3.1 230 19:43 23.06.2019
5738 Clouds 27 1016 31 10000 3.6 220 19:20 23.06.2019
5739 Clouds 28 1016 28 10000 2.6 200 18:47 23.06.2019
5740 Clouds 30 1016 31 10000 4.1 210 18:20 23.06.2019
5741 Clouds 30 1016 31 10000 3.6 210 17:45 23.06.2019
5742 Clouds 30 1016 30 10000 3.6 200 17:25 23.06.2019
5743 Clouds 30 1016 33 10000 4.6 210 16:47 23.06.2019
5744 Clouds 30 1016 28 10000 3.1 240 16:26 23.06.2019
5745 Clouds 29 1016 28 10000 3.1 240 15:59 23.06.2019
5746 Clouds 29 1017 35 10000 3.1 180 15:39 23.06.2019
5747 Clouds 29 1017 35 10000 3.1 190 15:19 23.06.2019
5748 Clouds 29 1017 39 10000 1.5 0 14:39 23.06.2019
5749 Clouds 28 1017 39 10000 2.1 0 14:21 23.06.2019
5750 Clouds 28 1018 41 10000 1 0 13:46 23.06.2019
5751 Clouds 28 1018 41 10000 1 0 13:21 23.06.2019
5752 Clouds 27 1018 41 10000 1 0 12:59 23.06.2019
5753 Clouds 26 1018 46 10000 1 0 12:41 23.06.2019
5754 Clouds 26 1013 54 0 0.45 145 12:19 23.06.2019
5755 Clouds 25 1018 52 10000 1 0 11:47 23.06.2019
5756 Clouds 24 1018 52 10000 1 0 11:27 23.06.2019
5757 Clouds 22 1016 8 0 2.94 212.51 10:50 23.06.2019
5758 Clouds 21 1013 61 0 2.94 212.51 10:21 23.06.2019
5759 Clouds 21 1013 64 0 0.45 262 09:58 23.06.2019
5760 Clouds 18 1019 66 0 3.13 53 09:24 23.06.2019
5761 Clouds 16 1018 67 0 2.24 52 08:54 23.06.2019
5762 Clouds 16 1018 67 0 2.24 52 08:54 23.06.2019
5763 Clouds 16 1018 65 0 2.24 70 08:36 23.06.2019
5764 Clouds 15 1013 76 0 0.41 87.643 08:18 23.06.2019
5765 Clouds 14 1014 74 0 0.41 87.643 07:44 23.06.2019
5766 Clouds 14 1013 73 0 0.41 87.643 07:18 23.06.2019
5767 Clouds 13 1018 69 0 1.79 52 06:52 23.06.2019
5768 Clouds 14 1018 56 0 1.34 45 05:44 23.06.2019
5769 Clouds 16 1018 69 0 1.79 59 02:51 23.06.2019
5770 Clouds 16 1018 66 0 2.68 77 01:39 23.06.2019
5771 Clouds 17 1019 65 0 2.68 359 00:58 23.06.2019
5772 Clouds 17 1018 35 0 0.42 103.086 00:27 23.06.2019
5773 Clouds 17 1018 33 0 0.42 103.086 23:44 22.06.2019
5774 Clouds 18 1018 34 0 0.42 103.086 23:25 22.06.2019
5775 Clouds 18 1017 54 0 0.42 103.086 22:47 22.06.2019
5776 Clouds 17 1017 51 0 0.45 311 22:26 22.06.2019
5777 Clouds 18 1019 56 0 1.34 90 21:43 22.06.2019
5778 Clouds 21 1013 48 0 2.45 212.931 21:20 22.06.2019
5779 Clouds 22 1018 65 0 0.45 55 20:56 22.06.2019
5780 Clouds 22 1018 65 0 2.38 208.309 20:38 22.06.2019
5781 Clouds 23 1016 29 10000 4.1 200 20:19 22.06.2019
5782 Clouds 24 1016 29 10000 4.1 200 19:40 22.06.2019
5783 Clouds 24 1016 31 10000 5.1 210 19:19 22.06.2019
5784 Clouds 25 1016 32 10000 4.1 210 18:42 22.06.2019
5785 Clouds 26 1016 34 10000 4.6 210 18:22 22.06.2019
5786 Clouds 26 1016 34 10000 4.6 210 17:43 22.06.2019
5787 Clouds 26 1016 36 10000 4.1 200 17:25 22.06.2019
5788 Clouds 26 1016 36 10000 5.7 200 16:40 22.06.2019
5789 Clouds 26 1017 38 10000 4.6 200 16:22 22.06.2019
5790 Clouds 25 1017 38 10000 4.6 200 15:42 22.06.2019
5791 Clouds 25 1017 44 10000 5.7 210 15:24 22.06.2019
5792 Clouds 24 1017 44 10000 5.1 210 14:50 22.06.2019
5793 Clouds 23 1017 44 10000 5.1 210 14:29 22.06.2019
5794 Clear 23 1018 49 10000 2.1 230 13:45 22.06.2019
5795 Clouds 23 1018 56 10000 1 0 13:27 22.06.2019
5796 Clouds 22 1018 64 10000 1 0 12:54 22.06.2019
5797 Clouds 22 1018 64 10000 1 0 12:36 22.06.2019
5798 Clouds 20 1019 77 10000 1 0 11:59 22.06.2019
5799 Clouds 20 1019 77 10000 1 0 11:36 22.06.2019
5800 Clouds 19 1019 53 0 0.89 56 10:54 22.06.2019
5801 Clouds 18 1019 29 0 2.4 214.214 10:22 22.06.2019
5802 Clouds 17 1015 80 0 2.4 214.214 09:55 22.06.2019
5803 Clouds 16 1015 78 0 2.4 214.214 09:27 22.06.2019
5804 Clouds 13 1016 96 0 0.75 218.016 08:44 22.06.2019
5805 Clouds 13 1017 87 0 2.68 44 08:25 22.06.2019
5806 Clouds 11 1016 86 0 3.13 62 07:36 22.06.2019
5807 Clouds 11 1016 86 0 2.24 68 06:56 22.06.2019
5808 Clouds 11 1015 95 0 0.56 221.523 05:30 22.06.2019
5809 Clouds 12 1017 89 0 2.24 21 02:34 22.06.2019
5810 Clouds 12 1018 89 0 0.45 62 01:24 22.06.2019
5811 Clouds 12 1016 92 0 0.15 264.327 00:46 22.06.2019
5812 Rain 13 1018 87 0 1.47 17.804 00:22 22.06.2019
5813 Rain 13 1016 91 0 1.47 17.804 23:44 21.06.2019
5814 Rain 13 1018 88 0 1.47 17.804 23:22 21.06.2019
5815 Rain 13 1016 91 0 1.47 17.804 22:52 21.06.2019
5816 Rain 13 1018 84 0 1.47 17.804 22:24 21.06.2019
5817 Rain 15 1020 57 0 0.45 276 21:55 21.06.2019
5818 Rain 15 1016 80 0 1.79 96 21:36 21.06.2019
5819 Rain 15 1017 84 0 1.02 243.285 21:36 21.06.2019
5820 Rain 15 1015 82 0 1.02 243.285 21:18 21.06.2019
5821 Rain 14 1017 87 0 1.16 235.065 20:42 21.06.2019
5822 Clouds 18 1016 56 10000 3.1 230 20:20 21.06.2019
5823 Clouds 16 1016 56 10000 3.1 230 19:34 21.06.2019
5824 Clouds 17 1016 53 10000 2.1 290 18:49 21.06.2019
5825 Clouds 19 1017 56 10000 2.1 240 18:29 21.06.2019
5826 Clouds 18 1017 64 10000 1.5 0 17:46 21.06.2019
5827 Clouds 18 1017 64 10000 1.5 0 17:28 21.06.2019
5828 Clouds 18 1017 68 10000 1.5 100 16:40 21.06.2019
5829 Clouds 17 1018 64 10000 2.1 0 16:22 21.06.2019
5830 Clouds 17 1018 64 10000 1 0 15:40 21.06.2019
5831 Clouds 16 1018 72 10000 2.1 230 15:20 21.06.2019
5832 Clouds 15 1018 88 10000 2.1 220 14:49 21.06.2019
5833 Clouds 15 1018 88 10000 2.1 220 14:30 21.06.2019
5834 Clouds 15 1018 82 10000 1 0 13:53 21.06.2019
5835 Clouds 15 1018 82 10000 1 0 13:33 21.06.2019
5836 Rain 16 1019 93 10000 1 0 12:58 21.06.2019
5837 Clouds 15 1019 93 10000 1 0 12:38 21.06.2019
5838 Rain 16 1019 87 10000 2.1 240 12:18 21.06.2019
5839 Rain 16 1019 87 10000 2.1 240 12:18 21.06.2019
5840 Rain 16 1019 87 10000 2.1 240 12:18 21.06.2019
5841 Clouds 17 1018 87 10000 1.5 210 11:46 21.06.2019
5842 Rain 17 1014 89 0 2.03 202.248 11:24 21.06.2019
5843 Rain 18 1013 91 0 2.03 202.248 10:48 21.06.2019
5844 Rain 17 1014 92 0 2.03 202.248 10:21 21.06.2019
5845 Rain 16 1016 79 0 2.03 202.248 09:55 21.06.2019
5846 Clouds 15 1016 79 0 0.79 162.547 09:37 21.06.2019
5847 Clouds 15 1014 95 0 0.79 162.547 09:18 21.06.2019
5848 Clouds 14 1016 80 0 0.83 172.841 08:42 21.06.2019
5849 Clouds 14 1013 95 0 0.83 172.841 08:21 21.06.2019
5850 Clouds 13 1013 96 0 0.83 172.841 07:46 21.06.2019
5851 Clouds 13 1015 80 0 0.89 68 07:23 21.06.2019
5852 Clouds 13 1012 95 0 0.83 172.841 06:42 21.06.2019
5853 Clouds 13 1012 95 0 1.01 109.661 06:18 21.06.2019
5854 Clouds 13 1015 81 0 1.01 109.661 04:57 21.06.2019
5855 Clouds 13 1017 73 0 0.89 305 03:53 21.06.2019
5856 Clouds 13 1012 94 0 1.01 109.661 03:32 21.06.2019
5857 Rain 14 1016 81 0 1.79 21 02:44 21.06.2019
5858 Rain 14 1013 94 0 1.01 102.202 01:33 21.06.2019
5859 Rain 13 1016 79 0 2.24 46 00:52 21.06.2019
5860 Rain 14 1016 81 0 1.79 52 23:59 20.06.2019
5861 Rain 14 1017 78 0 2.24 55 23:41 20.06.2019
5862 Rain 14 1013 93 0 1.55 40.397 23:21 20.06.2019
5863 Rain 15 1017 74 0 0.89 41 22:46 20.06.2019
5864 Rain 15 1017 73 0 2.24 32 22:24 20.06.2019
5865 Rain 15 1017 74 0 1.34 42 21:57 20.06.2019
5866 Rain 14 1017 75 0 1.79 38 21:38 20.06.2019
5867 Rain 14 1013 86 0 0.45 64 21:19 20.06.2019
5868 Rain 16 1016 86 0 0.64 96.449 20:44 20.06.2019
5869 Thunderstorm 16 1014 68 10000 4.1 180 20:25 20.06.2019
5870 Thunderstorm 16 1014 68 10000 4.1 180 20:25 20.06.2019
5871 Thunderstorm 16 1014 68 10000 4.1 180 19:55 20.06.2019
5872 Thunderstorm 17 1014 68 10000 4.1 180 19:36 20.06.2019
5873 Thunderstorm 17 1014 49 10000 4.6 180 19:18 20.06.2019
5874 Rain 16 1015 69 0 0.45 274 18:41 20.06.2019
5875 Rain 17 1015 68 0 0.45 236 18:21 20.06.2019
5876 Rain 17 1009 74 0 3.33 223.819 17:48 20.06.2019
5877 Rain 18 1009 76 0 3.33 223.819 17:29 20.06.2019
5878 Rain 20 1014 39 10000 4.6 220 16:47 20.06.2019
5879 Rain 17 1015 66 0 0.45 238 16:20 20.06.2019
5880 Clouds 19 1015 41 10000 5.1 220 15:57 20.06.2019
5881 Clouds 19 1015 41 10000 5.1 220 15:38 20.06.2019
5882 Clouds 21 1015 41 10000 5.7 220 15:19 20.06.2019
5883 Clouds 21 1015 41 10000 3.6 230 14:44 20.06.2019
5884 Clouds 20 1016 47 10000 2.1 0 14:22 20.06.2019
5885 Clouds 21 1016 44 10000 1.5 0 13:40 20.06.2019
5886 Clouds 21 1016 47 10000 2.1 140 13:19 20.06.2019
5887 Clouds 20 1016 46 10000 1.5 190 12:46 20.06.2019
5888 Clouds 20 1017 53 10000 1.5 0 12:23 20.06.2019
5889 Clouds 20 1017 68 10000 1 0 11:46 20.06.2019
5890 -273 0 0 0 0 0 11:27 20.06.2019
5891 Rain 19 1016 74 0 1.79 39 10:54 20.06.2019
5892 Rain 19 1011 71 0 2.83 202.498 10:36 20.06.2019
5893 Rain 18 1011 69 0 2.83 202.498 10:18 20.06.2019
5894 Rain 17 1016 78 0 0.45 221 09:40 20.06.2019
5895 Rain 16 1011 72 0 0.85 78.361 09:21 20.06.2019
5896 Rain 16 1016 76 0 0.41 132.923 08:45 20.06.2019
5897 Rain 16 1016 76 0 0.41 132.923 08:27 20.06.2019
5898 Rain 15 1016 75 0 0.41 132.923 07:53 20.06.2019
5899 Rain 15 1010 75 0 0.41 132.923 07:28 20.06.2019
5900 Clouds 15 1016 72 0 1.03 39.384 06:27 20.06.2019
5901 Clouds 16 1016 71 0 1.03 39.384 04:54 20.06.2019
5902 Clouds 17 1011 67 0 1.09 19.231 02:29 20.06.2019
5903 Clouds 18 1017 25 0 0.72 59.145 00:34 20.06.2019
5904 Clear 18 1016 65 0 0.88 41.045 23:49 19.06.2019
5905 Clear 19 1017 69 0 0.88 41.045 23:30 19.06.2019
5906 Clear 18 1017 79 0 0.88 41.045 22:57 19.06.2019
5907 Clear 19 1017 74 0 0.45 231 22:39 19.06.2019
5908 Clear 18 1017 73 0 0.88 41.045 22:18 19.06.2019
5909 Clear 19 1011 34 0 0.45 312 21:42 19.06.2019
5910 Clouds 22 1009 37 0 2.99 223.25 21:23 19.06.2019
5911 Clouds 23 1009 33 0 0.89 319 20:42 19.06.2019
5912 Clouds 24 1009 35 0 0.45 194 20:21 19.06.2019
5913 Clouds 23 1016 69 0 1.34 218 19:51 19.06.2019
5914 Clouds 23 1016 69 0 1.79 197 19:29 19.06.2019
5915 Clouds 24 1015 66 0 1.79 210 18:57 19.06.2019
5916 Clouds 27 1008 32 0 0.89 294 18:28 19.06.2019
5917 Clouds 27 1009 34 0 1.34 125 17:53 19.06.2019
5918 Clouds 27 1009 32 0 0.89 248 17:33 19.06.2019
5919 Clouds 27 1009 33 0 1.34 276 16:56 19.06.2019
5920 Clouds 27 1009 30 0 1.79 316 16:38 19.06.2019
5921 Clouds 27 1009 28 0 1.34 318 16:19 19.06.2019
5922 Clouds 27 1009 24 0 0.45 117 15:46 19.06.2019
5923 Clouds 27 1009 23 0 1.34 39 15:24 19.06.2019
5924 Clouds 27 1009 23 0 1.34 39 15:24 19.06.2019
5925 Clouds 28 1014 6 0 2.24 277 14:44 19.06.2019
5926 Clouds 28 1014 6 0 3.58 201 14:26 19.06.2019
5927 Clouds 28 1014 6 0 3.13 199 13:48 19.06.2019
5928 Clouds 27 1014 6 0 2.68 225 13:29 19.06.2019
5929 Clouds 27 1014 7 0 2.68 226 12:59 19.06.2019
5930 Clouds 26 1014 7 0 2.68 236 12:41 19.06.2019
5931 Clear 26 1013 35 0 1.79 180 12:19 19.06.2019
5932 Clear 24 1015 8 0 0.89 314 11:43 19.06.2019
5933 Clear 23 1009 43 0 3.78 210.176 11:23 19.06.2019
5934 Clear 23 1013 40 0 1.79 157 10:51 19.06.2019
5935 Clear 21 1009 55 0 3.78 210.176 10:30 19.06.2019
5936 Clear 20 1010 44 0 3.78 210.176 09:58 19.06.2019
5937 Clear 19 1016 10 0 3.78 210.176 09:38 19.06.2019
5938 Clear 19 1016 10 0 3.78 210.176 09:38 19.06.2019
5939 Clear 17 1010 55 0 1.04 146.571 09:18 19.06.2019
5940 Clear 15 1015 57 0 2.24 21 08:43 19.06.2019
5941 Clear 14 1015 52 0 2.24 72 08:25 19.06.2019
5942 Clear 14 1015 47 0 1.34 59 07:44 19.06.2019
5943 Clear 14 1015 48 0 1.34 60 07:23 19.06.2019
5944 Clear 15 1015 47 0 0.89 52 06:42 19.06.2019
5945 Clear 12 1010 52 0 1.47 73.099 06:19 19.06.2019
5946 Clear 12 1015 53 0 0.89 45 05:40 19.06.2019
5947 Clear 13 1015 53 0 1.34 77 03:58 19.06.2019
5948 Clear 14 1015 48 0 2.24 80 02:52 19.06.2019
5949 Clear 14 1016 46 0 1.34 69 01:44 19.06.2019
5950 Clear 13 1016 56 0 0.45 27 00:56 19.06.2019
5951 Clear 13 1016 56 0 0.45 27 00:56 19.06.2019
5952 Clear 15 1014 67 0 1.31 80.653 00:38 19.06.2019
5953 Clear 16 1011 37 0 0.45 159 00:18 19.06.2019
5954 Clear 18 1017 50 0 1.34 17 23:43 18.06.2019
5955 Clear 18 1017 54 0 1.3 121.024 23:24 18.06.2019
5956 Clear 19 1017 88 0 1.3 121.024 22:41 18.06.2019
5957 Clear 19 1017 88 0 1.3 121.024 22:23 18.06.2019
5958 Clear 19 1017 88 0 1.3 121.024 21:47 18.06.2019
5959 Clear 23 1016 49 0 2.24 41 21:23 18.06.2019
5960 Clear 23 1016 49 0 2.24 41 21:23 18.06.2019
5961 Clear 24 1009 38 0 0.89 150 20:59 18.06.2019
5962 Clear 25 1016 47 0 0.89 200 20:40 18.06.2019
5963 Clear 25 1009 34 0 1.34 139 20:21 18.06.2019
5964 Clear 25 1009 34 0 1.34 139 20:21 18.06.2019
5965 Clear 26 1016 47 0 2.24 336 19:39 18.06.2019
5966 Clear 28 1012 42 0 2.24 64 19:21 18.06.2019
5967 Clear 26 1016 48 0 1.79 359 18:51 18.06.2019
5968 Clouds 28 1009 29 0 1.79 172 18:25 18.06.2019
5969 Clouds 29 1009 31 0 0.45 68 17:48 18.06.2019
5970 Clouds 29 1009 30 0 1.34 307 17:22 18.06.2019
5971 Clouds 29 1013 6 0 5.38 212.603 16:58 18.06.2019
5972 Clouds 29 1010 31 0 1.79 32 16:39 18.06.2019
5973 Clouds 29 1010 36 0 0.45 155 16:21 18.06.2019
5974 Clouds 29 1010 31 0 0.89 110 15:41 18.06.2019
5975 Clouds 29 1010 31 0 0.89 23 15:22 18.06.2019
5976 Clouds 29 1010 33 0 1.79 218 14:56 18.06.2019
5977 Clouds 28 1010 32 0 0.45 108 14:37 18.06.2019
5978 Clouds 28 1010 38 0 4.46 213.925 14:18 18.06.2019
5979 Clouds 28 1010 38 0 4.46 213.925 14:18 18.06.2019
5980 Clouds 28 1011 36 0 0.45 278 13:43 18.06.2019
5981 Clouds 28 1011 41 0 0.45 252 13:22 18.06.2019
5982 Clouds 27 1014 6 0 2.68 187 12:45 18.06.2019
5983 Clouds 26 1014 6 0 4.68 214.444 12:27 18.06.2019
5984 Clouds 25 1011 56 0 2.86 204.22 11:49 18.06.2019
5985 Clouds 24 1011 58 0 2.86 204.22 11:23 18.06.2019
5986 Clouds 23 1012 69 0 2.86 204.22 10:58 18.06.2019
5987 Clouds 22 1012 64 0 2.86 204.22 10:38 18.06.2019
5988 Clouds 22 1012 65 0 2.86 204.22 10:20 18.06.2019
5989 Clouds 21 1015 12 0 2.86 204.22 09:51 18.06.2019
5990 Clouds 19 1018 53 0 1.34 53 09:24 18.06.2019
5991 Clouds 17 1012 67 0 0.24 106.108 08:48 18.06.2019
5992 Clouds 15 1013 70 0 0.38 155.945 08:22 18.06.2019
5993 Clouds 15 1012 74 0 0.38 155.945 07:45 18.06.2019
5994 Clouds 14 1018 66 0 1.79 69 07:24 18.06.2019
5995 Clouds 14 1013 67 0 0.38 155.945 06:45 18.06.2019
5996 Clouds 14 1018 69 0 2.24 48 05:21 18.06.2019
5997 Clouds 14 1016 36 0 0.34 71.618 03:59 18.06.2019
5998 Clouds 15 1019 67 0 2.68 52 02:27 18.06.2019
5999 Clouds 15 1019 66 0 1.34 62 01:25 18.06.2019
6000 Clouds 16 1019 67 0 0.38 95.332 00:57 18.06.2019
6001 Clouds 15 1019 65 0 0.45 55 00:30 18.06.2019
6002 Clear 16 1019 67 0 0.45 38 23:42 17.06.2019
6003 Clear 17 1019 64 0 0.89 44 23:22 17.06.2019
6004 Clear 16 1017 45 0 2.68 190 22:58 17.06.2019
6005 Clear 16 1020 92 0 1.06 92.492 22:38 17.06.2019
6006 Clear 19 1015 27 0 1.06 92.492 22:20 17.06.2019
6007 Clear 19 1016 8 0 1.06 92.492 21:42 17.06.2019
6008 Clouds 22 1019 62 0 1.7 220.357 21:22 17.06.2019
6009 Clouds 25 1015 21 10000 4.6 210 20:39 17.06.2019
6010 Clouds 25 1015 21 10000 4.6 210 20:20 17.06.2019
6011 Clouds 25 1015 21 10000 4.6 210 19:54 17.06.2019
6012 Clouds 25 1015 21 10000 4.6 210 19:36 17.06.2019
6013 Clouds 25 1016 20 10000 5.1 210 19:18 17.06.2019
6014 Clouds 27 1016 20 10000 4.6 200 18:38 17.06.2019
6015 Clouds 27 1016 21 10000 5.7 210 18:18 17.06.2019
6016 Clouds 27 1016 21 10000 5.7 210 18:18 17.06.2019
6017 Clouds 27 1016 23 10000 4.6 210 17:47 17.06.2019
6018 Clouds 28 1016 23 10000 4.6 210 17:29 17.06.2019
6019 Clouds 29 1016 21 10000 3.6 210 16:55 17.06.2019
6020 Clouds 28 1017 23 10000 4.1 220 16:37 17.06.2019
6021 Clouds 28 1017 21 10000 4.6 220 16:19 17.06.2019
6022 Clouds 27 1017 21 10000 3.1 190 15:43 17.06.2019
6023 Clouds 27 1017 21 10000 3.1 190 15:20 17.06.2019
6024 Clouds 27 1017 21 10000 3.1 190 15:20 17.06.2019
6025 Clouds 27 1017 18 10000 2.1 180 14:55 17.06.2019
6026 Clouds 27 1018 18 10000 2.1 0 14:34 17.06.2019
6027 Clouds 27 1018 22 10000 2.1 180 13:58 17.06.2019
6028 Clouds 26 1018 29 10000 1.5 200 13:39 17.06.2019
6029 Clouds 26 1018 29 10000 1.5 200 13:20 17.06.2019
6030 Clouds 25 1019 38 10000 1 0 12:38 17.06.2019
6031 Clouds 25 1020 43 10000 1 0 12:18 17.06.2019
6032 Clouds 23 1020 49 10000 1.5 100 11:39 17.06.2019
6033 Clouds 23 1020 49 10000 1.5 100 11:20 17.06.2019
6034 Clouds 23 1014 50 0 1.61 214.992 10:46 17.06.2019
6035 Clouds 23 1014 50 0 1.61 214.992 10:46 17.06.2019
6036 Clouds 21 1019 12 0 0.89 156 10:28 17.06.2019
6037 Clouds 20 1019 13 0 1.61 214.992 09:56 17.06.2019
6038 Clouds 16 1020 68 0 1.58 38.433 09:32 17.06.2019
6039 Clouds 15 1016 72 0 1.66 40.702 08:46 17.06.2019
6040 Clouds 14 1020 75 0 1.66 40.702 08:24 17.06.2019
6041 Clouds 13 1019 71 0 1.66 40.702 07:52 17.06.2019
6042 Clouds 12 1016 74 0 1.66 40.702 07:32 17.06.2019
6043 Clouds 11 1019 68 0 1.66 40.702 06:53 17.06.2019
6044 Clouds 12 1016 70 0 1.68 23.36 06:18 17.06.2019
6045 Clouds 12 1016 69 0 1.68 23.36 05:20 17.06.2019
6046 Clouds 13 1019 76 0 1.68 23.36 04:23 17.06.2019
6047 Clouds 13 1016 67 0 1.68 23.36 03:30 17.06.2019
6048 Clouds 13 1020 72 0 0.45 52 02:43 17.06.2019
6049 Clouds 14 1020 64 0 0.89 69 02:24 17.06.2019
6050 Clouds 14 1020 70 0 1.34 89 01:35 17.06.2019
6051 Clouds 14 1020 33 0 1.22 34.121 00:48 17.06.2019
6052 Clouds 15 1020 69 0 0.45 58 00:28 17.06.2019
6053 Clouds 16 1020 68 0 0.99 49.449 23:58 16.06.2019
6054 Clouds 16 1020 67 0 0.99 49.449 23:39 16.06.2019
6055 Clouds 17 1020 66 0 0.99 49.449 23:19 16.06.2019
6056 Clouds 17 1020 66 0 0.99 49.449 23:19 16.06.2019
6057 Clouds 13 1024 91 0 0.99 49.449 22:44 16.06.2019
6058 Clouds 14 1020 71 0 0.99 49.449 22:20 16.06.2019
6059 Clouds 17 1019 37 0 0.99 49.449 22:20 16.06.2019
6060 Clouds 16 1018 36 0 0.99 49.449 21:57 16.06.2019
6061 Clouds 16 1018 36 0 0.99 49.449 21:39 16.06.2019
6062 Clouds 20 1016 44 0 1.86 220.37 21:20 16.06.2019
6063 Clouds 20 1016 44 0 1.86 220.37 21:20 16.06.2019
6064 Clouds 21 1016 38 0 0.45 150 20:38 16.06.2019
6065 Clouds 22 1018 33 10000 5.1 210 20:19 16.06.2019
6066 Clouds 23 1018 33 10000 5.1 210 19:58 16.06.2019
6067 Clouds 23 1018 33 10000 5.1 210 19:39 16.06.2019
6068 Clouds 23 1018 33 10000 5.1 210 19:19 16.06.2019
6069 Clouds 24 1018 27 10000 4.1 210 18:41 16.06.2019
6070 Clouds 25 1018 27 10000 4.1 210 18:21 16.06.2019
6071 Clouds 24 1019 27 10000 3.6 210 17:49 16.06.2019
6072 Clouds 25 1019 27 10000 3.6 210 17:25 16.06.2019
6073 Clouds 25 1019 26 10000 4.1 200 16:58 16.06.2019
6074 Clouds 25 1019 26 10000 4.1 200 16:58 16.06.2019
6075 Clouds 25 1019 26 10000 4.6 210 16:40 16.06.2019
6076 Clouds 25 1019 26 10000 4.6 210 16:21 16.06.2019
6077 Clouds 24 1020 29 10000 4.6 200 15:45 16.06.2019
6078 Clouds 24 1020 29 10000 4.6 200 15:26 16.06.2019
6079 Clouds 24 1020 31 10000 3.6 210 14:56 16.06.2019
6080 Clouds 24 1020 33 10000 3.1 210 14:37 16.06.2019
6081 Clear 23 1021 33 10000 4.1 210 14:19 16.06.2019
6082 Clear 23 1021 38 10000 1.5 0 13:45 16.06.2019
6083 Clear 23 1021 38 10000 1.5 0 13:25 16.06.2019
6084 Clear 21 1022 45 10000 1.5 0 12:44 16.06.2019
6085 Clear 21 1022 45 10000 1.5 0 12:22 16.06.2019
6086 Clear 19 1022 42 10000 1 0 11:56 16.06.2019
6087 Clear 19 1022 55 10000 1.5 0 11:37 16.06.2019
6088 Clear 20 1022 10 0 1.34 180 11:18 16.06.2019
6089 Clear 19 1022 16 0 2.05 209.745 10:44 16.06.2019
6090 Clear 18 1022 16 0 2.05 209.745 10:19 16.06.2019
6091 Clear 16 1023 26 0 2.05 209.745 09:43 16.06.2019
6092 Clear 13 1020 57 0 0.3 68.935 09:23 16.06.2019
6093 Clear 13 1020 52 0 0.3 68.935 09:23 16.06.2019
6094 Clear 12 1018 84 0 0.3 68.935 08:46 16.06.2019
6095 Clear 11 1019 62 0 0.3 68.935 08:20 16.06.2019
6096 Clear 10 1018 86 0 0.3 68.935 07:45 16.06.2019
6097 Clear 10 1019 67 0 0.3 68.935 07:27 16.06.2019
6098 Clear 10 1019 67 0 0.3 68.935 07:27 16.06.2019
6099 Clear 9 1019 65 0 0.3 68.935 06:52 16.06.2019
6100 Clear 10 1019 75 0 2.24 59 05:55 16.06.2019
6101 Clear 10 1019 79 0 2.68 60 05:20 16.06.2019
6102 Clear 9 1019 77 0 2.68 91 04:21 16.06.2019
6103 Clear 10 1019 85 0 0.89 48 03:38 16.06.2019
6104 Clouds 10 1019 84 0 2.24 48 03:18 16.06.2019
6105 Clouds 11 1018 81 0 1.95 28.078 01:48 16.06.2019
6106 Clouds 12 1024 43 0 1.95 28.078 01:28 16.06.2019
6107 Clouds 13 1024 42 0 1.86 28.857 00:43 16.06.2019
6108 Clouds 13 1020 85 0 2.54 12.534 00:23 16.06.2019
6109 Clouds 13 1017 76 0 2.54 12.534 23:55 15.06.2019
6110 Clouds 13 1017 76 0 2.54 12.534 23:37 15.06.2019
6111 Clouds 13 1017 75 0 2.54 12.534 23:18 15.06.2019
6112 Clouds 14 1024 43 0 2.54 12.534 22:43 15.06.2019
6113 Clouds 14 1023 42 0 2.54 12.534 22:24 15.06.2019
6114 Clouds 14 1023 38 0 2.54 12.534 21:43 15.06.2019
6115 Clouds 17 1015 59 0 1.62 257.786 21:20 15.06.2019
6116 Clouds 17 1014 51 0 1.62 257.786 20:45 15.06.2019
6117 Clouds 18 1017 33 10000 6.7 210 20:23 15.06.2019
6118 Clouds 16 1017 33 10000 6.7 210 19:50 15.06.2019
6119 Clouds 16 1017 33 10000 6.7 210 19:26 15.06.2019
6120 Clouds 17 1017 35 10000 5.7 220 18:44 15.06.2019
6121 Clouds 19 1017 35 10000 5.7 220 18:25 15.06.2019
6122 Clouds 19 1017 38 10000 6.7 210 17:45 15.06.2019
6123 Clouds 19 1017 38 10000 6.7 210 17:27 15.06.2019
6124 Clouds 19 1017 38 10000 6.2 210 16:49 15.06.2019
6125 Clouds 19 1017 38 10000 6.2 210 16:22 15.06.2019
6126 Clouds 19 1017 36 10000 6.2 210 15:56 15.06.2019
6127 Clouds 19 1017 35 10000 6.7 210 15:37 15.06.2019
6128 Clouds 18 1017 35 10000 6.7 210 15:18 15.06.2019
6129 Clouds 19 1017 38 10000 6.2 220 14:37 15.06.2019
6130 Clouds 19 1017 38 10000 6.2 220 14:18 15.06.2019
6131 Clouds 18 1017 40 10000 4.6 220 13:42 15.06.2019
6132 Clouds 18 1017 37 10000 5.1 210 13:20 15.06.2019
6133 Clouds 18 1017 37 10000 5.1 210 12:53 15.06.2019
6134 Clouds 18 1017 40 10000 5.1 220 12:28 15.06.2019
6135 Clouds 18 1017 46 10000 2.1 240 11:59 15.06.2019
6136 Clouds 17 1017 68 10000 1.5 220 11:41 15.06.2019
6137 Clouds 17 1017 68 10000 1.5 220 11:23 15.06.2019
6138 Clear 17 1012 55 0 4.22 216.732 10:41 15.06.2019
6139 Clear 16 1015 85 0 4.22 216.732 10:23 15.06.2019
6140 Clear 16 1012 68 0 4.22 216.732 09:44 15.06.2019
6141 Clear 15 1012 67 0 0.45 284 09:25 15.06.2019
6142 Clear 15 1012 54 0 0.45 219 08:53 15.06.2019
6143 Clear 14 1012 60 0 0.45 172 08:32 15.06.2019
6144 Clear 13 1014 82 0 1.55 156.019 07:50 15.06.2019
6145 Clear 13 1014 79 0 1.55 156.019 07:24 15.06.2019
6146 Clear 12 1014 74 0 1.55 156.019 06:39 15.06.2019
6147 Clear 12 1014 74 0 1.55 156.019 06:39 15.06.2019
6148 Clouds 12 1014 77 0 0.94 110.014 06:00 15.06.2019
6149 Clouds 12 1014 80 0 0.94 110.014 05:24 15.06.2019
6150 Clouds 12 1014 77 0 0.94 110.014 04:42 15.06.2019
6151 Clouds 12 1014 77 0 0.94 110.014 04:42 15.06.2019
6152 Clouds 12 1014 75 0 0.94 110.014 03:42 15.06.2019
6153 Clear 13 1014 70 0 1.38 105.397 02:55 15.06.2019
6154 Clear 13 1014 67 0 1.38 105.397 02:21 15.06.2019
6155 Clear 13 1015 65 0 1.38 105.397 01:43 15.06.2019
6156 Clear 14 1016 51 0 1.38 105.397 00:47 15.06.2019
6157 Clear 14 1016 50 0 1.38 105.397 00:29 15.06.2019
6158 Clear 14 1015 70 0 1.11 148.754 23:54 14.06.2019
6159 Clear 14 1015 70 0 1.11 148.754 23:25 14.06.2019
6160 Clear 15 1013 68 0 1.34 315 22:43 14.06.2019
6161 Clear 15 1015 41 0 1.11 148.754 22:23 14.06.2019
6162 Clear 15 1015 41 0 1.11 148.754 22:23 14.06.2019
6163 Clear 15 1012 76 0 1.11 148.754 21:58 14.06.2019
6164 Clear 15 1012 76 0 1.11 148.754 21:39 14.06.2019
6165 Rain 17 1013 70 0 3.06 213.794 21:21 14.06.2019
6166 Rain 19 1013 69 0 3.06 213.794 20:42 14.06.2019
6167 Clouds 19 1012 49 10000 2.6 230 20:18 14.06.2019
6168 Clouds 20 1012 49 10000 2.6 230 19:51 14.06.2019
6169 Clouds 19 1012 49 10000 2.6 230 19:23 14.06.2019
6170 Clouds 20 1011 49 10000 3.1 230 19:23 14.06.2019
6171 Clouds 19 1011 49 10000 3.1 230 18:58 14.06.2019
6172 Clouds 19 1011 46 10000 3.1 220 18:40 14.06.2019
6173 Clouds 20 1011 46 10000 3.1 220 18:22 14.06.2019
6174 Clouds 19 1011 53 10000 4.6 210 17:47 14.06.2019
6175 Clouds 19 1012 56 10000 5.1 200 17:27 14.06.2019
6176 Rain 19 1011 60 10000 5.1 210 16:58 14.06.2019
6177 Clouds 19 1010 46 10000 9.3 200 16:39 14.06.2019
6178 Clouds 19 1010 46 10000 9.3 200 16:39 14.06.2019
6179 Clouds 20 1010 44 10000 7.2 200 16:19 14.06.2019
6180 Clouds 20 1010 47 10000 5.1 210 15:40 14.06.2019
6181 Clouds 21 1010 47 10000 5.1 210 15:22 14.06.2019
6182 Clouds 21 1010 46 10000 3.6 220 14:54 14.06.2019
6183 Clouds 21 1011 52 10000 2.6 310 14:33 14.06.2019
6184 Clouds 21 1011 52 10000 2.6 310 14:32 14.06.2019
6185 Clouds 20 1011 56 10000 3.1 360 13:56 14.06.2019
6186 Clouds 20 1011 56 10000 3.1 360 13:56 14.06.2019
6187 Clouds 20 1011 56 10000 3.1 360 13:56 14.06.2019
6188 Clouds 20 1011 56 10000 3.1 360 13:56 14.06.2019
6189 Clouds 21 1011 49 10000 1 0 13:37 14.06.2019
6190 Clouds 21 1011 49 10000 1 0 13:19 14.06.2019
6191 Clouds 19 1012 59 10000 0.5 0 12:41 14.06.2019
6192 Clouds 19 1012 59 10000 0.5 0 12:23 14.06.2019
6193 Clouds 18 1012 77 10000 1.5 220 11:46 14.06.2019
6194 Clouds 17 1012 77 10000 1.5 220 11:24 14.06.2019
6195 Clouds 17 1012 72 10000 1 0 10:50 14.06.2019
6196 Rain 16 1013 87 10000 1 0 10:24 14.06.2019
6197 Rain 16 1013 87 10000 1 0 09:58 14.06.2019
6198 Rain 15 1013 82 10000 2.6 70 09:39 14.06.2019
6199 Rain 15 1013 82 10000 2.6 70 09:39 14.06.2019
6200 Rain 14 1013 82 10000 2.6 70 09:20 14.06.2019
6201 Clouds 14 1012 63 0 0.58 161.565 08:41 14.06.2019
6202 Clouds 14 1008 71 0 0.58 161.565 08:18 14.06.2019
6203 Clouds 13 1008 71 0 0.58 161.565 07:46 14.06.2019
6204 Clouds 12 1010 54 0 0.58 161.565 07:19 14.06.2019
6205 Clouds 12 1012 58 0 1.26 121.652 06:27 14.06.2019
6206 Clouds 12 1011 56 0 1.26 121.652 05:54 14.06.2019
6207 Clouds 12 1012 55 0 1.26 121.652 04:56 14.06.2019
6208 Clouds 12 1012 54 0 1.26 121.652 04:32 14.06.2019
6209 Clouds 12 1012 55 0 1.26 121.652 03:46 14.06.2019
6210 -273 0 0 0 0 0 03:23 14.06.2019
6211 Clouds 12 1012 57 0 1.26 146.171 02:43 14.06.2019
6212 Clouds 13 1012 58 0 1.26 146.171 01:54 14.06.2019
6213 Clouds 13 1013 53 0 1.26 146.171 00:45 14.06.2019
6214 Clouds 13 1013 58 0 1.46 165.726 00:22 14.06.2019
6215 Clouds 14 1013 50 0 1.46 165.726 23:52 13.06.2019
6216 Clouds 14 1013 51 0 1.46 165.726 23:26 13.06.2019
6217 Clouds 14 1013 51 0 1.46 165.726 22:58 13.06.2019
6218 Clouds 14 1013 51 0 1.46 165.726 22:38 13.06.2019
6219 Clouds 15 1013 64 0 1.46 165.726 22:19 13.06.2019
6220 Clouds 16 1013 54 0 1.46 165.726 21:38 13.06.2019
6221 Clear 18 1012 53 0 3.36 193.271 21:19 13.06.2019
6222 Clear 19 1012 48 0 0.45 239 20:45 13.06.2019
6223 Clouds 20 1012 35 10000 5.1 210 20:21 13.06.2019
6224 Clouds 20 1012 35 10000 5.1 210 19:55 13.06.2019
6225 Clouds 21 1012 35 10000 5.1 210 19:36 13.06.2019
6226 Clouds 21 1012 35 10000 5.1 210 19:18 13.06.2019
6227 Clouds 22 1013 28 10000 5.1 220 18:43 13.06.2019
6228 Clouds 22 1013 28 10000 5.1 220 18:25 13.06.2019
6229 Clouds 23 1013 28 10000 5.1 220 17:57 13.06.2019
6230 Clouds 23 1013 28 10000 5.1 220 17:57 13.06.2019
6231 Clouds 23 1013 29 10000 5.7 220 17:38 13.06.2019
6232 Clouds 24 1013 29 10000 5.7 220 17:19 13.06.2019
6233 Clouds 24 1014 33 10000 5.7 230 16:44 13.06.2019
6234 -273 0 0 0 0 0 16:21 13.06.2019
6235 Clouds 24 1014 28 10000 5.7 230 15:43 13.06.2019
6236 Clouds 24 1014 28 10000 5.7 230 15:24 13.06.2019
6237 Clouds 24 1015 37 10000 2.6 230 14:56 13.06.2019
6238 Clouds 23 1015 37 10000 2.6 230 14:31 13.06.2019
6239 Clouds 23 1015 37 10000 2.6 230 14:31 13.06.2019
6240 Clouds 23 1015 34 10000 1 0 13:59 13.06.2019
6241 Clouds 23 1016 37 10000 3.1 220 13:39 13.06.2019
6242 Clouds 23 1016 37 10000 3.1 220 13:21 13.06.2019
6243 Clouds 22 1016 42 10000 1 0 12:42 13.06.2019
6244 Clouds 21 1016 42 10000 1 0 12:22 13.06.2019
6245 Clouds 21 1016 42 10000 1 0 12:22 13.06.2019
6246 Clear 20 1017 50 10000 1.5 0 11:47 13.06.2019
6247 Clear 19 1017 50 10000 1.5 0 11:29 13.06.2019
6248 Clear 19 1013 55 0 4.17 194.233 10:51 13.06.2019
6249 Clear 18 1013 56 0 4.17 194.233 10:32 13.06.2019
6250 -273 0 0 0 0 0 09:58 13.06.2019
6251 Clear 14 1013 25 0 4.17 194.233 09:40 13.06.2019
6252 Clear 11 1012 65 0 2.81 179.103 09:22 13.06.2019
6253 Clear 11 1012 65 0 2.81 179.103 08:43 13.06.2019
6254 Clear 9 1012 71 0 2.81 179.103 08:23 13.06.2019
6255 Clear 8 1011 68 0 2.81 179.103 07:42 13.06.2019
6256 Clear 7 1011 71 0 2.81 179.103 07:24 13.06.2019
6257 Clear 6 1015 76 0 2.81 179.103 06:45 13.06.2019
6258 Clear 7 1011 70 0 1.61 162.287 06:22 13.06.2019
6259 Clear 7 1011 69 0 1.61 162.287 05:53 13.06.2019
6260 Clear 7 1011 71 0 1.61 162.287 05:35 13.06.2019
6261 Clear 7 1011 66 0 1.61 162.287 03:57 13.06.2019
6262 Clear 9 1015 48 0 1.58 173.44 02:23 13.06.2019
6263 Clear 9 1013 85 0 1.58 173.44 00:46 13.06.2019
6264 Clear 11 1016 38 0 1.63 164.924 23:47 12.06.2019
6265 Clear 11 1016 37 0 1.63 164.924 23:21 12.06.2019
6266 Clear 11 1017 44 0 1.63 164.924 22:42 12.06.2019
6267 Clear 12 1017 44 0 1.63 164.924 22:24 12.06.2019
6268 Clear 2 1015 58 0 1.63 164.924 21:48 12.06.2019
6269 Clear 14 1011 76 0 1.63 164.924 21:29 12.06.2019
6270 Clear 15 1011 74 0 2.27 213.865 20:57 12.06.2019
6271 Clear 16 1015 11 0 0.89 210 20:37 12.06.2019
6272 Clear 17 1015 11 0 2.27 213.865 20:19 12.06.2019
6273 Clear 15 1011 78 0 2.27 213.865 19:42 12.06.2019
6274 Clear 18 1015 44 0 0.45 198 19:22 12.06.2019
6275 Clear 18 1014 40 0 0.89 166 18:51 12.06.2019
6276 Clear 18 1015 42 0 0.89 245 18:29 12.06.2019
6277 Clear 18 1015 41 0 1.34 163 17:58 12.06.2019
6278 Clear 18 1015 40 0 0.45 256 17:40 12.06.2019
6279 Clear 18 1015 38 0 3.95 221.167 17:19 12.06.2019
6280 Clear 18 1015 44 0 1.34 120 16:42 12.06.2019
6281 Clear 18 1015 37 0 3.95 221.167 16:23 12.06.2019
6282 Clear 17 1015 42 0 0.45 212 15:48 12.06.2019
6283 Clear 17 1015 50 0 4.23 215.854 15:29 12.06.2019
6284 Clear 17 1016 52 0 4.23 215.854 14:45 12.06.2019
6285 Clear 17 1016 52 0 4.23 215.854 14:45 12.06.2019
6286 Clouds 16 1015 41 10000 3.6 170 14:26 12.06.2019
6287 Clouds 15 1015 41 10000 3.6 170 13:43 12.06.2019
6288 Clouds 15 1015 41 10000 3.6 170 13:20 12.06.2019
6289 Clouds 15 1015 62 10000 1.5 0 12:58 12.06.2019
6290 Clouds 13 1015 66 10000 1 0 12:38 12.06.2019
6291 Clouds 13 1015 66 10000 1 0 12:38 12.06.2019
6292 -273 0 0 0 0 0 12:19 12.06.2019
6293 Clouds 13 1015 66 10000 1 0 12:19 12.06.2019
6294 Clouds 12 1016 76 10000 1.5 190 11:46 12.06.2019
6295 Clouds 12 1016 76 10000 1.5 190 11:27 12.06.2019
6296 Clouds 11 1016 81 10000 1 0 10:51 12.06.2019
6297 Clouds 10 1016 81 10000 1.5 80 10:29 12.06.2019
6298 Clear 9 1015 60 0 3.63 206.226 09:45 12.06.2019
6299 Clear 7 1009 74 0 1.31 194.27 09:23 12.06.2019
6300 Clear 6 1015 96 0 1.31 194.27 08:55 12.06.2019
6301 Clear 5 1008 76 0 1.31 194.27 08:21 12.06.2019
6302 Clear 5 1008 68 0 1.31 194.27 07:45 12.06.2019
6303 Clear 3 1008 78 0 1.31 194.27 06:54 12.06.2019
6304 Clear 4 1007 84 0 0.76 162.235 05:27 12.06.2019
6305 Clear 4 1007 84 0 0.76 162.235 04:34 12.06.2019
6306 Clouds 5 1008 88 0 1.21 43.829 01:32 12.06.2019
6307 Clouds 5 1009 90 0 0.93 44.74 00:40 12.06.2019
6308 Clouds 7 1009 86 0 1.91 17.638 23:48 11.06.2019
6309 Clouds 7 1009 88 0 1.91 17.638 23:29 11.06.2019
6310 Clouds 7 1016 56 0 1.91 13.055 22:44 11.06.2019
6311 Clouds 8 1014 93 0 1.91 13.055 22:20 11.06.2019
6312 Clouds 8 1013 91 0 1.91 13.055 21:57 11.06.2019
6313 Clouds 8 1013 90 0 1.91 13.055 21:38 11.06.2019
6314 Clouds 9 1013 89 0 2.49 5.288 21:20 11.06.2019
6315 Clouds 10 1013 87 0 2.49 5.288 20:48 11.06.2019
6316 Clouds 10 1013 91 0 2.49 5.288 20:26 11.06.2019
6317 Clouds 10 1013 91 0 2.49 5.288 20:26 11.06.2019
6318 Clouds 10 1012 87 0 2.49 5.288 19:55 11.06.2019
6319 Clouds 9 1012 89 0 2.49 5.288 19:33 11.06.2019
6320 Clouds 10 1012 93 0 2.49 5.288 18:58 11.06.2019
6321 -273 0 0 0 0 0 18:23 11.06.2019
6322 Rain 10 1012 92 0 2.19 357.198 18:23 11.06.2019
6323 Rain 11 1011 92 0 2.19 357.198 17:42 11.06.2019
6324 Rain 11 1011 90 0 0.45 213 17:24 11.06.2019
6325 Rain 11 1010 89 0 2.19 357.198 16:59 11.06.2019
6326 Rain 11 1015 41 0 2.19 357.198 16:40 11.06.2019
6327 Rain 11 1010 86 0 2.19 357.198 16:22 11.06.2019
6328 Rain 10 1010 88 0 2.19 357.198 15:42 11.06.2019
6329 Rain 10 1010 88 0 2.19 357.198 15:42 11.06.2019
6330 Rain 10 1010 90 0 0.39 319.833 15:24 11.06.2019
6331 Rain 10 1010 89 0 0.39 319.833 14:52 11.06.2019
6332 Rain 10 1010 91 0 0.39 319.833 14:23 11.06.2019
6333 Rain 10 1010 91 0 0.39 319.833 14:23 11.06.2019
6334 Rain 10 1009 94 0 0.39 319.833 13:55 11.06.2019
6335 Rain 10 1009 93 0 0.39 319.833 13:36 11.06.2019
6336 Rain 10 1009 93 0 1.04 352.119 13:18 11.06.2019
6337 Rain 10 1009 94 0 1.04 352.119 12:40 11.06.2019
6338 Rain 9 1009 94 0 0.34 17.694 12:20 11.06.2019
6339 Rain 9 1008 93 0 0.34 17.694 11:40 11.06.2019
6340 Rain 9 1008 93 0 0.34 17.694 11:40 11.06.2019
6341 Rain 9 1008 94 0 0.34 17.694 11:19 11.06.2019
6342 Rain 9 1008 93 0 0.34 17.694 10:46 11.06.2019
6343 Rain 9 1008 92 0 0.34 17.694 10:46 11.06.2019
6344 Rain 9 1006 86 0 0.34 17.694 10:26 11.06.2019
6345 Rain 9 1008 93 0 0.34 17.694 09:49 11.06.2019
6346 Rain 9 1006 87 0 0.78 217.12 09:24 11.06.2019
6347 Rain 9 1006 87 0 0.78 217.12 08:45 11.06.2019
6348 Rain 9 1006 87 0 0.78 217.12 08:26 11.06.2019
6349 Rain 8 1006 87 0 0.78 217.12 07:38 11.06.2019
6350 Rain 9 1006 85 0 0.69 194.621 06:56 11.06.2019
6351 Rain 8 1008 91 0 0.69 194.621 06:34 11.06.2019
6352 Rain 9 1009 90 0 1.67 177.635 04:55 11.06.2019
6353 Rain 9 1010 87 0 1.67 177.635 03:42 11.06.2019
6354 Clouds 10 1016 56 0 0.9 53.935 01:40 11.06.2019
6355 Clouds 10 1010 76 0 0.9 53.935 00:46 11.06.2019
6356 Rain 10 1010 75 0 2.04 10.957 23:48 10.06.2019
6357 Rain 10 1011 92 0 2.28 17.48 23:25 10.06.2019
6358 Rain 9 1011 91 0 2.28 17.48 22:55 10.06.2019
6359 Rain 9 1011 92 0 2.28 17.48 22:37 10.06.2019
6360 Rain 9 1011 92 0 2.28 17.48 22:37 10.06.2019
6361 Rain 9 1011 93 0 2.28 17.48 22:19 10.06.2019
6362 Rain 11 1011 91 0 2.28 17.48 21:40 10.06.2019
6363 Rain 13 1011 93 0 1.77 342.947 21:22 10.06.2019
6364 Rain 13 1011 95 0 1.77 342.947 20:46 10.06.2019
6365 Clouds 17 1011 40 10000 6.2 200 20:23 10.06.2019
6366 Clouds 16 1011 40 10000 6.2 200 19:54 10.06.2019
6367 Clouds 16 1011 40 10000 6.2 200 19:28 10.06.2019
6368 Clouds 16 1012 43 10000 5.1 200 18:59 10.06.2019
6369 Clouds 15 1012 46 10000 6.2 210 18:41 10.06.2019
6370 Clouds 16 1012 46 10000 6.2 210 18:21 10.06.2019
6371 Clouds 16 1012 43 10000 5.1 190 17:58 10.06.2019
6372 Clouds 16 1012 43 10000 6.7 200 17:37 10.06.2019
6373 Clouds 16 1012 43 10000 6.7 200 17:19 10.06.2019
6374 Clouds 17 1012 46 10000 6.2 210 16:42 10.06.2019
6375 Clouds 17 1012 46 10000 6.2 210 16:23 10.06.2019
6376 Clouds 17 1013 40 10000 7.2 210 15:42 10.06.2019
6377 Clouds 17 1013 40 10000 7.2 210 15:24 10.06.2019
6378 Clouds 17 1013 38 10000 6.7 200 14:49 10.06.2019
6379 Clouds 17 1013 38 10000 7.2 210 14:31 10.06.2019
6380 Clouds 17 1013 43 10000 5.7 210 13:59 10.06.2019
6381 Clouds 17 1013 43 10000 5.7 210 13:59 10.06.2019
6382 Clouds 17 1014 43 10000 4.6 200 13:40 10.06.2019
6383 Clouds 17 1014 43 10000 4.6 200 13:40 10.06.2019
6384 Clouds 16 1014 52 10000 2.1 0 13:20 10.06.2019
6385 Clouds 16 1015 55 10000 2.1 0 12:42 10.06.2019
6386 Clouds 16 1015 55 10000 2.1 0 12:23 10.06.2019
6387 Clouds 15 1015 63 10000 1.5 120 11:43 10.06.2019
6388 Clouds 15 1015 63 10000 1.5 120 11:19 10.06.2019
6389 Rain 16 1012 85 0 0.79 328.018 10:42 10.06.2019
6390 Rain 15 1010 78 0 0.79 328.018 10:20 10.06.2019
6391 Rain 15 1010 82 0 0.79 328.018 09:55 10.06.2019
6392 Rain 15 1011 81 0 0.79 328.018 09:33 10.06.2019
6393 Rain 13 1010 77 0 2.31 10.945 08:50 10.06.2019
6394 Rain 13 1010 77 0 2.31 10.945 08:50 10.06.2019
6395 Rain 13 1018 39 0 1.34 307 08:28 10.06.2019
6396 Rain 13 1018 36 0 2.31 10.945 07:59 10.06.2019
6397 Clouds 12 1018 38 0 2.31 16.871 06:33 10.06.2019
6398 Clouds 11 1011 83 0 2.91 8.682 03:59 10.06.2019
6399 Clouds 11 1016 92 0 2.73 21.022 01:57 10.06.2019
6400 Clouds 12 1016 93 0 2.73 21.022 01:23 10.06.2019
6401 Clouds 13 1016 95 0 2.73 21.022 00:48 10.06.2019
6402 Clouds 15 1012 73 0 0.45 195 23:58 09.06.2019
6403 Clouds 15 1012 73 0 0.89 118 23:38 09.06.2019
6404 Clouds 15 1012 72 0 0.45 218 23:18 09.06.2019
6405 Clouds 13 1016 95 0 2.79 14.081 22:41 09.06.2019
6406 Clouds 13 1016 95 0 2.79 14.081 22:21 09.06.2019
6407 Clouds 17 1016 95 0 2.79 14.081 21:40 09.06.2019
6408 Clouds 20 1010 48 0 1.29 252.085 21:22 09.06.2019
6409 Clouds 20 1010 47 0 1.29 252.085 20:42 09.06.2019
6410 Clear 21 1014 33 10000 2.1 240 20:22 09.06.2019
6411 Clear 22 1014 33 10000 2.1 240 19:46 09.06.2019
6412 Clear 22 1014 33 10000 2.1 240 19:46 09.06.2019
6413 Clear 22 1014 31 10000 1 0 19:19 09.06.2019
6414 Clear 23 1014 31 10000 1 0 18:56 09.06.2019
6415 Clear 24 1014 33 10000 1 0 18:37 09.06.2019
6416 Clear 24 1014 33 10000 1 0 18:19 09.06.2019
6417 Clouds 25 1014 31 10000 1.5 280 17:43 09.06.2019
6418 Clouds 25 1014 31 10000 1.5 280 17:23 09.06.2019
6419 Clear 24 1015 31 10000 2.6 240 16:41 09.06.2019
6420 Clear 24 1015 31 10000 2.6 240 16:21 09.06.2019
6421 Clear 24 1015 31 10000 2.6 240 16:21 09.06.2019
6422 Clear 23 1016 31 10000 3.1 230 15:51 09.06.2019
6423 Clear 23 1016 33 10000 3.6 230 15:30 09.06.2019
6424 Clear 24 1016 31 10000 4.6 210 14:59 09.06.2019
6425 Clear 23 1017 31 10000 5.7 200 14:41 09.06.2019
6426 Clear 23 1017 31 10000 5.7 200 14:20 09.06.2019
6427 Clear 23 1017 35 10000 5.1 200 13:48 09.06.2019
6428 Clear 23 1017 37 10000 5.1 210 13:18 09.06.2019
6429 Clear 22 1017 43 10000 2.1 230 12:38 09.06.2019
6430 Clear 22 1017 43 10000 2.1 230 12:20 09.06.2019
6431 Clear 20 1018 59 10000 1.5 200 11:39 09.06.2019
6432 Clear 21 1018 59 10000 1.5 200 11:39 09.06.2019
6433 Clear 20 1018 59 10000 1.5 200 11:19 09.06.2019
6434 Clouds 19 1014 63 0 3.12 196.655 10:44 09.06.2019
6435 Clouds 19 1014 63 0 3.12 196.655 10:43 09.06.2019
6436 Clouds 18 1014 69 0 3.12 196.655 10:22 09.06.2019
6437 Clouds 16 1014 71 0 3.12 196.655 09:40 09.06.2019
6438 Clouds 16 1016 58 0 1.5 187.296 09:21 09.06.2019
6439 Clouds 14 1014 79 0 1.39 193.198 08:45 09.06.2019
6440 Clouds 14 1016 59 0 1.39 193.198 08:20 09.06.2019
6441 Clouds 12 1017 59 0 1.39 193.198 06:48 09.06.2019
6442 Clouds 13 1017 57 0 1.39 193.198 06:29 09.06.2019
6443 Clouds 13 1019 54 0 1.73 161.91 03:25 09.06.2019
6444 Clouds 13 1020 50 0 1.73 161.91 01:38 09.06.2019
6445 Clouds 13 1020 49 0 1.7 160.066 01:19 09.06.2019
6446 Clouds 13 1021 51 0 1.7 160.066 00:43 09.06.2019
6447 Clouds 13 1021 66 0 1.49 146.97 23:42 08.06.2019
6448 Clouds 13 1021 66 0 1.49 146.97 23:23 08.06.2019
6449 Clouds 12 1021 67 0 1.49 146.97 22:56 08.06.2019
6450 Clouds 12 1021 71 0 1.49 146.97 22:37 08.06.2019
6451 Clouds 6 1021 83 0 1.49 146.97 22:18 08.06.2019
6452 Clouds 12 1020 68 0 1.49 146.97 21:49 08.06.2019
6453 Clear 18 1019 60 0 0.89 172 21:24 08.06.2019
6454 Clear 19 1019 44 0 0.45 116 20:46 08.06.2019
6455 Clear 19 1019 42 0 0.45 134 20:25 08.06.2019
6456 Clouds 20 1021 29 10000 5.7 220 19:58 08.06.2019
6457 Clear 20 1019 10 0 25.93 225 19:38 08.06.2019
6458 Clouds 21 1021 29 10000 6.2 220 19:19 08.06.2019
6459 Clouds 22 1021 29 10000 6.2 220 18:41 08.06.2019
6460 Clouds 22 1021 29 10000 6.2 220 18:23 08.06.2019
6461 Clouds 22 1021 27 10000 6.7 220 17:44 08.06.2019
6462 Clouds 22 1021 27 10000 6.7 220 17:22 08.06.2019
6463 Clouds 23 1021 27 10000 3.6 200 16:48 08.06.2019
6464 Clouds 22 1021 27 10000 3.6 200 16:29 08.06.2019
6465 Clouds 22 1022 27 10000 3.6 200 15:51 08.06.2019
6466 Clouds 22 1022 23 10000 3.6 200 15:33 08.06.2019
6467 Clouds 22 1022 23 10000 3.6 200 15:33 08.06.2019
6468 Clouds 22 1022 23 10000 3.6 200 15:33 08.06.2019
6469 Clouds 22 1023 27 10000 3.1 170 14:48 08.06.2019
6470 Clouds 22 1023 26 10000 2.1 150 14:29 08.06.2019
6471 Clouds 22 1024 28 10000 2.6 280 13:45 08.06.2019
6472 Clouds 21 1024 32 10000 1.5 0 12:53 08.06.2019
6473 Clouds 20 1025 39 10000 1.5 0 12:33 08.06.2019
6474 Clouds 18 1025 51 10000 1 0 11:44 08.06.2019
6475 Clouds 18 1025 51 10000 1 0 11:44 08.06.2019
6476 Clouds 17 1025 51 10000 1 0 11:26 08.06.2019
6477 Clear 17 1024 11 0 1.34 211 10:47 08.06.2019
6478 Clear 16 1022 53 0 3 203.509 10:24 08.06.2019
6479 Clear 15 1025 22 0 2.24 265 09:52 08.06.2019
6480 Clear 12 1021 63 0 3 203.509 09:29 08.06.2019
6481 Clear 11 1021 69 0 1.06 130.049 08:40 08.06.2019
6482 Clear 9 1022 84 0 1.06 130.049 08:19 08.06.2019
6483 Clear 7 1021 84 0 0.96 131.169 06:51 08.06.2019
6484 Clear 7 1021 84 0 0.83 45.589 05:56 08.06.2019
6485 Clear 7 1020 84 0 0.83 45.589 03:34 08.06.2019
6486 Clear 9 1023 48 0 1.32 29.443 01:59 08.06.2019
6487 Clear 10 1024 20 0 3.13 177 00:29 08.06.2019
6488 Clear 10 1019 74 0 2.2 22.125 23:52 07.06.2019
6489 Clear 10 1019 71 0 2.2 22.125 23:20 07.06.2019
6490 Clear 8 1018 84 0 2.2 22.125 22:48 07.06.2019
6491 Clear 11 1021 54 0 1.34 317 22:30 07.06.2019
6492 Clear 11 1017 82 0 1.87 24.837 21:54 07.06.2019
6493 Clear 11 1017 80 0 1.87 24.837 21:31 07.06.2019
6494 Clear 16 1016 47 0 1.36 314.611 20:57 07.06.2019
6495 Clear 16 1015 45 0 1.36 314.611 20:37 07.06.2019
6496 Clouds 18 1016 18 10000 4.1 190 19:51 07.06.2019
6497 Clouds 18 1016 18 10000 4.1 190 19:24 07.06.2019
6498 Clouds 18 1016 16 10000 5.1 200 18:59 07.06.2019
6499 Clouds 18 1016 16 10000 5.1 190 18:37 07.06.2019
6500 Clouds 20 1015 17 10000 4.6 200 18:18 07.06.2019
6501 Clouds 20 1015 30 10000 4.1 190 17:38 07.06.2019
6502 Clouds 19 1015 30 10000 4.1 190 17:19 07.06.2019
6503 Clouds 20 1015 21 10000 3.6 320 16:40 07.06.2019
6504 Clouds 20 1015 30 10000 2.1 0 15:54 07.06.2019
6505 Clouds 20 1015 32 10000 5.1 220 15:23 07.06.2019
6506 Clouds 21 1015 37 10000 6.2 240 14:48 07.06.2019
6507 Clouds 20 1015 39 10000 5.1 230 14:27 07.06.2019
6508 Clouds 19 1014 48 10000 7.7 250 13:49 07.06.2019
6509 Clouds 18 1014 48 10000 7.7 250 13:25 07.06.2019
6510 Clouds 18 1014 45 10000 6.2 240 12:50 07.06.2019
6511 Clouds 17 1013 52 10000 7.2 210 12:23 07.06.2019
6512 Clouds 17 1013 52 10000 6.7 210 11:49 07.06.2019
6513 Clouds 16 1013 59 10000 3.6 200 11:30 07.06.2019
6514 Rain 16 1009 62 0 1.79 192 10:50 07.06.2019
6515 Rain 16 1009 13 0 3.58 228 10:29 07.06.2019
6516 Rain 16 1009 66 0 4.18 207.902 09:53 07.06.2019
6517 Rain 14 1009 67 0 0.45 100 09:31 07.06.2019
6518 Rain 14 1008 11 0 2.24 141 08:57 07.06.2019
6519 Rain 13 1009 72 0 0.89 110 08:38 07.06.2019
6520 Rain 11 1005 67 0 5.02 208.169 08:18 07.06.2019
6521 Rain 10 1005 68 0 5.02 208.169 07:40 07.06.2019
6522 Rain 10 1004 67 0 5.02 208.169 07:21 07.06.2019
6523 Rain 9 1008 69 0 0.45 166 06:41 07.06.2019
6524 Rain 9 1005 70 0 4.87 181.001 06:21 07.06.2019
6525 Rain 9 1009 63 0 0.89 139 04:32 07.06.2019
6526 Clouds 10 1006 72 0 3.49 161.202 01:56 07.06.2019
6527 Clouds 9 1006 74 0 3.49 161.202 01:35 07.06.2019
6528 Clouds 11 1011 64 0 0.89 101 00:29 07.06.2019
6529 Rain 12 1008 70 0 3.82 173.579 23:44 06.06.2019
6530 Rain 12 1008 71 0 3.82 173.579 23:22 06.06.2019
6531 Clouds 11 1011 66 0 0.45 134 22:44 06.06.2019
6532 Clouds 11 1011 66 0 0.45 134 22:44 06.06.2019
6533 Clouds 11 1007 72 0 3.63 173.241 22:23 06.06.2019
6534 Clouds 12 1008 73 0 3.63 173.241 21:57 06.06.2019
6535 Clouds 12 1008 73 0 3.63 173.241 21:57 06.06.2019
6536 Clouds 12 1008 73 0 3.63 173.241 21:39 06.06.2019
6537 Rain 16 1012 61 0 0.45 295 21:20 06.06.2019
6538 Rain 17 1012 64 0 1.79 65 20:49 06.06.2019
6539 Clouds 18 1013 42 10000 6.2 220 20:25 06.06.2019
6540 Clouds 17 1013 42 10000 6.2 220 19:40 06.06.2019
6541 Clouds 18 1013 42 10000 6.2 220 19:20 06.06.2019
6542 Clouds 18 1013 42 10000 5.7 210 18:57 06.06.2019
6543 Clouds 18 1013 42 10000 5.7 210 18:57 06.06.2019
6544 Clouds 19 1013 45 10000 6.7 210 18:33 06.06.2019
6545 Clouds 18 1013 45 10000 5.1 200 17:58 06.06.2019
6546 Clouds 19 1013 42 10000 5.7 210 17:40 06.06.2019
6547 Clouds 19 1013 42 10000 5.7 210 17:20 06.06.2019
6548 Clouds 20 1014 30 10000 5.7 200 16:44 06.06.2019
6549 Clouds 20 1014 30 10000 5.7 200 16:22 06.06.2019
6550 Clouds 20 1014 34 10000 7.2 200 15:48 06.06.2019
6551 Clouds 19 1014 34 10000 7.2 200 15:27 06.06.2019
6552 Clouds 19 1014 34 10000 7.2 200 15:27 06.06.2019
6553 Clouds 19 1015 37 10000 6.2 200 14:46 06.06.2019
6554 Clouds 19 1015 37 10000 6.7 190 14:20 06.06.2019
6555 Clouds 19 1015 34 10000 6.7 190 13:54 06.06.2019
6556 Clouds 19 1015 39 10000 6.2 200 13:34 06.06.2019
6557 Clouds 18 1015 42 10000 5.1 190 12:58 06.06.2019
6558 Clouds 17 1015 48 10000 2.1 220 12:39 06.06.2019
6559 Clouds 16 1015 48 10000 2.1 220 12:21 06.06.2019
6560 Clouds 16 1016 48 10000 1.5 230 11:46 06.06.2019
6561 Clear 15 1014 67 0 4.21 210.39 11:27 06.06.2019
6562 Clear 15 1014 22 0 0.45 238 10:50 06.06.2019
6563 Clear 15 1014 66 0 0.45 309 10:29 06.06.2019
6564 Clear 14 1015 26 0 4.21 210.39 09:49 06.06.2019
6565 Clear 11 1011 83 0 2.3 193.638 09:26 06.06.2019
6566 Clear 10 1010 84 0 2.3 193.638 08:52 06.06.2019
6567 Clear 9 1010 74 0 2.3 193.638 08:28 06.06.2019
6568 Clear 7 1010 85 0 2.3 193.638 07:55 06.06.2019
6569 Clear 7 1013 87 0 2.3 193.638 07:33 06.06.2019
6570 Clear 6 1013 87 0 2.13 197.704 06:49 06.06.2019
6571 Clear 7 1010 85 0 0.27 73.16 05:46 06.06.2019
6572 Clear 7 1009 82 0 0.27 73.16 04:38 06.06.2019
6573 Clouds 10 1010 84 0 1.79 20.054 02:24 06.06.2019
6574 Clouds 10 1016 50 0 1.79 20.054 01:56 06.06.2019
6575 Clouds 9 1011 77 0 1.79 20.054 01:18 06.06.2019
6576 Clouds 10 1010 79 0 1.8 19.801 00:31 06.06.2019
6577 Clouds 10 1010 88 0 2.83 4.787 23:42 05.06.2019
6578 Clouds 10 1010 89 0 2.83 4.787 23:23 05.06.2019
6579 Clouds 9 1009 83 0 2.83 4.787 22:44 05.06.2019
6580 Clouds 9 1009 87 0 2.83 4.787 22:23 05.06.2019
6581 Clouds 11 1008 74 0 2.83 4.787 21:59 05.06.2019
6582 Clouds 10 1008 91 0 2.83 4.787 21:41 05.06.2019
6583 Rain 14 1008 64 0 4.07 2.183 21:22 05.06.2019
6584 Rain 14 1007 67 0 4.07 2.183 20:44 05.06.2019
6585 Rain 15 1006 67 0 4.07 2.183 20:25 05.06.2019
6586 Rain 14 1006 67 0 4.07 2.183 19:44 05.06.2019
6587 Rain 15 1015 37 0 0.89 297 19:44 05.06.2019
6588 Rain 16 1015 37 0 1.34 224 19:19 05.06.2019
6589 Rain 15 1005 75 0 4.07 2.183 18:44 05.06.2019
6590 Rain 16 1004 73 0 2.58 339.122 18:25 05.06.2019
6591 Rain 15 1004 67 0 0.89 315 17:50 05.06.2019
6592 Rain 16 1003 57 0 2.58 339.122 17:23 05.06.2019
6593 Rain 15 1003 63 0 0.45 102 16:43 05.06.2019
6594 Rain 14 1006 82 0 2.58 339.122 16:20 05.06.2019
6595 Rain 13 1005 93 0 2.58 339.122 15:51 05.06.2019
6596 Rain 15 1002 79 0 0.45 140 15:28 05.06.2019
6597 Rain 14 1005 91 0 2.97 185.121 14:59 05.06.2019
6598 Rain 14 1005 91 0 2.97 185.121 14:39 05.06.2019
6599 Rain 14 1005 86 0 2.97 185.121 14:20 05.06.2019
6600 Rain 15 1004 60 0 2.97 185.121 13:45 05.06.2019
6601 Rain 15 1004 56 0 2.97 185.121 13:22 05.06.2019
6602 Rain 15 1004 57 0 3.4 179.544 12:50 05.06.2019
6603 Clear 17 1004 57 0 5.19 191.488 12:26 05.06.2019
6604 Clear 17 1003 54 0 5.19 191.488 11:57 05.06.2019
6605 Clear 18 999 38 0 0.45 155 11:38 05.06.2019
6606 Clear 18 1007 22 0 3.58 219 11:19 05.06.2019
6607 Clear 18 999 32 0 2.24 103 10:43 05.06.2019
6608 Clear 18 999 32 0 0.89 46 10:21 05.06.2019
6609 Clear 17 1000 31 0 0.45 121 09:42 05.06.2019
6610 Clouds 15 1000 30 0 0.89 152 09:23 05.06.2019
6611 Clouds 13 1004 40 0 3.73 170.242 08:26 05.06.2019
6612 Clouds 12 1004 41 0 3.73 170.242 07:42 05.06.2019
6613 Clouds 12 1005 40 0 2.92 166.163 06:56 05.06.2019
6614 Clouds 12 1005 40 0 2.7 160.013 06:24 05.06.2019
6615 Clouds 12 1005 40 0 2.7 160.013 05:50 05.06.2019
6616 Clouds 13 1008 58 0 2.7 160.013 03:32 05.06.2019
6617 Clouds 12 1010 44 0 2.49 156.293 01:33 05.06.2019
6618 Clouds 13 1010 46 0 2.22 140.158 00:50 05.06.2019
6619 Clouds 15 1010 40 0 1.91 127.846 00:22 05.06.2019
6620 Clouds 16 1006 36 0 0.45 33 23:46 04.06.2019
6621 Clouds 16 1011 43 0 1.91 127.846 23:24 04.06.2019
6622 Clouds 14 1011 41 0 1.94 128.287 22:57 04.06.2019
6623 Clouds 15 1011 47 0 1.94 128.287 22:37 04.06.2019
6624 Clouds 16 1011 52 0 1.94 128.287 22:18 04.06.2019
6625 Clouds 19 1011 45 0 1.94 128.287 21:44 04.06.2019
6626 Clear 21 1005 45 0 3.68 183.551 21:26 04.06.2019
6627 Clear 22 1005 41 0 3.68 183.551 20:57 04.06.2019
6628 Clear 23 1005 41 0 0.45 130 20:37 04.06.2019
6629 Clear 24 1005 41 0 0.45 195 20:18 04.06.2019
6630 Clear 25 1010 32 0 0.45 53 19:39 04.06.2019
6631 Clear 26 1008 62 0 0.89 292 19:21 04.06.2019
6632 Clear 26 1011 31 0 0.45 111 18:43 04.06.2019
6633 Clear 26 1005 32 0 1.79 323 18:23 04.06.2019
6634 Clear 26 1006 30 0 5.54 206.269 17:45 04.06.2019
6635 Clear 26 1006 26 0 0.89 101 17:26 04.06.2019
6636 Clear 27 1007 29 0 0.89 337 16:44 04.06.2019
6637 Clear 27 1007 31 0 0.89 85 16:20 04.06.2019
6638 Clear 27 1007 31 0 0.89 292 15:43 04.06.2019
6639 Clouds 27 1007 35 0 0.45 27 15:25 04.06.2019
6640 Clouds 27 1008 34 0 0.45 90 14:40 04.06.2019
6641 Clouds 26 1007 42 0 0.45 308 14:21 04.06.2019
6642 Clouds 27 1007 40 0 0.45 357 13:45 04.06.2019
6643 Clouds 26 1007 36 0 0.45 294 13:22 04.06.2019
6644 Clouds 25 1008 45 0 5.75 211.686 12:43 04.06.2019
6645 Clouds 24 1008 48 0 4.5 207.061 12:23 04.06.2019
6646 Clouds 25 1010 6 0 1.34 306 11:58 04.06.2019
6647 Clouds 25 1008 50 0 4.5 207.061 11:39 04.06.2019
6648 Clouds 23 1008 56 0 4.5 207.061 11:19 04.06.2019
6649 Clouds 21 1008 57 0 4.5 207.061 10:21 04.06.2019
6650 Clouds 20 1011 10 0 0.89 142 09:58 04.06.2019
6651 Clouds 19 1009 61 0 0.45 182 09:40 04.06.2019
6652 Clouds 17 1009 74 0 2.18 192.979 09:18 04.06.2019
6653 Clouds 16 1009 74 0 2.18 192.979 08:48 04.06.2019
6654 Clouds 16 1009 75 0 2.18 192.979 08:29 04.06.2019
6655 Clouds 14 1014 49 0 2.18 192.979 07:50 04.06.2019
6656 Clouds 15 1010 71 0 2.18 193.826 07:29 04.06.2019
6657 Clouds 13 1014 51 0 2.18 193.826 06:55 04.06.2019
6658 Clouds 13 1014 51 0 2.18 193.826 06:35 04.06.2019
6659 Clouds 12 1014 50 0 1.68 196.879 05:55 04.06.2019
6660 Clouds 13 1014 50 0 1.68 196.879 05:19 04.06.2019
6661 Clouds 14 1015 47 0 1.68 196.879 04:29 04.06.2019
6662 Clouds 14 1015 47 0 1.68 196.879 03:50 04.06.2019
6663 Clouds 14 1017 55 0 1.65 185.04 02:35 04.06.2019
6664 Clouds 15 1017 65 0 1.65 185.04 01:43 04.06.2019
6665 Clouds 16 1018 63 0 1.43 178.877 00:53 04.06.2019
6666 Clouds 16 1018 62 0 1.43 178.877 00:53 04.06.2019
6667 Clouds 16 1018 58 0 1.43 178.877 00:33 04.06.2019
6668 Clouds 16 1013 61 0 1.42 176.363 23:43 03.06.2019
6669 Clouds 17 1019 64 0 1.42 176.363 23:21 03.06.2019
6670 Clouds 16 1019 64 0 1.42 176.363 22:47 03.06.2019
6671 Clouds 16 1019 53 0 1.42 176.363 22:47 03.06.2019
6672 Clouds 18 1019 64 0 1.42 176.363 22:29 03.06.2019
6673 Clouds 17 1017 58 0 1.42 176.363 21:58 03.06.2019
6674 Clouds 21 1010 43 0 1.42 176.363 21:39 03.06.2019
6675 Clouds 21 1018 62 0 2.85 200.227 21:20 03.06.2019
6676 Clouds 22 1012 45 0 0.45 46 20:44 03.06.2019
6677 Clouds 23 1017 34 10000 4.1 230 20:23 03.06.2019
6678 Clouds 24 1017 34 10000 4.1 230 19:58 03.06.2019
6679 Clouds 24 1017 34 10000 4.1 230 19:40 03.06.2019
6680 Clouds 25 1017 33 10000 4.1 220 19:21 03.06.2019
6681 Clouds 25 1017 33 10000 4.1 220 18:55 03.06.2019
6682 Clouds 25 1017 33 10000 4.6 220 18:37 03.06.2019
6683 Clouds 26 1017 33 10000 4.6 220 18:18 03.06.2019
6684 Clouds 26 1017 34 10000 5.7 210 17:38 03.06.2019
6685 Clouds 26 1017 34 10000 5.7 210 17:20 03.06.2019
6686 Clouds 26 1017 36 10000 4.6 220 16:44 03.06.2019
6687 Clouds 26 1017 36 10000 4.6 220 16:19 03.06.2019
6688 Clouds 26 1018 44 10000 3.1 210 15:50 03.06.2019
6689 Clouds 25 1018 44 10000 1 0 15:28 03.06.2019
6690 Clouds 25 1018 50 10000 1.5 0 14:51 03.06.2019
6691 Clouds 25 1019 60 10000 1.5 40 14:28 03.06.2019
6692 Clouds 25 1019 60 10000 1.5 40 13:56 03.06.2019
6693 Clouds 24 1020 60 10000 1.5 240 13:37 03.06.2019
6694 Clouds 24 1020 60 10000 1.5 240 13:19 03.06.2019
6695 Clouds 23 1020 64 10000 1 0 12:39 03.06.2019
6696 Clouds 23 1020 64 10000 1 0 12:21 03.06.2019
6697 Clouds 22 1014 61 0 3.44 207.838 11:44 03.06.2019
6698 Clouds 22 1015 61 0 3.44 207.838 11:22 03.06.2019
6699 Clouds 21 1015 68 0 3.44 207.838 10:50 03.06.2019